<?xml version="1.0" encoding="UTF-8" standalone="no" ?>
<gpx xmlns="http://www.topografix.com/GPX/1/1" xmlns:xsi="http://www.w3.org/2001/XMLSchema-instance" xsi:schemaLocation="http://www.topografix.com/GPX/1/1 http://www.topografix.com/GPX/1/1/gpx.xsd" version="1.1" creator="VisuGPX - https://www.visugpx.com">
  <metadata>
    <name>TO - Bourg d'Oisans / Corps</name>
    <desc><![CDATA[Oisans Trièves - Itinéraires moyenne distance
Etape 1 : de Bourg d'Oisans à Corps par Laffrey, les corniches du Drac, La Mure]]></desc>
  </metadata>
  <wpt lat="45.05504" lon="6.03002">
    <ele>725</ele>
    <name><![CDATA[TO - Bourg d'Oisans / Corps]]></name>
    <type><![CDATA[Generic]]></type>
  </wpt>
  <trk>
    <name><![CDATA[TO - Bourg d'Oisans / Corps]]></name>
    <trkseg>
      <trkpt lat="45.05504" lon="6.03002">
        <ele>725</ele>
        <time>2017-12-18T10:37:00Z</time>
      </trkpt>
      <trkpt lat="45.05511" lon="6.02985">
        <ele>725</ele>
        <time>2017-12-18T10:37:15Z</time>
      </trkpt>
      <trkpt lat="45.0552" lon="6.02979">
        <ele>725</ele>
        <time>2017-12-18T10:37:31Z</time>
      </trkpt>
      <trkpt lat="45.05562" lon="6.02969">
        <ele>723</ele>
        <time>2017-12-18T10:37:50Z</time>
      </trkpt>
      <trkpt lat="45.05582" lon="6.02968">
        <ele>723</ele>
        <time>2017-12-18T10:38:03Z</time>
      </trkpt>
      <trkpt lat="45.05607" lon="6.02963">
        <ele>722</ele>
        <time>2017-12-18T10:38:21Z</time>
      </trkpt>
      <trkpt lat="45.05655" lon="6.02955">
        <ele>722</ele>
        <time>2017-12-18T10:38:38Z</time>
      </trkpt>
      <trkpt lat="45.0568" lon="6.02948">
        <ele>722</ele>
        <time>2017-12-18T10:38:58Z</time>
      </trkpt>
      <trkpt lat="45.05707" lon="6.02939">
        <ele>722</ele>
        <time>2017-12-18T10:39:11Z</time>
      </trkpt>
      <trkpt lat="45.0573" lon="6.02925">
        <ele>721</ele>
        <time>2017-12-18T10:39:13Z</time>
      </trkpt>
      <trkpt lat="45.05766" lon="6.02901">
        <ele>722</ele>
        <time>2017-12-18T10:39:16Z</time>
      </trkpt>
      <trkpt lat="45.05809" lon="6.0287">
        <ele>722</ele>
        <time>2017-12-18T10:39:22Z</time>
      </trkpt>
      <trkpt lat="45.05889" lon="6.02808">
        <ele>720</ele>
        <time>2017-12-18T10:39:33Z</time>
      </trkpt>
      <trkpt lat="45.06162" lon="6.02598">
        <ele>715</ele>
        <time>2017-12-18T10:39:38Z</time>
      </trkpt>
      <trkpt lat="45.06233" lon="6.02544">
        <ele>718</ele>
        <time>2017-12-18T10:39:57Z</time>
      </trkpt>
      <trkpt lat="45.06282" lon="6.02509">
        <ele>719</ele>
        <time>2017-12-18T10:40:00Z</time>
      </trkpt>
      <trkpt lat="45.0629" lon="6.02509">
        <ele>719</ele>
        <time>2017-12-18T10:40:15Z</time>
      </trkpt>
      <trkpt lat="45.06305" lon="6.02498">
        <ele>718</ele>
        <time>2017-12-18T10:40:23Z</time>
      </trkpt>
      <trkpt lat="45.06324" lon="6.02486">
        <ele>718</ele>
        <time>2017-12-18T10:40:37Z</time>
      </trkpt>
      <trkpt lat="45.06338" lon="6.02482">
        <ele>719</ele>
        <time>2017-12-18T10:40:47Z</time>
      </trkpt>
      <trkpt lat="45.06346" lon="6.02484">
        <ele>719</ele>
        <time>2017-12-18T10:41:07Z</time>
      </trkpt>
      <trkpt lat="45.06352" lon="6.02488">
        <ele>719</ele>
        <time>2017-12-18T10:41:16Z</time>
      </trkpt>
      <trkpt lat="45.06358" lon="6.02491">
        <ele>719</ele>
        <time>2017-12-18T10:41:23Z</time>
      </trkpt>
      <trkpt lat="45.06365" lon="6.02489">
        <ele>719</ele>
        <time>2017-12-18T10:41:25Z</time>
      </trkpt>
      <trkpt lat="45.06371" lon="6.02485">
        <ele>719</ele>
        <time>2017-12-18T10:41:43Z</time>
      </trkpt>
      <trkpt lat="45.06375" lon="6.02478">
        <ele>719</ele>
        <time>2017-12-18T10:41:49Z</time>
      </trkpt>
      <trkpt lat="45.06377" lon="6.0247">
        <ele>719</ele>
        <time>2017-12-18T10:41:54Z</time>
      </trkpt>
      <trkpt lat="45.06378" lon="6.02461">
        <ele>719</ele>
        <time>2017-12-18T10:42:10Z</time>
      </trkpt>
      <trkpt lat="45.06383" lon="6.02448">
        <ele>719</ele>
        <time>2017-12-18T10:42:26Z</time>
      </trkpt>
      <trkpt lat="45.06394" lon="6.02432">
        <ele>719</ele>
        <time>2017-12-18T10:42:29Z</time>
      </trkpt>
      <trkpt lat="45.06406" lon="6.02417">
        <ele>719</ele>
        <time>2017-12-18T10:42:40Z</time>
      </trkpt>
      <trkpt lat="45.06439" lon="6.0239">
        <ele>719</ele>
        <time>2017-12-18T10:42:44Z</time>
      </trkpt>
      <trkpt lat="45.06471" lon="6.02365">
        <ele>718</ele>
        <time>2017-12-18T10:42:52Z</time>
      </trkpt>
      <trkpt lat="45.06696" lon="6.02196">
        <ele>716</ele>
        <time>2017-12-18T10:43:06Z</time>
      </trkpt>
      <trkpt lat="45.06806" lon="6.02109">
        <ele>715</ele>
        <time>2017-12-18T10:43:15Z</time>
      </trkpt>
      <trkpt lat="45.06938" lon="6.02009">
        <ele>719</ele>
        <time>2017-12-18T10:43:20Z</time>
      </trkpt>
      <trkpt lat="45.07151" lon="6.01856">
        <ele>742</ele>
        <time>2017-12-18T10:43:23Z</time>
      </trkpt>
      <trkpt lat="45.07214" lon="6.01803">
        <ele>729</ele>
        <time>2017-12-18T10:43:36Z</time>
      </trkpt>
      <trkpt lat="45.0725" lon="6.01779">
        <ele>727</ele>
        <time>2017-12-18T10:43:53Z</time>
      </trkpt>
      <trkpt lat="45.07298" lon="6.01744">
        <ele>725</ele>
        <time>2017-12-18T10:43:59Z</time>
      </trkpt>
      <trkpt lat="45.07338" lon="6.01709">
        <ele>725</ele>
        <time>2017-12-18T10:44:06Z</time>
      </trkpt>
      <trkpt lat="45.07354" lon="6.01692">
        <ele>726</ele>
        <time>2017-12-18T10:44:24Z</time>
      </trkpt>
      <trkpt lat="45.07399" lon="6.01658">
        <ele>728</ele>
        <time>2017-12-18T10:44:35Z</time>
      </trkpt>
      <trkpt lat="45.07448" lon="6.0162">
        <ele>728</ele>
        <time>2017-12-18T10:44:41Z</time>
      </trkpt>
      <trkpt lat="45.0759" lon="6.01508">
        <ele>725</ele>
        <time>2017-12-18T10:44:43Z</time>
      </trkpt>
      <trkpt lat="45.07621" lon="6.01486">
        <ele>723</ele>
        <time>2017-12-18T10:44:52Z</time>
      </trkpt>
      <trkpt lat="45.07635" lon="6.0148">
        <ele>723</ele>
        <time>2017-12-18T10:45:11Z</time>
      </trkpt>
      <trkpt lat="45.07681" lon="6.01466">
        <ele>721</ele>
        <time>2017-12-18T10:45:21Z</time>
      </trkpt>
      <trkpt lat="45.07743" lon="6.01451">
        <ele>721</ele>
        <time>2017-12-18T10:45:31Z</time>
      </trkpt>
      <trkpt lat="45.08038" lon="6.01381">
        <ele>714</ele>
        <time>2017-12-18T10:45:40Z</time>
      </trkpt>
      <trkpt lat="45.08456" lon="6.01282">
        <ele>714</ele>
        <time>2017-12-18T10:46:00Z</time>
      </trkpt>
      <trkpt lat="45.08963" lon="6.01162">
        <ele>714</ele>
        <time>2017-12-18T10:46:05Z</time>
      </trkpt>
      <trkpt lat="45.09011" lon="6.01162">
        <ele>714</ele>
        <time>2017-12-18T10:46:22Z</time>
      </trkpt>
      <trkpt lat="45.0903" lon="6.01162">
        <ele>714</ele>
        <time>2017-12-18T10:46:28Z</time>
      </trkpt>
      <trkpt lat="45.09043" lon="6.01159">
        <ele>714</ele>
        <time>2017-12-18T10:46:35Z</time>
      </trkpt>
      <trkpt lat="45.0906" lon="6.01148">
        <ele>714</ele>
        <time>2017-12-18T10:46:41Z</time>
      </trkpt>
      <trkpt lat="45.09084" lon="6.01135">
        <ele>714</ele>
        <time>2017-12-18T10:46:57Z</time>
      </trkpt>
      <trkpt lat="45.09111" lon="6.01126">
        <ele>714</ele>
        <time>2017-12-18T10:47:15Z</time>
      </trkpt>
      <trkpt lat="45.09241" lon="6.01094">
        <ele>714</ele>
        <time>2017-12-18T10:47:28Z</time>
      </trkpt>
      <trkpt lat="45.09587" lon="6.01013">
        <ele>712</ele>
        <time>2017-12-18T10:47:37Z</time>
      </trkpt>
      <trkpt lat="45.09691" lon="6.0099">
        <ele>712</ele>
        <time>2017-12-18T10:47:52Z</time>
      </trkpt>
      <trkpt lat="45.09697" lon="6.00991">
        <ele>712</ele>
        <time>2017-12-18T10:48:08Z</time>
      </trkpt>
      <trkpt lat="45.0972" lon="6.00984">
        <ele>712</ele>
        <time>2017-12-18T10:48:14Z</time>
      </trkpt>
      <trkpt lat="45.09759" lon="6.00961">
        <ele>713</ele>
        <time>2017-12-18T10:48:21Z</time>
      </trkpt>
      <trkpt lat="45.09771" lon="6.00959">
        <ele>713</ele>
        <time>2017-12-18T10:48:25Z</time>
      </trkpt>
      <trkpt lat="45.09784" lon="6.00961">
        <ele>713</ele>
        <time>2017-12-18T10:48:37Z</time>
      </trkpt>
      <trkpt lat="45.09796" lon="6.00963">
        <ele>713</ele>
        <time>2017-12-18T10:48:41Z</time>
      </trkpt>
      <trkpt lat="45.09814" lon="6.00961">
        <ele>713</ele>
        <time>2017-12-18T10:48:56Z</time>
      </trkpt>
      <trkpt lat="45.09835" lon="6.00957">
        <ele>714</ele>
        <time>2017-12-18T10:49:13Z</time>
      </trkpt>
      <trkpt lat="45.09911" lon="6.00939">
        <ele>714</ele>
        <time>2017-12-18T10:49:31Z</time>
      </trkpt>
      <trkpt lat="45.10291" lon="6.00848">
        <ele>712</ele>
        <time>2017-12-18T10:49:46Z</time>
      </trkpt>
      <trkpt lat="45.10765" lon="6.00737">
        <ele>710</ele>
        <time>2017-12-18T10:50:06Z</time>
      </trkpt>
      <trkpt lat="45.11004" lon="6.0068">
        <ele>712</ele>
        <time>2017-12-18T10:50:25Z</time>
      </trkpt>
      <trkpt lat="45.11242" lon="6.00621">
        <ele>714</ele>
        <time>2017-12-18T10:50:42Z</time>
      </trkpt>
      <trkpt lat="45.11341" lon="6.00599">
        <ele>719</ele>
        <time>2017-12-18T10:50:52Z</time>
      </trkpt>
      <trkpt lat="45.11387" lon="6.00584">
        <ele>715</ele>
        <time>2017-12-18T10:50:58Z</time>
      </trkpt>
      <trkpt lat="45.11401" lon="6.00577">
        <ele>719</ele>
        <time>2017-12-18T10:51:12Z</time>
      </trkpt>
      <trkpt lat="45.11418" lon="6.00564">
        <ele>713</ele>
        <time>2017-12-18T10:51:17Z</time>
      </trkpt>
      <trkpt lat="45.11427" lon="6.00555">
        <ele>713</ele>
        <time>2017-12-18T10:51:34Z</time>
      </trkpt>
      <trkpt lat="45.11449" lon="6.00515">
        <ele>714</ele>
        <time>2017-12-18T10:51:39Z</time>
      </trkpt>
      <trkpt lat="45.1146" lon="6.00474">
        <ele>717</ele>
        <time>2017-12-18T10:51:50Z</time>
      </trkpt>
      <trkpt lat="45.11463" lon="6.0044">
        <ele>718</ele>
        <time>2017-12-18T10:51:54Z</time>
      </trkpt>
      <trkpt lat="45.11463" lon="6.00367">
        <ele>723</ele>
        <time>2017-12-18T10:52:14Z</time>
      </trkpt>
      <trkpt lat="45.11465" lon="6.0031">
        <ele>729</ele>
        <time>2017-12-18T10:52:18Z</time>
      </trkpt>
      <trkpt lat="45.11547" lon="5.99622">
        <ele>723</ele>
        <time>2017-12-18T10:52:34Z</time>
      </trkpt>
      <trkpt lat="45.11739" lon="5.9797">
        <ele>716</ele>
        <time>2017-12-18T10:52:39Z</time>
      </trkpt>
      <trkpt lat="45.11807" lon="5.97386">
        <ele>723</ele>
        <time>2017-12-18T10:52:42Z</time>
      </trkpt>
      <trkpt lat="45.11815" lon="5.97305">
        <ele>727</ele>
        <time>2017-12-18T10:52:58Z</time>
      </trkpt>
      <trkpt lat="45.11816" lon="5.9725">
        <ele>723</ele>
        <time>2017-12-18T10:53:04Z</time>
      </trkpt>
      <trkpt lat="45.11809" lon="5.97192">
        <ele>724</ele>
        <time>2017-12-18T10:53:17Z</time>
      </trkpt>
      <trkpt lat="45.11791" lon="5.97119">
        <ele>721</ele>
        <time>2017-12-18T10:53:33Z</time>
      </trkpt>
      <trkpt lat="45.11744" lon="5.97016">
        <ele>721</ele>
        <time>2017-12-18T10:53:53Z</time>
      </trkpt>
      <trkpt lat="45.11682" lon="5.96899">
        <ele>718</ele>
        <time>2017-12-18T10:54:00Z</time>
      </trkpt>
      <trkpt lat="45.11666" lon="5.96865">
        <ele>729</ele>
        <time>2017-12-18T10:54:05Z</time>
      </trkpt>
      <trkpt lat="45.11651" lon="5.96823">
        <ele>729</ele>
        <time>2017-12-18T10:54:12Z</time>
      </trkpt>
      <trkpt lat="45.11645" lon="5.96778">
        <ele>733</ele>
        <time>2017-12-18T10:54:27Z</time>
      </trkpt>
      <trkpt lat="45.11648" lon="5.96599">
        <ele>726</ele>
        <time>2017-12-18T10:54:32Z</time>
      </trkpt>
      <trkpt lat="45.1165" lon="5.96436">
        <ele>725</ele>
        <time>2017-12-18T10:54:34Z</time>
      </trkpt>
      <trkpt lat="45.1165" lon="5.96338">
        <ele>722</ele>
        <time>2017-12-18T10:54:37Z</time>
      </trkpt>
      <trkpt lat="45.11645" lon="5.96294">
        <ele>720</ele>
        <time>2017-12-18T10:54:54Z</time>
      </trkpt>
      <trkpt lat="45.1163" lon="5.96251">
        <ele>719</ele>
        <time>2017-12-18T10:55:13Z</time>
      </trkpt>
      <trkpt lat="45.11613" lon="5.9622">
        <ele>717</ele>
        <time>2017-12-18T10:55:33Z</time>
      </trkpt>
      <trkpt lat="45.11592" lon="5.96191">
        <ele>717</ele>
        <time>2017-12-18T10:55:37Z</time>
      </trkpt>
      <trkpt lat="45.1154" lon="5.96117">
        <ele>714</ele>
        <time>2017-12-18T10:55:51Z</time>
      </trkpt>
      <trkpt lat="45.11492" lon="5.96048">
        <ele>712</ele>
        <time>2017-12-18T10:56:03Z</time>
      </trkpt>
      <trkpt lat="45.1142" lon="5.95956">
        <ele>712</ele>
        <time>2017-12-18T10:56:15Z</time>
      </trkpt>
      <trkpt lat="45.11387" lon="5.95911">
        <ele>715</ele>
        <time>2017-12-18T10:56:19Z</time>
      </trkpt>
      <trkpt lat="45.1138" lon="5.95881">
        <ele>715</ele>
        <time>2017-12-18T10:56:39Z</time>
      </trkpt>
      <trkpt lat="45.11381" lon="5.9586">
        <ele>715</ele>
        <time>2017-12-18T10:56:45Z</time>
      </trkpt>
      <trkpt lat="45.11386" lon="5.95844">
        <ele>714</ele>
        <time>2017-12-18T10:56:57Z</time>
      </trkpt>
      <trkpt lat="45.11399" lon="5.95827">
        <ele>712</ele>
        <time>2017-12-18T10:57:07Z</time>
      </trkpt>
      <trkpt lat="45.11413" lon="5.95808">
        <ele>712</ele>
        <time>2017-12-18T10:57:27Z</time>
      </trkpt>
      <trkpt lat="45.11419" lon="5.95789">
        <ele>718</ele>
        <time>2017-12-18T10:57:46Z</time>
      </trkpt>
      <trkpt lat="45.1142" lon="5.95772">
        <ele>718</ele>
        <time>2017-12-18T10:57:51Z</time>
      </trkpt>
      <trkpt lat="45.11415" lon="5.9575">
        <ele>717</ele>
        <time>2017-12-18T10:58:09Z</time>
      </trkpt>
      <trkpt lat="45.11397" lon="5.95716">
        <ele>716</ele>
        <time>2017-12-18T10:58:20Z</time>
      </trkpt>
      <trkpt lat="45.11374" lon="5.95676">
        <ele>716</ele>
        <time>2017-12-18T10:58:29Z</time>
      </trkpt>
      <trkpt lat="45.11366" lon="5.95651">
        <ele>717</ele>
        <time>2017-12-18T10:58:37Z</time>
      </trkpt>
      <trkpt lat="45.1136" lon="5.95618">
        <ele>716</ele>
        <time>2017-12-18T10:58:49Z</time>
      </trkpt>
      <trkpt lat="45.1135" lon="5.95493">
        <ele>714</ele>
        <time>2017-12-18T10:59:06Z</time>
      </trkpt>
      <trkpt lat="45.11345" lon="5.95293">
        <ele>713</ele>
        <time>2017-12-18T10:59:08Z</time>
      </trkpt>
      <trkpt lat="45.11328" lon="5.95087">
        <ele>703</ele>
        <time>2017-12-18T10:59:18Z</time>
      </trkpt>
      <trkpt lat="45.11316" lon="5.95">
        <ele>700</ele>
        <time>2017-12-18T10:59:37Z</time>
      </trkpt>
      <trkpt lat="45.11303" lon="5.94936">
        <ele>697</ele>
        <time>2017-12-18T10:59:41Z</time>
      </trkpt>
      <trkpt lat="45.11289" lon="5.94886">
        <ele>700</ele>
        <time>2017-12-18T10:59:53Z</time>
      </trkpt>
      <trkpt lat="45.11257" lon="5.94801">
        <ele>710</ele>
        <time>2017-12-18T11:00:05Z</time>
      </trkpt>
      <trkpt lat="45.1124" lon="5.94767">
        <ele>698</ele>
        <time>2017-12-18T11:00:24Z</time>
      </trkpt>
      <trkpt lat="45.11197" lon="5.94694">
        <ele>700</ele>
        <time>2017-12-18T11:00:32Z</time>
      </trkpt>
      <trkpt lat="45.11112" lon="5.94564">
        <ele>690</ele>
        <time>2017-12-18T11:00:44Z</time>
      </trkpt>
      <trkpt lat="45.11064" lon="5.94486">
        <ele>683</ele>
        <time>2017-12-18T11:00:47Z</time>
      </trkpt>
      <trkpt lat="45.11045" lon="5.94446">
        <ele>687</ele>
        <time>2017-12-18T11:01:04Z</time>
      </trkpt>
      <trkpt lat="45.11024" lon="5.94391">
        <ele>699</ele>
        <time>2017-12-18T11:01:18Z</time>
      </trkpt>
      <trkpt lat="45.11007" lon="5.94333">
        <ele>694</ele>
        <time>2017-12-18T11:01:22Z</time>
      </trkpt>
      <trkpt lat="45.10962" lon="5.94192">
        <ele>680</ele>
        <time>2017-12-18T11:01:38Z</time>
      </trkpt>
      <trkpt lat="45.10887" lon="5.93963">
        <ele>667</ele>
        <time>2017-12-18T11:01:48Z</time>
      </trkpt>
      <trkpt lat="45.10895" lon="5.93955">
        <ele>667</ele>
        <time>2017-12-18T11:02:04Z</time>
      </trkpt>
      <trkpt lat="45.10899" lon="5.93946">
        <ele>668</ele>
        <time>2017-12-18T11:02:24Z</time>
      </trkpt>
      <trkpt lat="45.10902" lon="5.93924">
        <ele>669</ele>
        <time>2017-12-18T11:02:35Z</time>
      </trkpt>
      <trkpt lat="45.10903" lon="5.93913">
        <ele>669</ele>
        <time>2017-12-18T11:02:53Z</time>
      </trkpt>
      <trkpt lat="45.10896" lon="5.93895">
        <ele>669</ele>
        <time>2017-12-18T11:03:13Z</time>
      </trkpt>
      <trkpt lat="45.10883" lon="5.9388">
        <ele>668</ele>
        <time>2017-12-18T11:03:27Z</time>
      </trkpt>
      <trkpt lat="45.10872" lon="5.93871">
        <ele>667</ele>
        <time>2017-12-18T11:03:45Z</time>
      </trkpt>
      <trkpt lat="45.1086" lon="5.93849">
        <ele>667</ele>
        <time>2017-12-18T11:03:55Z</time>
      </trkpt>
      <trkpt lat="45.10845" lon="5.93813">
        <ele>667</ele>
        <time>2017-12-18T11:03:59Z</time>
      </trkpt>
      <trkpt lat="45.10835" lon="5.93783">
        <ele>666</ele>
        <time>2017-12-18T11:04:13Z</time>
      </trkpt>
      <trkpt lat="45.10826" lon="5.93726">
        <ele>659</ele>
        <time>2017-12-18T11:04:20Z</time>
      </trkpt>
      <trkpt lat="45.10814" lon="5.93613">
        <ele>659</ele>
        <time>2017-12-18T11:04:33Z</time>
      </trkpt>
      <trkpt lat="45.10801" lon="5.93462">
        <ele>656</ele>
        <time>2017-12-18T11:04:43Z</time>
      </trkpt>
      <trkpt lat="45.10794" lon="5.9339">
        <ele>653</ele>
        <time>2017-12-18T11:04:58Z</time>
      </trkpt>
      <trkpt lat="45.10787" lon="5.93358">
        <ele>653</ele>
        <time>2017-12-18T11:05:05Z</time>
      </trkpt>
      <trkpt lat="45.10776" lon="5.93332">
        <ele>651</ele>
        <time>2017-12-18T11:05:18Z</time>
      </trkpt>
      <trkpt lat="45.10766" lon="5.93322">
        <ele>650</ele>
        <time>2017-12-18T11:05:22Z</time>
      </trkpt>
      <trkpt lat="45.10745" lon="5.93314">
        <ele>649</ele>
        <time>2017-12-18T11:05:37Z</time>
      </trkpt>
      <trkpt lat="45.10718" lon="5.93307">
        <ele>650</ele>
        <time>2017-12-18T11:05:55Z</time>
      </trkpt>
      <trkpt lat="45.10695" lon="5.933">
        <ele>651</ele>
        <time>2017-12-18T11:05:58Z</time>
      </trkpt>
      <trkpt lat="45.10686" lon="5.93299">
        <ele>651</ele>
        <time>2017-12-18T11:06:18Z</time>
      </trkpt>
      <trkpt lat="45.1068" lon="5.93292">
        <ele>651</ele>
        <time>2017-12-18T11:06:35Z</time>
      </trkpt>
      <trkpt lat="45.10675" lon="5.93282">
        <ele>651</ele>
        <time>2017-12-18T11:06:48Z</time>
      </trkpt>
      <trkpt lat="45.10672" lon="5.9327">
        <ele>652</ele>
        <time>2017-12-18T11:07:06Z</time>
      </trkpt>
      <trkpt lat="45.10668" lon="5.93242">
        <ele>652</ele>
        <time>2017-12-18T11:07:26Z</time>
      </trkpt>
      <trkpt lat="45.10669" lon="5.93211">
        <ele>649</ele>
        <time>2017-12-18T11:07:43Z</time>
      </trkpt>
      <trkpt lat="45.10667" lon="5.93179">
        <ele>648</ele>
        <time>2017-12-18T11:07:51Z</time>
      </trkpt>
      <trkpt lat="45.10638" lon="5.93076">
        <ele>649</ele>
        <time>2017-12-18T11:08:06Z</time>
      </trkpt>
      <trkpt lat="45.10633" lon="5.93059">
        <ele>650</ele>
        <time>2017-12-18T11:08:22Z</time>
      </trkpt>
      <trkpt lat="45.10625" lon="5.93053">
        <ele>651</ele>
        <time>2017-12-18T11:08:42Z</time>
      </trkpt>
      <trkpt lat="45.10615" lon="5.9304">
        <ele>651</ele>
        <time>2017-12-18T11:08:44Z</time>
      </trkpt>
      <trkpt lat="45.10582" lon="5.92967">
        <ele>660</ele>
        <time>2017-12-18T11:08:47Z</time>
      </trkpt>
      <trkpt lat="45.10615" lon="5.9304">
        <ele>651</ele>
        <time>2017-12-18T11:09:07Z</time>
      </trkpt>
      <trkpt lat="45.10625" lon="5.93053">
        <ele>651</ele>
        <time>2017-12-18T11:09:15Z</time>
      </trkpt>
      <trkpt lat="45.10633" lon="5.93058">
        <ele>650</ele>
        <time>2017-12-18T11:09:19Z</time>
      </trkpt>
      <trkpt lat="45.10581" lon="5.92866">
        <ele>647</ele>
        <time>2017-12-18T11:09:32Z</time>
      </trkpt>
      <trkpt lat="45.10496" lon="5.92589">
        <ele>638</ele>
        <time>2017-12-18T11:09:47Z</time>
      </trkpt>
      <trkpt lat="45.10458" lon="5.92583">
        <ele>641</ele>
        <time>2017-12-18T11:09:56Z</time>
      </trkpt>
      <trkpt lat="45.10448" lon="5.92451">
        <ele>637</ele>
        <time>2017-12-18T11:10:13Z</time>
      </trkpt>
      <trkpt lat="45.10443" lon="5.92419">
        <ele>638</ele>
        <time>2017-12-18T11:10:16Z</time>
      </trkpt>
      <trkpt lat="45.10428" lon="5.92361">
        <ele>635</ele>
        <time>2017-12-18T11:10:31Z</time>
      </trkpt>
      <trkpt lat="45.10422" lon="5.9234">
        <ele>636</ele>
        <time>2017-12-18T11:10:42Z</time>
      </trkpt>
      <trkpt lat="45.10415" lon="5.92329">
        <ele>639</ele>
        <time>2017-12-18T11:11:02Z</time>
      </trkpt>
      <trkpt lat="45.10369" lon="5.92179">
        <ele>632</ele>
        <time>2017-12-18T11:11:07Z</time>
      </trkpt>
      <trkpt lat="45.10329" lon="5.92047">
        <ele>621</ele>
        <time>2017-12-18T11:11:22Z</time>
      </trkpt>
      <trkpt lat="45.10316" lon="5.92011">
        <ele>619</ele>
        <time>2017-12-18T11:11:34Z</time>
      </trkpt>
      <trkpt lat="45.10302" lon="5.91984">
        <ele>615</ele>
        <time>2017-12-18T11:11:54Z</time>
      </trkpt>
      <trkpt lat="45.10287" lon="5.91963">
        <ele>614</ele>
        <time>2017-12-18T11:12:07Z</time>
      </trkpt>
      <trkpt lat="45.10271" lon="5.91946">
        <ele>613</ele>
        <time>2017-12-18T11:12:25Z</time>
      </trkpt>
      <trkpt lat="45.10121" lon="5.91818">
        <ele>603</ele>
        <time>2017-12-18T11:12:31Z</time>
      </trkpt>
      <trkpt lat="45.09864" lon="5.91604">
        <ele>599</ele>
        <time>2017-12-18T11:12:47Z</time>
      </trkpt>
      <trkpt lat="45.09836" lon="5.91574">
        <ele>593</ele>
        <time>2017-12-18T11:12:56Z</time>
      </trkpt>
      <trkpt lat="45.09823" lon="5.91556">
        <ele>605</ele>
        <time>2017-12-18T11:13:13Z</time>
      </trkpt>
      <trkpt lat="45.098" lon="5.91513">
        <ele>606</ele>
        <time>2017-12-18T11:13:33Z</time>
      </trkpt>
      <trkpt lat="45.09771" lon="5.91444">
        <ele>599</ele>
        <time>2017-12-18T11:13:39Z</time>
      </trkpt>
      <trkpt lat="45.09747" lon="5.91392">
        <ele>609</ele>
        <time>2017-12-18T11:13:56Z</time>
      </trkpt>
      <trkpt lat="45.09708" lon="5.91301">
        <ele>603</ele>
        <time>2017-12-18T11:14:11Z</time>
      </trkpt>
      <trkpt lat="45.09699" lon="5.91276">
        <ele>604</ele>
        <time>2017-12-18T11:14:22Z</time>
      </trkpt>
      <trkpt lat="45.09693" lon="5.91249">
        <ele>601</ele>
        <time>2017-12-18T11:14:39Z</time>
      </trkpt>
      <trkpt lat="45.09684" lon="5.9121">
        <ele>598</ele>
        <time>2017-12-18T11:14:43Z</time>
      </trkpt>
      <trkpt lat="45.09679" lon="5.91182">
        <ele>596</ele>
        <time>2017-12-18T11:14:49Z</time>
      </trkpt>
      <trkpt lat="45.09669" lon="5.91094">
        <ele>589</ele>
        <time>2017-12-18T11:14:59Z</time>
      </trkpt>
      <trkpt lat="45.09655" lon="5.90968">
        <ele>595</ele>
        <time>2017-12-18T11:15:11Z</time>
      </trkpt>
      <trkpt lat="45.09645" lon="5.90914">
        <ele>583</ele>
        <time>2017-12-18T11:15:16Z</time>
      </trkpt>
      <trkpt lat="45.09635" lon="5.90877">
        <ele>585</ele>
        <time>2017-12-18T11:15:18Z</time>
      </trkpt>
      <trkpt lat="45.0962" lon="5.90837">
        <ele>585</ele>
        <time>2017-12-18T11:15:25Z</time>
      </trkpt>
      <trkpt lat="45.09555" lon="5.90677">
        <ele>581</ele>
        <time>2017-12-18T11:15:34Z</time>
      </trkpt>
      <trkpt lat="45.09524" lon="5.90614">
        <ele>578</ele>
        <time>2017-12-18T11:15:40Z</time>
      </trkpt>
      <trkpt lat="45.09497" lon="5.90577">
        <ele>579</ele>
        <time>2017-12-18T11:15:58Z</time>
      </trkpt>
      <trkpt lat="45.09487" lon="5.90567">
        <ele>578</ele>
        <time>2017-12-18T11:16:07Z</time>
      </trkpt>
      <trkpt lat="45.09435" lon="5.90524">
        <ele>577</ele>
        <time>2017-12-18T11:16:22Z</time>
      </trkpt>
      <trkpt lat="45.09385" lon="5.90485">
        <ele>575</ele>
        <time>2017-12-18T11:16:32Z</time>
      </trkpt>
      <trkpt lat="45.09345" lon="5.90454">
        <ele>574</ele>
        <time>2017-12-18T11:16:48Z</time>
      </trkpt>
      <trkpt lat="45.0927" lon="5.90396">
        <ele>571</ele>
        <time>2017-12-18T11:17:08Z</time>
      </trkpt>
      <trkpt lat="45.09207" lon="5.90348">
        <ele>568</ele>
        <time>2017-12-18T11:17:26Z</time>
      </trkpt>
      <trkpt lat="45.09113" lon="5.9027">
        <ele>563</ele>
        <time>2017-12-18T11:17:33Z</time>
      </trkpt>
      <trkpt lat="45.09085" lon="5.90249">
        <ele>561</ele>
        <time>2017-12-18T11:17:53Z</time>
      </trkpt>
      <trkpt lat="45.09081" lon="5.90242">
        <ele>559</ele>
        <time>2017-12-18T11:18:13Z</time>
      </trkpt>
      <trkpt lat="45.09064" lon="5.90227">
        <ele>557</ele>
        <time>2017-12-18T11:18:21Z</time>
      </trkpt>
      <trkpt lat="45.09031" lon="5.902">
        <ele>554</ele>
        <time>2017-12-18T11:18:35Z</time>
      </trkpt>
      <trkpt lat="45.09021" lon="5.90194">
        <ele>554</ele>
        <time>2017-12-18T11:18:46Z</time>
      </trkpt>
      <trkpt lat="45.08999" lon="5.90186">
        <ele>553</ele>
        <time>2017-12-18T11:18:49Z</time>
      </trkpt>
      <trkpt lat="45.08969" lon="5.90182">
        <ele>555</ele>
        <time>2017-12-18T11:19:05Z</time>
      </trkpt>
      <trkpt lat="45.08955" lon="5.9018">
        <ele>555</ele>
        <time>2017-12-18T11:19:08Z</time>
      </trkpt>
      <trkpt lat="45.08949" lon="5.90181">
        <ele>555</ele>
        <time>2017-12-18T11:19:11Z</time>
      </trkpt>
      <trkpt lat="45.08823" lon="5.90157">
        <ele>548</ele>
        <time>2017-12-18T11:19:30Z</time>
      </trkpt>
      <trkpt lat="45.08758" lon="5.90139">
        <ele>549</ele>
        <time>2017-12-18T11:19:37Z</time>
      </trkpt>
      <trkpt lat="45.08565" lon="5.90058">
        <ele>541</ele>
        <time>2017-12-18T11:19:47Z</time>
      </trkpt>
      <trkpt lat="45.08533" lon="5.90042">
        <ele>541</ele>
        <time>2017-12-18T11:20:01Z</time>
      </trkpt>
      <trkpt lat="45.08495" lon="5.90015">
        <ele>546</ele>
        <time>2017-12-18T11:20:11Z</time>
      </trkpt>
      <trkpt lat="45.0839" lon="5.89915">
        <ele>537</ele>
        <time>2017-12-18T11:20:20Z</time>
      </trkpt>
      <trkpt lat="45.08374" lon="5.89898">
        <ele>539</ele>
        <time>2017-12-18T11:20:24Z</time>
      </trkpt>
      <trkpt lat="45.08329" lon="5.89848">
        <ele>545</ele>
        <time>2017-12-18T11:20:41Z</time>
      </trkpt>
      <trkpt lat="45.08285" lon="5.89794">
        <ele>537</ele>
        <time>2017-12-18T11:20:48Z</time>
      </trkpt>
      <trkpt lat="45.08273" lon="5.89775">
        <ele>537</ele>
        <time>2017-12-18T11:21:04Z</time>
      </trkpt>
      <trkpt lat="45.08253" lon="5.8973">
        <ele>529</ele>
        <time>2017-12-18T11:21:12Z</time>
      </trkpt>
      <trkpt lat="45.08231" lon="5.89676">
        <ele>543</ele>
        <time>2017-12-18T11:21:14Z</time>
      </trkpt>
      <trkpt lat="45.08225" lon="5.89652">
        <ele>542</ele>
        <time>2017-12-18T11:21:29Z</time>
      </trkpt>
      <trkpt lat="45.08223" lon="5.89631">
        <ele>543</ele>
        <time>2017-12-18T11:21:39Z</time>
      </trkpt>
      <trkpt lat="45.08228" lon="5.89586">
        <ele>537</ele>
        <time>2017-12-18T11:21:55Z</time>
      </trkpt>
      <trkpt lat="45.08231" lon="5.8956">
        <ele>534</ele>
        <time>2017-12-18T11:22:07Z</time>
      </trkpt>
      <trkpt lat="45.08232" lon="5.89539">
        <ele>534</ele>
        <time>2017-12-18T11:22:22Z</time>
      </trkpt>
      <trkpt lat="45.08229" lon="5.89517">
        <ele>531</ele>
        <time>2017-12-18T11:22:35Z</time>
      </trkpt>
      <trkpt lat="45.08222" lon="5.89497">
        <ele>524</ele>
        <time>2017-12-18T11:22:55Z</time>
      </trkpt>
      <trkpt lat="45.08195" lon="5.89439">
        <ele>526</ele>
        <time>2017-12-18T11:23:01Z</time>
      </trkpt>
      <trkpt lat="45.08178" lon="5.89413">
        <ele>523</ele>
        <time>2017-12-18T11:23:05Z</time>
      </trkpt>
      <trkpt lat="45.08113" lon="5.89333">
        <ele>520</ele>
        <time>2017-12-18T11:23:13Z</time>
      </trkpt>
      <trkpt lat="45.08077" lon="5.89286">
        <ele>531</ele>
        <time>2017-12-18T11:23:20Z</time>
      </trkpt>
      <trkpt lat="45.08047" lon="5.89238">
        <ele>518</ele>
        <time>2017-12-18T11:23:38Z</time>
      </trkpt>
      <trkpt lat="45.07985" lon="5.89133">
        <ele>526</ele>
        <time>2017-12-18T11:23:57Z</time>
      </trkpt>
      <trkpt lat="45.0793" lon="5.89036">
        <ele>514</ele>
        <time>2017-12-18T11:24:13Z</time>
      </trkpt>
      <trkpt lat="45.07917" lon="5.89009">
        <ele>512</ele>
        <time>2017-12-18T11:24:20Z</time>
      </trkpt>
      <trkpt lat="45.07869" lon="5.88873">
        <ele>517</ele>
        <time>2017-12-18T11:24:34Z</time>
      </trkpt>
      <trkpt lat="45.07843" lon="5.88801">
        <ele>506</ele>
        <time>2017-12-18T11:24:50Z</time>
      </trkpt>
      <trkpt lat="45.07817" lon="5.88747">
        <ele>510</ele>
        <time>2017-12-18T11:24:54Z</time>
      </trkpt>
      <trkpt lat="45.07782" lon="5.88683">
        <ele>510</ele>
        <time>2017-12-18T11:24:58Z</time>
      </trkpt>
      <trkpt lat="45.07699" lon="5.88552">
        <ele>510</ele>
        <time>2017-12-18T11:25:14Z</time>
      </trkpt>
      <trkpt lat="45.07672" lon="5.88508">
        <ele>506</ele>
        <time>2017-12-18T11:25:34Z</time>
      </trkpt>
      <trkpt lat="45.0767" lon="5.885">
        <ele>504</ele>
        <time>2017-12-18T11:25:47Z</time>
      </trkpt>
      <trkpt lat="45.07668" lon="5.88497">
        <ele>504</ele>
        <time>2017-12-18T11:26:04Z</time>
      </trkpt>
      <trkpt lat="45.07649" lon="5.88467">
        <ele>510</ele>
        <time>2017-12-18T11:26:13Z</time>
      </trkpt>
      <trkpt lat="45.0763" lon="5.88433">
        <ele>509</ele>
        <time>2017-12-18T11:26:18Z</time>
      </trkpt>
      <trkpt lat="45.07614" lon="5.88393">
        <ele>499</ele>
        <time>2017-12-18T11:26:29Z</time>
      </trkpt>
      <trkpt lat="45.07596" lon="5.88333">
        <ele>493</ele>
        <time>2017-12-18T11:26:31Z</time>
      </trkpt>
      <trkpt lat="45.07585" lon="5.8826">
        <ele>491</ele>
        <time>2017-12-18T11:26:46Z</time>
      </trkpt>
      <trkpt lat="45.07583" lon="5.88232">
        <ele>505</ele>
        <time>2017-12-18T11:26:51Z</time>
      </trkpt>
      <trkpt lat="45.07583" lon="5.88188">
        <ele>503</ele>
        <time>2017-12-18T11:27:08Z</time>
      </trkpt>
      <trkpt lat="45.07584" lon="5.88159">
        <ele>484</ele>
        <time>2017-12-18T11:27:23Z</time>
      </trkpt>
      <trkpt lat="45.07581" lon="5.88126">
        <ele>499</ele>
        <time>2017-12-18T11:27:26Z</time>
      </trkpt>
      <trkpt lat="45.07578" lon="5.88101">
        <ele>494</ele>
        <time>2017-12-18T11:27:31Z</time>
      </trkpt>
      <trkpt lat="45.07566" lon="5.88037">
        <ele>490</ele>
        <time>2017-12-18T11:27:39Z</time>
      </trkpt>
      <trkpt lat="45.07536" lon="5.87878">
        <ele>475</ele>
        <time>2017-12-18T11:27:57Z</time>
      </trkpt>
      <trkpt lat="45.07532" lon="5.87866">
        <ele>475</ele>
        <time>2017-12-18T11:28:04Z</time>
      </trkpt>
      <trkpt lat="45.07519" lon="5.87836">
        <ele>477</ele>
        <time>2017-12-18T11:28:13Z</time>
      </trkpt>
      <trkpt lat="45.075" lon="5.87802">
        <ele>471</ele>
        <time>2017-12-18T11:28:26Z</time>
      </trkpt>
      <trkpt lat="45.0748" lon="5.87776">
        <ele>479</ele>
        <time>2017-12-18T11:28:30Z</time>
      </trkpt>
      <trkpt lat="45.07463" lon="5.87759">
        <ele>479</ele>
        <time>2017-12-18T11:28:35Z</time>
      </trkpt>
      <trkpt lat="45.07258" lon="5.87575">
        <ele>470</ele>
        <time>2017-12-18T11:28:42Z</time>
      </trkpt>
      <trkpt lat="45.07235" lon="5.87559">
        <ele>470</ele>
        <time>2017-12-18T11:28:52Z</time>
      </trkpt>
      <trkpt lat="45.0721" lon="5.87549">
        <ele>470</ele>
        <time>2017-12-18T11:29:07Z</time>
      </trkpt>
      <trkpt lat="45.07203" lon="5.87541">
        <ele>470</ele>
        <time>2017-12-18T11:29:16Z</time>
      </trkpt>
      <trkpt lat="45.07192" lon="5.87526">
        <ele>468</ele>
        <time>2017-12-18T11:29:30Z</time>
      </trkpt>
      <trkpt lat="45.07192" lon="5.87521">
        <ele>468</ele>
        <time>2017-12-18T11:29:39Z</time>
      </trkpt>
      <trkpt lat="45.0719" lon="5.87513">
        <ele>467</ele>
        <time>2017-12-18T11:29:48Z</time>
      </trkpt>
      <trkpt lat="45.07188" lon="5.87509">
        <ele>467</ele>
        <time>2017-12-18T11:30:06Z</time>
      </trkpt>
      <trkpt lat="45.07183" lon="5.87496">
        <ele>463</ele>
        <time>2017-12-18T11:30:23Z</time>
      </trkpt>
      <trkpt lat="45.07181" lon="5.8742">
        <ele>463</ele>
        <time>2017-12-18T11:30:36Z</time>
      </trkpt>
      <trkpt lat="45.07177" lon="5.87376">
        <ele>460</ele>
        <time>2017-12-18T11:30:51Z</time>
      </trkpt>
      <trkpt lat="45.07167" lon="5.87319">
        <ele>456</ele>
        <time>2017-12-18T11:30:59Z</time>
      </trkpt>
      <trkpt lat="45.07152" lon="5.87274">
        <ele>451</ele>
        <time>2017-12-18T11:31:07Z</time>
      </trkpt>
      <trkpt lat="45.07135" lon="5.87239">
        <ele>446</ele>
        <time>2017-12-18T11:31:17Z</time>
      </trkpt>
      <trkpt lat="45.0711" lon="5.87201">
        <ele>445</ele>
        <time>2017-12-18T11:31:37Z</time>
      </trkpt>
      <trkpt lat="45.07" lon="5.87077">
        <ele>437</ele>
        <time>2017-12-18T11:31:51Z</time>
      </trkpt>
      <trkpt lat="45.06949" lon="5.87025">
        <ele>434</ele>
        <time>2017-12-18T11:31:59Z</time>
      </trkpt>
      <trkpt lat="45.0691" lon="5.86992">
        <ele>431</ele>
        <time>2017-12-18T11:32:09Z</time>
      </trkpt>
      <trkpt lat="45.06758" lon="5.86886">
        <ele>431</ele>
        <time>2017-12-18T11:32:24Z</time>
      </trkpt>
      <trkpt lat="45.0672" lon="5.86866">
        <ele>431</ele>
        <time>2017-12-18T11:32:29Z</time>
      </trkpt>
      <trkpt lat="45.06696" lon="5.86856">
        <ele>431</ele>
        <time>2017-12-18T11:32:41Z</time>
      </trkpt>
      <trkpt lat="45.06664" lon="5.86847">
        <ele>430</ele>
        <time>2017-12-18T11:32:49Z</time>
      </trkpt>
      <trkpt lat="45.06604" lon="5.86835">
        <ele>432</ele>
        <time>2017-12-18T11:32:58Z</time>
      </trkpt>
      <trkpt lat="45.06559" lon="5.86821">
        <ele>429</ele>
        <time>2017-12-18T11:33:09Z</time>
      </trkpt>
      <trkpt lat="45.0653" lon="5.86805">
        <ele>428</ele>
        <time>2017-12-18T11:33:21Z</time>
      </trkpt>
      <trkpt lat="45.06507" lon="5.86789">
        <ele>428</ele>
        <time>2017-12-18T11:33:29Z</time>
      </trkpt>
      <trkpt lat="45.06475" lon="5.86763">
        <ele>430</ele>
        <time>2017-12-18T11:33:33Z</time>
      </trkpt>
      <trkpt lat="45.06461" lon="5.86749">
        <ele>429</ele>
        <time>2017-12-18T11:33:38Z</time>
      </trkpt>
      <trkpt lat="45.06412" lon="5.86709">
        <ele>434</ele>
        <time>2017-12-18T11:33:51Z</time>
      </trkpt>
      <trkpt lat="45.06369" lon="5.86676">
        <ele>434</ele>
        <time>2017-12-18T11:34:11Z</time>
      </trkpt>
      <trkpt lat="45.06329" lon="5.8664">
        <ele>431</ele>
        <time>2017-12-18T11:34:20Z</time>
      </trkpt>
      <trkpt lat="45.06266" lon="5.86587">
        <ele>428</ele>
        <time>2017-12-18T11:34:33Z</time>
      </trkpt>
      <trkpt lat="45.06178" lon="5.86512">
        <ele>424</ele>
        <time>2017-12-18T11:34:36Z</time>
      </trkpt>
      <trkpt lat="45.06105" lon="5.86438">
        <ele>421</ele>
        <time>2017-12-18T11:34:56Z</time>
      </trkpt>
      <trkpt lat="45.05996" lon="5.86324">
        <ele>416</ele>
        <time>2017-12-18T11:35:02Z</time>
      </trkpt>
      <trkpt lat="45.05609" lon="5.85922">
        <ele>408</ele>
        <time>2017-12-18T11:35:20Z</time>
      </trkpt>
      <trkpt lat="45.05536" lon="5.85846">
        <ele>403</ele>
        <time>2017-12-18T11:35:32Z</time>
      </trkpt>
      <trkpt lat="45.05518" lon="5.85826">
        <ele>401</ele>
        <time>2017-12-18T11:35:39Z</time>
      </trkpt>
      <trkpt lat="45.05502" lon="5.85805">
        <ele>400</ele>
        <time>2017-12-18T11:35:57Z</time>
      </trkpt>
      <trkpt lat="45.05488" lon="5.85782">
        <ele>403</ele>
        <time>2017-12-18T11:36:15Z</time>
      </trkpt>
      <trkpt lat="45.05477" lon="5.85758">
        <ele>402</ele>
        <time>2017-12-18T11:36:30Z</time>
      </trkpt>
      <trkpt lat="45.05462" lon="5.85714">
        <ele>401</ele>
        <time>2017-12-18T11:36:37Z</time>
      </trkpt>
      <trkpt lat="45.05421" lon="5.85542">
        <ele>396</ele>
        <time>2017-12-18T11:36:54Z</time>
      </trkpt>
      <trkpt lat="45.05405" lon="5.85479">
        <ele>396</ele>
        <time>2017-12-18T11:36:58Z</time>
      </trkpt>
      <trkpt lat="45.05395" lon="5.85442">
        <ele>395</ele>
        <time>2017-12-18T11:37:11Z</time>
      </trkpt>
      <trkpt lat="45.05355" lon="5.85274">
        <ele>394</ele>
        <time>2017-12-18T11:37:26Z</time>
      </trkpt>
      <trkpt lat="45.05344" lon="5.85238">
        <ele>393</ele>
        <time>2017-12-18T11:37:43Z</time>
      </trkpt>
      <trkpt lat="45.05338" lon="5.85211">
        <ele>392</ele>
        <time>2017-12-18T11:38:03Z</time>
      </trkpt>
      <trkpt lat="45.05335" lon="5.85173">
        <ele>392</ele>
        <time>2017-12-18T11:38:05Z</time>
      </trkpt>
      <trkpt lat="45.05341" lon="5.85141">
        <ele>391</ele>
        <time>2017-12-18T11:38:18Z</time>
      </trkpt>
      <trkpt lat="45.05352" lon="5.8511">
        <ele>390</ele>
        <time>2017-12-18T11:38:36Z</time>
      </trkpt>
      <trkpt lat="45.05365" lon="5.85083">
        <ele>388</ele>
        <time>2017-12-18T11:38:43Z</time>
      </trkpt>
      <trkpt lat="45.05381" lon="5.85064">
        <ele>388</ele>
        <time>2017-12-18T11:38:54Z</time>
      </trkpt>
      <trkpt lat="45.0543" lon="5.85017">
        <ele>392</ele>
        <time>2017-12-18T11:39:10Z</time>
      </trkpt>
      <trkpt lat="45.05446" lon="5.84994">
        <ele>389</ele>
        <time>2017-12-18T11:39:28Z</time>
      </trkpt>
      <trkpt lat="45.05457" lon="5.84965">
        <ele>390</ele>
        <time>2017-12-18T11:39:33Z</time>
      </trkpt>
      <trkpt lat="45.05461" lon="5.84941">
        <ele>389</ele>
        <time>2017-12-18T11:39:37Z</time>
      </trkpt>
      <trkpt lat="45.05463" lon="5.84893">
        <ele>386</ele>
        <time>2017-12-18T11:39:39Z</time>
      </trkpt>
      <trkpt lat="45.05468" lon="5.84567">
        <ele>384</ele>
        <time>2017-12-18T11:39:59Z</time>
      </trkpt>
      <trkpt lat="45.0547" lon="5.84458">
        <ele>421</ele>
        <time>2017-12-18T11:40:01Z</time>
      </trkpt>
      <trkpt lat="45.05468" lon="5.84432">
        <ele>432</ele>
        <time>2017-12-18T11:40:16Z</time>
      </trkpt>
      <trkpt lat="45.05461" lon="5.84386">
        <ele>450</ele>
        <time>2017-12-18T11:40:23Z</time>
      </trkpt>
      <trkpt lat="45.05455" lon="5.84357">
        <ele>445</ele>
        <time>2017-12-18T11:40:29Z</time>
      </trkpt>
      <trkpt lat="45.05429" lon="5.84188">
        <ele>423</ele>
        <time>2017-12-18T11:40:41Z</time>
      </trkpt>
      <trkpt lat="45.05417" lon="5.84118">
        <ele>408</ele>
        <time>2017-12-18T11:40:55Z</time>
      </trkpt>
      <trkpt lat="45.05397" lon="5.84043">
        <ele>381</ele>
        <time>2017-12-18T11:40:58Z</time>
      </trkpt>
      <trkpt lat="45.05387" lon="5.83981">
        <ele>375</ele>
        <time>2017-12-18T11:41:07Z</time>
      </trkpt>
      <trkpt lat="45.05386" lon="5.8395">
        <ele>373</ele>
        <time>2017-12-18T11:41:09Z</time>
      </trkpt>
      <trkpt lat="45.05382" lon="5.83915">
        <ele>370</ele>
        <time>2017-12-18T11:41:12Z</time>
      </trkpt>
      <trkpt lat="45.05376" lon="5.83891">
        <ele>370</ele>
        <time>2017-12-18T11:41:14Z</time>
      </trkpt>
      <trkpt lat="45.05374" lon="5.83516">
        <ele>367</ele>
        <time>2017-12-18T11:41:23Z</time>
      </trkpt>
      <trkpt lat="45.05365" lon="5.83516">
        <ele>367</ele>
        <time>2017-12-18T11:41:26Z</time>
      </trkpt>
      <trkpt lat="45.05361" lon="5.83525">
        <ele>367</ele>
        <time>2017-12-18T11:41:38Z</time>
      </trkpt>
      <trkpt lat="45.05336" lon="5.83538">
        <ele>367</ele>
        <time>2017-12-18T11:41:46Z</time>
      </trkpt>
      <trkpt lat="45.05307" lon="5.83556">
        <ele>367</ele>
        <time>2017-12-18T11:42:05Z</time>
      </trkpt>
      <trkpt lat="45.05274" lon="5.83584">
        <ele>368</ele>
        <time>2017-12-18T11:42:25Z</time>
      </trkpt>
      <trkpt lat="45.05232" lon="5.83627">
        <ele>366</ele>
        <time>2017-12-18T11:42:37Z</time>
      </trkpt>
      <trkpt lat="45.05217" lon="5.83644">
        <ele>365</ele>
        <time>2017-12-18T11:42:57Z</time>
      </trkpt>
      <trkpt lat="45.05198" lon="5.83663">
        <ele>365</ele>
        <time>2017-12-18T11:43:13Z</time>
      </trkpt>
      <trkpt lat="45.05161" lon="5.83696">
        <ele>372</ele>
        <time>2017-12-18T11:43:15Z</time>
      </trkpt>
      <trkpt lat="45.05147" lon="5.83708">
        <ele>374</ele>
        <time>2017-12-18T11:43:33Z</time>
      </trkpt>
      <trkpt lat="45.05138" lon="5.83713">
        <ele>375</ele>
        <time>2017-12-18T11:43:51Z</time>
      </trkpt>
      <trkpt lat="45.05122" lon="5.83714">
        <ele>378</ele>
        <time>2017-12-18T11:44:10Z</time>
      </trkpt>
      <trkpt lat="45.051" lon="5.83703">
        <ele>379</ele>
        <time>2017-12-18T11:44:12Z</time>
      </trkpt>
      <trkpt lat="45.0508" lon="5.83684">
        <ele>388</ele>
        <time>2017-12-18T11:44:28Z</time>
      </trkpt>
      <trkpt lat="45.05022" lon="5.83612">
        <ele>380</ele>
        <time>2017-12-18T11:44:48Z</time>
      </trkpt>
      <trkpt lat="45.04983" lon="5.8356">
        <ele>385</ele>
        <time>2017-12-18T11:45:02Z</time>
      </trkpt>
      <trkpt lat="45.0495" lon="5.83525">
        <ele>389</ele>
        <time>2017-12-18T11:45:17Z</time>
      </trkpt>
      <trkpt lat="45.04918" lon="5.8349">
        <ele>387</ele>
        <time>2017-12-18T11:45:31Z</time>
      </trkpt>
      <trkpt lat="45.04903" lon="5.83464">
        <ele>397</ele>
        <time>2017-12-18T11:45:41Z</time>
      </trkpt>
      <trkpt lat="45.04891" lon="5.83436">
        <ele>394</ele>
        <time>2017-12-18T11:45:49Z</time>
      </trkpt>
      <trkpt lat="45.04873" lon="5.83355">
        <ele>387</ele>
        <time>2017-12-18T11:45:53Z</time>
      </trkpt>
      <trkpt lat="45.04854" lon="5.83261">
        <ele>386</ele>
        <time>2017-12-18T11:46:02Z</time>
      </trkpt>
      <trkpt lat="45.04844" lon="5.83232">
        <ele>388</ele>
        <time>2017-12-18T11:46:09Z</time>
      </trkpt>
      <trkpt lat="45.04838" lon="5.83218">
        <ele>388</ele>
        <time>2017-12-18T11:46:13Z</time>
      </trkpt>
      <trkpt lat="45.04827" lon="5.83207">
        <ele>395</ele>
        <time>2017-12-18T11:46:22Z</time>
      </trkpt>
      <trkpt lat="45.04779" lon="5.83172">
        <ele>398</ele>
        <time>2017-12-18T11:46:35Z</time>
      </trkpt>
      <trkpt lat="45.04761" lon="5.83165">
        <ele>399</ele>
        <time>2017-12-18T11:46:43Z</time>
      </trkpt>
      <trkpt lat="45.04748" lon="5.83165">
        <ele>402</ele>
        <time>2017-12-18T11:47:02Z</time>
      </trkpt>
      <trkpt lat="45.04712" lon="5.83169">
        <ele>418</ele>
        <time>2017-12-18T11:47:20Z</time>
      </trkpt>
      <trkpt lat="45.04686" lon="5.83169">
        <ele>423</ele>
        <time>2017-12-18T11:47:35Z</time>
      </trkpt>
      <trkpt lat="45.04674" lon="5.83161">
        <ele>421</ele>
        <time>2017-12-18T11:47:54Z</time>
      </trkpt>
      <trkpt lat="45.04667" lon="5.83149">
        <ele>418</ele>
        <time>2017-12-18T11:48:05Z</time>
      </trkpt>
      <trkpt lat="45.04659" lon="5.83105">
        <ele>428</ele>
        <time>2017-12-18T11:48:14Z</time>
      </trkpt>
      <trkpt lat="45.04649" lon="5.83071">
        <ele>421</ele>
        <time>2017-12-18T11:48:34Z</time>
      </trkpt>
      <trkpt lat="45.04647" lon="5.83055">
        <ele>422</ele>
        <time>2017-12-18T11:48:37Z</time>
      </trkpt>
      <trkpt lat="45.04655" lon="5.8301">
        <ele>418</ele>
        <time>2017-12-18T11:48:49Z</time>
      </trkpt>
      <trkpt lat="45.04654" lon="5.82937">
        <ele>419</ele>
        <time>2017-12-18T11:48:59Z</time>
      </trkpt>
      <trkpt lat="45.04664" lon="5.8289">
        <ele>422</ele>
        <time>2017-12-18T11:49:17Z</time>
      </trkpt>
      <trkpt lat="45.04667" lon="5.82869">
        <ele>419</ele>
        <time>2017-12-18T11:49:19Z</time>
      </trkpt>
      <trkpt lat="45.04661" lon="5.82842">
        <ele>425</ele>
        <time>2017-12-18T11:49:25Z</time>
      </trkpt>
      <trkpt lat="45.04652" lon="5.82817">
        <ele>428</ele>
        <time>2017-12-18T11:49:32Z</time>
      </trkpt>
      <trkpt lat="45.04645" lon="5.8279">
        <ele>429</ele>
        <time>2017-12-18T11:49:48Z</time>
      </trkpt>
      <trkpt lat="45.04641" lon="5.82759">
        <ele>430</ele>
        <time>2017-12-18T11:50:03Z</time>
      </trkpt>
      <trkpt lat="45.04639" lon="5.82755">
        <ele>430</ele>
        <time>2017-12-18T11:50:15Z</time>
      </trkpt>
      <trkpt lat="45.04629" lon="5.8275">
        <ele>433</ele>
        <time>2017-12-18T11:50:28Z</time>
      </trkpt>
      <trkpt lat="45.04624" lon="5.82751">
        <ele>430</ele>
        <time>2017-12-18T11:50:39Z</time>
      </trkpt>
      <trkpt lat="45.04608" lon="5.82766">
        <ele>431</ele>
        <time>2017-12-18T11:50:55Z</time>
      </trkpt>
      <trkpt lat="45.04577" lon="5.8278">
        <ele>436</ele>
        <time>2017-12-18T11:51:13Z</time>
      </trkpt>
      <trkpt lat="45.04566" lon="5.82785">
        <ele>436</ele>
        <time>2017-12-18T11:51:32Z</time>
      </trkpt>
      <trkpt lat="45.04515" lon="5.82812">
        <ele>440</ele>
        <time>2017-12-18T11:51:39Z</time>
      </trkpt>
      <trkpt lat="45.04503" lon="5.82821">
        <ele>441</ele>
        <time>2017-12-18T11:51:51Z</time>
      </trkpt>
      <trkpt lat="45.04496" lon="5.82831">
        <ele>444</ele>
        <time>2017-12-18T11:52:09Z</time>
      </trkpt>
      <trkpt lat="45.0449" lon="5.82847">
        <ele>449</ele>
        <time>2017-12-18T11:52:23Z</time>
      </trkpt>
      <trkpt lat="45.04484" lon="5.82876">
        <ele>452</ele>
        <time>2017-12-18T11:52:40Z</time>
      </trkpt>
      <trkpt lat="45.04478" lon="5.82882">
        <ele>453</ele>
        <time>2017-12-18T11:52:52Z</time>
      </trkpt>
      <trkpt lat="45.04472" lon="5.82885">
        <ele>453</ele>
        <time>2017-12-18T11:52:57Z</time>
      </trkpt>
      <trkpt lat="45.04465" lon="5.82884">
        <ele>454</ele>
        <time>2017-12-18T11:53:12Z</time>
      </trkpt>
      <trkpt lat="45.04459" lon="5.82878">
        <ele>455</ele>
        <time>2017-12-18T11:53:18Z</time>
      </trkpt>
      <trkpt lat="45.04457" lon="5.82866">
        <ele>455</ele>
        <time>2017-12-18T11:53:30Z</time>
      </trkpt>
      <trkpt lat="45.04456" lon="5.82833">
        <ele>452</ele>
        <time>2017-12-18T11:53:45Z</time>
      </trkpt>
      <trkpt lat="45.04449" lon="5.82778">
        <ele>452</ele>
        <time>2017-12-18T11:53:53Z</time>
      </trkpt>
      <trkpt lat="45.0444" lon="5.82743">
        <ele>454</ele>
        <time>2017-12-18T11:53:57Z</time>
      </trkpt>
      <trkpt lat="45.04438" lon="5.82712">
        <ele>454</ele>
        <time>2017-12-18T11:54:13Z</time>
      </trkpt>
      <trkpt lat="45.0444" lon="5.82624">
        <ele>458</ele>
        <time>2017-12-18T11:54:27Z</time>
      </trkpt>
      <trkpt lat="45.04442" lon="5.8261">
        <ele>458</ele>
        <time>2017-12-18T11:54:39Z</time>
      </trkpt>
      <trkpt lat="45.04448" lon="5.82592">
        <ele>458</ele>
        <time>2017-12-18T11:54:59Z</time>
      </trkpt>
      <trkpt lat="45.04468" lon="5.8256">
        <ele>466</ele>
        <time>2017-12-18T11:55:01Z</time>
      </trkpt>
      <trkpt lat="45.04475" lon="5.82552">
        <ele>466</ele>
        <time>2017-12-18T11:55:20Z</time>
      </trkpt>
      <trkpt lat="45.04485" lon="5.82543">
        <ele>467</ele>
        <time>2017-12-18T11:55:29Z</time>
      </trkpt>
      <trkpt lat="45.04493" lon="5.8254">
        <ele>468</ele>
        <time>2017-12-18T11:55:37Z</time>
      </trkpt>
      <trkpt lat="45.04514" lon="5.82539">
        <ele>466</ele>
        <time>2017-12-18T11:55:46Z</time>
      </trkpt>
      <trkpt lat="45.04556" lon="5.82538">
        <ele>465</ele>
        <time>2017-12-18T11:56:05Z</time>
      </trkpt>
      <trkpt lat="45.0457" lon="5.82533">
        <ele>465</ele>
        <time>2017-12-18T11:56:24Z</time>
      </trkpt>
      <trkpt lat="45.04579" lon="5.82526">
        <ele>467</ele>
        <time>2017-12-18T11:56:28Z</time>
      </trkpt>
      <trkpt lat="45.04585" lon="5.82517">
        <ele>463</ele>
        <time>2017-12-18T11:56:38Z</time>
      </trkpt>
      <trkpt lat="45.04602" lon="5.82467">
        <ele>473</ele>
        <time>2017-12-18T11:56:52Z</time>
      </trkpt>
      <trkpt lat="45.0461" lon="5.8245">
        <ele>474</ele>
        <time>2017-12-18T11:56:55Z</time>
      </trkpt>
      <trkpt lat="45.04632" lon="5.82427">
        <ele>473</ele>
        <time>2017-12-18T11:57:06Z</time>
      </trkpt>
      <trkpt lat="45.0464" lon="5.82415">
        <ele>482</ele>
        <time>2017-12-18T11:57:13Z</time>
      </trkpt>
      <trkpt lat="45.04643" lon="5.82399">
        <ele>483</ele>
        <time>2017-12-18T11:57:19Z</time>
      </trkpt>
      <trkpt lat="45.04643" lon="5.82369">
        <ele>487</ele>
        <time>2017-12-18T11:57:38Z</time>
      </trkpt>
      <trkpt lat="45.04647" lon="5.82344">
        <ele>488</ele>
        <time>2017-12-18T11:57:58Z</time>
      </trkpt>
      <trkpt lat="45.04662" lon="5.82304">
        <ele>501</ele>
        <time>2017-12-18T11:58:00Z</time>
      </trkpt>
      <trkpt lat="45.04688" lon="5.82268">
        <ele>489</ele>
        <time>2017-12-18T11:58:16Z</time>
      </trkpt>
      <trkpt lat="45.04687" lon="5.82255">
        <ele>492</ele>
        <time>2017-12-18T11:58:32Z</time>
      </trkpt>
      <trkpt lat="45.04697" lon="5.82231">
        <ele>503</ele>
        <time>2017-12-18T11:58:50Z</time>
      </trkpt>
      <trkpt lat="45.04737" lon="5.82181">
        <ele>502</ele>
        <time>2017-12-18T11:58:54Z</time>
      </trkpt>
      <trkpt lat="45.04754" lon="5.82159">
        <ele>500</ele>
        <time>2017-12-18T11:59:10Z</time>
      </trkpt>
      <trkpt lat="45.04767" lon="5.82135">
        <ele>501</ele>
        <time>2017-12-18T11:59:13Z</time>
      </trkpt>
      <trkpt lat="45.04791" lon="5.8207">
        <ele>521</ele>
        <time>2017-12-18T11:59:25Z</time>
      </trkpt>
      <trkpt lat="45.0482" lon="5.82028">
        <ele>521</ele>
        <time>2017-12-18T11:59:31Z</time>
      </trkpt>
      <trkpt lat="45.04826" lon="5.82018">
        <ele>521</ele>
        <time>2017-12-18T11:59:39Z</time>
      </trkpt>
      <trkpt lat="45.04845" lon="5.81991">
        <ele>517</ele>
        <time>2017-12-18T11:59:51Z</time>
      </trkpt>
      <trkpt lat="45.04877" lon="5.81965">
        <ele>516</ele>
        <time>2017-12-18T11:59:53Z</time>
      </trkpt>
      <trkpt lat="45.04942" lon="5.81886">
        <ele>518</ele>
        <time>2017-12-18T12:00:01Z</time>
      </trkpt>
      <trkpt lat="45.04994" lon="5.81834">
        <ele>520</ele>
        <time>2017-12-18T12:00:12Z</time>
      </trkpt>
      <trkpt lat="45.05021" lon="5.81805">
        <ele>518</ele>
        <time>2017-12-18T12:00:30Z</time>
      </trkpt>
      <trkpt lat="45.05038" lon="5.81775">
        <ele>519</ele>
        <time>2017-12-18T12:00:37Z</time>
      </trkpt>
      <trkpt lat="45.05058" lon="5.81729">
        <ele>529</ele>
        <time>2017-12-18T12:00:51Z</time>
      </trkpt>
      <trkpt lat="45.05073" lon="5.81701">
        <ele>531</ele>
        <time>2017-12-18T12:01:04Z</time>
      </trkpt>
      <trkpt lat="45.05075" lon="5.81693">
        <ele>531</ele>
        <time>2017-12-18T12:01:07Z</time>
      </trkpt>
      <trkpt lat="45.05075" lon="5.81676">
        <ele>532</ele>
        <time>2017-12-18T12:01:21Z</time>
      </trkpt>
      <trkpt lat="45.0507" lon="5.81648">
        <ele>544</ele>
        <time>2017-12-18T12:01:40Z</time>
      </trkpt>
      <trkpt lat="45.05069" lon="5.81634">
        <ele>547</ele>
        <time>2017-12-18T12:01:43Z</time>
      </trkpt>
      <trkpt lat="45.05076" lon="5.81602">
        <ele>551</ele>
        <time>2017-12-18T12:01:48Z</time>
      </trkpt>
      <trkpt lat="45.05097" lon="5.81558">
        <ele>545</ele>
        <time>2017-12-18T12:02:01Z</time>
      </trkpt>
      <trkpt lat="45.05122" lon="5.81536">
        <ele>542</ele>
        <time>2017-12-18T12:02:20Z</time>
      </trkpt>
      <trkpt lat="45.05131" lon="5.8152">
        <ele>541</ele>
        <time>2017-12-18T12:02:34Z</time>
      </trkpt>
      <trkpt lat="45.05136" lon="5.81489">
        <ele>555</ele>
        <time>2017-12-18T12:02:46Z</time>
      </trkpt>
      <trkpt lat="45.05144" lon="5.81462">
        <ele>557</ele>
        <time>2017-12-18T12:02:54Z</time>
      </trkpt>
      <trkpt lat="45.05149" lon="5.81443">
        <ele>557</ele>
        <time>2017-12-18T12:03:03Z</time>
      </trkpt>
      <trkpt lat="45.05153" lon="5.81395">
        <ele>567</ele>
        <time>2017-12-18T12:03:14Z</time>
      </trkpt>
      <trkpt lat="45.05157" lon="5.81311">
        <ele>575</ele>
        <time>2017-12-18T12:03:22Z</time>
      </trkpt>
      <trkpt lat="45.05154" lon="5.81273">
        <ele>576</ele>
        <time>2017-12-18T12:03:28Z</time>
      </trkpt>
      <trkpt lat="45.0515" lon="5.81245">
        <ele>572</ele>
        <time>2017-12-18T12:03:45Z</time>
      </trkpt>
      <trkpt lat="45.0515" lon="5.81208">
        <ele>579</ele>
        <time>2017-12-18T12:03:52Z</time>
      </trkpt>
      <trkpt lat="45.05154" lon="5.81177">
        <ele>572</ele>
        <time>2017-12-18T12:04:09Z</time>
      </trkpt>
      <trkpt lat="45.05154" lon="5.81155">
        <ele>569</ele>
        <time>2017-12-18T12:04:25Z</time>
      </trkpt>
      <trkpt lat="45.05146" lon="5.8112">
        <ele>575</ele>
        <time>2017-12-18T12:04:39Z</time>
      </trkpt>
      <trkpt lat="45.05142" lon="5.811">
        <ele>573</ele>
        <time>2017-12-18T12:04:53Z</time>
      </trkpt>
      <trkpt lat="45.05141" lon="5.81085">
        <ele>572</ele>
        <time>2017-12-18T12:05:00Z</time>
      </trkpt>
      <trkpt lat="45.05144" lon="5.81064">
        <ele>567</ele>
        <time>2017-12-18T12:05:11Z</time>
      </trkpt>
      <trkpt lat="45.05151" lon="5.8104">
        <ele>566</ele>
        <time>2017-12-18T12:05:22Z</time>
      </trkpt>
      <trkpt lat="45.0515" lon="5.81026">
        <ele>565</ele>
        <time>2017-12-18T12:05:30Z</time>
      </trkpt>
      <trkpt lat="45.05145" lon="5.81013">
        <ele>564</ele>
        <time>2017-12-18T12:05:34Z</time>
      </trkpt>
      <trkpt lat="45.05121" lon="5.80982">
        <ele>560</ele>
        <time>2017-12-18T12:05:43Z</time>
      </trkpt>
      <trkpt lat="45.05107" lon="5.80962">
        <ele>560</ele>
        <time>2017-12-18T12:05:48Z</time>
      </trkpt>
      <trkpt lat="45.05079" lon="5.80934">
        <ele>568</ele>
        <time>2017-12-18T12:05:55Z</time>
      </trkpt>
      <trkpt lat="45.05064" lon="5.80922">
        <ele>569</ele>
        <time>2017-12-18T12:06:02Z</time>
      </trkpt>
      <trkpt lat="45.05046" lon="5.80913">
        <ele>560</ele>
        <time>2017-12-18T12:06:05Z</time>
      </trkpt>
      <trkpt lat="45.05021" lon="5.80907">
        <ele>564</ele>
        <time>2017-12-18T12:06:23Z</time>
      </trkpt>
      <trkpt lat="45.04999" lon="5.80905">
        <ele>570</ele>
        <time>2017-12-18T12:06:40Z</time>
      </trkpt>
      <trkpt lat="45.04967" lon="5.80907">
        <ele>566</ele>
        <time>2017-12-18T12:06:55Z</time>
      </trkpt>
      <trkpt lat="45.04945" lon="5.80915">
        <ele>566</ele>
        <time>2017-12-18T12:07:01Z</time>
      </trkpt>
      <trkpt lat="45.04925" lon="5.80928">
        <ele>577</ele>
        <time>2017-12-18T12:07:16Z</time>
      </trkpt>
      <trkpt lat="45.04871" lon="5.80961">
        <ele>588</ele>
        <time>2017-12-18T12:07:24Z</time>
      </trkpt>
      <trkpt lat="45.0485" lon="5.8097">
        <ele>591</ele>
        <time>2017-12-18T12:07:43Z</time>
      </trkpt>
      <trkpt lat="45.04828" lon="5.80975">
        <ele>601</ele>
        <time>2017-12-18T12:07:47Z</time>
      </trkpt>
      <trkpt lat="45.04811" lon="5.80973">
        <ele>601</ele>
        <time>2017-12-18T12:08:05Z</time>
      </trkpt>
      <trkpt lat="45.0479" lon="5.80959">
        <ele>600</ele>
        <time>2017-12-18T12:08:20Z</time>
      </trkpt>
      <trkpt lat="45.04752" lon="5.80939">
        <ele>597</ele>
        <time>2017-12-18T12:08:31Z</time>
      </trkpt>
      <trkpt lat="45.04701" lon="5.8092">
        <ele>621</ele>
        <time>2017-12-18T12:08:50Z</time>
      </trkpt>
      <trkpt lat="45.0468" lon="5.80911">
        <ele>607</ele>
        <time>2017-12-18T12:08:58Z</time>
      </trkpt>
      <trkpt lat="45.04664" lon="5.80901">
        <ele>623</ele>
        <time>2017-12-18T12:09:05Z</time>
      </trkpt>
      <trkpt lat="45.04647" lon="5.80887">
        <ele>624</ele>
        <time>2017-12-18T12:09:16Z</time>
      </trkpt>
      <trkpt lat="45.04624" lon="5.80863">
        <ele>625</ele>
        <time>2017-12-18T12:09:35Z</time>
      </trkpt>
      <trkpt lat="45.04602" lon="5.8084">
        <ele>627</ele>
        <time>2017-12-18T12:09:40Z</time>
      </trkpt>
      <trkpt lat="45.04587" lon="5.80819">
        <ele>615</ele>
        <time>2017-12-18T12:09:56Z</time>
      </trkpt>
      <trkpt lat="45.04577" lon="5.80792">
        <ele>630</ele>
        <time>2017-12-18T12:10:04Z</time>
      </trkpt>
      <trkpt lat="45.0457" lon="5.80774">
        <ele>625</ele>
        <time>2017-12-18T12:10:24Z</time>
      </trkpt>
      <trkpt lat="45.04553" lon="5.80757">
        <ele>628</ele>
        <time>2017-12-18T12:10:29Z</time>
      </trkpt>
      <trkpt lat="45.04536" lon="5.80742">
        <ele>618</ele>
        <time>2017-12-18T12:10:45Z</time>
      </trkpt>
      <trkpt lat="45.04524" lon="5.80727">
        <ele>621</ele>
        <time>2017-12-18T12:11:05Z</time>
      </trkpt>
      <trkpt lat="45.04507" lon="5.8069">
        <ele>618</ele>
        <time>2017-12-18T12:11:19Z</time>
      </trkpt>
      <trkpt lat="45.04489" lon="5.80651">
        <ele>626</ele>
        <time>2017-12-18T12:11:26Z</time>
      </trkpt>
      <trkpt lat="45.04443" lon="5.80605">
        <ele>631</ele>
        <time>2017-12-18T12:11:36Z</time>
      </trkpt>
      <trkpt lat="45.04423" lon="5.80582">
        <ele>631</ele>
        <time>2017-12-18T12:11:46Z</time>
      </trkpt>
      <trkpt lat="45.04397" lon="5.80557">
        <ele>649</ele>
        <time>2017-12-18T12:11:50Z</time>
      </trkpt>
      <trkpt lat="45.0439" lon="5.80536">
        <ele>649</ele>
        <time>2017-12-18T12:11:58Z</time>
      </trkpt>
      <trkpt lat="45.04336" lon="5.80343">
        <ele>642</ele>
        <time>2017-12-18T12:12:13Z</time>
      </trkpt>
      <trkpt lat="45.04327" lon="5.80296">
        <ele>663</ele>
        <time>2017-12-18T12:12:27Z</time>
      </trkpt>
      <trkpt lat="45.04314" lon="5.80251">
        <ele>658</ele>
        <time>2017-12-18T12:12:46Z</time>
      </trkpt>
      <trkpt lat="45.04283" lon="5.80169">
        <ele>660</ele>
        <time>2017-12-18T12:13:03Z</time>
      </trkpt>
      <trkpt lat="45.04253" lon="5.80079">
        <ele>660</ele>
        <time>2017-12-18T12:13:05Z</time>
      </trkpt>
      <trkpt lat="45.04245" lon="5.80046">
        <ele>675</ele>
        <time>2017-12-18T12:13:24Z</time>
      </trkpt>
      <trkpt lat="45.04237" lon="5.80007">
        <ele>668</ele>
        <time>2017-12-18T12:13:40Z</time>
      </trkpt>
      <trkpt lat="45.04221" lon="5.7998">
        <ele>673</ele>
        <time>2017-12-18T12:13:44Z</time>
      </trkpt>
      <trkpt lat="45.04209" lon="5.79935">
        <ele>676</ele>
        <time>2017-12-18T12:14:02Z</time>
      </trkpt>
      <trkpt lat="45.04205" lon="5.79909">
        <ele>675</ele>
        <time>2017-12-18T12:14:16Z</time>
      </trkpt>
      <trkpt lat="45.04204" lon="5.79879">
        <ele>675</ele>
        <time>2017-12-18T12:14:34Z</time>
      </trkpt>
      <trkpt lat="45.04205" lon="5.79832">
        <ele>675</ele>
        <time>2017-12-18T12:14:45Z</time>
      </trkpt>
      <trkpt lat="45.0421" lon="5.79788">
        <ele>673</ele>
        <time>2017-12-18T12:14:52Z</time>
      </trkpt>
      <trkpt lat="45.04207" lon="5.79717">
        <ele>674</ele>
        <time>2017-12-18T12:14:55Z</time>
      </trkpt>
      <trkpt lat="45.04201" lon="5.79695">
        <ele>676</ele>
        <time>2017-12-18T12:15:14Z</time>
      </trkpt>
      <trkpt lat="45.04191" lon="5.79669">
        <ele>682</ele>
        <time>2017-12-18T12:15:19Z</time>
      </trkpt>
      <trkpt lat="45.04185" lon="5.79605">
        <ele>684</ele>
        <time>2017-12-18T12:15:32Z</time>
      </trkpt>
      <trkpt lat="45.04178" lon="5.79547">
        <ele>685</ele>
        <time>2017-12-18T12:15:45Z</time>
      </trkpt>
      <trkpt lat="45.04177" lon="5.79508">
        <ele>692</ele>
        <time>2017-12-18T12:16:00Z</time>
      </trkpt>
      <trkpt lat="45.04166" lon="5.79437">
        <ele>715</ele>
        <time>2017-12-18T12:16:03Z</time>
      </trkpt>
      <trkpt lat="45.04168" lon="5.79398">
        <ele>689</ele>
        <time>2017-12-18T12:16:12Z</time>
      </trkpt>
      <trkpt lat="45.04167" lon="5.79375">
        <ele>686</ele>
        <time>2017-12-18T12:16:23Z</time>
      </trkpt>
      <trkpt lat="45.04162" lon="5.79341">
        <ele>711</ele>
        <time>2017-12-18T12:16:25Z</time>
      </trkpt>
      <trkpt lat="45.04163" lon="5.79315">
        <ele>718</ele>
        <time>2017-12-18T12:16:41Z</time>
      </trkpt>
      <trkpt lat="45.04176" lon="5.79231">
        <ele>700</ele>
        <time>2017-12-18T12:16:59Z</time>
      </trkpt>
      <trkpt lat="45.04178" lon="5.79199">
        <ele>698</ele>
        <time>2017-12-18T12:17:18Z</time>
      </trkpt>
      <trkpt lat="45.04172" lon="5.79139">
        <ele>702</ele>
        <time>2017-12-18T12:17:25Z</time>
      </trkpt>
      <trkpt lat="45.04166" lon="5.7909">
        <ele>725</ele>
        <time>2017-12-18T12:17:38Z</time>
      </trkpt>
      <trkpt lat="45.04166" lon="5.79074">
        <ele>729</ele>
        <time>2017-12-18T12:17:55Z</time>
      </trkpt>
      <trkpt lat="45.04169" lon="5.79059">
        <ele>710</ele>
        <time>2017-12-18T12:18:08Z</time>
      </trkpt>
      <trkpt lat="45.04177" lon="5.79047">
        <ele>708</ele>
        <time>2017-12-18T12:18:15Z</time>
      </trkpt>
      <trkpt lat="45.04193" lon="5.79027">
        <ele>706</ele>
        <time>2017-12-18T12:18:21Z</time>
      </trkpt>
      <trkpt lat="45.042" lon="5.79017">
        <ele>704</ele>
        <time>2017-12-18T12:18:23Z</time>
      </trkpt>
      <trkpt lat="45.042" lon="5.79011">
        <ele>705</ele>
        <time>2017-12-18T12:18:31Z</time>
      </trkpt>
      <trkpt lat="45.04198" lon="5.79">
        <ele>710</ele>
        <time>2017-12-18T12:18:44Z</time>
      </trkpt>
      <trkpt lat="45.04191" lon="5.7898">
        <ele>712</ele>
        <time>2017-12-18T12:19:03Z</time>
      </trkpt>
      <trkpt lat="45.04186" lon="5.78964">
        <ele>712</ele>
        <time>2017-12-18T12:19:17Z</time>
      </trkpt>
      <trkpt lat="45.04183" lon="5.78945">
        <ele>714</ele>
        <time>2017-12-18T12:19:20Z</time>
      </trkpt>
      <trkpt lat="45.04183" lon="5.78913">
        <ele>717</ele>
        <time>2017-12-18T12:19:22Z</time>
      </trkpt>
      <trkpt lat="45.04175" lon="5.78881">
        <ele>709</ele>
        <time>2017-12-18T12:19:35Z</time>
      </trkpt>
      <trkpt lat="45.04164" lon="5.78849">
        <ele>734</ele>
        <time>2017-12-18T12:19:38Z</time>
      </trkpt>
      <trkpt lat="45.04145" lon="5.78821">
        <ele>733</ele>
        <time>2017-12-18T12:19:45Z</time>
      </trkpt>
      <trkpt lat="45.04136" lon="5.788">
        <ele>737</ele>
        <time>2017-12-18T12:19:55Z</time>
      </trkpt>
      <trkpt lat="45.04111" lon="5.7873">
        <ele>731</ele>
        <time>2017-12-18T12:20:09Z</time>
      </trkpt>
      <trkpt lat="45.04105" lon="5.78719">
        <ele>730</ele>
        <time>2017-12-18T12:20:16Z</time>
      </trkpt>
      <trkpt lat="45.04078" lon="5.78684">
        <ele>761</ele>
        <time>2017-12-18T12:20:23Z</time>
      </trkpt>
      <trkpt lat="45.04067" lon="5.78665">
        <ele>752</ele>
        <time>2017-12-18T12:20:30Z</time>
      </trkpt>
      <trkpt lat="45.04062" lon="5.78639">
        <ele>755</ele>
        <time>2017-12-18T12:20:32Z</time>
      </trkpt>
      <trkpt lat="45.04054" lon="5.78597">
        <ele>753</ele>
        <time>2017-12-18T12:20:44Z</time>
      </trkpt>
      <trkpt lat="45.04041" lon="5.78579">
        <ele>745</ele>
        <time>2017-12-18T12:21:02Z</time>
      </trkpt>
      <trkpt lat="45.0402" lon="5.78555">
        <ele>750</ele>
        <time>2017-12-18T12:21:15Z</time>
      </trkpt>
      <trkpt lat="45.04011" lon="5.78541">
        <ele>749</ele>
        <time>2017-12-18T12:21:34Z</time>
      </trkpt>
      <trkpt lat="45.0398" lon="5.78477">
        <ele>776</ele>
        <time>2017-12-18T12:21:38Z</time>
      </trkpt>
      <trkpt lat="45.03972" lon="5.78452">
        <ele>778</ele>
        <time>2017-12-18T12:21:49Z</time>
      </trkpt>
      <trkpt lat="45.03965" lon="5.78413">
        <ele>773</ele>
        <time>2017-12-18T12:22:02Z</time>
      </trkpt>
      <trkpt lat="45.03964" lon="5.78396">
        <ele>774</ele>
        <time>2017-12-18T12:22:22Z</time>
      </trkpt>
      <trkpt lat="45.03966" lon="5.78377">
        <ele>774</ele>
        <time>2017-12-18T12:22:34Z</time>
      </trkpt>
      <trkpt lat="45.03976" lon="5.78314">
        <ele>769</ele>
        <time>2017-12-18T12:22:47Z</time>
      </trkpt>
      <trkpt lat="45.03975" lon="5.78304">
        <ele>770</ele>
        <time>2017-12-18T12:22:50Z</time>
      </trkpt>
      <trkpt lat="45.03973" lon="5.78294">
        <ele>771</ele>
        <time>2017-12-18T12:22:57Z</time>
      </trkpt>
      <trkpt lat="45.03969" lon="5.78283">
        <ele>772</ele>
        <time>2017-12-18T12:23:15Z</time>
      </trkpt>
      <trkpt lat="45.03949" lon="5.78252">
        <ele>780</ele>
        <time>2017-12-18T12:23:34Z</time>
      </trkpt>
      <trkpt lat="45.03943" lon="5.78231">
        <ele>783</ele>
        <time>2017-12-18T12:23:51Z</time>
      </trkpt>
      <trkpt lat="45.03945" lon="5.78205">
        <ele>781</ele>
        <time>2017-12-18T12:24:10Z</time>
      </trkpt>
      <trkpt lat="45.0396" lon="5.78153">
        <ele>780</ele>
        <time>2017-12-18T12:24:17Z</time>
      </trkpt>
      <trkpt lat="45.03961" lon="5.7814">
        <ele>779</ele>
        <time>2017-12-18T12:24:23Z</time>
      </trkpt>
      <trkpt lat="45.03952" lon="5.7809">
        <ele>784</ele>
        <time>2017-12-18T12:24:43Z</time>
      </trkpt>
      <trkpt lat="45.03944" lon="5.78047">
        <ele>784</ele>
        <time>2017-12-18T12:24:45Z</time>
      </trkpt>
      <trkpt lat="45.03939" lon="5.78011">
        <ele>787</ele>
        <time>2017-12-18T12:24:55Z</time>
      </trkpt>
      <trkpt lat="45.03931" lon="5.77903">
        <ele>780</ele>
        <time>2017-12-18T12:25:12Z</time>
      </trkpt>
      <trkpt lat="45.03925" lon="5.77886">
        <ele>777</ele>
        <time>2017-12-18T12:25:19Z</time>
      </trkpt>
      <trkpt lat="45.03906" lon="5.77865">
        <ele>806</ele>
        <time>2017-12-18T12:25:35Z</time>
      </trkpt>
      <trkpt lat="45.03888" lon="5.77835">
        <ele>808</ele>
        <time>2017-12-18T12:25:55Z</time>
      </trkpt>
      <trkpt lat="45.03867" lon="5.77774">
        <ele>805</ele>
        <time>2017-12-18T12:26:12Z</time>
      </trkpt>
      <trkpt lat="45.03819" lon="5.77627">
        <ele>816</ele>
        <time>2017-12-18T12:26:19Z</time>
      </trkpt>
      <trkpt lat="45.03789" lon="5.77566">
        <ele>811</ele>
        <time>2017-12-18T12:26:29Z</time>
      </trkpt>
      <trkpt lat="45.03784" lon="5.77543">
        <ele>811</ele>
        <time>2017-12-18T12:26:43Z</time>
      </trkpt>
      <trkpt lat="45.03779" lon="5.77507">
        <ele>810</ele>
        <time>2017-12-18T12:27:02Z</time>
      </trkpt>
      <trkpt lat="45.03767" lon="5.77485">
        <ele>804</ele>
        <time>2017-12-18T12:27:20Z</time>
      </trkpt>
      <trkpt lat="45.03725" lon="5.77445">
        <ele>827</ele>
        <time>2017-12-18T12:27:26Z</time>
      </trkpt>
      <trkpt lat="45.0371" lon="5.77425">
        <ele>830</ele>
        <time>2017-12-18T12:27:45Z</time>
      </trkpt>
      <trkpt lat="45.03704" lon="5.7741">
        <ele>825</ele>
        <time>2017-12-18T12:27:59Z</time>
      </trkpt>
      <trkpt lat="45.03693" lon="5.77351">
        <ele>825</ele>
        <time>2017-12-18T12:28:11Z</time>
      </trkpt>
      <trkpt lat="45.03684" lon="5.77319">
        <ele>820</ele>
        <time>2017-12-18T12:28:20Z</time>
      </trkpt>
      <trkpt lat="45.03668" lon="5.77284">
        <ele>814</ele>
        <time>2017-12-18T12:28:27Z</time>
      </trkpt>
      <trkpt lat="45.03656" lon="5.77267">
        <ele>830</ele>
        <time>2017-12-18T12:28:42Z</time>
      </trkpt>
      <trkpt lat="45.0364" lon="5.7725">
        <ele>818</ele>
        <time>2017-12-18T12:28:58Z</time>
      </trkpt>
      <trkpt lat="45.03617" lon="5.77233">
        <ele>821</ele>
        <time>2017-12-18T12:29:18Z</time>
      </trkpt>
      <trkpt lat="45.03599" lon="5.77224">
        <ele>823</ele>
        <time>2017-12-18T12:29:36Z</time>
      </trkpt>
      <trkpt lat="45.03581" lon="5.77218">
        <ele>835</ele>
        <time>2017-12-18T12:29:47Z</time>
      </trkpt>
      <trkpt lat="45.03564" lon="5.77217">
        <ele>836</ele>
        <time>2017-12-18T12:29:55Z</time>
      </trkpt>
      <trkpt lat="45.03537" lon="5.77216">
        <ele>838</ele>
        <time>2017-12-18T12:30:13Z</time>
      </trkpt>
      <trkpt lat="45.03518" lon="5.7721">
        <ele>839</ele>
        <time>2017-12-18T12:30:22Z</time>
      </trkpt>
      <trkpt lat="45.03471" lon="5.77183">
        <ele>845</ele>
        <time>2017-12-18T12:30:24Z</time>
      </trkpt>
      <trkpt lat="45.0345" lon="5.77172">
        <ele>846</ele>
        <time>2017-12-18T12:30:37Z</time>
      </trkpt>
      <trkpt lat="45.03429" lon="5.77171">
        <ele>846</ele>
        <time>2017-12-18T12:30:54Z</time>
      </trkpt>
      <trkpt lat="45.03396" lon="5.77172">
        <ele>852</ele>
        <time>2017-12-18T12:30:57Z</time>
      </trkpt>
      <trkpt lat="45.0333" lon="5.77174">
        <ele>850</ele>
        <time>2017-12-18T12:31:02Z</time>
      </trkpt>
      <trkpt lat="45.03306" lon="5.77171">
        <ele>854</ele>
        <time>2017-12-18T12:31:09Z</time>
      </trkpt>
      <trkpt lat="45.03284" lon="5.77164">
        <ele>839</ele>
        <time>2017-12-18T12:31:15Z</time>
      </trkpt>
      <trkpt lat="45.03279" lon="5.77163">
        <ele>839</ele>
        <time>2017-12-18T12:31:28Z</time>
      </trkpt>
      <trkpt lat="45.03264" lon="5.77168">
        <ele>851</ele>
        <time>2017-12-18T12:31:38Z</time>
      </trkpt>
      <trkpt lat="45.03222" lon="5.77199">
        <ele>853</ele>
        <time>2017-12-18T12:31:57Z</time>
      </trkpt>
      <trkpt lat="45.03196" lon="5.7722">
        <ele>854</ele>
        <time>2017-12-18T12:32:06Z</time>
      </trkpt>
      <trkpt lat="45.0318" lon="5.77237">
        <ele>856</ele>
        <time>2017-12-18T12:32:12Z</time>
      </trkpt>
      <trkpt lat="45.0317" lon="5.77254">
        <ele>860</ele>
        <time>2017-12-18T12:32:22Z</time>
      </trkpt>
      <trkpt lat="45.0316" lon="5.77269">
        <ele>861</ele>
        <time>2017-12-18T12:32:28Z</time>
      </trkpt>
      <trkpt lat="45.03144" lon="5.77281">
        <ele>863</ele>
        <time>2017-12-18T12:32:48Z</time>
      </trkpt>
      <trkpt lat="45.03112" lon="5.77288">
        <ele>863</ele>
        <time>2017-12-18T12:32:58Z</time>
      </trkpt>
      <trkpt lat="45.031" lon="5.77297">
        <ele>864</ele>
        <time>2017-12-18T12:33:11Z</time>
      </trkpt>
      <trkpt lat="45.03086" lon="5.77316">
        <ele>867</ele>
        <time>2017-12-18T12:33:23Z</time>
      </trkpt>
      <trkpt lat="45.03072" lon="5.77336">
        <ele>875</ele>
        <time>2017-12-18T12:33:27Z</time>
      </trkpt>
      <trkpt lat="45.03064" lon="5.77344">
        <ele>877</ele>
        <time>2017-12-18T12:33:43Z</time>
      </trkpt>
      <trkpt lat="45.03055" lon="5.77349">
        <ele>878</ele>
        <time>2017-12-18T12:33:59Z</time>
      </trkpt>
      <trkpt lat="45.03036" lon="5.77353">
        <ele>879</ele>
        <time>2017-12-18T12:34:03Z</time>
      </trkpt>
      <trkpt lat="45.03016" lon="5.77349">
        <ele>877</ele>
        <time>2017-12-18T12:34:05Z</time>
      </trkpt>
      <trkpt lat="45.02997" lon="5.77338">
        <ele>873</ele>
        <time>2017-12-18T12:34:15Z</time>
      </trkpt>
      <trkpt lat="45.0298" lon="5.77333">
        <ele>872</ele>
        <time>2017-12-18T12:34:35Z</time>
      </trkpt>
      <trkpt lat="45.02949" lon="5.77339">
        <ele>886</ele>
        <time>2017-12-18T12:34:43Z</time>
      </trkpt>
      <trkpt lat="45.02938" lon="5.77338">
        <ele>887</ele>
        <time>2017-12-18T12:34:51Z</time>
      </trkpt>
      <trkpt lat="45.02921" lon="5.77327">
        <ele>884</ele>
        <time>2017-12-18T12:35:01Z</time>
      </trkpt>
      <trkpt lat="45.02914" lon="5.77326">
        <ele>889</ele>
        <time>2017-12-18T12:35:08Z</time>
      </trkpt>
      <trkpt lat="45.02908" lon="5.77327">
        <ele>889</ele>
        <time>2017-12-18T12:35:11Z</time>
      </trkpt>
      <trkpt lat="45.029" lon="5.77332">
        <ele>890</ele>
        <time>2017-12-18T12:35:14Z</time>
      </trkpt>
      <trkpt lat="45.02875" lon="5.77357">
        <ele>899</ele>
        <time>2017-12-18T12:35:32Z</time>
      </trkpt>
      <trkpt lat="45.02867" lon="5.77364">
        <ele>900</ele>
        <time>2017-12-18T12:35:45Z</time>
      </trkpt>
      <trkpt lat="45.02857" lon="5.77367">
        <ele>901</ele>
        <time>2017-12-18T12:35:52Z</time>
      </trkpt>
      <trkpt lat="45.02849" lon="5.77364">
        <ele>901</ele>
        <time>2017-12-18T12:36:02Z</time>
      </trkpt>
      <trkpt lat="45.02842" lon="5.77357">
        <ele>902</ele>
        <time>2017-12-18T12:36:22Z</time>
      </trkpt>
      <trkpt lat="45.02835" lon="5.77341">
        <ele>903</ele>
        <time>2017-12-18T12:36:40Z</time>
      </trkpt>
      <trkpt lat="45.02834" lon="5.77317">
        <ele>898</ele>
        <time>2017-12-18T12:36:56Z</time>
      </trkpt>
      <trkpt lat="45.02837" lon="5.77277">
        <ele>893</ele>
        <time>2017-12-18T12:37:08Z</time>
      </trkpt>
      <trkpt lat="45.02833" lon="5.77253">
        <ele>896</ele>
        <time>2017-12-18T12:37:22Z</time>
      </trkpt>
      <trkpt lat="45.02824" lon="5.77236">
        <ele>900</ele>
        <time>2017-12-18T12:37:31Z</time>
      </trkpt>
      <trkpt lat="45.0281" lon="5.77224">
        <ele>903</ele>
        <time>2017-12-18T12:37:44Z</time>
      </trkpt>
      <trkpt lat="45.02794" lon="5.77222">
        <ele>904</ele>
        <time>2017-12-18T12:37:59Z</time>
      </trkpt>
      <trkpt lat="45.02769" lon="5.77224">
        <ele>906</ele>
        <time>2017-12-18T12:38:10Z</time>
      </trkpt>
      <trkpt lat="45.02758" lon="5.77223">
        <ele>906</ele>
        <time>2017-12-18T12:38:30Z</time>
      </trkpt>
      <trkpt lat="45.02684" lon="5.7724">
        <ele>910</ele>
        <time>2017-12-18T12:38:36Z</time>
      </trkpt>
      <trkpt lat="45.02562" lon="5.77287">
        <ele>913</ele>
        <time>2017-12-18T12:38:48Z</time>
      </trkpt>
      <trkpt lat="45.02529" lon="5.77295">
        <ele>913</ele>
        <time>2017-12-18T12:38:57Z</time>
      </trkpt>
      <trkpt lat="45.02494" lon="5.77302">
        <ele>915</ele>
        <time>2017-12-18T12:39:04Z</time>
      </trkpt>
      <trkpt lat="45.0247" lon="5.7731">
        <ele>915</ele>
        <time>2017-12-18T12:39:18Z</time>
      </trkpt>
      <trkpt lat="45.02338" lon="5.77367">
        <ele>915</ele>
        <time>2017-12-18T12:39:30Z</time>
      </trkpt>
      <trkpt lat="45.0232" lon="5.77376">
        <ele>917</ele>
        <time>2017-12-18T12:39:47Z</time>
      </trkpt>
      <trkpt lat="45.02314" lon="5.77374">
        <ele>918</ele>
        <time>2017-12-18T12:39:51Z</time>
      </trkpt>
      <trkpt lat="45.02312" lon="5.77368">
        <ele>918</ele>
        <time>2017-12-18T12:39:58Z</time>
      </trkpt>
      <trkpt lat="45.02313" lon="5.77361">
        <ele>919</ele>
        <time>2017-12-18T12:40:18Z</time>
      </trkpt>
      <trkpt lat="45.02352" lon="5.77326">
        <ele>920</ele>
        <time>2017-12-18T12:40:38Z</time>
      </trkpt>
      <trkpt lat="45.02367" lon="5.77307">
        <ele>921</ele>
        <time>2017-12-18T12:40:42Z</time>
      </trkpt>
      <trkpt lat="45.02375" lon="5.77287">
        <ele>921</ele>
        <time>2017-12-18T12:40:51Z</time>
      </trkpt>
      <trkpt lat="45.0239" lon="5.77251">
        <ele>922</ele>
        <time>2017-12-18T12:40:56Z</time>
      </trkpt>
      <trkpt lat="45.02403" lon="5.77231">
        <ele>926</ele>
        <time>2017-12-18T12:40:59Z</time>
      </trkpt>
      <trkpt lat="45.02416" lon="5.77222">
        <ele>927</ele>
        <time>2017-12-18T12:41:14Z</time>
      </trkpt>
      <trkpt lat="45.02429" lon="5.77219">
        <ele>925</ele>
        <time>2017-12-18T12:41:28Z</time>
      </trkpt>
      <trkpt lat="45.02456" lon="5.77219">
        <ele>924</ele>
        <time>2017-12-18T12:41:36Z</time>
      </trkpt>
      <trkpt lat="45.0249" lon="5.77219">
        <ele>924</ele>
        <time>2017-12-18T12:41:52Z</time>
      </trkpt>
      <trkpt lat="45.02498" lon="5.77217">
        <ele>924</ele>
        <time>2017-12-18T12:42:06Z</time>
      </trkpt>
      <trkpt lat="45.02504" lon="5.77214">
        <ele>921</ele>
        <time>2017-12-18T12:42:16Z</time>
      </trkpt>
      <trkpt lat="45.02506" lon="5.7721">
        <ele>921</ele>
        <time>2017-12-18T12:42:36Z</time>
      </trkpt>
      <trkpt lat="45.02507" lon="5.77198">
        <ele>922</ele>
        <time>2017-12-18T12:42:53Z</time>
      </trkpt>
      <trkpt lat="45.02503" lon="5.77191">
        <ele>923</ele>
        <time>2017-12-18T12:42:59Z</time>
      </trkpt>
      <trkpt lat="45.02495" lon="5.77184">
        <ele>926</ele>
        <time>2017-12-18T12:43:02Z</time>
      </trkpt>
      <trkpt lat="45.02443" lon="5.77168">
        <ele>928</ele>
        <time>2017-12-18T12:43:08Z</time>
      </trkpt>
      <trkpt lat="45.02343" lon="5.77138">
        <ele>935</ele>
        <time>2017-12-18T12:43:28Z</time>
      </trkpt>
      <trkpt lat="45.02318" lon="5.77129">
        <ele>943</ele>
        <time>2017-12-18T12:43:37Z</time>
      </trkpt>
      <trkpt lat="45.02307" lon="5.77121">
        <ele>944</ele>
        <time>2017-12-18T12:43:44Z</time>
      </trkpt>
      <trkpt lat="45.02295" lon="5.77106">
        <ele>946</ele>
        <time>2017-12-18T12:43:52Z</time>
      </trkpt>
      <trkpt lat="45.02273" lon="5.77069">
        <ele>949</ele>
        <time>2017-12-18T12:44:08Z</time>
      </trkpt>
      <trkpt lat="45.02258" lon="5.77037">
        <ele>948</ele>
        <time>2017-12-18T12:44:13Z</time>
      </trkpt>
      <trkpt lat="45.0224" lon="5.76983">
        <ele>956</ele>
        <time>2017-12-18T12:44:31Z</time>
      </trkpt>
      <trkpt lat="45.02224" lon="5.76938">
        <ele>956</ele>
        <time>2017-12-18T12:44:33Z</time>
      </trkpt>
      <trkpt lat="45.02205" lon="5.76896">
        <ele>956</ele>
        <time>2017-12-18T12:44:37Z</time>
      </trkpt>
      <trkpt lat="45.0217" lon="5.76828">
        <ele>961</ele>
        <time>2017-12-18T12:44:42Z</time>
      </trkpt>
      <trkpt lat="45.0214" lon="5.76764">
        <ele>969</ele>
        <time>2017-12-18T12:44:45Z</time>
      </trkpt>
      <trkpt lat="45.02138" lon="5.76749">
        <ele>967</ele>
        <time>2017-12-18T12:45:02Z</time>
      </trkpt>
      <trkpt lat="45.02135" lon="5.76741">
        <ele>968</ele>
        <time>2017-12-18T12:45:20Z</time>
      </trkpt>
      <trkpt lat="45.02123" lon="5.76723">
        <ele>969</ele>
        <time>2017-12-18T12:45:29Z</time>
      </trkpt>
      <trkpt lat="45.02113" lon="5.76714">
        <ele>969</ele>
        <time>2017-12-18T12:45:45Z</time>
      </trkpt>
      <trkpt lat="45.02095" lon="5.76703">
        <ele>970</ele>
        <time>2017-12-18T12:45:48Z</time>
      </trkpt>
      <trkpt lat="45.0207" lon="5.76695">
        <ele>976</ele>
        <time>2017-12-18T12:46:08Z</time>
      </trkpt>
      <trkpt lat="45.02064" lon="5.76694">
        <ele>976</ele>
        <time>2017-12-18T12:46:10Z</time>
      </trkpt>
      <trkpt lat="45.02057" lon="5.7669">
        <ele>976</ele>
        <time>2017-12-18T12:46:24Z</time>
      </trkpt>
      <trkpt lat="45.02018" lon="5.76668">
        <ele>978</ele>
        <time>2017-12-18T12:46:41Z</time>
      </trkpt>
      <trkpt lat="45.0199" lon="5.76655">
        <ele>979</ele>
        <time>2017-12-18T12:46:54Z</time>
      </trkpt>
      <trkpt lat="45.0195" lon="5.76639">
        <ele>982</ele>
        <time>2017-12-18T12:46:57Z</time>
      </trkpt>
      <trkpt lat="45.01919" lon="5.76628">
        <ele>983</ele>
        <time>2017-12-18T12:47:16Z</time>
      </trkpt>
      <trkpt lat="45.01896" lon="5.76615">
        <ele>990</ele>
        <time>2017-12-18T12:47:19Z</time>
      </trkpt>
      <trkpt lat="45.01857" lon="5.76588">
        <ele>992</ele>
        <time>2017-12-18T12:47:31Z</time>
      </trkpt>
      <trkpt lat="45.01805" lon="5.76542">
        <ele>998</ele>
        <time>2017-12-18T12:47:51Z</time>
      </trkpt>
      <trkpt lat="45.01707" lon="5.76458">
        <ele>1003</ele>
        <time>2017-12-18T12:48:10Z</time>
      </trkpt>
      <trkpt lat="45.01489" lon="5.76271">
        <ele>1003</ele>
        <time>2017-12-18T12:48:19Z</time>
      </trkpt>
      <trkpt lat="45.01473" lon="5.76262">
        <ele>1003</ele>
        <time>2017-12-18T12:48:27Z</time>
      </trkpt>
      <trkpt lat="45.01446" lon="5.76256">
        <ele>1004</ele>
        <time>2017-12-18T12:48:38Z</time>
      </trkpt>
      <trkpt lat="45.01346" lon="5.76246">
        <ele>1005</ele>
        <time>2017-12-18T12:48:57Z</time>
      </trkpt>
      <trkpt lat="45.01285" lon="5.76239">
        <ele>1004</ele>
        <time>2017-12-18T12:49:16Z</time>
      </trkpt>
      <trkpt lat="45.01124" lon="5.76207">
        <ele>1003</ele>
        <time>2017-12-18T12:49:29Z</time>
      </trkpt>
      <trkpt lat="45.01036" lon="5.7619">
        <ele>1003</ele>
        <time>2017-12-18T12:49:37Z</time>
      </trkpt>
      <trkpt lat="45.01003" lon="5.76174">
        <ele>1002</ele>
        <time>2017-12-18T12:49:47Z</time>
      </trkpt>
      <trkpt lat="45.0099" lon="5.76166">
        <ele>1001</ele>
        <time>2017-12-18T12:49:55Z</time>
      </trkpt>
      <trkpt lat="45.00968" lon="5.76152">
        <ele>1001</ele>
        <time>2017-12-18T12:50:02Z</time>
      </trkpt>
      <trkpt lat="45.00921" lon="5.76126">
        <ele>1001</ele>
        <time>2017-12-18T12:50:20Z</time>
      </trkpt>
      <trkpt lat="45.00775" lon="5.76068">
        <ele>998</ele>
        <time>2017-12-18T12:50:40Z</time>
      </trkpt>
      <trkpt lat="45.00712" lon="5.76043">
        <ele>997</ele>
        <time>2017-12-18T12:50:52Z</time>
      </trkpt>
      <trkpt lat="45.00627" lon="5.76026">
        <ele>996</ele>
        <time>2017-12-18T12:51:12Z</time>
      </trkpt>
      <trkpt lat="45.0052" lon="5.76011">
        <ele>993</ele>
        <time>2017-12-18T12:51:23Z</time>
      </trkpt>
      <trkpt lat="45.00467" lon="5.76">
        <ele>990</ele>
        <time>2017-12-18T12:51:39Z</time>
      </trkpt>
      <trkpt lat="45.00429" lon="5.75989">
        <ele>989</ele>
        <time>2017-12-18T12:51:54Z</time>
      </trkpt>
      <trkpt lat="45.00375" lon="5.75969">
        <ele>988</ele>
        <time>2017-12-18T12:52:12Z</time>
      </trkpt>
      <trkpt lat="45.00358" lon="5.75958">
        <ele>988</ele>
        <time>2017-12-18T12:52:20Z</time>
      </trkpt>
      <trkpt lat="45.00348" lon="5.75949">
        <ele>988</ele>
        <time>2017-12-18T12:52:30Z</time>
      </trkpt>
      <trkpt lat="45.00189" lon="5.75753">
        <ele>979</ele>
        <time>2017-12-18T12:52:34Z</time>
      </trkpt>
      <trkpt lat="45.00081" lon="5.75622">
        <ele>978</ele>
        <time>2017-12-18T12:52:49Z</time>
      </trkpt>
      <trkpt lat="44.99844" lon="5.75333">
        <ele>975</ele>
        <time>2017-12-18T12:53:06Z</time>
      </trkpt>
      <trkpt lat="44.9982" lon="5.75304">
        <ele>974</ele>
        <time>2017-12-18T12:53:15Z</time>
      </trkpt>
      <trkpt lat="44.99782" lon="5.75253">
        <ele>975</ele>
        <time>2017-12-18T12:53:28Z</time>
      </trkpt>
      <trkpt lat="44.99754" lon="5.75236">
        <ele>977</ele>
        <time>2017-12-18T12:53:43Z</time>
      </trkpt>
      <trkpt lat="44.99726" lon="5.75224">
        <ele>975</ele>
        <time>2017-12-18T12:54:01Z</time>
      </trkpt>
      <trkpt lat="44.99703" lon="5.75219">
        <ele>974</ele>
        <time>2017-12-18T12:54:07Z</time>
      </trkpt>
      <trkpt lat="44.99545" lon="5.75205">
        <ele>970</ele>
        <time>2017-12-18T12:54:17Z</time>
      </trkpt>
      <trkpt lat="44.99432" lon="5.75195">
        <ele>968</ele>
        <time>2017-12-18T12:54:35Z</time>
      </trkpt>
      <trkpt lat="44.99298" lon="5.7518">
        <ele>968</ele>
        <time>2017-12-18T12:54:44Z</time>
      </trkpt>
      <trkpt lat="44.99226" lon="5.75172">
        <ele>967</ele>
        <time>2017-12-18T12:54:57Z</time>
      </trkpt>
      <trkpt lat="44.9919" lon="5.75169">
        <ele>966</ele>
        <time>2017-12-18T12:55:10Z</time>
      </trkpt>
      <trkpt lat="44.99178" lon="5.75172">
        <ele>966</ele>
        <time>2017-12-18T12:55:30Z</time>
      </trkpt>
      <trkpt lat="44.99158" lon="5.7518">
        <ele>966</ele>
        <time>2017-12-18T12:55:40Z</time>
      </trkpt>
      <trkpt lat="44.99127" lon="5.75201">
        <ele>967</ele>
        <time>2017-12-18T12:55:53Z</time>
      </trkpt>
      <trkpt lat="44.99105" lon="5.75213">
        <ele>967</ele>
        <time>2017-12-18T12:55:55Z</time>
      </trkpt>
      <trkpt lat="44.99096" lon="5.75215">
        <ele>967</ele>
        <time>2017-12-18T12:55:59Z</time>
      </trkpt>
      <trkpt lat="44.99086" lon="5.75213">
        <ele>967</ele>
        <time>2017-12-18T12:56:04Z</time>
      </trkpt>
      <trkpt lat="44.99075" lon="5.75206">
        <ele>966</ele>
        <time>2017-12-18T12:56:14Z</time>
      </trkpt>
      <trkpt lat="44.99062" lon="5.75196">
        <ele>966</ele>
        <time>2017-12-18T12:56:21Z</time>
      </trkpt>
      <trkpt lat="44.99017" lon="5.75162">
        <ele>968</ele>
        <time>2017-12-18T12:56:27Z</time>
      </trkpt>
      <trkpt lat="44.98944" lon="5.75107">
        <ele>968</ele>
        <time>2017-12-18T12:56:47Z</time>
      </trkpt>
      <trkpt lat="44.98866" lon="5.75049">
        <ele>970</ele>
        <time>2017-12-18T12:56:56Z</time>
      </trkpt>
      <trkpt lat="44.9884" lon="5.75029">
        <ele>970</ele>
        <time>2017-12-18T12:57:03Z</time>
      </trkpt>
      <trkpt lat="44.98821" lon="5.7501">
        <ele>969</ele>
        <time>2017-12-18T12:57:14Z</time>
      </trkpt>
      <trkpt lat="44.98795" lon="5.74986">
        <ele>970</ele>
        <time>2017-12-18T12:57:30Z</time>
      </trkpt>
      <trkpt lat="44.98772" lon="5.74971">
        <ele>970</ele>
        <time>2017-12-18T12:57:47Z</time>
      </trkpt>
      <trkpt lat="44.98723" lon="5.74941">
        <ele>967</ele>
        <time>2017-12-18T12:57:53Z</time>
      </trkpt>
      <trkpt lat="44.98701" lon="5.74927">
        <ele>966</ele>
        <time>2017-12-18T12:58:12Z</time>
      </trkpt>
      <trkpt lat="44.98689" lon="5.7492">
        <ele>966</ele>
        <time>2017-12-18T12:58:28Z</time>
      </trkpt>
      <trkpt lat="44.98677" lon="5.74907">
        <ele>967</ele>
        <time>2017-12-18T12:58:31Z</time>
      </trkpt>
      <trkpt lat="44.98668" lon="5.74899">
        <ele>968</ele>
        <time>2017-12-18T12:58:39Z</time>
      </trkpt>
      <trkpt lat="44.98657" lon="5.74881">
        <ele>966</ele>
        <time>2017-12-18T12:58:57Z</time>
      </trkpt>
      <trkpt lat="44.98645" lon="5.74866">
        <ele>966</ele>
        <time>2017-12-18T12:59:16Z</time>
      </trkpt>
      <trkpt lat="44.98633" lon="5.74853">
        <ele>966</ele>
        <time>2017-12-18T12:59:22Z</time>
      </trkpt>
      <trkpt lat="44.98611" lon="5.7484">
        <ele>965</ele>
        <time>2017-12-18T12:59:41Z</time>
      </trkpt>
      <trkpt lat="44.98597" lon="5.74825">
        <ele>967</ele>
        <time>2017-12-18T12:59:51Z</time>
      </trkpt>
      <trkpt lat="44.98526" lon="5.74742">
        <ele>969</ele>
        <time>2017-12-18T13:00:10Z</time>
      </trkpt>
      <trkpt lat="44.98503" lon="5.74718">
        <ele>969</ele>
        <time>2017-12-18T13:00:25Z</time>
      </trkpt>
      <trkpt lat="44.98493" lon="5.74717">
        <ele>967</ele>
        <time>2017-12-18T13:00:43Z</time>
      </trkpt>
      <trkpt lat="44.9848" lon="5.7472">
        <ele>967</ele>
        <time>2017-12-18T13:00:52Z</time>
      </trkpt>
      <trkpt lat="44.98468" lon="5.74718">
        <ele>966</ele>
        <time>2017-12-18T13:00:58Z</time>
      </trkpt>
      <trkpt lat="44.98456" lon="5.74711">
        <ele>966</ele>
        <time>2017-12-18T13:01:14Z</time>
      </trkpt>
      <trkpt lat="44.98442" lon="5.74695">
        <ele>967</ele>
        <time>2017-12-18T13:01:25Z</time>
      </trkpt>
      <trkpt lat="44.98418" lon="5.7466">
        <ele>970</ele>
        <time>2017-12-18T13:01:40Z</time>
      </trkpt>
      <trkpt lat="44.98363" lon="5.7456">
        <ele>972</ele>
        <time>2017-12-18T13:01:42Z</time>
      </trkpt>
      <trkpt lat="44.98334" lon="5.7452">
        <ele>971</ele>
        <time>2017-12-18T13:01:49Z</time>
      </trkpt>
      <trkpt lat="44.98325" lon="5.74501">
        <ele>967</ele>
        <time>2017-12-18T13:02:05Z</time>
      </trkpt>
      <trkpt lat="44.98321" lon="5.74483">
        <ele>966</ele>
        <time>2017-12-18T13:02:16Z</time>
      </trkpt>
      <trkpt lat="44.9832" lon="5.74441">
        <ele>967</ele>
        <time>2017-12-18T13:02:21Z</time>
      </trkpt>
      <trkpt lat="44.9832" lon="5.74424">
        <ele>969</ele>
        <time>2017-12-18T13:02:30Z</time>
      </trkpt>
      <trkpt lat="44.98316" lon="5.74407">
        <ele>973</ele>
        <time>2017-12-18T13:02:41Z</time>
      </trkpt>
      <trkpt lat="44.98305" lon="5.74387">
        <ele>973</ele>
        <time>2017-12-18T13:02:45Z</time>
      </trkpt>
      <trkpt lat="44.98271" lon="5.74347">
        <ele>973</ele>
        <time>2017-12-18T13:02:58Z</time>
      </trkpt>
      <trkpt lat="44.98233" lon="5.74307">
        <ele>974</ele>
        <time>2017-12-18T13:03:03Z</time>
      </trkpt>
      <trkpt lat="44.98198" lon="5.74273">
        <ele>975</ele>
        <time>2017-12-18T13:03:23Z</time>
      </trkpt>
      <trkpt lat="44.98167" lon="5.74244">
        <ele>977</ele>
        <time>2017-12-18T13:03:33Z</time>
      </trkpt>
      <trkpt lat="44.98138" lon="5.74212">
        <ele>972</ele>
        <time>2017-12-18T13:03:42Z</time>
      </trkpt>
      <trkpt lat="44.98133" lon="5.74203">
        <ele>972</ele>
        <time>2017-12-18T13:03:45Z</time>
      </trkpt>
      <trkpt lat="44.98119" lon="5.74168">
        <ele>972</ele>
        <time>2017-12-18T13:03:53Z</time>
      </trkpt>
      <trkpt lat="44.98104" lon="5.74134">
        <ele>980</ele>
        <time>2017-12-18T13:04:10Z</time>
      </trkpt>
      <trkpt lat="44.9809" lon="5.74109">
        <ele>981</ele>
        <time>2017-12-18T13:04:15Z</time>
      </trkpt>
      <trkpt lat="44.98051" lon="5.74067">
        <ele>979</ele>
        <time>2017-12-18T13:04:25Z</time>
      </trkpt>
      <trkpt lat="44.98017" lon="5.74024">
        <ele>979</ele>
        <time>2017-12-18T13:04:36Z</time>
      </trkpt>
      <trkpt lat="44.97974" lon="5.73956">
        <ele>976</ele>
        <time>2017-12-18T13:04:56Z</time>
      </trkpt>
      <trkpt lat="44.97957" lon="5.73924">
        <ele>977</ele>
        <time>2017-12-18T13:05:04Z</time>
      </trkpt>
      <trkpt lat="44.97941" lon="5.739">
        <ele>983</ele>
        <time>2017-12-18T13:05:23Z</time>
      </trkpt>
      <trkpt lat="44.97896" lon="5.73856">
        <ele>972</ele>
        <time>2017-12-18T13:05:29Z</time>
      </trkpt>
      <trkpt lat="44.97876" lon="5.73835">
        <ele>969</ele>
        <time>2017-12-18T13:05:40Z</time>
      </trkpt>
      <trkpt lat="44.97858" lon="5.73813">
        <ele>974</ele>
        <time>2017-12-18T13:05:59Z</time>
      </trkpt>
      <trkpt lat="44.97843" lon="5.7379">
        <ele>976</ele>
        <time>2017-12-18T13:06:08Z</time>
      </trkpt>
      <trkpt lat="44.97826" lon="5.73757">
        <ele>965</ele>
        <time>2017-12-18T13:06:16Z</time>
      </trkpt>
      <trkpt lat="44.97821" lon="5.73742">
        <ele>967</ele>
        <time>2017-12-18T13:06:21Z</time>
      </trkpt>
      <trkpt lat="44.97807" lon="5.73687">
        <ele>963</ele>
        <time>2017-12-18T13:06:39Z</time>
      </trkpt>
      <trkpt lat="44.97809" lon="5.73663">
        <ele>967</ele>
        <time>2017-12-18T13:06:56Z</time>
      </trkpt>
      <trkpt lat="44.97825" lon="5.73619">
        <ele>966</ele>
        <time>2017-12-18T13:07:02Z</time>
      </trkpt>
      <trkpt lat="44.97844" lon="5.73577">
        <ele>984</ele>
        <time>2017-12-18T13:07:22Z</time>
      </trkpt>
      <trkpt lat="44.9785" lon="5.73555">
        <ele>990</ele>
        <time>2017-12-18T13:07:33Z</time>
      </trkpt>
      <trkpt lat="44.9785" lon="5.73541">
        <ele>991</ele>
        <time>2017-12-18T13:07:43Z</time>
      </trkpt>
      <trkpt lat="44.97847" lon="5.73535">
        <ele>991</ele>
        <time>2017-12-18T13:07:46Z</time>
      </trkpt>
      <trkpt lat="44.97844" lon="5.73529">
        <ele>991</ele>
        <time>2017-12-18T13:07:54Z</time>
      </trkpt>
      <trkpt lat="44.97838" lon="5.73525">
        <ele>990</ele>
        <time>2017-12-18T13:08:00Z</time>
      </trkpt>
      <trkpt lat="44.97826" lon="5.7352">
        <ele>975</ele>
        <time>2017-12-18T13:08:16Z</time>
      </trkpt>
      <trkpt lat="44.97794" lon="5.73496">
        <ele>983</ele>
        <time>2017-12-18T13:08:35Z</time>
      </trkpt>
      <trkpt lat="44.9774" lon="5.73445">
        <ele>965</ele>
        <time>2017-12-18T13:08:40Z</time>
      </trkpt>
      <trkpt lat="44.97721" lon="5.73419">
        <ele>965</ele>
        <time>2017-12-18T13:09:00Z</time>
      </trkpt>
      <trkpt lat="44.97712" lon="5.73397">
        <ele>973</ele>
        <time>2017-12-18T13:09:07Z</time>
      </trkpt>
      <trkpt lat="44.97707" lon="5.73365">
        <ele>974</ele>
        <time>2017-12-18T13:09:10Z</time>
      </trkpt>
      <trkpt lat="44.97706" lon="5.73343">
        <ele>975</ele>
        <time>2017-12-18T13:09:26Z</time>
      </trkpt>
      <trkpt lat="44.97707" lon="5.73315">
        <ele>987</ele>
        <time>2017-12-18T13:09:41Z</time>
      </trkpt>
      <trkpt lat="44.97707" lon="5.73294">
        <ele>989</ele>
        <time>2017-12-18T13:09:51Z</time>
      </trkpt>
      <trkpt lat="44.97704" lon="5.73287">
        <ele>990</ele>
        <time>2017-12-18T13:10:08Z</time>
      </trkpt>
      <trkpt lat="44.97698" lon="5.7328">
        <ele>989</ele>
        <time>2017-12-18T13:10:15Z</time>
      </trkpt>
      <trkpt lat="44.9764" lon="5.7326">
        <ele>971</ele>
        <time>2017-12-18T13:10:35Z</time>
      </trkpt>
      <trkpt lat="44.97613" lon="5.73248">
        <ele>981</ele>
        <time>2017-12-18T13:10:52Z</time>
      </trkpt>
      <trkpt lat="44.97586" lon="5.73225">
        <ele>980</ele>
        <time>2017-12-18T13:11:02Z</time>
      </trkpt>
      <trkpt lat="44.97566" lon="5.732">
        <ele>968</ele>
        <time>2017-12-18T13:11:20Z</time>
      </trkpt>
      <trkpt lat="44.97553" lon="5.7318">
        <ele>968</ele>
        <time>2017-12-18T13:11:37Z</time>
      </trkpt>
      <trkpt lat="44.97546" lon="5.73161">
        <ele>972</ele>
        <time>2017-12-18T13:11:46Z</time>
      </trkpt>
      <trkpt lat="44.97542" lon="5.73143">
        <ele>972</ele>
        <time>2017-12-18T13:11:49Z</time>
      </trkpt>
      <trkpt lat="44.97542" lon="5.73125">
        <ele>972</ele>
        <time>2017-12-18T13:11:57Z</time>
      </trkpt>
      <trkpt lat="44.97547" lon="5.73086">
        <ele>974</ele>
        <time>2017-12-18T13:12:02Z</time>
      </trkpt>
      <trkpt lat="44.97544" lon="5.73051">
        <ele>976</ele>
        <time>2017-12-18T13:12:22Z</time>
      </trkpt>
      <trkpt lat="44.97538" lon="5.73024">
        <ele>976</ele>
        <time>2017-12-18T13:12:31Z</time>
      </trkpt>
      <trkpt lat="44.97512" lon="5.72941">
        <ele>978</ele>
        <time>2017-12-18T13:12:38Z</time>
      </trkpt>
      <trkpt lat="44.97498" lon="5.72877">
        <ele>963</ele>
        <time>2017-12-18T13:12:46Z</time>
      </trkpt>
      <trkpt lat="44.97497" lon="5.72849">
        <ele>965</ele>
        <time>2017-12-18T13:13:00Z</time>
      </trkpt>
      <trkpt lat="44.97501" lon="5.72812">
        <ele>977</ele>
        <time>2017-12-18T13:13:08Z</time>
      </trkpt>
      <trkpt lat="44.97504" lon="5.7277">
        <ele>977</ele>
        <time>2017-12-18T13:13:14Z</time>
      </trkpt>
      <trkpt lat="44.97503" lon="5.72736">
        <ele>976</ele>
        <time>2017-12-18T13:13:24Z</time>
      </trkpt>
      <trkpt lat="44.975" lon="5.72715">
        <ele>978</ele>
        <time>2017-12-18T13:13:35Z</time>
      </trkpt>
      <trkpt lat="44.97493" lon="5.72684">
        <ele>966</ele>
        <time>2017-12-18T13:13:40Z</time>
      </trkpt>
      <trkpt lat="44.9749" lon="5.72661">
        <ele>967</ele>
        <time>2017-12-18T13:13:51Z</time>
      </trkpt>
      <trkpt lat="44.97493" lon="5.72628">
        <ele>964</ele>
        <time>2017-12-18T13:14:08Z</time>
      </trkpt>
      <trkpt lat="44.97504" lon="5.72602">
        <ele>974</ele>
        <time>2017-12-18T13:14:20Z</time>
      </trkpt>
      <trkpt lat="44.97519" lon="5.72583">
        <ele>975</ele>
        <time>2017-12-18T13:14:38Z</time>
      </trkpt>
      <trkpt lat="44.97524" lon="5.7257">
        <ele>977</ele>
        <time>2017-12-18T13:14:42Z</time>
      </trkpt>
      <trkpt lat="44.97523" lon="5.7256">
        <ele>978</ele>
        <time>2017-12-18T13:14:56Z</time>
      </trkpt>
      <trkpt lat="44.97519" lon="5.72548">
        <ele>979</ele>
        <time>2017-12-18T13:15:11Z</time>
      </trkpt>
      <trkpt lat="44.97512" lon="5.72537">
        <ele>979</ele>
        <time>2017-12-18T13:15:19Z</time>
      </trkpt>
      <trkpt lat="44.97502" lon="5.72533">
        <ele>978</ele>
        <time>2017-12-18T13:15:33Z</time>
      </trkpt>
      <trkpt lat="44.97426" lon="5.72519">
        <ele>966</ele>
        <time>2017-12-18T13:15:50Z</time>
      </trkpt>
      <trkpt lat="44.97398" lon="5.72518">
        <ele>959</ele>
        <time>2017-12-18T13:16:04Z</time>
      </trkpt>
      <trkpt lat="44.97366" lon="5.72523">
        <ele>956</ele>
        <time>2017-12-18T13:16:09Z</time>
      </trkpt>
      <trkpt lat="44.97322" lon="5.72529">
        <ele>948</ele>
        <time>2017-12-18T13:16:21Z</time>
      </trkpt>
      <trkpt lat="44.97288" lon="5.72541">
        <ele>944</ele>
        <time>2017-12-18T13:16:27Z</time>
      </trkpt>
      <trkpt lat="44.97276" lon="5.72541">
        <ele>943</ele>
        <time>2017-12-18T13:16:43Z</time>
      </trkpt>
      <trkpt lat="44.97265" lon="5.72537">
        <ele>943</ele>
        <time>2017-12-18T13:16:48Z</time>
      </trkpt>
      <trkpt lat="44.97259" lon="5.7253">
        <ele>943</ele>
        <time>2017-12-18T13:17:05Z</time>
      </trkpt>
      <trkpt lat="44.97251" lon="5.72513">
        <ele>943</ele>
        <time>2017-12-18T13:17:18Z</time>
      </trkpt>
      <trkpt lat="44.97225" lon="5.72463">
        <ele>934</ele>
        <time>2017-12-18T13:17:25Z</time>
      </trkpt>
      <trkpt lat="44.97209" lon="5.72421">
        <ele>932</ele>
        <time>2017-12-18T13:17:34Z</time>
      </trkpt>
      <trkpt lat="44.97202" lon="5.72393">
        <ele>934</ele>
        <time>2017-12-18T13:17:48Z</time>
      </trkpt>
      <trkpt lat="44.97201" lon="5.72378">
        <ele>935</ele>
        <time>2017-12-18T13:18:06Z</time>
      </trkpt>
      <trkpt lat="44.97204" lon="5.72342">
        <ele>936</ele>
        <time>2017-12-18T13:18:24Z</time>
      </trkpt>
      <trkpt lat="44.97199" lon="5.72331">
        <ele>942</ele>
        <time>2017-12-18T13:18:42Z</time>
      </trkpt>
      <trkpt lat="44.97191" lon="5.72324">
        <ele>940</ele>
        <time>2017-12-18T13:18:44Z</time>
      </trkpt>
      <trkpt lat="44.97185" lon="5.72324">
        <ele>938</ele>
        <time>2017-12-18T13:18:48Z</time>
      </trkpt>
      <trkpt lat="44.97169" lon="5.72329">
        <ele>930</ele>
        <time>2017-12-18T13:19:02Z</time>
      </trkpt>
      <trkpt lat="44.97158" lon="5.7233">
        <ele>925</ele>
        <time>2017-12-18T13:19:13Z</time>
      </trkpt>
      <trkpt lat="44.97148" lon="5.72328">
        <ele>923</ele>
        <time>2017-12-18T13:19:25Z</time>
      </trkpt>
      <trkpt lat="44.97139" lon="5.72321">
        <ele>922</ele>
        <time>2017-12-18T13:19:40Z</time>
      </trkpt>
      <trkpt lat="44.97133" lon="5.72315">
        <ele>921</ele>
        <time>2017-12-18T13:19:56Z</time>
      </trkpt>
      <trkpt lat="44.97121" lon="5.72295">
        <ele>921</ele>
        <time>2017-12-18T13:20:06Z</time>
      </trkpt>
      <trkpt lat="44.97112" lon="5.72272">
        <ele>922</ele>
        <time>2017-12-18T13:20:22Z</time>
      </trkpt>
      <trkpt lat="44.97109" lon="5.72252">
        <ele>923</ele>
        <time>2017-12-18T13:20:26Z</time>
      </trkpt>
      <trkpt lat="44.97106" lon="5.72243">
        <ele>933</ele>
        <time>2017-12-18T13:20:45Z</time>
      </trkpt>
      <trkpt lat="44.97102" lon="5.72237">
        <ele>933</ele>
        <time>2017-12-18T13:20:55Z</time>
      </trkpt>
      <trkpt lat="44.97096" lon="5.72234">
        <ele>932</ele>
        <time>2017-12-18T13:21:00Z</time>
      </trkpt>
      <trkpt lat="44.97088" lon="5.72235">
        <ele>930</ele>
        <time>2017-12-18T13:21:15Z</time>
      </trkpt>
      <trkpt lat="44.97068" lon="5.7224">
        <ele>925</ele>
        <time>2017-12-18T13:21:35Z</time>
      </trkpt>
      <trkpt lat="44.9706" lon="5.72244">
        <ele>925</ele>
        <time>2017-12-18T13:21:53Z</time>
      </trkpt>
      <trkpt lat="44.97049" lon="5.72253">
        <ele>912</ele>
        <time>2017-12-18T13:21:57Z</time>
      </trkpt>
      <trkpt lat="44.97038" lon="5.72266">
        <ele>910</ele>
        <time>2017-12-18T13:22:05Z</time>
      </trkpt>
      <trkpt lat="44.97025" lon="5.72281">
        <ele>908</ele>
        <time>2017-12-18T13:22:07Z</time>
      </trkpt>
      <trkpt lat="44.97019" lon="5.72284">
        <ele>908</ele>
        <time>2017-12-18T13:22:17Z</time>
      </trkpt>
      <trkpt lat="44.97003" lon="5.72286">
        <ele>907</ele>
        <time>2017-12-18T13:22:21Z</time>
      </trkpt>
      <trkpt lat="44.96922" lon="5.72279">
        <ele>903</ele>
        <time>2017-12-18T13:22:33Z</time>
      </trkpt>
      <trkpt lat="44.9688" lon="5.72273">
        <ele>894</ele>
        <time>2017-12-18T13:22:43Z</time>
      </trkpt>
      <trkpt lat="44.9686" lon="5.72267">
        <ele>893</ele>
        <time>2017-12-18T13:22:49Z</time>
      </trkpt>
      <trkpt lat="44.96824" lon="5.72252">
        <ele>887</ele>
        <time>2017-12-18T13:22:52Z</time>
      </trkpt>
      <trkpt lat="44.96762" lon="5.7222">
        <ele>888</ele>
        <time>2017-12-18T13:23:11Z</time>
      </trkpt>
      <trkpt lat="44.96674" lon="5.72172">
        <ele>878</ele>
        <time>2017-12-18T13:23:30Z</time>
      </trkpt>
      <trkpt lat="44.96653" lon="5.72163">
        <ele>877</ele>
        <time>2017-12-18T13:23:50Z</time>
      </trkpt>
      <trkpt lat="44.96638" lon="5.72161">
        <ele>877</ele>
        <time>2017-12-18T13:23:56Z</time>
      </trkpt>
      <trkpt lat="44.96603" lon="5.72162">
        <ele>872</ele>
        <time>2017-12-18T13:24:10Z</time>
      </trkpt>
      <trkpt lat="44.9659" lon="5.72158">
        <ele>870</ele>
        <time>2017-12-18T13:24:27Z</time>
      </trkpt>
      <trkpt lat="44.96576" lon="5.72148">
        <ele>866</ele>
        <time>2017-12-18T13:24:35Z</time>
      </trkpt>
      <trkpt lat="44.96566" lon="5.72146">
        <ele>866</ele>
        <time>2017-12-18T13:24:37Z</time>
      </trkpt>
      <trkpt lat="44.96555" lon="5.72152">
        <ele>866</ele>
        <time>2017-12-18T13:24:48Z</time>
      </trkpt>
      <trkpt lat="44.96532" lon="5.72168">
        <ele>860</ele>
        <time>2017-12-18T13:24:50Z</time>
      </trkpt>
      <trkpt lat="44.96512" lon="5.72181">
        <ele>859</ele>
        <time>2017-12-18T13:25:06Z</time>
      </trkpt>
      <trkpt lat="44.96497" lon="5.72187">
        <ele>855</ele>
        <time>2017-12-18T13:25:15Z</time>
      </trkpt>
      <trkpt lat="44.96483" lon="5.72191">
        <ele>853</ele>
        <time>2017-12-18T13:25:22Z</time>
      </trkpt>
      <trkpt lat="44.96465" lon="5.72186">
        <ele>852</ele>
        <time>2017-12-18T13:25:31Z</time>
      </trkpt>
      <trkpt lat="44.96434" lon="5.7217">
        <ele>851</ele>
        <time>2017-12-18T13:25:49Z</time>
      </trkpt>
      <trkpt lat="44.96411" lon="5.72163">
        <ele>849</ele>
        <time>2017-12-18T13:25:52Z</time>
      </trkpt>
      <trkpt lat="44.96428" lon="5.72157">
        <ele>853</ele>
        <time>2017-12-18T13:26:03Z</time>
      </trkpt>
      <trkpt lat="44.96444" lon="5.72156">
        <ele>854</ele>
        <time>2017-12-18T13:26:17Z</time>
      </trkpt>
      <trkpt lat="44.96453" lon="5.72156">
        <ele>855</ele>
        <time>2017-12-18T13:26:27Z</time>
      </trkpt>
      <trkpt lat="44.9645" lon="5.72146">
        <ele>855</ele>
        <time>2017-12-18T13:26:41Z</time>
      </trkpt>
      <trkpt lat="44.96439" lon="5.72135">
        <ele>854</ele>
        <time>2017-12-18T13:27:01Z</time>
      </trkpt>
      <trkpt lat="44.96424" lon="5.72123">
        <ele>853</ele>
        <time>2017-12-18T13:27:03Z</time>
      </trkpt>
      <trkpt lat="44.9641" lon="5.72102">
        <ele>845</ele>
        <time>2017-12-18T13:27:16Z</time>
      </trkpt>
      <trkpt lat="44.96395" lon="5.72113">
        <ele>844</ele>
        <time>2017-12-18T13:27:27Z</time>
      </trkpt>
      <trkpt lat="44.96383" lon="5.72127">
        <ele>843</ele>
        <time>2017-12-18T13:27:43Z</time>
      </trkpt>
      <trkpt lat="44.96381" lon="5.72132">
        <ele>843</ele>
        <time>2017-12-18T13:27:55Z</time>
      </trkpt>
      <trkpt lat="44.96372" lon="5.72126">
        <ele>842</ele>
        <time>2017-12-18T13:28:00Z</time>
      </trkpt>
      <trkpt lat="44.96363" lon="5.72128">
        <ele>841</ele>
        <time>2017-12-18T13:28:09Z</time>
      </trkpt>
      <trkpt lat="44.96359" lon="5.72137">
        <ele>841</ele>
        <time>2017-12-18T13:28:23Z</time>
      </trkpt>
      <trkpt lat="44.96361" lon="5.7215">
        <ele>841</ele>
        <time>2017-12-18T13:28:25Z</time>
      </trkpt>
      <trkpt lat="44.96361" lon="5.7216">
        <ele>841</ele>
        <time>2017-12-18T13:28:39Z</time>
      </trkpt>
      <trkpt lat="44.96354" lon="5.72163">
        <ele>839</ele>
        <time>2017-12-18T13:28:48Z</time>
      </trkpt>
      <trkpt lat="44.96338" lon="5.72157">
        <ele>838</ele>
        <time>2017-12-18T13:29:06Z</time>
      </trkpt>
      <trkpt lat="44.96325" lon="5.72144">
        <ele>826</ele>
        <time>2017-12-18T13:29:21Z</time>
      </trkpt>
      <trkpt lat="44.96319" lon="5.72125">
        <ele>824</ele>
        <time>2017-12-18T13:29:30Z</time>
      </trkpt>
      <trkpt lat="44.9632" lon="5.72108">
        <ele>825</ele>
        <time>2017-12-18T13:29:45Z</time>
      </trkpt>
      <trkpt lat="44.96337" lon="5.72073">
        <ele>837</ele>
        <time>2017-12-18T13:29:51Z</time>
      </trkpt>
      <trkpt lat="44.96343" lon="5.7205">
        <ele>838</ele>
        <time>2017-12-18T13:29:57Z</time>
      </trkpt>
      <trkpt lat="44.96345" lon="5.72011">
        <ele>835</ele>
        <time>2017-12-18T13:29:59Z</time>
      </trkpt>
      <trkpt lat="44.96345" lon="5.71961">
        <ele>834</ele>
        <time>2017-12-18T13:30:14Z</time>
      </trkpt>
      <trkpt lat="44.96343" lon="5.71924">
        <ele>829</ele>
        <time>2017-12-18T13:30:27Z</time>
      </trkpt>
      <trkpt lat="44.96339" lon="5.71905">
        <ele>829</ele>
        <time>2017-12-18T13:30:46Z</time>
      </trkpt>
      <trkpt lat="44.96312" lon="5.71847">
        <ele>820</ele>
        <time>2017-12-18T13:30:56Z</time>
      </trkpt>
      <trkpt lat="44.96289" lon="5.71809">
        <ele>822</ele>
        <time>2017-12-18T13:31:07Z</time>
      </trkpt>
      <trkpt lat="44.9626" lon="5.7177">
        <ele>821</ele>
        <time>2017-12-18T13:31:09Z</time>
      </trkpt>
      <trkpt lat="44.9622" lon="5.71725">
        <ele>817</ele>
        <time>2017-12-18T13:31:11Z</time>
      </trkpt>
      <trkpt lat="44.96206" lon="5.7171">
        <ele>817</ele>
        <time>2017-12-18T13:31:17Z</time>
      </trkpt>
      <trkpt lat="44.96201" lon="5.71708">
        <ele>816</ele>
        <time>2017-12-18T13:31:26Z</time>
      </trkpt>
      <trkpt lat="44.96197" lon="5.71715">
        <ele>815</ele>
        <time>2017-12-18T13:31:42Z</time>
      </trkpt>
      <trkpt lat="44.96199" lon="5.71727">
        <ele>814</ele>
        <time>2017-12-18T13:31:49Z</time>
      </trkpt>
      <trkpt lat="44.96221" lon="5.71797">
        <ele>806</ele>
        <time>2017-12-18T13:32:01Z</time>
      </trkpt>
      <trkpt lat="44.96231" lon="5.71833">
        <ele>806</ele>
        <time>2017-12-18T13:32:16Z</time>
      </trkpt>
      <trkpt lat="44.96232" lon="5.71849">
        <ele>804</ele>
        <time>2017-12-18T13:32:29Z</time>
      </trkpt>
      <trkpt lat="44.96229" lon="5.71861">
        <ele>803</ele>
        <time>2017-12-18T13:32:46Z</time>
      </trkpt>
      <trkpt lat="44.96214" lon="5.7189">
        <ele>801</ele>
        <time>2017-12-18T13:32:52Z</time>
      </trkpt>
      <trkpt lat="44.96205" lon="5.71905">
        <ele>800</ele>
        <time>2017-12-18T13:32:55Z</time>
      </trkpt>
      <trkpt lat="44.96203" lon="5.71915">
        <ele>799</ele>
        <time>2017-12-18T13:33:07Z</time>
      </trkpt>
      <trkpt lat="44.96203" lon="5.71922">
        <ele>796</ele>
        <time>2017-12-18T13:33:15Z</time>
      </trkpt>
      <trkpt lat="44.96215" lon="5.71949">
        <ele>797</ele>
        <time>2017-12-18T13:33:25Z</time>
      </trkpt>
      <trkpt lat="44.96225" lon="5.71979">
        <ele>798</ele>
        <time>2017-12-18T13:33:42Z</time>
      </trkpt>
      <trkpt lat="44.96228" lon="5.7199">
        <ele>799</ele>
        <time>2017-12-18T13:33:50Z</time>
      </trkpt>
      <trkpt lat="44.96226" lon="5.71995">
        <ele>799</ele>
        <time>2017-12-18T13:34:03Z</time>
      </trkpt>
      <trkpt lat="44.96222" lon="5.71996">
        <ele>798</ele>
        <time>2017-12-18T13:34:22Z</time>
      </trkpt>
      <trkpt lat="44.96219" lon="5.71991">
        <ele>797</ele>
        <time>2017-12-18T13:34:29Z</time>
      </trkpt>
      <trkpt lat="44.96214" lon="5.71971">
        <ele>796</ele>
        <time>2017-12-18T13:34:31Z</time>
      </trkpt>
      <trkpt lat="44.96209" lon="5.71957">
        <ele>796</ele>
        <time>2017-12-18T13:34:49Z</time>
      </trkpt>
      <trkpt lat="44.962" lon="5.71944">
        <ele>795</ele>
        <time>2017-12-18T13:35:05Z</time>
      </trkpt>
      <trkpt lat="44.96185" lon="5.71927">
        <ele>793</ele>
        <time>2017-12-18T13:35:18Z</time>
      </trkpt>
      <trkpt lat="44.96166" lon="5.71905">
        <ele>787</ele>
        <time>2017-12-18T13:35:33Z</time>
      </trkpt>
      <trkpt lat="44.96151" lon="5.71884">
        <ele>786</ele>
        <time>2017-12-18T13:35:46Z</time>
      </trkpt>
      <trkpt lat="44.96133" lon="5.71832">
        <ele>790</ele>
        <time>2017-12-18T13:35:58Z</time>
      </trkpt>
      <trkpt lat="44.96125" lon="5.71813">
        <ele>789</ele>
        <time>2017-12-18T13:36:18Z</time>
      </trkpt>
      <trkpt lat="44.96112" lon="5.71805">
        <ele>788</ele>
        <time>2017-12-18T13:36:23Z</time>
      </trkpt>
      <trkpt lat="44.96098" lon="5.71795">
        <ele>787</ele>
        <time>2017-12-18T13:36:26Z</time>
      </trkpt>
      <trkpt lat="44.96072" lon="5.71772">
        <ele>779</ele>
        <time>2017-12-18T13:36:33Z</time>
      </trkpt>
      <trkpt lat="44.96039" lon="5.71752">
        <ele>776</ele>
        <time>2017-12-18T13:36:47Z</time>
      </trkpt>
      <trkpt lat="44.96022" lon="5.71735">
        <ele>778</ele>
        <time>2017-12-18T13:36:59Z</time>
      </trkpt>
      <trkpt lat="44.96016" lon="5.71726">
        <ele>778</ele>
        <time>2017-12-18T13:37:19Z</time>
      </trkpt>
      <trkpt lat="44.96013" lon="5.71722">
        <ele>778</ele>
        <time>2017-12-18T13:37:37Z</time>
      </trkpt>
      <trkpt lat="44.95983" lon="5.71651">
        <ele>768</ele>
        <time>2017-12-18T13:37:40Z</time>
      </trkpt>
      <trkpt lat="44.95973" lon="5.71633">
        <ele>765</ele>
        <time>2017-12-18T13:37:52Z</time>
      </trkpt>
      <trkpt lat="44.95965" lon="5.71627">
        <ele>764</ele>
        <time>2017-12-18T13:38:05Z</time>
      </trkpt>
      <trkpt lat="44.95952" lon="5.71621">
        <ele>762</ele>
        <time>2017-12-18T13:38:08Z</time>
      </trkpt>
      <trkpt lat="44.9594" lon="5.71612">
        <ele>760</ele>
        <time>2017-12-18T13:38:15Z</time>
      </trkpt>
      <trkpt lat="44.95933" lon="5.71601">
        <ele>758</ele>
        <time>2017-12-18T13:38:19Z</time>
      </trkpt>
      <trkpt lat="44.95931" lon="5.7159">
        <ele>756</ele>
        <time>2017-12-18T13:38:37Z</time>
      </trkpt>
      <trkpt lat="44.95931" lon="5.71584">
        <ele>756</ele>
        <time>2017-12-18T13:38:51Z</time>
      </trkpt>
      <trkpt lat="44.95939" lon="5.71559">
        <ele>761</ele>
        <time>2017-12-18T13:39:01Z</time>
      </trkpt>
      <trkpt lat="44.95943" lon="5.71535">
        <ele>762</ele>
        <time>2017-12-18T13:39:18Z</time>
      </trkpt>
      <trkpt lat="44.9594" lon="5.71507">
        <ele>760</ele>
        <time>2017-12-18T13:39:37Z</time>
      </trkpt>
      <trkpt lat="44.95929" lon="5.7147">
        <ele>758</ele>
        <time>2017-12-18T13:39:41Z</time>
      </trkpt>
      <trkpt lat="44.95911" lon="5.71424">
        <ele>747</ele>
        <time>2017-12-18T13:39:46Z</time>
      </trkpt>
      <trkpt lat="44.95893" lon="5.71388">
        <ele>745</ele>
        <time>2017-12-18T13:39:55Z</time>
      </trkpt>
      <trkpt lat="44.95869" lon="5.71353">
        <ele>742</ele>
        <time>2017-12-18T13:40:05Z</time>
      </trkpt>
      <trkpt lat="44.9584" lon="5.71326">
        <ele>740</ele>
        <time>2017-12-18T13:40:22Z</time>
      </trkpt>
      <trkpt lat="44.95824" lon="5.71307">
        <ele>730</ele>
        <time>2017-12-18T13:40:41Z</time>
      </trkpt>
      <trkpt lat="44.95813" lon="5.71282">
        <ele>729</ele>
        <time>2017-12-18T13:40:49Z</time>
      </trkpt>
      <trkpt lat="44.95806" lon="5.71251">
        <ele>730</ele>
        <time>2017-12-18T13:41:02Z</time>
      </trkpt>
      <trkpt lat="44.95803" lon="5.71184">
        <ele>729</ele>
        <time>2017-12-18T13:41:14Z</time>
      </trkpt>
      <trkpt lat="44.95804" lon="5.71154">
        <ele>729</ele>
        <time>2017-12-18T13:41:26Z</time>
      </trkpt>
      <trkpt lat="44.95802" lon="5.71136">
        <ele>729</ele>
        <time>2017-12-18T13:41:33Z</time>
      </trkpt>
      <trkpt lat="44.95797" lon="5.71111">
        <ele>728</ele>
        <time>2017-12-18T13:41:44Z</time>
      </trkpt>
      <trkpt lat="44.95782" lon="5.71075">
        <ele>728</ele>
        <time>2017-12-18T13:41:59Z</time>
      </trkpt>
      <trkpt lat="44.95771" lon="5.71058">
        <ele>728</ele>
        <time>2017-12-18T13:42:12Z</time>
      </trkpt>
      <trkpt lat="44.95755" lon="5.71043">
        <ele>728</ele>
        <time>2017-12-18T13:42:17Z</time>
      </trkpt>
      <trkpt lat="44.95738" lon="5.71029">
        <ele>713</ele>
        <time>2017-12-18T13:42:26Z</time>
      </trkpt>
      <trkpt lat="44.95725" lon="5.71009">
        <ele>713</ele>
        <time>2017-12-18T13:42:42Z</time>
      </trkpt>
      <trkpt lat="44.95714" lon="5.70982">
        <ele>713</ele>
        <time>2017-12-18T13:42:56Z</time>
      </trkpt>
      <trkpt lat="44.95706" lon="5.70959">
        <ele>712</ele>
        <time>2017-12-18T13:42:59Z</time>
      </trkpt>
      <trkpt lat="44.957" lon="5.70935">
        <ele>711</ele>
        <time>2017-12-18T13:43:19Z</time>
      </trkpt>
      <trkpt lat="44.95696" lon="5.7093">
        <ele>710</ele>
        <time>2017-12-18T13:43:25Z</time>
      </trkpt>
      <trkpt lat="44.95692" lon="5.70932">
        <ele>709</ele>
        <time>2017-12-18T13:43:31Z</time>
      </trkpt>
      <trkpt lat="44.95689" lon="5.70942">
        <ele>709</ele>
        <time>2017-12-18T13:43:42Z</time>
      </trkpt>
      <trkpt lat="44.9569" lon="5.70978">
        <ele>708</ele>
        <time>2017-12-18T13:43:59Z</time>
      </trkpt>
      <trkpt lat="44.9569" lon="5.71008">
        <ele>705</ele>
        <time>2017-12-18T13:44:16Z</time>
      </trkpt>
      <trkpt lat="44.95696" lon="5.71038">
        <ele>707</ele>
        <time>2017-12-18T13:44:22Z</time>
      </trkpt>
      <trkpt lat="44.95706" lon="5.71068">
        <ele>707</ele>
        <time>2017-12-18T13:44:24Z</time>
      </trkpt>
      <trkpt lat="44.95707" lon="5.71083">
        <ele>707</ele>
        <time>2017-12-18T13:44:33Z</time>
      </trkpt>
      <trkpt lat="44.95706" lon="5.71098">
        <ele>704</ele>
        <time>2017-12-18T13:44:40Z</time>
      </trkpt>
      <trkpt lat="44.95709" lon="5.71115">
        <ele>704</ele>
        <time>2017-12-18T13:44:45Z</time>
      </trkpt>
      <trkpt lat="44.95712" lon="5.71144">
        <ele>704</ele>
        <time>2017-12-18T13:44:50Z</time>
      </trkpt>
      <trkpt lat="44.95707" lon="5.71182">
        <ele>700</ele>
        <time>2017-12-18T13:45:10Z</time>
      </trkpt>
      <trkpt lat="44.95697" lon="5.71218">
        <ele>698</ele>
        <time>2017-12-18T13:45:21Z</time>
      </trkpt>
      <trkpt lat="44.95691" lon="5.71252">
        <ele>693</ele>
        <time>2017-12-18T13:45:31Z</time>
      </trkpt>
      <trkpt lat="44.95692" lon="5.71336">
        <ele>686</ele>
        <time>2017-12-18T13:45:49Z</time>
      </trkpt>
      <trkpt lat="44.95694" lon="5.71365">
        <ele>687</ele>
        <time>2017-12-18T13:46:06Z</time>
      </trkpt>
      <trkpt lat="44.95705" lon="5.71391">
        <ele>687</ele>
        <time>2017-12-18T13:46:12Z</time>
      </trkpt>
      <trkpt lat="44.9571" lon="5.71409">
        <ele>688</ele>
        <time>2017-12-18T13:46:26Z</time>
      </trkpt>
      <trkpt lat="44.95708" lon="5.71414">
        <ele>687</ele>
        <time>2017-12-18T13:46:41Z</time>
      </trkpt>
      <trkpt lat="44.95702" lon="5.71416">
        <ele>685</ele>
        <time>2017-12-18T13:47:01Z</time>
      </trkpt>
      <trkpt lat="44.95696" lon="5.71406">
        <ele>684</ele>
        <time>2017-12-18T13:47:09Z</time>
      </trkpt>
      <trkpt lat="44.95684" lon="5.71362">
        <ele>685</ele>
        <time>2017-12-18T13:47:26Z</time>
      </trkpt>
      <trkpt lat="44.95674" lon="5.71321">
        <ele>685</ele>
        <time>2017-12-18T13:47:29Z</time>
      </trkpt>
      <trkpt lat="44.95665" lon="5.71293">
        <ele>671</ele>
        <time>2017-12-18T13:47:40Z</time>
      </trkpt>
      <trkpt lat="44.95654" lon="5.71268">
        <ele>673</ele>
        <time>2017-12-18T13:47:51Z</time>
      </trkpt>
      <trkpt lat="44.95633" lon="5.71219">
        <ele>674</ele>
        <time>2017-12-18T13:48:05Z</time>
      </trkpt>
      <trkpt lat="44.95611" lon="5.71196">
        <ele>671</ele>
        <time>2017-12-18T13:48:14Z</time>
      </trkpt>
      <trkpt lat="44.95596" lon="5.71176">
        <ele>667</ele>
        <time>2017-12-18T13:48:29Z</time>
      </trkpt>
      <trkpt lat="44.95591" lon="5.71171">
        <ele>665</ele>
        <time>2017-12-18T13:48:47Z</time>
      </trkpt>
      <trkpt lat="44.95588" lon="5.71171">
        <ele>664</ele>
        <time>2017-12-18T13:49:01Z</time>
      </trkpt>
      <trkpt lat="44.95584" lon="5.71174">
        <ele>664</ele>
        <time>2017-12-18T13:49:17Z</time>
      </trkpt>
      <trkpt lat="44.95585" lon="5.71185">
        <ele>667</ele>
        <time>2017-12-18T13:49:25Z</time>
      </trkpt>
      <trkpt lat="44.95597" lon="5.71212">
        <ele>669</ele>
        <time>2017-12-18T13:49:37Z</time>
      </trkpt>
      <trkpt lat="44.95602" lon="5.71227">
        <ele>668</ele>
        <time>2017-12-18T13:49:41Z</time>
      </trkpt>
      <trkpt lat="44.95606" lon="5.71244">
        <ele>668</ele>
        <time>2017-12-18T13:49:57Z</time>
      </trkpt>
      <trkpt lat="44.95612" lon="5.71266">
        <ele>664</ele>
        <time>2017-12-18T13:50:04Z</time>
      </trkpt>
      <trkpt lat="44.95623" lon="5.71282">
        <ele>666</ele>
        <time>2017-12-18T13:50:20Z</time>
      </trkpt>
      <trkpt lat="44.95633" lon="5.71302">
        <ele>666</ele>
        <time>2017-12-18T13:50:38Z</time>
      </trkpt>
      <trkpt lat="44.95642" lon="5.71337">
        <ele>662</ele>
        <time>2017-12-18T13:50:45Z</time>
      </trkpt>
      <trkpt lat="44.95647" lon="5.71369">
        <ele>660</ele>
        <time>2017-12-18T13:50:54Z</time>
      </trkpt>
      <trkpt lat="44.95646" lon="5.71393">
        <ele>659</ele>
        <time>2017-12-18T13:51:11Z</time>
      </trkpt>
      <trkpt lat="44.95639" lon="5.71411">
        <ele>658</ele>
        <time>2017-12-18T13:51:17Z</time>
      </trkpt>
      <trkpt lat="44.95634" lon="5.71429">
        <ele>653</ele>
        <time>2017-12-18T13:51:25Z</time>
      </trkpt>
      <trkpt lat="44.95633" lon="5.7145">
        <ele>651</ele>
        <time>2017-12-18T13:51:27Z</time>
      </trkpt>
      <trkpt lat="44.95636" lon="5.71478">
        <ele>652</ele>
        <time>2017-12-18T13:51:39Z</time>
      </trkpt>
      <trkpt lat="44.95637" lon="5.71501">
        <ele>651</ele>
        <time>2017-12-18T13:51:59Z</time>
      </trkpt>
      <trkpt lat="44.95635" lon="5.71527">
        <ele>650</ele>
        <time>2017-12-18T13:52:19Z</time>
      </trkpt>
      <trkpt lat="44.95634" lon="5.71555">
        <ele>649</ele>
        <time>2017-12-18T13:52:32Z</time>
      </trkpt>
      <trkpt lat="44.95635" lon="5.71582">
        <ele>650</ele>
        <time>2017-12-18T13:52:51Z</time>
      </trkpt>
      <trkpt lat="44.9563" lon="5.71608">
        <ele>647</ele>
        <time>2017-12-18T13:53:07Z</time>
      </trkpt>
      <trkpt lat="44.95621" lon="5.7164">
        <ele>645</ele>
        <time>2017-12-18T13:53:13Z</time>
      </trkpt>
      <trkpt lat="44.95617" lon="5.71654">
        <ele>644</ele>
        <time>2017-12-18T13:53:22Z</time>
      </trkpt>
      <trkpt lat="44.95602" lon="5.71673">
        <ele>640</ele>
        <time>2017-12-18T13:53:28Z</time>
      </trkpt>
      <trkpt lat="44.95587" lon="5.71699">
        <ele>641</ele>
        <time>2017-12-18T13:53:37Z</time>
      </trkpt>
      <trkpt lat="44.95576" lon="5.71731">
        <ele>643</ele>
        <time>2017-12-18T13:53:47Z</time>
      </trkpt>
      <trkpt lat="44.95574" lon="5.71736">
        <ele>643</ele>
        <time>2017-12-18T13:53:59Z</time>
      </trkpt>
      <trkpt lat="44.95569" lon="5.71741">
        <ele>643</ele>
        <time>2017-12-18T13:54:04Z</time>
      </trkpt>
      <trkpt lat="44.95555" lon="5.71743">
        <ele>646</ele>
        <time>2017-12-18T13:54:21Z</time>
      </trkpt>
      <trkpt lat="44.95545" lon="5.71741">
        <ele>648</ele>
        <time>2017-12-18T13:54:35Z</time>
      </trkpt>
      <trkpt lat="44.95539" lon="5.71736">
        <ele>649</ele>
        <time>2017-12-18T13:54:52Z</time>
      </trkpt>
      <trkpt lat="44.95525" lon="5.71704">
        <ele>649</ele>
        <time>2017-12-18T13:55:10Z</time>
      </trkpt>
      <trkpt lat="44.95506" lon="5.71639">
        <ele>643</ele>
        <time>2017-12-18T13:55:17Z</time>
      </trkpt>
      <trkpt lat="44.95489" lon="5.71561">
        <ele>645</ele>
        <time>2017-12-18T13:55:20Z</time>
      </trkpt>
      <trkpt lat="44.95479" lon="5.71521">
        <ele>645</ele>
        <time>2017-12-18T13:55:30Z</time>
      </trkpt>
      <trkpt lat="44.95471" lon="5.71506">
        <ele>646</ele>
        <time>2017-12-18T13:55:40Z</time>
      </trkpt>
      <trkpt lat="44.95458" lon="5.71492">
        <ele>642</ele>
        <time>2017-12-18T13:55:50Z</time>
      </trkpt>
      <trkpt lat="44.95446" lon="5.71485">
        <ele>643</ele>
        <time>2017-12-18T13:55:58Z</time>
      </trkpt>
      <trkpt lat="44.95419" lon="5.71478">
        <ele>646</ele>
        <time>2017-12-18T13:56:14Z</time>
      </trkpt>
      <trkpt lat="44.95394" lon="5.7148">
        <ele>656</ele>
        <time>2017-12-18T13:56:19Z</time>
      </trkpt>
      <trkpt lat="44.95371" lon="5.71484">
        <ele>658</ele>
        <time>2017-12-18T13:56:34Z</time>
      </trkpt>
      <trkpt lat="44.95356" lon="5.71483">
        <ele>661</ele>
        <time>2017-12-18T13:56:49Z</time>
      </trkpt>
      <trkpt lat="44.9534" lon="5.71478">
        <ele>662</ele>
        <time>2017-12-18T13:56:54Z</time>
      </trkpt>
      <trkpt lat="44.95303" lon="5.71458">
        <ele>666</ele>
        <time>2017-12-18T13:57:14Z</time>
      </trkpt>
      <trkpt lat="44.95285" lon="5.71454">
        <ele>666</ele>
        <time>2017-12-18T13:57:26Z</time>
      </trkpt>
      <trkpt lat="44.95268" lon="5.71461">
        <ele>667</ele>
        <time>2017-12-18T13:57:46Z</time>
      </trkpt>
      <trkpt lat="44.95249" lon="5.71479">
        <ele>669</ele>
        <time>2017-12-18T13:58:03Z</time>
      </trkpt>
      <trkpt lat="44.95224" lon="5.71495">
        <ele>668</ele>
        <time>2017-12-18T13:58:11Z</time>
      </trkpt>
      <trkpt lat="44.95207" lon="5.71503">
        <ele>680</ele>
        <time>2017-12-18T13:58:25Z</time>
      </trkpt>
      <trkpt lat="44.95194" lon="5.71513">
        <ele>678</ele>
        <time>2017-12-18T13:58:27Z</time>
      </trkpt>
      <trkpt lat="44.95172" lon="5.71537">
        <ele>680</ele>
        <time>2017-12-18T13:58:42Z</time>
      </trkpt>
      <trkpt lat="44.95158" lon="5.7156">
        <ele>676</ele>
        <time>2017-12-18T13:58:48Z</time>
      </trkpt>
      <trkpt lat="44.95147" lon="5.71584">
        <ele>687</ele>
        <time>2017-12-18T13:58:54Z</time>
      </trkpt>
      <trkpt lat="44.95137" lon="5.71632">
        <ele>692</ele>
        <time>2017-12-18T13:58:58Z</time>
      </trkpt>
      <trkpt lat="44.95125" lon="5.71672">
        <ele>703</ele>
        <time>2017-12-18T13:59:12Z</time>
      </trkpt>
      <trkpt lat="44.95108" lon="5.7172">
        <ele>704</ele>
        <time>2017-12-18T13:59:24Z</time>
      </trkpt>
      <trkpt lat="44.95097" lon="5.7174">
        <ele>702</ele>
        <time>2017-12-18T13:59:29Z</time>
      </trkpt>
      <trkpt lat="44.95091" lon="5.71746">
        <ele>701</ele>
        <time>2017-12-18T13:59:37Z</time>
      </trkpt>
      <trkpt lat="44.95077" lon="5.71747">
        <ele>698</ele>
        <time>2017-12-18T13:59:40Z</time>
      </trkpt>
      <trkpt lat="44.95013" lon="5.71725">
        <ele>697</ele>
        <time>2017-12-18T13:59:48Z</time>
      </trkpt>
      <trkpt lat="44.95004" lon="5.71727">
        <ele>697</ele>
        <time>2017-12-18T14:00:07Z</time>
      </trkpt>
      <trkpt lat="44.94982" lon="5.71745">
        <ele>697</ele>
        <time>2017-12-18T14:00:22Z</time>
      </trkpt>
      <trkpt lat="44.9496" lon="5.71766">
        <ele>700</ele>
        <time>2017-12-18T14:00:32Z</time>
      </trkpt>
      <trkpt lat="44.94942" lon="5.71783">
        <ele>700</ele>
        <time>2017-12-18T14:00:52Z</time>
      </trkpt>
      <trkpt lat="44.94924" lon="5.71804">
        <ele>701</ele>
        <time>2017-12-18T14:01:12Z</time>
      </trkpt>
      <trkpt lat="44.94912" lon="5.71816">
        <ele>699</ele>
        <time>2017-12-18T14:01:19Z</time>
      </trkpt>
      <trkpt lat="44.94902" lon="5.71822">
        <ele>699</ele>
        <time>2017-12-18T14:01:33Z</time>
      </trkpt>
      <trkpt lat="44.94875" lon="5.71826">
        <ele>698</ele>
        <time>2017-12-18T14:01:42Z</time>
      </trkpt>
      <trkpt lat="44.94841" lon="5.71834">
        <ele>700</ele>
        <time>2017-12-18T14:01:45Z</time>
      </trkpt>
      <trkpt lat="44.94817" lon="5.71846">
        <ele>702</ele>
        <time>2017-12-18T14:02:04Z</time>
      </trkpt>
      <trkpt lat="44.94807" lon="5.71851">
        <ele>703</ele>
        <time>2017-12-18T14:02:14Z</time>
      </trkpt>
      <trkpt lat="44.94799" lon="5.71866">
        <ele>705</ele>
        <time>2017-12-18T14:02:23Z</time>
      </trkpt>
      <trkpt lat="44.94791" lon="5.71879">
        <ele>707</ele>
        <time>2017-12-18T14:02:29Z</time>
      </trkpt>
      <trkpt lat="44.94783" lon="5.71889">
        <ele>708</ele>
        <time>2017-12-18T14:02:41Z</time>
      </trkpt>
      <trkpt lat="44.94775" lon="5.71893">
        <ele>709</ele>
        <time>2017-12-18T14:02:48Z</time>
      </trkpt>
      <trkpt lat="44.94753" lon="5.71895">
        <ele>711</ele>
        <time>2017-12-18T14:02:53Z</time>
      </trkpt>
      <trkpt lat="44.94721" lon="5.71891">
        <ele>718</ele>
        <time>2017-12-18T14:03:01Z</time>
      </trkpt>
      <trkpt lat="44.94701" lon="5.71886">
        <ele>719</ele>
        <time>2017-12-18T14:03:19Z</time>
      </trkpt>
      <trkpt lat="44.94683" lon="5.71874">
        <ele>719</ele>
        <time>2017-12-18T14:03:25Z</time>
      </trkpt>
      <trkpt lat="44.94667" lon="5.71859">
        <ele>716</ele>
        <time>2017-12-18T14:03:36Z</time>
      </trkpt>
      <trkpt lat="44.94652" lon="5.71837">
        <ele>720</ele>
        <time>2017-12-18T14:03:48Z</time>
      </trkpt>
      <trkpt lat="44.9464" lon="5.71822">
        <ele>711</ele>
        <time>2017-12-18T14:04:01Z</time>
      </trkpt>
      <trkpt lat="44.94637" lon="5.71813">
        <ele>711</ele>
        <time>2017-12-18T14:04:04Z</time>
      </trkpt>
      <trkpt lat="44.94632" lon="5.71798">
        <ele>711</ele>
        <time>2017-12-18T14:04:07Z</time>
      </trkpt>
      <trkpt lat="44.94625" lon="5.71788">
        <ele>710</ele>
        <time>2017-12-18T14:04:19Z</time>
      </trkpt>
      <trkpt lat="44.94618" lon="5.71785">
        <ele>711</ele>
        <time>2017-12-18T14:04:36Z</time>
      </trkpt>
      <trkpt lat="44.94606" lon="5.71786">
        <ele>712</ele>
        <time>2017-12-18T14:04:53Z</time>
      </trkpt>
      <trkpt lat="44.94593" lon="5.71796">
        <ele>714</ele>
        <time>2017-12-18T14:05:10Z</time>
      </trkpt>
      <trkpt lat="44.94571" lon="5.71818">
        <ele>725</ele>
        <time>2017-12-18T14:05:28Z</time>
      </trkpt>
      <trkpt lat="44.94557" lon="5.71828">
        <ele>726</ele>
        <time>2017-12-18T14:05:30Z</time>
      </trkpt>
      <trkpt lat="44.9455" lon="5.71829">
        <ele>727</ele>
        <time>2017-12-18T14:05:49Z</time>
      </trkpt>
      <trkpt lat="44.9454" lon="5.71822">
        <ele>727</ele>
        <time>2017-12-18T14:06:08Z</time>
      </trkpt>
      <trkpt lat="44.94533" lon="5.7181">
        <ele>728</ele>
        <time>2017-12-18T14:06:18Z</time>
      </trkpt>
      <trkpt lat="44.94526" lon="5.71791">
        <ele>729</ele>
        <time>2017-12-18T14:06:28Z</time>
      </trkpt>
      <trkpt lat="44.94527" lon="5.71777">
        <ele>729</ele>
        <time>2017-12-18T14:06:31Z</time>
      </trkpt>
      <trkpt lat="44.94533" lon="5.7176">
        <ele>729</ele>
        <time>2017-12-18T14:06:44Z</time>
      </trkpt>
      <trkpt lat="44.94552" lon="5.71729">
        <ele>728</ele>
        <time>2017-12-18T14:06:57Z</time>
      </trkpt>
      <trkpt lat="44.94576" lon="5.71683">
        <ele>727</ele>
        <time>2017-12-18T14:07:00Z</time>
      </trkpt>
      <trkpt lat="44.94592" lon="5.71659">
        <ele>719</ele>
        <time>2017-12-18T14:07:02Z</time>
      </trkpt>
      <trkpt lat="44.94599" lon="5.71644">
        <ele>716</ele>
        <time>2017-12-18T14:07:15Z</time>
      </trkpt>
      <trkpt lat="44.94603" lon="5.71618">
        <ele>717</ele>
        <time>2017-12-18T14:07:31Z</time>
      </trkpt>
      <trkpt lat="44.94604" lon="5.71597">
        <ele>719</ele>
        <time>2017-12-18T14:07:38Z</time>
      </trkpt>
      <trkpt lat="44.94601" lon="5.7158">
        <ele>723</ele>
        <time>2017-12-18T14:07:40Z</time>
      </trkpt>
      <trkpt lat="44.94593" lon="5.71555">
        <ele>721</ele>
        <time>2017-12-18T14:07:44Z</time>
      </trkpt>
      <trkpt lat="44.94583" lon="5.71527">
        <ele>739</ele>
        <time>2017-12-18T14:07:57Z</time>
      </trkpt>
      <trkpt lat="44.94577" lon="5.71491">
        <ele>739</ele>
        <time>2017-12-18T14:08:14Z</time>
      </trkpt>
      <trkpt lat="44.9457" lon="5.71447">
        <ele>749</ele>
        <time>2017-12-18T14:08:27Z</time>
      </trkpt>
      <trkpt lat="44.94568" lon="5.71433">
        <ele>749</ele>
        <time>2017-12-18T14:08:41Z</time>
      </trkpt>
      <trkpt lat="44.9457" lon="5.71421">
        <ele>747</ele>
        <time>2017-12-18T14:08:44Z</time>
      </trkpt>
      <trkpt lat="44.9458" lon="5.7139">
        <ele>755</ele>
        <time>2017-12-18T14:08:49Z</time>
      </trkpt>
      <trkpt lat="44.94585" lon="5.71359">
        <ele>738</ele>
        <time>2017-12-18T14:09:04Z</time>
      </trkpt>
      <trkpt lat="44.94594" lon="5.71341">
        <ele>741</ele>
        <time>2017-12-18T14:09:19Z</time>
      </trkpt>
      <trkpt lat="44.94621" lon="5.71307">
        <ele>739</ele>
        <time>2017-12-18T14:09:25Z</time>
      </trkpt>
      <trkpt lat="44.94632" lon="5.71289">
        <ele>738</ele>
        <time>2017-12-18T14:09:40Z</time>
      </trkpt>
      <trkpt lat="44.94648" lon="5.71249">
        <ele>742</ele>
        <time>2017-12-18T14:09:45Z</time>
      </trkpt>
      <trkpt lat="44.94675" lon="5.71178">
        <ele>737</ele>
        <time>2017-12-18T14:09:52Z</time>
      </trkpt>
      <trkpt lat="44.94684" lon="5.7115">
        <ele>740</ele>
        <time>2017-12-18T14:10:09Z</time>
      </trkpt>
      <trkpt lat="44.94688" lon="5.71122">
        <ele>740</ele>
        <time>2017-12-18T14:10:13Z</time>
      </trkpt>
      <trkpt lat="44.94687" lon="5.71099">
        <ele>742</ele>
        <time>2017-12-18T14:10:20Z</time>
      </trkpt>
      <trkpt lat="44.94689" lon="5.71084">
        <ele>743</ele>
        <time>2017-12-18T14:10:39Z</time>
      </trkpt>
      <trkpt lat="44.94698" lon="5.71064">
        <ele>744</ele>
        <time>2017-12-18T14:10:58Z</time>
      </trkpt>
      <trkpt lat="44.94755" lon="5.70927">
        <ele>744</ele>
        <time>2017-12-18T14:11:13Z</time>
      </trkpt>
      <trkpt lat="44.9477" lon="5.70892">
        <ele>755</ele>
        <time>2017-12-18T14:11:21Z</time>
      </trkpt>
      <trkpt lat="44.94782" lon="5.70876">
        <ele>757</ele>
        <time>2017-12-18T14:11:36Z</time>
      </trkpt>
      <trkpt lat="44.948" lon="5.70864">
        <ele>756</ele>
        <time>2017-12-18T14:11:53Z</time>
      </trkpt>
      <trkpt lat="44.94829" lon="5.70848">
        <ele>754</ele>
        <time>2017-12-18T14:12:02Z</time>
      </trkpt>
      <trkpt lat="44.94884" lon="5.70799">
        <ele>750</ele>
        <time>2017-12-18T14:12:10Z</time>
      </trkpt>
      <trkpt lat="44.94916" lon="5.70763">
        <ele>749</ele>
        <time>2017-12-18T14:12:17Z</time>
      </trkpt>
      <trkpt lat="44.94936" lon="5.70735">
        <ele>746</ele>
        <time>2017-12-18T14:12:28Z</time>
      </trkpt>
      <trkpt lat="44.94961" lon="5.70687">
        <ele>746</ele>
        <time>2017-12-18T14:12:35Z</time>
      </trkpt>
      <trkpt lat="44.94972" lon="5.70656">
        <ele>759</ele>
        <time>2017-12-18T14:12:45Z</time>
      </trkpt>
      <trkpt lat="44.94992" lon="5.70566">
        <ele>768</ele>
        <time>2017-12-18T14:12:47Z</time>
      </trkpt>
      <trkpt lat="44.95001" lon="5.70524">
        <ele>738</ele>
        <time>2017-12-18T14:13:03Z</time>
      </trkpt>
      <trkpt lat="44.95003" lon="5.7049">
        <ele>745</ele>
        <time>2017-12-18T14:13:22Z</time>
      </trkpt>
      <trkpt lat="44.95" lon="5.70459">
        <ele>730</ele>
        <time>2017-12-18T14:13:29Z</time>
      </trkpt>
      <trkpt lat="44.94998" lon="5.70449">
        <ele>770</ele>
        <time>2017-12-18T14:13:38Z</time>
      </trkpt>
      <trkpt lat="44.94964" lon="5.70349">
        <ele>769</ele>
        <time>2017-12-18T14:13:57Z</time>
      </trkpt>
      <trkpt lat="44.9496" lon="5.70328">
        <ele>765</ele>
        <time>2017-12-18T14:14:04Z</time>
      </trkpt>
      <trkpt lat="44.94958" lon="5.70294">
        <ele>765</ele>
        <time>2017-12-18T14:14:18Z</time>
      </trkpt>
      <trkpt lat="44.94952" lon="5.70198">
        <ele>757</ele>
        <time>2017-12-18T14:14:32Z</time>
      </trkpt>
      <trkpt lat="44.94949" lon="5.70176">
        <ele>759</ele>
        <time>2017-12-18T14:14:47Z</time>
      </trkpt>
      <trkpt lat="44.94944" lon="5.70154">
        <ele>755</ele>
        <time>2017-12-18T14:14:50Z</time>
      </trkpt>
      <trkpt lat="44.94923" lon="5.70113">
        <ele>757</ele>
        <time>2017-12-18T14:15:06Z</time>
      </trkpt>
      <trkpt lat="44.94918" lon="5.70093">
        <ele>764</ele>
        <time>2017-12-18T14:15:21Z</time>
      </trkpt>
      <trkpt lat="44.94912" lon="5.70035">
        <ele>782</ele>
        <time>2017-12-18T14:15:33Z</time>
      </trkpt>
      <trkpt lat="44.94901" lon="5.69994">
        <ele>768</ele>
        <time>2017-12-18T14:15:41Z</time>
      </trkpt>
      <trkpt lat="44.94889" lon="5.69959">
        <ele>772</ele>
        <time>2017-12-18T14:15:52Z</time>
      </trkpt>
      <trkpt lat="44.94881" lon="5.69939">
        <ele>772</ele>
        <time>2017-12-18T14:15:58Z</time>
      </trkpt>
      <trkpt lat="44.9486" lon="5.69904">
        <ele>771</ele>
        <time>2017-12-18T14:16:06Z</time>
      </trkpt>
      <trkpt lat="44.94846" lon="5.69886">
        <ele>773</ele>
        <time>2017-12-18T14:16:22Z</time>
      </trkpt>
      <trkpt lat="44.94841" lon="5.69876">
        <ele>773</ele>
        <time>2017-12-18T14:16:41Z</time>
      </trkpt>
      <trkpt lat="44.94839" lon="5.69864">
        <ele>774</ele>
        <time>2017-12-18T14:16:56Z</time>
      </trkpt>
      <trkpt lat="44.94841" lon="5.69852">
        <ele>776</ele>
        <time>2017-12-18T14:16:59Z</time>
      </trkpt>
      <trkpt lat="44.94856" lon="5.69775">
        <ele>770</ele>
        <time>2017-12-18T14:17:14Z</time>
      </trkpt>
      <trkpt lat="44.94864" lon="5.69682">
        <ele>774</ele>
        <time>2017-12-18T14:17:34Z</time>
      </trkpt>
      <trkpt lat="44.94867" lon="5.69637">
        <ele>776</ele>
        <time>2017-12-18T14:17:42Z</time>
      </trkpt>
      <trkpt lat="44.94874" lon="5.6959">
        <ele>775</ele>
        <time>2017-12-18T14:17:58Z</time>
      </trkpt>
      <trkpt lat="44.94883" lon="5.69549">
        <ele>773</ele>
        <time>2017-12-18T14:18:00Z</time>
      </trkpt>
      <trkpt lat="44.94898" lon="5.69496">
        <ele>761</ele>
        <time>2017-12-18T14:18:04Z</time>
      </trkpt>
      <trkpt lat="44.94903" lon="5.69467">
        <ele>763</ele>
        <time>2017-12-18T14:18:12Z</time>
      </trkpt>
      <trkpt lat="44.94902" lon="5.69456">
        <ele>762</ele>
        <time>2017-12-18T14:18:19Z</time>
      </trkpt>
      <trkpt lat="44.94892" lon="5.69438">
        <ele>762</ele>
        <time>2017-12-18T14:18:32Z</time>
      </trkpt>
      <trkpt lat="44.94865" lon="5.69417">
        <ele>767</ele>
        <time>2017-12-18T14:18:46Z</time>
      </trkpt>
      <trkpt lat="44.94845" lon="5.69405">
        <ele>756</ele>
        <time>2017-12-18T14:18:51Z</time>
      </trkpt>
      <trkpt lat="44.9483" lon="5.69399">
        <ele>762</ele>
        <time>2017-12-18T14:19:03Z</time>
      </trkpt>
      <trkpt lat="44.94809" lon="5.69397">
        <ele>759</ele>
        <time>2017-12-18T14:19:16Z</time>
      </trkpt>
      <trkpt lat="44.94789" lon="5.69397">
        <ele>758</ele>
        <time>2017-12-18T14:19:34Z</time>
      </trkpt>
      <trkpt lat="44.94705" lon="5.69416">
        <ele>761</ele>
        <time>2017-12-18T14:19:50Z</time>
      </trkpt>
      <trkpt lat="44.94692" lon="5.69419">
        <ele>788</ele>
        <time>2017-12-18T14:20:03Z</time>
      </trkpt>
      <trkpt lat="44.94678" lon="5.69416">
        <ele>769</ele>
        <time>2017-12-18T14:20:07Z</time>
      </trkpt>
      <trkpt lat="44.94626" lon="5.69379">
        <ele>762</ele>
        <time>2017-12-18T14:20:20Z</time>
      </trkpt>
      <trkpt lat="44.9459" lon="5.69366">
        <ele>760</ele>
        <time>2017-12-18T14:20:32Z</time>
      </trkpt>
      <trkpt lat="44.94534" lon="5.69363">
        <ele>762</ele>
        <time>2017-12-18T14:20:46Z</time>
      </trkpt>
      <trkpt lat="44.94501" lon="5.69366">
        <ele>761</ele>
        <time>2017-12-18T14:20:51Z</time>
      </trkpt>
      <trkpt lat="44.94478" lon="5.69371">
        <ele>755</ele>
        <time>2017-12-18T14:20:54Z</time>
      </trkpt>
      <trkpt lat="44.94457" lon="5.69383">
        <ele>755</ele>
        <time>2017-12-18T14:21:01Z</time>
      </trkpt>
      <trkpt lat="44.94432" lon="5.69407">
        <ele>758</ele>
        <time>2017-12-18T14:21:15Z</time>
      </trkpt>
      <trkpt lat="44.94411" lon="5.69427">
        <ele>766</ele>
        <time>2017-12-18T14:21:31Z</time>
      </trkpt>
      <trkpt lat="44.94399" lon="5.69429">
        <ele>767</ele>
        <time>2017-12-18T14:21:43Z</time>
      </trkpt>
      <trkpt lat="44.94377" lon="5.69415">
        <ele>744</ele>
        <time>2017-12-18T14:21:47Z</time>
      </trkpt>
      <trkpt lat="44.94372" lon="5.69415">
        <ele>743</ele>
        <time>2017-12-18T14:21:51Z</time>
      </trkpt>
      <trkpt lat="44.94356" lon="5.69424">
        <ele>761</ele>
        <time>2017-12-18T14:22:11Z</time>
      </trkpt>
      <trkpt lat="44.94342" lon="5.69445">
        <ele>765</ele>
        <time>2017-12-18T14:22:27Z</time>
      </trkpt>
      <trkpt lat="44.94334" lon="5.69464">
        <ele>771</ele>
        <time>2017-12-18T14:22:35Z</time>
      </trkpt>
      <trkpt lat="44.94327" lon="5.69474">
        <ele>770</ele>
        <time>2017-12-18T14:22:50Z</time>
      </trkpt>
      <trkpt lat="44.94318" lon="5.6948">
        <ele>772</ele>
        <time>2017-12-18T14:22:54Z</time>
      </trkpt>
      <trkpt lat="44.94312" lon="5.6948">
        <ele>771</ele>
        <time>2017-12-18T14:22:59Z</time>
      </trkpt>
      <trkpt lat="44.94306" lon="5.69477">
        <ele>770</ele>
        <time>2017-12-18T14:23:13Z</time>
      </trkpt>
      <trkpt lat="44.94297" lon="5.69467">
        <ele>767</ele>
        <time>2017-12-18T14:23:32Z</time>
      </trkpt>
      <trkpt lat="44.94289" lon="5.69461">
        <ele>766</ele>
        <time>2017-12-18T14:23:42Z</time>
      </trkpt>
      <trkpt lat="44.94269" lon="5.69451">
        <ele>763</ele>
        <time>2017-12-18T14:23:52Z</time>
      </trkpt>
      <trkpt lat="44.94256" lon="5.69442">
        <ele>758</ele>
        <time>2017-12-18T14:24:11Z</time>
      </trkpt>
      <trkpt lat="44.94233" lon="5.69431">
        <ele>761</ele>
        <time>2017-12-18T14:24:17Z</time>
      </trkpt>
      <trkpt lat="44.94217" lon="5.69418">
        <ele>764</ele>
        <time>2017-12-18T14:24:31Z</time>
      </trkpt>
      <trkpt lat="44.94203" lon="5.69404">
        <ele>740</ele>
        <time>2017-12-18T14:24:51Z</time>
      </trkpt>
      <trkpt lat="44.94189" lon="5.69397">
        <ele>741</ele>
        <time>2017-12-18T14:24:54Z</time>
      </trkpt>
      <trkpt lat="44.94094" lon="5.6938">
        <ele>743</ele>
        <time>2017-12-18T14:25:12Z</time>
      </trkpt>
      <trkpt lat="44.94076" lon="5.6938">
        <ele>746</ele>
        <time>2017-12-18T14:25:32Z</time>
      </trkpt>
      <trkpt lat="44.94061" lon="5.69386">
        <ele>748</ele>
        <time>2017-12-18T14:25:40Z</time>
      </trkpt>
      <trkpt lat="44.94043" lon="5.694">
        <ele>751</ele>
        <time>2017-12-18T14:25:56Z</time>
      </trkpt>
      <trkpt lat="44.94036" lon="5.69403">
        <ele>752</ele>
        <time>2017-12-18T14:25:59Z</time>
      </trkpt>
      <trkpt lat="44.94026" lon="5.69402">
        <ele>754</ele>
        <time>2017-12-18T14:26:14Z</time>
      </trkpt>
      <trkpt lat="44.94019" lon="5.69399">
        <ele>754</ele>
        <time>2017-12-18T14:26:16Z</time>
      </trkpt>
      <trkpt lat="44.94008" lon="5.69388">
        <ele>752</ele>
        <time>2017-12-18T14:26:21Z</time>
      </trkpt>
      <trkpt lat="44.93986" lon="5.69374">
        <ele>752</ele>
        <time>2017-12-18T14:26:34Z</time>
      </trkpt>
      <trkpt lat="44.93904" lon="5.69343">
        <ele>751</ele>
        <time>2017-12-18T14:26:51Z</time>
      </trkpt>
      <trkpt lat="44.93873" lon="5.69337">
        <ele>759</ele>
        <time>2017-12-18T14:26:54Z</time>
      </trkpt>
      <trkpt lat="44.93859" lon="5.69333">
        <ele>735</ele>
        <time>2017-12-18T14:27:01Z</time>
      </trkpt>
      <trkpt lat="44.93847" lon="5.69326">
        <ele>739</ele>
        <time>2017-12-18T14:27:14Z</time>
      </trkpt>
      <trkpt lat="44.93829" lon="5.69307">
        <ele>738</ele>
        <time>2017-12-18T14:27:24Z</time>
      </trkpt>
      <trkpt lat="44.938" lon="5.69288">
        <ele>731</ele>
        <time>2017-12-18T14:27:42Z</time>
      </trkpt>
      <trkpt lat="44.93777" lon="5.69281">
        <ele>730</ele>
        <time>2017-12-18T14:27:49Z</time>
      </trkpt>
      <trkpt lat="44.93759" lon="5.69285">
        <ele>731</ele>
        <time>2017-12-18T14:28:09Z</time>
      </trkpt>
      <trkpt lat="44.93732" lon="5.69303">
        <ele>742</ele>
        <time>2017-12-18T14:28:17Z</time>
      </trkpt>
      <trkpt lat="44.93711" lon="5.69312">
        <ele>744</ele>
        <time>2017-12-18T14:28:22Z</time>
      </trkpt>
      <trkpt lat="44.937" lon="5.69312">
        <ele>745</ele>
        <time>2017-12-18T14:28:39Z</time>
      </trkpt>
      <trkpt lat="44.93694" lon="5.69308">
        <ele>745</ele>
        <time>2017-12-18T14:28:57Z</time>
      </trkpt>
      <trkpt lat="44.93689" lon="5.69298">
        <ele>743</ele>
        <time>2017-12-18T14:29:02Z</time>
      </trkpt>
      <trkpt lat="44.93681" lon="5.69268">
        <ele>736</ele>
        <time>2017-12-18T14:29:12Z</time>
      </trkpt>
      <trkpt lat="44.93667" lon="5.69239">
        <ele>721</ele>
        <time>2017-12-18T14:29:27Z</time>
      </trkpt>
      <trkpt lat="44.93655" lon="5.69225">
        <ele>722</ele>
        <time>2017-12-18T14:29:32Z</time>
      </trkpt>
      <trkpt lat="44.93637" lon="5.69214">
        <ele>720</ele>
        <time>2017-12-18T14:29:35Z</time>
      </trkpt>
      <trkpt lat="44.93617" lon="5.6921">
        <ele>721</ele>
        <time>2017-12-18T14:29:44Z</time>
      </trkpt>
      <trkpt lat="44.93588" lon="5.69204">
        <ele>721</ele>
        <time>2017-12-18T14:29:48Z</time>
      </trkpt>
      <trkpt lat="44.93547" lon="5.69189">
        <ele>729</ele>
        <time>2017-12-18T14:30:05Z</time>
      </trkpt>
      <trkpt lat="44.93467" lon="5.69155">
        <ele>707</ele>
        <time>2017-12-18T14:30:08Z</time>
      </trkpt>
      <trkpt lat="44.93424" lon="5.69137">
        <ele>708</ele>
        <time>2017-12-18T14:30:16Z</time>
      </trkpt>
      <trkpt lat="44.93375" lon="5.69113">
        <ele>704</ele>
        <time>2017-12-18T14:30:19Z</time>
      </trkpt>
      <trkpt lat="44.9336" lon="5.6911">
        <ele>703</ele>
        <time>2017-12-18T14:30:29Z</time>
      </trkpt>
      <trkpt lat="44.93352" lon="5.6911">
        <ele>702</ele>
        <time>2017-12-18T14:30:48Z</time>
      </trkpt>
      <trkpt lat="44.93341" lon="5.69116">
        <ele>704</ele>
        <time>2017-12-18T14:31:06Z</time>
      </trkpt>
      <trkpt lat="44.93329" lon="5.69134">
        <ele>710</ele>
        <time>2017-12-18T14:31:09Z</time>
      </trkpt>
      <trkpt lat="44.93321" lon="5.69145">
        <ele>714</ele>
        <time>2017-12-18T14:31:24Z</time>
      </trkpt>
      <trkpt lat="44.93309" lon="5.6915">
        <ele>713</ele>
        <time>2017-12-18T14:31:36Z</time>
      </trkpt>
      <trkpt lat="44.93302" lon="5.6915">
        <ele>713</ele>
        <time>2017-12-18T14:31:48Z</time>
      </trkpt>
      <trkpt lat="44.93297" lon="5.69147">
        <ele>712</ele>
        <time>2017-12-18T14:31:58Z</time>
      </trkpt>
      <trkpt lat="44.93293" lon="5.6914">
        <ele>710</ele>
        <time>2017-12-18T14:32:17Z</time>
      </trkpt>
      <trkpt lat="44.93288" lon="5.69124">
        <ele>706</ele>
        <time>2017-12-18T14:32:24Z</time>
      </trkpt>
      <trkpt lat="44.93283" lon="5.69114">
        <ele>703</ele>
        <time>2017-12-18T14:32:41Z</time>
      </trkpt>
      <trkpt lat="44.93276" lon="5.6911">
        <ele>701</ele>
        <time>2017-12-18T14:32:43Z</time>
      </trkpt>
      <trkpt lat="44.93264" lon="5.69111">
        <ele>701</ele>
        <time>2017-12-18T14:33:01Z</time>
      </trkpt>
      <trkpt lat="44.93225" lon="5.69116">
        <ele>699</ele>
        <time>2017-12-18T14:33:03Z</time>
      </trkpt>
      <trkpt lat="44.93189" lon="5.69134">
        <ele>702</ele>
        <time>2017-12-18T14:33:11Z</time>
      </trkpt>
      <trkpt lat="44.93169" lon="5.69134">
        <ele>702</ele>
        <time>2017-12-18T14:33:15Z</time>
      </trkpt>
      <trkpt lat="44.93149" lon="5.69126">
        <ele>696</ele>
        <time>2017-12-18T14:33:23Z</time>
      </trkpt>
      <trkpt lat="44.93127" lon="5.69123">
        <ele>695</ele>
        <time>2017-12-18T14:33:34Z</time>
      </trkpt>
      <trkpt lat="44.93107" lon="5.69132">
        <ele>697</ele>
        <time>2017-12-18T14:33:36Z</time>
      </trkpt>
      <trkpt lat="44.93095" lon="5.69131">
        <ele>697</ele>
        <time>2017-12-18T14:33:47Z</time>
      </trkpt>
      <trkpt lat="44.93084" lon="5.69123">
        <ele>694</ele>
        <time>2017-12-18T14:34:02Z</time>
      </trkpt>
      <trkpt lat="44.93076" lon="5.6912">
        <ele>689</ele>
        <time>2017-12-18T14:34:16Z</time>
      </trkpt>
      <trkpt lat="44.93055" lon="5.69123">
        <ele>689</ele>
        <time>2017-12-18T14:34:28Z</time>
      </trkpt>
      <trkpt lat="44.9298" lon="5.69158">
        <ele>687</ele>
        <time>2017-12-18T14:34:32Z</time>
      </trkpt>
      <trkpt lat="44.92941" lon="5.69153">
        <ele>680</ele>
        <time>2017-12-18T14:34:43Z</time>
      </trkpt>
      <trkpt lat="44.92924" lon="5.69159">
        <ele>682</ele>
        <time>2017-12-18T14:34:51Z</time>
      </trkpt>
      <trkpt lat="44.92909" lon="5.69175">
        <ele>691</ele>
        <time>2017-12-18T14:35:03Z</time>
      </trkpt>
      <trkpt lat="44.92899" lon="5.69193">
        <ele>697</ele>
        <time>2017-12-18T14:35:20Z</time>
      </trkpt>
      <trkpt lat="44.92886" lon="5.69205">
        <ele>700</ele>
        <time>2017-12-18T14:35:35Z</time>
      </trkpt>
      <trkpt lat="44.92879" lon="5.69207">
        <ele>701</ele>
        <time>2017-12-18T14:35:54Z</time>
      </trkpt>
      <trkpt lat="44.9287" lon="5.69203">
        <ele>700</ele>
        <time>2017-12-18T14:35:56Z</time>
      </trkpt>
      <trkpt lat="44.92862" lon="5.69194">
        <ele>697</ele>
        <time>2017-12-18T14:36:12Z</time>
      </trkpt>
      <trkpt lat="44.92845" lon="5.69169">
        <ele>685</ele>
        <time>2017-12-18T14:36:21Z</time>
      </trkpt>
      <trkpt lat="44.92831" lon="5.69164">
        <ele>674</ele>
        <time>2017-12-18T14:36:34Z</time>
      </trkpt>
      <trkpt lat="44.92804" lon="5.69159">
        <ele>668</ele>
        <time>2017-12-18T14:36:37Z</time>
      </trkpt>
      <trkpt lat="44.92778" lon="5.69156">
        <ele>669</ele>
        <time>2017-12-18T14:36:51Z</time>
      </trkpt>
      <trkpt lat="44.92763" lon="5.69157">
        <ele>672</ele>
        <time>2017-12-18T14:37:00Z</time>
      </trkpt>
      <trkpt lat="44.9275" lon="5.69163">
        <ele>678</ele>
        <time>2017-12-18T14:37:08Z</time>
      </trkpt>
      <trkpt lat="44.9273" lon="5.6917">
        <ele>695</ele>
        <time>2017-12-18T14:37:14Z</time>
      </trkpt>
      <trkpt lat="44.92718" lon="5.69168">
        <ele>698</ele>
        <time>2017-12-18T14:37:33Z</time>
      </trkpt>
      <trkpt lat="44.927" lon="5.69159">
        <ele>673</ele>
        <time>2017-12-18T14:37:36Z</time>
      </trkpt>
      <trkpt lat="44.92684" lon="5.69157">
        <ele>676</ele>
        <time>2017-12-18T14:37:39Z</time>
      </trkpt>
      <trkpt lat="44.92661" lon="5.69144">
        <ele>680</ele>
        <time>2017-12-18T14:37:58Z</time>
      </trkpt>
      <trkpt lat="44.92644" lon="5.6914">
        <ele>679</ele>
        <time>2017-12-18T14:38:05Z</time>
      </trkpt>
      <trkpt lat="44.92628" lon="5.69127">
        <ele>677</ele>
        <time>2017-12-18T14:38:11Z</time>
      </trkpt>
      <trkpt lat="44.92601" lon="5.69117">
        <ele>677</ele>
        <time>2017-12-18T14:38:16Z</time>
      </trkpt>
      <trkpt lat="44.92579" lon="5.69104">
        <ele>678</ele>
        <time>2017-12-18T14:38:31Z</time>
      </trkpt>
      <trkpt lat="44.92565" lon="5.691">
        <ele>678</ele>
        <time>2017-12-18T14:38:51Z</time>
      </trkpt>
      <trkpt lat="44.92549" lon="5.691">
        <ele>679</ele>
        <time>2017-12-18T14:39:03Z</time>
      </trkpt>
      <trkpt lat="44.9253" lon="5.69099">
        <ele>679</ele>
        <time>2017-12-18T14:39:11Z</time>
      </trkpt>
      <trkpt lat="44.92512" lon="5.69103">
        <ele>677</ele>
        <time>2017-12-18T14:39:15Z</time>
      </trkpt>
      <trkpt lat="44.92501" lon="5.691">
        <ele>675</ele>
        <time>2017-12-18T14:39:19Z</time>
      </trkpt>
      <trkpt lat="44.92482" lon="5.69087">
        <ele>674</ele>
        <time>2017-12-18T14:39:30Z</time>
      </trkpt>
      <trkpt lat="44.9246" lon="5.69075">
        <ele>659</ele>
        <time>2017-12-18T14:39:38Z</time>
      </trkpt>
      <trkpt lat="44.92435" lon="5.69067">
        <ele>660</ele>
        <time>2017-12-18T14:39:55Z</time>
      </trkpt>
      <trkpt lat="44.92419" lon="5.69063">
        <ele>661</ele>
        <time>2017-12-18T14:40:04Z</time>
      </trkpt>
      <trkpt lat="44.9238" lon="5.69031">
        <ele>660</ele>
        <time>2017-12-18T14:40:18Z</time>
      </trkpt>
      <trkpt lat="44.92362" lon="5.69022">
        <ele>659</ele>
        <time>2017-12-18T14:40:20Z</time>
      </trkpt>
      <trkpt lat="44.92339" lon="5.69015">
        <ele>657</ele>
        <time>2017-12-18T14:40:28Z</time>
      </trkpt>
      <trkpt lat="44.92306" lon="5.69007">
        <ele>663</ele>
        <time>2017-12-18T14:40:48Z</time>
      </trkpt>
      <trkpt lat="44.92297" lon="5.69005">
        <ele>665</ele>
        <time>2017-12-18T14:40:54Z</time>
      </trkpt>
      <trkpt lat="44.92292" lon="5.69">
        <ele>665</ele>
        <time>2017-12-18T14:41:05Z</time>
      </trkpt>
      <trkpt lat="44.92284" lon="5.68994">
        <ele>654</ele>
        <time>2017-12-18T14:41:10Z</time>
      </trkpt>
      <trkpt lat="44.92281" lon="5.6899">
        <ele>654</ele>
        <time>2017-12-18T14:41:13Z</time>
      </trkpt>
      <trkpt lat="44.92274" lon="5.68971">
        <ele>653</ele>
        <time>2017-12-18T14:41:27Z</time>
      </trkpt>
      <trkpt lat="44.92265" lon="5.68954">
        <ele>652</ele>
        <time>2017-12-18T14:41:29Z</time>
      </trkpt>
      <trkpt lat="44.92247" lon="5.6894">
        <ele>658</ele>
        <time>2017-12-18T14:41:31Z</time>
      </trkpt>
      <trkpt lat="44.92207" lon="5.68911">
        <ele>650</ele>
        <time>2017-12-18T14:41:33Z</time>
      </trkpt>
      <trkpt lat="44.92192" lon="5.68902">
        <ele>652</ele>
        <time>2017-12-18T14:41:41Z</time>
      </trkpt>
      <trkpt lat="44.92175" lon="5.68899">
        <ele>653</ele>
        <time>2017-12-18T14:42:00Z</time>
      </trkpt>
      <trkpt lat="44.92152" lon="5.68911">
        <ele>655</ele>
        <time>2017-12-18T14:42:02Z</time>
      </trkpt>
      <trkpt lat="44.92125" lon="5.68931">
        <ele>663</ele>
        <time>2017-12-18T14:42:09Z</time>
      </trkpt>
      <trkpt lat="44.92091" lon="5.68955">
        <ele>663</ele>
        <time>2017-12-18T14:42:17Z</time>
      </trkpt>
      <trkpt lat="44.92076" lon="5.68963">
        <ele>663</ele>
        <time>2017-12-18T14:42:37Z</time>
      </trkpt>
      <trkpt lat="44.92059" lon="5.6897">
        <ele>663</ele>
        <time>2017-12-18T14:42:43Z</time>
      </trkpt>
      <trkpt lat="44.92039" lon="5.68974">
        <ele>664</ele>
        <time>2017-12-18T14:42:54Z</time>
      </trkpt>
      <trkpt lat="44.92016" lon="5.68974">
        <ele>665</ele>
        <time>2017-12-18T14:43:08Z</time>
      </trkpt>
      <trkpt lat="44.91994" lon="5.68971">
        <ele>669</ele>
        <time>2017-12-18T14:43:16Z</time>
      </trkpt>
      <trkpt lat="44.91975" lon="5.68963">
        <ele>667</ele>
        <time>2017-12-18T14:43:35Z</time>
      </trkpt>
      <trkpt lat="44.91924" lon="5.68928">
        <ele>660</ele>
        <time>2017-12-18T14:43:54Z</time>
      </trkpt>
      <trkpt lat="44.91902" lon="5.68922">
        <ele>662</ele>
        <time>2017-12-18T14:44:13Z</time>
      </trkpt>
      <trkpt lat="44.91868" lon="5.68918">
        <ele>666</ele>
        <time>2017-12-18T14:44:27Z</time>
      </trkpt>
      <trkpt lat="44.91836" lon="5.68914">
        <ele>655</ele>
        <time>2017-12-18T14:44:45Z</time>
      </trkpt>
      <trkpt lat="44.91807" lon="5.68905">
        <ele>650</ele>
        <time>2017-12-18T14:44:47Z</time>
      </trkpt>
      <trkpt lat="44.91772" lon="5.68888">
        <ele>648</ele>
        <time>2017-12-18T14:45:05Z</time>
      </trkpt>
      <trkpt lat="44.91733" lon="5.68874">
        <ele>645</ele>
        <time>2017-12-18T14:45:19Z</time>
      </trkpt>
      <trkpt lat="44.91707" lon="5.68873">
        <ele>645</ele>
        <time>2017-12-18T14:45:39Z</time>
      </trkpt>
      <trkpt lat="44.91658" lon="5.68877">
        <ele>643</ele>
        <time>2017-12-18T14:45:42Z</time>
      </trkpt>
      <trkpt lat="44.91582" lon="5.68885">
        <ele>639</ele>
        <time>2017-12-18T14:45:46Z</time>
      </trkpt>
      <trkpt lat="44.91514" lon="5.68892">
        <ele>638</ele>
        <time>2017-12-18T14:45:50Z</time>
      </trkpt>
      <trkpt lat="44.91454" lon="5.68897">
        <ele>634</ele>
        <time>2017-12-18T14:46:10Z</time>
      </trkpt>
      <trkpt lat="44.91427" lon="5.68895">
        <ele>634</ele>
        <time>2017-12-18T14:46:25Z</time>
      </trkpt>
      <trkpt lat="44.9135" lon="5.68892">
        <ele>632</ele>
        <time>2017-12-18T14:46:38Z</time>
      </trkpt>
      <trkpt lat="44.91301" lon="5.68892">
        <ele>631</ele>
        <time>2017-12-18T14:46:50Z</time>
      </trkpt>
      <trkpt lat="44.91276" lon="5.68893">
        <ele>631</ele>
        <time>2017-12-18T14:47:10Z</time>
      </trkpt>
      <trkpt lat="44.91245" lon="5.68903">
        <ele>631</ele>
        <time>2017-12-18T14:47:14Z</time>
      </trkpt>
      <trkpt lat="44.91207" lon="5.68919">
        <ele>636</ele>
        <time>2017-12-18T14:47:33Z</time>
      </trkpt>
      <trkpt lat="44.91136" lon="5.68951">
        <ele>636</ele>
        <time>2017-12-18T14:47:53Z</time>
      </trkpt>
      <trkpt lat="44.90993" lon="5.69021">
        <ele>641</ele>
        <time>2017-12-18T14:48:03Z</time>
      </trkpt>
      <trkpt lat="44.90919" lon="5.69055">
        <ele>644</ele>
        <time>2017-12-18T14:48:10Z</time>
      </trkpt>
      <trkpt lat="44.90866" lon="5.69078">
        <ele>646</ele>
        <time>2017-12-18T14:48:29Z</time>
      </trkpt>
      <trkpt lat="44.90766" lon="5.69096">
        <ele>653</ele>
        <time>2017-12-18T14:48:46Z</time>
      </trkpt>
      <trkpt lat="44.9067" lon="5.69094">
        <ele>654</ele>
        <time>2017-12-18T14:48:48Z</time>
      </trkpt>
      <trkpt lat="44.90617" lon="5.6909">
        <ele>658</ele>
        <time>2017-12-18T14:49:00Z</time>
      </trkpt>
      <trkpt lat="44.90573" lon="5.69089">
        <ele>658</ele>
        <time>2017-12-18T14:49:20Z</time>
      </trkpt>
      <trkpt lat="44.90519" lon="5.69094">
        <ele>662</ele>
        <time>2017-12-18T14:49:22Z</time>
      </trkpt>
      <trkpt lat="44.90474" lon="5.69103">
        <ele>664</ele>
        <time>2017-12-18T14:49:36Z</time>
      </trkpt>
      <trkpt lat="44.90382" lon="5.69122">
        <ele>666</ele>
        <time>2017-12-18T14:49:54Z</time>
      </trkpt>
      <trkpt lat="44.90361" lon="5.6913">
        <ele>666</ele>
        <time>2017-12-18T14:50:13Z</time>
      </trkpt>
      <trkpt lat="44.903" lon="5.69161">
        <ele>667</ele>
        <time>2017-12-18T14:50:31Z</time>
      </trkpt>
      <trkpt lat="44.9021" lon="5.69208">
        <ele>673</ele>
        <time>2017-12-18T14:50:39Z</time>
      </trkpt>
      <trkpt lat="44.90162" lon="5.69232">
        <ele>673</ele>
        <time>2017-12-18T14:50:53Z</time>
      </trkpt>
      <trkpt lat="44.90109" lon="5.69248">
        <ele>672</ele>
        <time>2017-12-18T14:51:10Z</time>
      </trkpt>
      <trkpt lat="44.90053" lon="5.69258">
        <ele>677</ele>
        <time>2017-12-18T14:51:18Z</time>
      </trkpt>
      <trkpt lat="44.89964" lon="5.69277">
        <ele>678</ele>
        <time>2017-12-18T14:51:21Z</time>
      </trkpt>
      <trkpt lat="44.89922" lon="5.6929">
        <ele>679</ele>
        <time>2017-12-18T14:51:34Z</time>
      </trkpt>
      <trkpt lat="44.89869" lon="5.69314">
        <ele>679</ele>
        <time>2017-12-18T14:51:41Z</time>
      </trkpt>
      <trkpt lat="44.89843" lon="5.69328">
        <ele>681</ele>
        <time>2017-12-18T14:51:51Z</time>
      </trkpt>
      <trkpt lat="44.89816" lon="5.69354">
        <ele>685</ele>
        <time>2017-12-18T14:52:06Z</time>
      </trkpt>
      <trkpt lat="44.89737" lon="5.69441">
        <ele>689</ele>
        <time>2017-12-18T14:52:19Z</time>
      </trkpt>
      <trkpt lat="44.89723" lon="5.69452">
        <ele>690</ele>
        <time>2017-12-18T14:52:31Z</time>
      </trkpt>
      <trkpt lat="44.89691" lon="5.69472">
        <ele>691</ele>
        <time>2017-12-18T14:52:49Z</time>
      </trkpt>
      <trkpt lat="44.89635" lon="5.69503">
        <ele>696</ele>
        <time>2017-12-18T14:52:55Z</time>
      </trkpt>
      <trkpt lat="44.89603" lon="5.69525">
        <ele>696</ele>
        <time>2017-12-18T14:53:15Z</time>
      </trkpt>
      <trkpt lat="44.89574" lon="5.69555">
        <ele>695</ele>
        <time>2017-12-18T14:53:31Z</time>
      </trkpt>
      <trkpt lat="44.89543" lon="5.69576">
        <ele>695</ele>
        <time>2017-12-18T14:53:41Z</time>
      </trkpt>
      <trkpt lat="44.89517" lon="5.69589">
        <ele>701</ele>
        <time>2017-12-18T14:53:52Z</time>
      </trkpt>
      <trkpt lat="44.89495" lon="5.69596">
        <ele>700</ele>
        <time>2017-12-18T14:54:02Z</time>
      </trkpt>
      <trkpt lat="44.8947" lon="5.6959">
        <ele>701</ele>
        <time>2017-12-18T14:54:07Z</time>
      </trkpt>
      <trkpt lat="44.89443" lon="5.69583">
        <ele>695</ele>
        <time>2017-12-18T14:54:12Z</time>
      </trkpt>
      <trkpt lat="44.89426" lon="5.69587">
        <ele>700</ele>
        <time>2017-12-18T14:54:21Z</time>
      </trkpt>
      <trkpt lat="44.89325" lon="5.69625">
        <ele>707</ele>
        <time>2017-12-18T14:54:31Z</time>
      </trkpt>
      <trkpt lat="44.89307" lon="5.69631">
        <ele>707</ele>
        <time>2017-12-18T14:54:48Z</time>
      </trkpt>
      <trkpt lat="44.89273" lon="5.69632">
        <ele>707</ele>
        <time>2017-12-18T14:54:54Z</time>
      </trkpt>
      <trkpt lat="44.89226" lon="5.69627">
        <ele>709</ele>
        <time>2017-12-18T14:55:00Z</time>
      </trkpt>
      <trkpt lat="44.89187" lon="5.69627">
        <ele>710</ele>
        <time>2017-12-18T14:55:06Z</time>
      </trkpt>
      <trkpt lat="44.89159" lon="5.69632">
        <ele>713</ele>
        <time>2017-12-18T14:55:24Z</time>
      </trkpt>
      <trkpt lat="44.89132" lon="5.69648">
        <ele>714</ele>
        <time>2017-12-18T14:55:34Z</time>
      </trkpt>
      <trkpt lat="44.89112" lon="5.69655">
        <ele>715</ele>
        <time>2017-12-18T14:55:43Z</time>
      </trkpt>
      <trkpt lat="44.891" lon="5.69652">
        <ele>715</ele>
        <time>2017-12-18T14:56:01Z</time>
      </trkpt>
      <trkpt lat="44.89071" lon="5.69635">
        <ele>716</ele>
        <time>2017-12-18T14:56:11Z</time>
      </trkpt>
      <trkpt lat="44.89053" lon="5.69625">
        <ele>716</ele>
        <time>2017-12-18T14:56:25Z</time>
      </trkpt>
      <trkpt lat="44.8904" lon="5.69621">
        <ele>716</ele>
        <time>2017-12-18T14:56:34Z</time>
      </trkpt>
      <trkpt lat="44.89023" lon="5.69622">
        <ele>716</ele>
        <time>2017-12-18T14:56:46Z</time>
      </trkpt>
      <trkpt lat="44.89003" lon="5.69632">
        <ele>717</ele>
        <time>2017-12-18T14:56:53Z</time>
      </trkpt>
      <trkpt lat="44.8899" lon="5.69642">
        <ele>717</ele>
        <time>2017-12-18T14:57:03Z</time>
      </trkpt>
      <trkpt lat="44.88977" lon="5.6966">
        <ele>717</ele>
        <time>2017-12-18T14:57:22Z</time>
      </trkpt>
      <trkpt lat="44.88961" lon="5.69689">
        <ele>721</ele>
        <time>2017-12-18T14:57:34Z</time>
      </trkpt>
      <trkpt lat="44.88946" lon="5.6973">
        <ele>722</ele>
        <time>2017-12-18T14:57:38Z</time>
      </trkpt>
      <trkpt lat="44.88912" lon="5.69825">
        <ele>724</ele>
        <time>2017-12-18T14:57:44Z</time>
      </trkpt>
      <trkpt lat="44.88887" lon="5.69892">
        <ele>726</ele>
        <time>2017-12-18T14:57:46Z</time>
      </trkpt>
      <trkpt lat="44.88878" lon="5.69908">
        <ele>726</ele>
        <time>2017-12-18T14:57:52Z</time>
      </trkpt>
      <trkpt lat="44.88851" lon="5.69934">
        <ele>730</ele>
        <time>2017-12-18T14:58:08Z</time>
      </trkpt>
      <trkpt lat="44.88801" lon="5.69967">
        <ele>726</ele>
        <time>2017-12-18T14:58:22Z</time>
      </trkpt>
      <trkpt lat="44.88764" lon="5.69992">
        <ele>726</ele>
        <time>2017-12-18T14:58:29Z</time>
      </trkpt>
      <trkpt lat="44.88751" lon="5.69998">
        <ele>726</ele>
        <time>2017-12-18T14:58:46Z</time>
      </trkpt>
      <trkpt lat="44.88738" lon="5.70001">
        <ele>727</ele>
        <time>2017-12-18T14:58:53Z</time>
      </trkpt>
      <trkpt lat="44.88724" lon="5.70001">
        <ele>727</ele>
        <time>2017-12-18T14:59:07Z</time>
      </trkpt>
      <trkpt lat="44.88549" lon="5.69995">
        <ele>712</ele>
        <time>2017-12-18T14:59:09Z</time>
      </trkpt>
      <trkpt lat="44.88535" lon="5.69999">
        <ele>712</ele>
        <time>2017-12-18T14:59:20Z</time>
      </trkpt>
      <trkpt lat="44.88522" lon="5.70007">
        <ele>715</ele>
        <time>2017-12-18T14:59:32Z</time>
      </trkpt>
      <trkpt lat="44.8851" lon="5.70018">
        <ele>715</ele>
        <time>2017-12-18T14:59:43Z</time>
      </trkpt>
      <trkpt lat="44.88501" lon="5.70031">
        <ele>715</ele>
        <time>2017-12-18T14:59:58Z</time>
      </trkpt>
      <trkpt lat="44.88486" lon="5.70059">
        <ele>709</ele>
        <time>2017-12-18T15:00:07Z</time>
      </trkpt>
      <trkpt lat="44.88472" lon="5.70096">
        <ele>712</ele>
        <time>2017-12-18T15:00:26Z</time>
      </trkpt>
      <trkpt lat="44.8845" lon="5.70159">
        <ele>712</ele>
        <time>2017-12-18T15:00:31Z</time>
      </trkpt>
      <trkpt lat="44.88442" lon="5.70172">
        <ele>718</ele>
        <time>2017-12-18T15:00:44Z</time>
      </trkpt>
      <trkpt lat="44.88429" lon="5.70184">
        <ele>718</ele>
        <time>2017-12-18T15:00:49Z</time>
      </trkpt>
      <trkpt lat="44.88408" lon="5.70198">
        <ele>712</ele>
        <time>2017-12-18T15:01:00Z</time>
      </trkpt>
      <trkpt lat="44.88365" lon="5.70219">
        <ele>711</ele>
        <time>2017-12-18T15:01:08Z</time>
      </trkpt>
      <trkpt lat="44.88338" lon="5.70238">
        <ele>710</ele>
        <time>2017-12-18T15:01:22Z</time>
      </trkpt>
      <trkpt lat="44.88312" lon="5.70261">
        <ele>706</ele>
        <time>2017-12-18T15:01:29Z</time>
      </trkpt>
      <trkpt lat="44.88291" lon="5.70286">
        <ele>703</ele>
        <time>2017-12-18T15:01:32Z</time>
      </trkpt>
      <trkpt lat="44.88285" lon="5.70296">
        <ele>703</ele>
        <time>2017-12-18T15:01:48Z</time>
      </trkpt>
      <trkpt lat="44.88282" lon="5.70308">
        <ele>703</ele>
        <time>2017-12-18T15:01:59Z</time>
      </trkpt>
      <trkpt lat="44.88284" lon="5.70332">
        <ele>704</ele>
        <time>2017-12-18T15:02:11Z</time>
      </trkpt>
      <trkpt lat="44.88292" lon="5.70381">
        <ele>709</ele>
        <time>2017-12-18T15:02:22Z</time>
      </trkpt>
      <trkpt lat="44.88292" lon="5.70392">
        <ele>709</ele>
        <time>2017-12-18T15:02:25Z</time>
      </trkpt>
      <trkpt lat="44.88288" lon="5.70403">
        <ele>708</ele>
        <time>2017-12-18T15:02:35Z</time>
      </trkpt>
      <trkpt lat="44.88282" lon="5.70414">
        <ele>707</ele>
        <time>2017-12-18T15:02:45Z</time>
      </trkpt>
      <trkpt lat="44.88274" lon="5.70424">
        <ele>706</ele>
        <time>2017-12-18T15:02:50Z</time>
      </trkpt>
      <trkpt lat="44.88263" lon="5.70436">
        <ele>706</ele>
        <time>2017-12-18T15:03:09Z</time>
      </trkpt>
      <trkpt lat="44.88252" lon="5.70444">
        <ele>706</ele>
        <time>2017-12-18T15:03:12Z</time>
      </trkpt>
      <trkpt lat="44.88232" lon="5.70457">
        <ele>700</ele>
        <time>2017-12-18T15:03:20Z</time>
      </trkpt>
      <trkpt lat="44.88211" lon="5.70461">
        <ele>700</ele>
        <time>2017-12-18T15:03:35Z</time>
      </trkpt>
      <trkpt lat="44.88156" lon="5.70459">
        <ele>700</ele>
        <time>2017-12-18T15:03:41Z</time>
      </trkpt>
      <trkpt lat="44.88144" lon="5.70455">
        <ele>700</ele>
        <time>2017-12-18T15:03:55Z</time>
      </trkpt>
      <trkpt lat="44.88136" lon="5.70447">
        <ele>700</ele>
        <time>2017-12-18T15:04:09Z</time>
      </trkpt>
      <trkpt lat="44.88118" lon="5.70433">
        <ele>700</ele>
        <time>2017-12-18T15:04:17Z</time>
      </trkpt>
      <trkpt lat="44.88097" lon="5.70417">
        <ele>700</ele>
        <time>2017-12-18T15:04:20Z</time>
      </trkpt>
      <trkpt lat="44.88076" lon="5.70404">
        <ele>695</ele>
        <time>2017-12-18T15:04:31Z</time>
      </trkpt>
      <trkpt lat="44.88053" lon="5.70394">
        <ele>693</ele>
        <time>2017-12-18T15:04:43Z</time>
      </trkpt>
      <trkpt lat="44.88023" lon="5.70383">
        <ele>693</ele>
        <time>2017-12-18T15:04:47Z</time>
      </trkpt>
      <trkpt lat="44.8801" lon="5.70379">
        <ele>693</ele>
        <time>2017-12-18T15:05:05Z</time>
      </trkpt>
      <trkpt lat="44.87995" lon="5.70378">
        <ele>691</ele>
        <time>2017-12-18T15:05:24Z</time>
      </trkpt>
      <trkpt lat="44.87983" lon="5.70378">
        <ele>691</ele>
        <time>2017-12-18T15:05:31Z</time>
      </trkpt>
      <trkpt lat="44.87955" lon="5.70387">
        <ele>690</ele>
        <time>2017-12-18T15:05:38Z</time>
      </trkpt>
      <trkpt lat="44.87813" lon="5.70437">
        <ele>681</ele>
        <time>2017-12-18T15:05:57Z</time>
      </trkpt>
      <trkpt lat="44.87777" lon="5.70451">
        <ele>681</ele>
        <time>2017-12-18T15:06:08Z</time>
      </trkpt>
      <trkpt lat="44.87736" lon="5.70473">
        <ele>675</ele>
        <time>2017-12-18T15:06:24Z</time>
      </trkpt>
      <trkpt lat="44.87708" lon="5.70494">
        <ele>673</ele>
        <time>2017-12-18T15:06:28Z</time>
      </trkpt>
      <trkpt lat="44.87698" lon="5.70514">
        <ele>674</ele>
        <time>2017-12-18T15:06:37Z</time>
      </trkpt>
      <trkpt lat="44.87694" lon="5.70534">
        <ele>673</ele>
        <time>2017-12-18T15:06:46Z</time>
      </trkpt>
      <trkpt lat="44.87696" lon="5.70563">
        <ele>673</ele>
        <time>2017-12-18T15:06:58Z</time>
      </trkpt>
      <trkpt lat="44.87712" lon="5.70605">
        <ele>674</ele>
        <time>2017-12-18T15:07:18Z</time>
      </trkpt>
      <trkpt lat="44.87715" lon="5.70622">
        <ele>674</ele>
        <time>2017-12-18T15:07:36Z</time>
      </trkpt>
      <trkpt lat="44.87716" lon="5.70643">
        <ele>674</ele>
        <time>2017-12-18T15:07:39Z</time>
      </trkpt>
      <trkpt lat="44.87712" lon="5.70662">
        <ele>673</ele>
        <time>2017-12-18T15:07:49Z</time>
      </trkpt>
      <trkpt lat="44.87693" lon="5.70696">
        <ele>670</ele>
        <time>2017-12-18T15:08:03Z</time>
      </trkpt>
      <trkpt lat="44.8768" lon="5.70726">
        <ele>669</ele>
        <time>2017-12-18T15:08:13Z</time>
      </trkpt>
      <trkpt lat="44.87679" lon="5.70738">
        <ele>668</ele>
        <time>2017-12-18T15:08:26Z</time>
      </trkpt>
      <trkpt lat="44.87682" lon="5.70795">
        <ele>671</ele>
        <time>2017-12-18T15:08:45Z</time>
      </trkpt>
      <trkpt lat="44.87678" lon="5.70821">
        <ele>669</ele>
        <time>2017-12-18T15:08:54Z</time>
      </trkpt>
      <trkpt lat="44.87668" lon="5.70849">
        <ele>672</ele>
        <time>2017-12-18T15:09:01Z</time>
      </trkpt>
      <trkpt lat="44.87629" lon="5.70907">
        <ele>664</ele>
        <time>2017-12-18T15:09:14Z</time>
      </trkpt>
      <trkpt lat="44.87616" lon="5.70919">
        <ele>674</ele>
        <time>2017-12-18T15:09:17Z</time>
      </trkpt>
      <trkpt lat="44.87588" lon="5.70935">
        <ele>669</ele>
        <time>2017-12-18T15:09:37Z</time>
      </trkpt>
      <trkpt lat="44.87515" lon="5.70974">
        <ele>659</ele>
        <time>2017-12-18T15:09:51Z</time>
      </trkpt>
      <trkpt lat="44.87479" lon="5.70993">
        <ele>648</ele>
        <time>2017-12-18T15:09:58Z</time>
      </trkpt>
      <trkpt lat="44.87442" lon="5.71017">
        <ele>654</ele>
        <time>2017-12-18T15:10:05Z</time>
      </trkpt>
      <trkpt lat="44.87427" lon="5.71028">
        <ele>654</ele>
        <time>2017-12-18T15:10:22Z</time>
      </trkpt>
      <trkpt lat="44.87416" lon="5.71043">
        <ele>640</ele>
        <time>2017-12-18T15:10:29Z</time>
      </trkpt>
      <trkpt lat="44.87409" lon="5.71057">
        <ele>642</ele>
        <time>2017-12-18T15:10:38Z</time>
      </trkpt>
      <trkpt lat="44.87406" lon="5.71074">
        <ele>646</ele>
        <time>2017-12-18T15:10:42Z</time>
      </trkpt>
      <trkpt lat="44.87404" lon="5.71098">
        <ele>651</ele>
        <time>2017-12-18T15:10:52Z</time>
      </trkpt>
      <trkpt lat="44.87401" lon="5.71141">
        <ele>653</ele>
        <time>2017-12-18T15:11:04Z</time>
      </trkpt>
      <trkpt lat="44.87388" lon="5.71196">
        <ele>658</ele>
        <time>2017-12-18T15:11:20Z</time>
      </trkpt>
      <trkpt lat="44.87371" lon="5.71246">
        <ele>657</ele>
        <time>2017-12-18T15:11:38Z</time>
      </trkpt>
      <trkpt lat="44.8736" lon="5.71295">
        <ele>662</ele>
        <time>2017-12-18T15:11:56Z</time>
      </trkpt>
      <trkpt lat="44.87339" lon="5.71349">
        <ele>659</ele>
        <time>2017-12-18T15:12:01Z</time>
      </trkpt>
      <trkpt lat="44.8733" lon="5.7137">
        <ele>646</ele>
        <time>2017-12-18T15:12:12Z</time>
      </trkpt>
      <trkpt lat="44.87324" lon="5.71398">
        <ele>648</ele>
        <time>2017-12-18T15:12:25Z</time>
      </trkpt>
      <trkpt lat="44.87319" lon="5.71436">
        <ele>648</ele>
        <time>2017-12-18T15:12:36Z</time>
      </trkpt>
      <trkpt lat="44.87324" lon="5.71495">
        <ele>651</ele>
        <time>2017-12-18T15:12:50Z</time>
      </trkpt>
      <trkpt lat="44.87339" lon="5.71556">
        <ele>663</ele>
        <time>2017-12-18T15:12:54Z</time>
      </trkpt>
      <trkpt lat="44.87357" lon="5.7162">
        <ele>666</ele>
        <time>2017-12-18T15:12:57Z</time>
      </trkpt>
      <trkpt lat="44.87358" lon="5.71649">
        <ele>666</ele>
        <time>2017-12-18T15:13:04Z</time>
      </trkpt>
      <trkpt lat="44.87353" lon="5.71678">
        <ele>667</ele>
        <time>2017-12-18T15:13:06Z</time>
      </trkpt>
      <trkpt lat="44.87336" lon="5.71741">
        <ele>666</ele>
        <time>2017-12-18T15:13:22Z</time>
      </trkpt>
      <trkpt lat="44.87327" lon="5.71783">
        <ele>660</ele>
        <time>2017-12-18T15:13:27Z</time>
      </trkpt>
      <trkpt lat="44.87328" lon="5.71811">
        <ele>661</ele>
        <time>2017-12-18T15:13:30Z</time>
      </trkpt>
      <trkpt lat="44.87334" lon="5.71838">
        <ele>667</ele>
        <time>2017-12-18T15:13:45Z</time>
      </trkpt>
      <trkpt lat="44.87377" lon="5.71939">
        <ele>670</ele>
        <time>2017-12-18T15:13:53Z</time>
      </trkpt>
      <trkpt lat="44.87406" lon="5.72017">
        <ele>671</ele>
        <time>2017-12-18T15:13:58Z</time>
      </trkpt>
      <trkpt lat="44.8742" lon="5.72099">
        <ele>678</ele>
        <time>2017-12-18T15:14:00Z</time>
      </trkpt>
      <trkpt lat="44.87425" lon="5.72139">
        <ele>680</ele>
        <time>2017-12-18T15:14:10Z</time>
      </trkpt>
      <trkpt lat="44.87425" lon="5.72154">
        <ele>679</ele>
        <time>2017-12-18T15:14:14Z</time>
      </trkpt>
      <trkpt lat="44.87418" lon="5.72214">
        <ele>683</ele>
        <time>2017-12-18T15:14:23Z</time>
      </trkpt>
      <trkpt lat="44.87414" lon="5.72239">
        <ele>678</ele>
        <time>2017-12-18T15:14:31Z</time>
      </trkpt>
      <trkpt lat="44.87402" lon="5.72276">
        <ele>680</ele>
        <time>2017-12-18T15:14:37Z</time>
      </trkpt>
      <trkpt lat="44.8736" lon="5.72341">
        <ele>683</ele>
        <time>2017-12-18T15:14:39Z</time>
      </trkpt>
      <trkpt lat="44.87355" lon="5.72352">
        <ele>683</ele>
        <time>2017-12-18T15:14:45Z</time>
      </trkpt>
      <trkpt lat="44.87354" lon="5.72369">
        <ele>683</ele>
        <time>2017-12-18T15:14:58Z</time>
      </trkpt>
      <trkpt lat="44.8736" lon="5.72437">
        <ele>683</ele>
        <time>2017-12-18T15:15:00Z</time>
      </trkpt>
      <trkpt lat="44.87363" lon="5.72446">
        <ele>683</ele>
        <time>2017-12-18T15:15:08Z</time>
      </trkpt>
      <trkpt lat="44.87368" lon="5.72454">
        <ele>684</ele>
        <time>2017-12-18T15:15:13Z</time>
      </trkpt>
      <trkpt lat="44.87377" lon="5.72461">
        <ele>684</ele>
        <time>2017-12-18T15:15:17Z</time>
      </trkpt>
      <trkpt lat="44.87391" lon="5.72465">
        <ele>684</ele>
        <time>2017-12-18T15:15:36Z</time>
      </trkpt>
      <trkpt lat="44.87408" lon="5.72466">
        <ele>685</ele>
        <time>2017-12-18T15:15:40Z</time>
      </trkpt>
      <trkpt lat="44.87418" lon="5.7247">
        <ele>691</ele>
        <time>2017-12-18T15:15:49Z</time>
      </trkpt>
      <trkpt lat="44.87426" lon="5.72476">
        <ele>691</ele>
        <time>2017-12-18T15:16:09Z</time>
      </trkpt>
      <trkpt lat="44.8744" lon="5.72501">
        <ele>688</ele>
        <time>2017-12-18T15:16:28Z</time>
      </trkpt>
      <trkpt lat="44.87501" lon="5.7263">
        <ele>694</ele>
        <time>2017-12-18T15:16:41Z</time>
      </trkpt>
      <trkpt lat="44.87524" lon="5.72683">
        <ele>693</ele>
        <time>2017-12-18T15:16:43Z</time>
      </trkpt>
      <trkpt lat="44.87532" lon="5.72718">
        <ele>694</ele>
        <time>2017-12-18T15:16:53Z</time>
      </trkpt>
      <trkpt lat="44.8753" lon="5.72745">
        <ele>693</ele>
        <time>2017-12-18T15:17:11Z</time>
      </trkpt>
      <trkpt lat="44.87512" lon="5.72777">
        <ele>697</ele>
        <time>2017-12-18T15:17:27Z</time>
      </trkpt>
      <trkpt lat="44.87475" lon="5.72828">
        <ele>684</ele>
        <time>2017-12-18T15:17:44Z</time>
      </trkpt>
      <trkpt lat="44.87422" lon="5.72918">
        <ele>676</ele>
        <time>2017-12-18T15:17:52Z</time>
      </trkpt>
      <trkpt lat="44.8742" lon="5.72926">
        <ele>676</ele>
        <time>2017-12-18T15:17:55Z</time>
      </trkpt>
      <trkpt lat="44.8742" lon="5.72935">
        <ele>677</ele>
        <time>2017-12-18T15:18:15Z</time>
      </trkpt>
      <trkpt lat="44.87424" lon="5.72945">
        <ele>677</ele>
        <time>2017-12-18T15:18:29Z</time>
      </trkpt>
      <trkpt lat="44.87443" lon="5.72964">
        <ele>676</ele>
        <time>2017-12-18T15:18:42Z</time>
      </trkpt>
      <trkpt lat="44.8748" lon="5.72986">
        <ele>679</ele>
        <time>2017-12-18T15:18:49Z</time>
      </trkpt>
      <trkpt lat="44.87502" lon="5.72995">
        <ele>681</ele>
        <time>2017-12-18T15:19:02Z</time>
      </trkpt>
      <trkpt lat="44.87523" lon="5.72995">
        <ele>686</ele>
        <time>2017-12-18T15:19:04Z</time>
      </trkpt>
      <trkpt lat="44.87558" lon="5.72988">
        <ele>687</ele>
        <time>2017-12-18T15:19:19Z</time>
      </trkpt>
      <trkpt lat="44.87627" lon="5.72972">
        <ele>689</ele>
        <time>2017-12-18T15:19:36Z</time>
      </trkpt>
      <trkpt lat="44.87649" lon="5.72963">
        <ele>689</ele>
        <time>2017-12-18T15:19:42Z</time>
      </trkpt>
      <trkpt lat="44.87664" lon="5.72963">
        <ele>689</ele>
        <time>2017-12-18T15:20:01Z</time>
      </trkpt>
      <trkpt lat="44.87689" lon="5.72964">
        <ele>689</ele>
        <time>2017-12-18T15:20:14Z</time>
      </trkpt>
      <trkpt lat="44.87729" lon="5.72961">
        <ele>690</ele>
        <time>2017-12-18T15:20:20Z</time>
      </trkpt>
      <trkpt lat="44.87768" lon="5.72966">
        <ele>694</ele>
        <time>2017-12-18T15:20:22Z</time>
      </trkpt>
      <trkpt lat="44.8783" lon="5.72982">
        <ele>693</ele>
        <time>2017-12-18T15:20:33Z</time>
      </trkpt>
      <trkpt lat="44.87855" lon="5.72997">
        <ele>699</ele>
        <time>2017-12-18T15:20:35Z</time>
      </trkpt>
      <trkpt lat="44.87863" lon="5.73008">
        <ele>697</ele>
        <time>2017-12-18T15:20:45Z</time>
      </trkpt>
      <trkpt lat="44.87864" lon="5.73019">
        <ele>698</ele>
        <time>2017-12-18T15:20:53Z</time>
      </trkpt>
      <trkpt lat="44.8786" lon="5.73034">
        <ele>698</ele>
        <time>2017-12-18T15:21:04Z</time>
      </trkpt>
      <trkpt lat="44.87838" lon="5.7306">
        <ele>696</ele>
        <time>2017-12-18T15:21:17Z</time>
      </trkpt>
      <trkpt lat="44.87824" lon="5.73066">
        <ele>687</ele>
        <time>2017-12-18T15:21:36Z</time>
      </trkpt>
      <trkpt lat="44.87788" lon="5.73071">
        <ele>683</ele>
        <time>2017-12-18T15:21:41Z</time>
      </trkpt>
      <trkpt lat="44.87773" lon="5.73072">
        <ele>681</ele>
        <time>2017-12-18T15:21:51Z</time>
      </trkpt>
      <trkpt lat="44.87764" lon="5.73076">
        <ele>680</ele>
        <time>2017-12-18T15:22:04Z</time>
      </trkpt>
      <trkpt lat="44.87753" lon="5.73086">
        <ele>681</ele>
        <time>2017-12-18T15:22:06Z</time>
      </trkpt>
      <trkpt lat="44.87739" lon="5.73107">
        <ele>678</ele>
        <time>2017-12-18T15:22:09Z</time>
      </trkpt>
      <trkpt lat="44.87715" lon="5.73148">
        <ele>681</ele>
        <time>2017-12-18T15:22:18Z</time>
      </trkpt>
      <trkpt lat="44.87705" lon="5.73164">
        <ele>679</ele>
        <time>2017-12-18T15:22:32Z</time>
      </trkpt>
      <trkpt lat="44.877" lon="5.73179">
        <ele>686</ele>
        <time>2017-12-18T15:22:37Z</time>
      </trkpt>
      <trkpt lat="44.87698" lon="5.73228">
        <ele>687</ele>
        <time>2017-12-18T15:22:53Z</time>
      </trkpt>
      <trkpt lat="44.87697" lon="5.73265">
        <ele>692</ele>
        <time>2017-12-18T15:23:08Z</time>
      </trkpt>
      <trkpt lat="44.87681" lon="5.7331">
        <ele>691</ele>
        <time>2017-12-18T15:23:17Z</time>
      </trkpt>
      <trkpt lat="44.8768" lon="5.73364">
        <ele>697</ele>
        <time>2017-12-18T15:23:26Z</time>
      </trkpt>
      <trkpt lat="44.87675" lon="5.73382">
        <ele>698</ele>
        <time>2017-12-18T15:23:34Z</time>
      </trkpt>
      <trkpt lat="44.87662" lon="5.73396">
        <ele>685</ele>
        <time>2017-12-18T15:23:42Z</time>
      </trkpt>
      <trkpt lat="44.87649" lon="5.73406">
        <ele>685</ele>
        <time>2017-12-18T15:23:54Z</time>
      </trkpt>
      <trkpt lat="44.8764" lon="5.73418">
        <ele>690</ele>
        <time>2017-12-18T15:24:11Z</time>
      </trkpt>
      <trkpt lat="44.87634" lon="5.73432">
        <ele>690</ele>
        <time>2017-12-18T15:24:29Z</time>
      </trkpt>
      <trkpt lat="44.87631" lon="5.73455">
        <ele>691</ele>
        <time>2017-12-18T15:24:36Z</time>
      </trkpt>
      <trkpt lat="44.87622" lon="5.73492">
        <ele>692</ele>
        <time>2017-12-18T15:24:54Z</time>
      </trkpt>
      <trkpt lat="44.87616" lon="5.73506">
        <ele>700</ele>
        <time>2017-12-18T15:24:58Z</time>
      </trkpt>
      <trkpt lat="44.87612" lon="5.7351">
        <ele>700</ele>
        <time>2017-12-18T15:25:14Z</time>
      </trkpt>
      <trkpt lat="44.87605" lon="5.73514">
        <ele>700</ele>
        <time>2017-12-18T15:25:25Z</time>
      </trkpt>
      <trkpt lat="44.87599" lon="5.73515">
        <ele>699</ele>
        <time>2017-12-18T15:25:33Z</time>
      </trkpt>
      <trkpt lat="44.8759" lon="5.73512">
        <ele>698</ele>
        <time>2017-12-18T15:25:35Z</time>
      </trkpt>
      <trkpt lat="44.87564" lon="5.73478">
        <ele>690</ele>
        <time>2017-12-18T15:25:42Z</time>
      </trkpt>
      <trkpt lat="44.87541" lon="5.73445">
        <ele>687</ele>
        <time>2017-12-18T15:25:57Z</time>
      </trkpt>
      <trkpt lat="44.87528" lon="5.73438">
        <ele>687</ele>
        <time>2017-12-18T15:26:02Z</time>
      </trkpt>
      <trkpt lat="44.87516" lon="5.73437">
        <ele>686</ele>
        <time>2017-12-18T15:26:19Z</time>
      </trkpt>
      <trkpt lat="44.87501" lon="5.7344">
        <ele>686</ele>
        <time>2017-12-18T15:26:29Z</time>
      </trkpt>
      <trkpt lat="44.87489" lon="5.73448">
        <ele>685</ele>
        <time>2017-12-18T15:26:47Z</time>
      </trkpt>
      <trkpt lat="44.87475" lon="5.7346">
        <ele>685</ele>
        <time>2017-12-18T15:26:51Z</time>
      </trkpt>
      <trkpt lat="44.87425" lon="5.73514">
        <ele>691</ele>
        <time>2017-12-18T15:27:01Z</time>
      </trkpt>
      <trkpt lat="44.87384" lon="5.73557">
        <ele>690</ele>
        <time>2017-12-18T15:27:07Z</time>
      </trkpt>
      <trkpt lat="44.87335" lon="5.73616">
        <ele>698</ele>
        <time>2017-12-18T15:27:26Z</time>
      </trkpt>
      <trkpt lat="44.87316" lon="5.73644">
        <ele>689</ele>
        <time>2017-12-18T15:27:41Z</time>
      </trkpt>
      <trkpt lat="44.87308" lon="5.73664">
        <ele>689</ele>
        <time>2017-12-18T15:27:52Z</time>
      </trkpt>
      <trkpt lat="44.87299" lon="5.73692">
        <ele>693</ele>
        <time>2017-12-18T15:27:59Z</time>
      </trkpt>
      <trkpt lat="44.87295" lon="5.73728">
        <ele>694</ele>
        <time>2017-12-18T15:28:02Z</time>
      </trkpt>
      <trkpt lat="44.87281" lon="5.73856">
        <ele>703</ele>
        <time>2017-12-18T15:28:11Z</time>
      </trkpt>
      <trkpt lat="44.8727" lon="5.73959">
        <ele>709</ele>
        <time>2017-12-18T15:28:24Z</time>
      </trkpt>
      <trkpt lat="44.87273" lon="5.74029">
        <ele>712</ele>
        <time>2017-12-18T15:28:35Z</time>
      </trkpt>
      <trkpt lat="44.87278" lon="5.74132">
        <ele>713</ele>
        <time>2017-12-18T15:28:52Z</time>
      </trkpt>
      <trkpt lat="44.87285" lon="5.74186">
        <ele>713</ele>
        <time>2017-12-18T15:29:09Z</time>
      </trkpt>
      <trkpt lat="44.87293" lon="5.74206">
        <ele>714</ele>
        <time>2017-12-18T15:29:21Z</time>
      </trkpt>
      <trkpt lat="44.87306" lon="5.74225">
        <ele>715</ele>
        <time>2017-12-18T15:29:37Z</time>
      </trkpt>
      <trkpt lat="44.87346" lon="5.7427">
        <ele>722</ele>
        <time>2017-12-18T15:29:43Z</time>
      </trkpt>
      <trkpt lat="44.87358" lon="5.74278">
        <ele>723</ele>
        <time>2017-12-18T15:29:55Z</time>
      </trkpt>
      <trkpt lat="44.87374" lon="5.74281">
        <ele>725</ele>
        <time>2017-12-18T15:30:01Z</time>
      </trkpt>
      <trkpt lat="44.87388" lon="5.74282">
        <ele>726</ele>
        <time>2017-12-18T15:30:12Z</time>
      </trkpt>
      <trkpt lat="44.87402" lon="5.74288">
        <ele>727</ele>
        <time>2017-12-18T15:30:31Z</time>
      </trkpt>
      <trkpt lat="44.87414" lon="5.743">
        <ele>727</ele>
        <time>2017-12-18T15:30:46Z</time>
      </trkpt>
      <trkpt lat="44.8742" lon="5.74315">
        <ele>736</ele>
        <time>2017-12-18T15:30:52Z</time>
      </trkpt>
      <trkpt lat="44.87422" lon="5.74334">
        <ele>734</ele>
        <time>2017-12-18T15:31:11Z</time>
      </trkpt>
      <trkpt lat="44.87421" lon="5.74352">
        <ele>740</ele>
        <time>2017-12-18T15:31:27Z</time>
      </trkpt>
      <trkpt lat="44.87402" lon="5.74395">
        <ele>729</ele>
        <time>2017-12-18T15:31:30Z</time>
      </trkpt>
      <trkpt lat="44.87372" lon="5.74454">
        <ele>731</ele>
        <time>2017-12-18T15:31:33Z</time>
      </trkpt>
      <trkpt lat="44.87368" lon="5.74474">
        <ele>731</ele>
        <time>2017-12-18T15:31:53Z</time>
      </trkpt>
      <trkpt lat="44.87368" lon="5.74496">
        <ele>732</ele>
        <time>2017-12-18T15:32:11Z</time>
      </trkpt>
      <trkpt lat="44.87371" lon="5.74538">
        <ele>735</ele>
        <time>2017-12-18T15:32:27Z</time>
      </trkpt>
      <trkpt lat="44.87375" lon="5.74569">
        <ele>735</ele>
        <time>2017-12-18T15:32:44Z</time>
      </trkpt>
      <trkpt lat="44.87383" lon="5.74599">
        <ele>734</ele>
        <time>2017-12-18T15:32:46Z</time>
      </trkpt>
      <trkpt lat="44.8739" lon="5.74628">
        <ele>734</ele>
        <time>2017-12-18T15:32:55Z</time>
      </trkpt>
      <trkpt lat="44.87404" lon="5.7468">
        <ele>739</ele>
        <time>2017-12-18T15:33:10Z</time>
      </trkpt>
      <trkpt lat="44.8741" lon="5.74697">
        <ele>737</ele>
        <time>2017-12-18T15:33:25Z</time>
      </trkpt>
      <trkpt lat="44.87413" lon="5.74719">
        <ele>737</ele>
        <time>2017-12-18T15:33:27Z</time>
      </trkpt>
      <trkpt lat="44.87412" lon="5.74743">
        <ele>743</ele>
        <time>2017-12-18T15:33:47Z</time>
      </trkpt>
      <trkpt lat="44.87407" lon="5.74773">
        <ele>740</ele>
        <time>2017-12-18T15:33:49Z</time>
      </trkpt>
      <trkpt lat="44.87396" lon="5.74841">
        <ele>740</ele>
        <time>2017-12-18T15:34:02Z</time>
      </trkpt>
      <trkpt lat="44.87399" lon="5.74873">
        <ele>737</ele>
        <time>2017-12-18T15:34:19Z</time>
      </trkpt>
      <trkpt lat="44.87405" lon="5.7489">
        <ele>738</ele>
        <time>2017-12-18T15:34:34Z</time>
      </trkpt>
      <trkpt lat="44.87416" lon="5.74909">
        <ele>745</ele>
        <time>2017-12-18T15:34:49Z</time>
      </trkpt>
      <trkpt lat="44.87466" lon="5.74968">
        <ele>753</ele>
        <time>2017-12-18T15:34:51Z</time>
      </trkpt>
      <trkpt lat="44.87479" lon="5.7498">
        <ele>753</ele>
        <time>2017-12-18T15:35:09Z</time>
      </trkpt>
      <trkpt lat="44.87517" lon="5.75004">
        <ele>757</ele>
        <time>2017-12-18T15:35:23Z</time>
      </trkpt>
      <trkpt lat="44.8757" lon="5.75041">
        <ele>761</ele>
        <time>2017-12-18T15:35:43Z</time>
      </trkpt>
      <trkpt lat="44.87586" lon="5.75055">
        <ele>778</ele>
        <time>2017-12-18T15:35:58Z</time>
      </trkpt>
      <trkpt lat="44.87633" lon="5.75118">
        <ele>762</ele>
        <time>2017-12-18T15:36:10Z</time>
      </trkpt>
      <trkpt lat="44.87679" lon="5.75176">
        <ele>767</ele>
        <time>2017-12-18T15:36:16Z</time>
      </trkpt>
      <trkpt lat="44.87724" lon="5.75219">
        <ele>772</ele>
        <time>2017-12-18T15:36:24Z</time>
      </trkpt>
      <trkpt lat="44.87756" lon="5.75246">
        <ele>779</ele>
        <time>2017-12-18T15:36:40Z</time>
      </trkpt>
      <trkpt lat="44.87774" lon="5.75259">
        <ele>778</ele>
        <time>2017-12-18T15:36:53Z</time>
      </trkpt>
      <trkpt lat="44.87792" lon="5.75277">
        <ele>780</ele>
        <time>2017-12-18T15:37:06Z</time>
      </trkpt>
      <trkpt lat="44.87813" lon="5.75298">
        <ele>780</ele>
        <time>2017-12-18T15:37:15Z</time>
      </trkpt>
      <trkpt lat="44.87832" lon="5.75312">
        <ele>779</ele>
        <time>2017-12-18T15:37:25Z</time>
      </trkpt>
      <trkpt lat="44.87849" lon="5.7532">
        <ele>788</ele>
        <time>2017-12-18T15:37:28Z</time>
      </trkpt>
      <trkpt lat="44.87864" lon="5.75328">
        <ele>790</ele>
        <time>2017-12-18T15:37:43Z</time>
      </trkpt>
      <trkpt lat="44.87869" lon="5.75334">
        <ele>791</ele>
        <time>2017-12-18T15:37:50Z</time>
      </trkpt>
      <trkpt lat="44.87874" lon="5.75351">
        <ele>793</ele>
        <time>2017-12-18T15:38:00Z</time>
      </trkpt>
      <trkpt lat="44.87872" lon="5.75367">
        <ele>795</ele>
        <time>2017-12-18T15:38:18Z</time>
      </trkpt>
      <trkpt lat="44.87867" lon="5.75372">
        <ele>795</ele>
        <time>2017-12-18T15:38:37Z</time>
      </trkpt>
      <trkpt lat="44.8784" lon="5.75381">
        <ele>795</ele>
        <time>2017-12-18T15:38:39Z</time>
      </trkpt>
      <trkpt lat="44.87773" lon="5.75394">
        <ele>787</ele>
        <time>2017-12-18T15:38:47Z</time>
      </trkpt>
      <trkpt lat="44.87751" lon="5.75401">
        <ele>789</ele>
        <time>2017-12-18T15:39:03Z</time>
      </trkpt>
      <trkpt lat="44.87724" lon="5.75417">
        <ele>799</ele>
        <time>2017-12-18T15:39:19Z</time>
      </trkpt>
      <trkpt lat="44.87699" lon="5.75428">
        <ele>799</ele>
        <time>2017-12-18T15:39:27Z</time>
      </trkpt>
      <trkpt lat="44.87673" lon="5.75435">
        <ele>794</ele>
        <time>2017-12-18T15:39:42Z</time>
      </trkpt>
      <trkpt lat="44.87627" lon="5.75438">
        <ele>790</ele>
        <time>2017-12-18T15:39:46Z</time>
      </trkpt>
      <trkpt lat="44.87607" lon="5.75442">
        <ele>789</ele>
        <time>2017-12-18T15:39:55Z</time>
      </trkpt>
      <trkpt lat="44.87574" lon="5.75464">
        <ele>781</ele>
        <time>2017-12-18T15:40:14Z</time>
      </trkpt>
      <trkpt lat="44.87547" lon="5.75485">
        <ele>780</ele>
        <time>2017-12-18T15:40:24Z</time>
      </trkpt>
      <trkpt lat="44.87543" lon="5.75495">
        <ele>779</ele>
        <time>2017-12-18T15:40:41Z</time>
      </trkpt>
      <trkpt lat="44.87543" lon="5.75504">
        <ele>788</ele>
        <time>2017-12-18T15:40:56Z</time>
      </trkpt>
      <trkpt lat="44.87547" lon="5.75515">
        <ele>789</ele>
        <time>2017-12-18T15:41:12Z</time>
      </trkpt>
      <trkpt lat="44.87557" lon="5.75546">
        <ele>792</ele>
        <time>2017-12-18T15:41:16Z</time>
      </trkpt>
      <trkpt lat="44.87555" lon="5.75576">
        <ele>795</ele>
        <time>2017-12-18T15:41:18Z</time>
      </trkpt>
      <trkpt lat="44.87558" lon="5.75615">
        <ele>789</ele>
        <time>2017-12-18T15:41:38Z</time>
      </trkpt>
      <trkpt lat="44.87572" lon="5.7565">
        <ele>794</ele>
        <time>2017-12-18T15:41:44Z</time>
      </trkpt>
      <trkpt lat="44.87581" lon="5.75674">
        <ele>798</ele>
        <time>2017-12-18T15:41:49Z</time>
      </trkpt>
      <trkpt lat="44.87624" lon="5.7582">
        <ele>808</ele>
        <time>2017-12-18T15:41:57Z</time>
      </trkpt>
      <trkpt lat="44.87633" lon="5.75842">
        <ele>799</ele>
        <time>2017-12-18T15:42:01Z</time>
      </trkpt>
      <trkpt lat="44.87642" lon="5.75854">
        <ele>801</ele>
        <time>2017-12-18T15:42:09Z</time>
      </trkpt>
      <trkpt lat="44.87669" lon="5.75876">
        <ele>826</ele>
        <time>2017-12-18T15:42:19Z</time>
      </trkpt>
      <trkpt lat="44.87724" lon="5.75942">
        <ele>818</ele>
        <time>2017-12-18T15:42:39Z</time>
      </trkpt>
      <trkpt lat="44.8774" lon="5.75962">
        <ele>818</ele>
        <time>2017-12-18T15:42:56Z</time>
      </trkpt>
      <trkpt lat="44.8775" lon="5.75981">
        <ele>819</ele>
        <time>2017-12-18T15:43:08Z</time>
      </trkpt>
      <trkpt lat="44.87756" lon="5.76046">
        <ele>834</ele>
        <time>2017-12-18T15:43:28Z</time>
      </trkpt>
      <trkpt lat="44.87763" lon="5.76089">
        <ele>823</ele>
        <time>2017-12-18T15:43:37Z</time>
      </trkpt>
      <trkpt lat="44.87774" lon="5.76133">
        <ele>829</ele>
        <time>2017-12-18T15:43:40Z</time>
      </trkpt>
      <trkpt lat="44.87782" lon="5.76191">
        <ele>825</ele>
        <time>2017-12-18T15:44:00Z</time>
      </trkpt>
      <trkpt lat="44.87782" lon="5.76223">
        <ele>824</ele>
        <time>2017-12-18T15:44:16Z</time>
      </trkpt>
      <trkpt lat="44.87781" lon="5.7625">
        <ele>818</ele>
        <time>2017-12-18T15:44:35Z</time>
      </trkpt>
      <trkpt lat="44.87784" lon="5.76277">
        <ele>818</ele>
        <time>2017-12-18T15:44:50Z</time>
      </trkpt>
      <trkpt lat="44.87791" lon="5.76303">
        <ele>818</ele>
        <time>2017-12-18T15:45:10Z</time>
      </trkpt>
      <trkpt lat="44.87805" lon="5.76336">
        <ele>815</ele>
        <time>2017-12-18T15:45:16Z</time>
      </trkpt>
      <trkpt lat="44.87849" lon="5.76399">
        <ele>827</ele>
        <time>2017-12-18T15:45:35Z</time>
      </trkpt>
      <trkpt lat="44.87966" lon="5.76536">
        <ele>828</ele>
        <time>2017-12-18T15:45:37Z</time>
      </trkpt>
      <trkpt lat="44.87988" lon="5.76556">
        <ele>829</ele>
        <time>2017-12-18T15:45:49Z</time>
      </trkpt>
      <trkpt lat="44.8801" lon="5.76571">
        <ele>838</ele>
        <time>2017-12-18T15:46:05Z</time>
      </trkpt>
      <trkpt lat="44.88076" lon="5.76607">
        <ele>834</ele>
        <time>2017-12-18T15:46:09Z</time>
      </trkpt>
      <trkpt lat="44.88123" lon="5.76637">
        <ele>838</ele>
        <time>2017-12-18T15:46:26Z</time>
      </trkpt>
      <trkpt lat="44.88142" lon="5.76645">
        <ele>837</ele>
        <time>2017-12-18T15:46:39Z</time>
      </trkpt>
      <trkpt lat="44.88157" lon="5.76648">
        <ele>836</ele>
        <time>2017-12-18T15:46:44Z</time>
      </trkpt>
      <trkpt lat="44.88182" lon="5.76647">
        <ele>833</ele>
        <time>2017-12-18T15:46:54Z</time>
      </trkpt>
      <trkpt lat="44.88196" lon="5.76636">
        <ele>834</ele>
        <time>2017-12-18T15:47:02Z</time>
      </trkpt>
      <trkpt lat="44.88224" lon="5.76585">
        <ele>840</ele>
        <time>2017-12-18T15:47:17Z</time>
      </trkpt>
      <trkpt lat="44.88244" lon="5.76564">
        <ele>854</ele>
        <time>2017-12-18T15:47:22Z</time>
      </trkpt>
      <trkpt lat="44.88302" lon="5.76519">
        <ele>843</ele>
        <time>2017-12-18T15:47:37Z</time>
      </trkpt>
      <trkpt lat="44.88318" lon="5.76505">
        <ele>843</ele>
        <time>2017-12-18T15:47:56Z</time>
      </trkpt>
      <trkpt lat="44.88329" lon="5.76493">
        <ele>851</ele>
        <time>2017-12-18T15:48:09Z</time>
      </trkpt>
      <trkpt lat="44.8836" lon="5.76458">
        <ele>845</ele>
        <time>2017-12-18T15:48:12Z</time>
      </trkpt>
      <trkpt lat="44.88375" lon="5.7644">
        <ele>846</ele>
        <time>2017-12-18T15:48:22Z</time>
      </trkpt>
      <trkpt lat="44.88382" lon="5.76424">
        <ele>846</ele>
        <time>2017-12-18T15:48:25Z</time>
      </trkpt>
      <trkpt lat="44.88392" lon="5.76418">
        <ele>845</ele>
        <time>2017-12-18T15:48:43Z</time>
      </trkpt>
      <trkpt lat="44.88411" lon="5.76413">
        <ele>851</ele>
        <time>2017-12-18T15:49:01Z</time>
      </trkpt>
      <trkpt lat="44.88422" lon="5.76404">
        <ele>846</ele>
        <time>2017-12-18T15:49:19Z</time>
      </trkpt>
      <trkpt lat="44.88428" lon="5.76397">
        <ele>846</ele>
        <time>2017-12-18T15:49:21Z</time>
      </trkpt>
      <trkpt lat="44.88436" lon="5.76395">
        <ele>846</ele>
        <time>2017-12-18T15:49:25Z</time>
      </trkpt>
      <trkpt lat="44.88445" lon="5.76395">
        <ele>845</ele>
        <time>2017-12-18T15:49:39Z</time>
      </trkpt>
      <trkpt lat="44.88462" lon="5.76387">
        <ele>843</ele>
        <time>2017-12-18T15:49:50Z</time>
      </trkpt>
      <trkpt lat="44.88476" lon="5.76378">
        <ele>843</ele>
        <time>2017-12-18T15:49:54Z</time>
      </trkpt>
      <trkpt lat="44.88484" lon="5.76368">
        <ele>844</ele>
        <time>2017-12-18T15:50:05Z</time>
      </trkpt>
      <trkpt lat="44.88493" lon="5.76356">
        <ele>846</ele>
        <time>2017-12-18T15:50:10Z</time>
      </trkpt>
      <trkpt lat="44.88502" lon="5.76337">
        <ele>846</ele>
        <time>2017-12-18T15:50:26Z</time>
      </trkpt>
      <trkpt lat="44.88517" lon="5.76282">
        <ele>850</ele>
        <time>2017-12-18T15:50:28Z</time>
      </trkpt>
      <trkpt lat="44.88529" lon="5.76242">
        <ele>857</ele>
        <time>2017-12-18T15:50:42Z</time>
      </trkpt>
      <trkpt lat="44.88548" lon="5.76214">
        <ele>856</ele>
        <time>2017-12-18T15:50:53Z</time>
      </trkpt>
      <trkpt lat="44.88589" lon="5.76177">
        <ele>850</ele>
        <time>2017-12-18T15:50:56Z</time>
      </trkpt>
      <trkpt lat="44.88628" lon="5.76141">
        <ele>854</ele>
        <time>2017-12-18T15:51:11Z</time>
      </trkpt>
      <trkpt lat="44.88642" lon="5.7613">
        <ele>854</ele>
        <time>2017-12-18T15:51:19Z</time>
      </trkpt>
      <trkpt lat="44.88652" lon="5.76126">
        <ele>855</ele>
        <time>2017-12-18T15:51:21Z</time>
      </trkpt>
      <trkpt lat="44.88667" lon="5.76127">
        <ele>856</ele>
        <time>2017-12-18T15:51:38Z</time>
      </trkpt>
      <trkpt lat="44.88683" lon="5.76142">
        <ele>855</ele>
        <time>2017-12-18T15:51:44Z</time>
      </trkpt>
      <trkpt lat="44.88701" lon="5.76176">
        <ele>845</ele>
        <time>2017-12-18T15:51:56Z</time>
      </trkpt>
      <trkpt lat="44.88708" lon="5.76183">
        <ele>845</ele>
        <time>2017-12-18T15:52:03Z</time>
      </trkpt>
      <trkpt lat="44.88715" lon="5.76187">
        <ele>845</ele>
        <time>2017-12-18T15:52:21Z</time>
      </trkpt>
      <trkpt lat="44.88723" lon="5.76187">
        <ele>845</ele>
        <time>2017-12-18T15:52:30Z</time>
      </trkpt>
      <trkpt lat="44.8875" lon="5.7618">
        <ele>849</ele>
        <time>2017-12-18T15:52:47Z</time>
      </trkpt>
      <trkpt lat="44.88792" lon="5.76166">
        <ele>861</ele>
        <time>2017-12-18T15:53:03Z</time>
      </trkpt>
      <trkpt lat="44.88816" lon="5.76161">
        <ele>860</ele>
        <time>2017-12-18T15:53:22Z</time>
      </trkpt>
      <trkpt lat="44.88839" lon="5.76167">
        <ele>853</ele>
        <time>2017-12-18T15:53:38Z</time>
      </trkpt>
      <trkpt lat="44.88873" lon="5.76181">
        <ele>851</ele>
        <time>2017-12-18T15:53:47Z</time>
      </trkpt>
      <trkpt lat="44.88885" lon="5.76188">
        <ele>852</ele>
        <time>2017-12-18T15:53:50Z</time>
      </trkpt>
      <trkpt lat="44.88896" lon="5.76206">
        <ele>851</ele>
        <time>2017-12-18T15:53:52Z</time>
      </trkpt>
      <trkpt lat="44.88898" lon="5.76227">
        <ele>850</ele>
        <time>2017-12-18T15:53:54Z</time>
      </trkpt>
      <trkpt lat="44.88888" lon="5.76291">
        <ele>840</ele>
        <time>2017-12-18T15:54:08Z</time>
      </trkpt>
      <trkpt lat="44.88888" lon="5.76312">
        <ele>840</ele>
        <time>2017-12-18T15:54:18Z</time>
      </trkpt>
      <trkpt lat="44.88893" lon="5.76328">
        <ele>840</ele>
        <time>2017-12-18T15:54:33Z</time>
      </trkpt>
      <trkpt lat="44.88901" lon="5.7634">
        <ele>836</ele>
        <time>2017-12-18T15:54:43Z</time>
      </trkpt>
      <trkpt lat="44.88909" lon="5.76348">
        <ele>836</ele>
        <time>2017-12-18T15:55:01Z</time>
      </trkpt>
      <trkpt lat="44.88917" lon="5.7635">
        <ele>841</ele>
        <time>2017-12-18T15:55:16Z</time>
      </trkpt>
      <trkpt lat="44.88941" lon="5.76349">
        <ele>839</ele>
        <time>2017-12-18T15:55:27Z</time>
      </trkpt>
      <trkpt lat="44.8898" lon="5.7633">
        <ele>847</ele>
        <time>2017-12-18T15:55:36Z</time>
      </trkpt>
      <trkpt lat="44.88999" lon="5.76314">
        <ele>848</ele>
        <time>2017-12-18T15:55:49Z</time>
      </trkpt>
      <trkpt lat="44.89024" lon="5.76282">
        <ele>849</ele>
        <time>2017-12-18T15:55:54Z</time>
      </trkpt>
      <trkpt lat="44.8906" lon="5.76235">
        <ele>857</ele>
        <time>2017-12-18T15:55:58Z</time>
      </trkpt>
      <trkpt lat="44.89104" lon="5.76197">
        <ele>855</ele>
        <time>2017-12-18T15:56:01Z</time>
      </trkpt>
      <trkpt lat="44.89122" lon="5.76178">
        <ele>855</ele>
        <time>2017-12-18T15:56:19Z</time>
      </trkpt>
      <trkpt lat="44.89132" lon="5.76164">
        <ele>865</ele>
        <time>2017-12-18T15:56:39Z</time>
      </trkpt>
      <trkpt lat="44.89141" lon="5.76154">
        <ele>864</ele>
        <time>2017-12-18T15:56:51Z</time>
      </trkpt>
      <trkpt lat="44.89153" lon="5.76149">
        <ele>862</ele>
        <time>2017-12-18T15:57:01Z</time>
      </trkpt>
      <trkpt lat="44.89163" lon="5.7615">
        <ele>861</ele>
        <time>2017-12-18T15:57:09Z</time>
      </trkpt>
      <trkpt lat="44.8923" lon="5.76184">
        <ele>853</ele>
        <time>2017-12-18T15:57:19Z</time>
      </trkpt>
      <trkpt lat="44.89285" lon="5.76213">
        <ele>856</ele>
        <time>2017-12-18T15:57:29Z</time>
      </trkpt>
      <trkpt lat="44.89294" lon="5.76219">
        <ele>856</ele>
        <time>2017-12-18T15:57:39Z</time>
      </trkpt>
      <trkpt lat="44.89299" lon="5.76226">
        <ele>856</ele>
        <time>2017-12-18T15:57:56Z</time>
      </trkpt>
      <trkpt lat="44.893" lon="5.76234">
        <ele>856</ele>
        <time>2017-12-18T15:58:02Z</time>
      </trkpt>
      <trkpt lat="44.89299" lon="5.7624">
        <ele>856</ele>
        <time>2017-12-18T15:58:07Z</time>
      </trkpt>
      <trkpt lat="44.89276" lon="5.76278">
        <ele>853</ele>
        <time>2017-12-18T15:58:26Z</time>
      </trkpt>
      <trkpt lat="44.89265" lon="5.763">
        <ele>854</ele>
        <time>2017-12-18T15:58:42Z</time>
      </trkpt>
      <trkpt lat="44.89259" lon="5.76313">
        <ele>854</ele>
        <time>2017-12-18T15:58:57Z</time>
      </trkpt>
      <trkpt lat="44.89254" lon="5.76339">
        <ele>854</ele>
        <time>2017-12-18T15:59:15Z</time>
      </trkpt>
      <trkpt lat="44.89256" lon="5.76357">
        <ele>855</ele>
        <time>2017-12-18T15:59:17Z</time>
      </trkpt>
      <trkpt lat="44.89263" lon="5.76378">
        <ele>855</ele>
        <time>2017-12-18T15:59:35Z</time>
      </trkpt>
      <trkpt lat="44.89275" lon="5.76399">
        <ele>855</ele>
        <time>2017-12-18T15:59:54Z</time>
      </trkpt>
      <trkpt lat="44.89288" lon="5.76413">
        <ele>856</ele>
        <time>2017-12-18T16:00:08Z</time>
      </trkpt>
      <trkpt lat="44.89293" lon="5.7642">
        <ele>856</ele>
        <time>2017-12-18T16:00:17Z</time>
      </trkpt>
      <trkpt lat="44.89308" lon="5.76465">
        <ele>857</ele>
        <time>2017-12-18T16:00:34Z</time>
      </trkpt>
      <trkpt lat="44.89318" lon="5.76499">
        <ele>859</ele>
        <time>2017-12-18T16:00:43Z</time>
      </trkpt>
      <trkpt lat="44.89322" lon="5.76522">
        <ele>857</ele>
        <time>2017-12-18T16:00:53Z</time>
      </trkpt>
      <trkpt lat="44.89325" lon="5.76601">
        <ele>855</ele>
        <time>2017-12-18T16:01:02Z</time>
      </trkpt>
      <trkpt lat="44.89318" lon="5.76663">
        <ele>854</ele>
        <time>2017-12-18T16:01:05Z</time>
      </trkpt>
      <trkpt lat="44.89324" lon="5.76698">
        <ele>848</ele>
        <time>2017-12-18T16:01:12Z</time>
      </trkpt>
      <trkpt lat="44.89341" lon="5.76745">
        <ele>855</ele>
        <time>2017-12-18T16:01:24Z</time>
      </trkpt>
      <trkpt lat="44.89347" lon="5.7676">
        <ele>852</ele>
        <time>2017-12-18T16:01:42Z</time>
      </trkpt>
      <trkpt lat="44.89354" lon="5.7677">
        <ele>852</ele>
        <time>2017-12-18T16:01:49Z</time>
      </trkpt>
      <trkpt lat="44.8938" lon="5.76792">
        <ele>853</ele>
        <time>2017-12-18T16:01:55Z</time>
      </trkpt>
      <trkpt lat="44.89431" lon="5.76826">
        <ele>859</ele>
        <time>2017-12-18T16:02:00Z</time>
      </trkpt>
      <trkpt lat="44.89482" lon="5.76858">
        <ele>855</ele>
        <time>2017-12-18T16:02:05Z</time>
      </trkpt>
      <trkpt lat="44.89531" lon="5.76887">
        <ele>861</ele>
        <time>2017-12-18T16:02:08Z</time>
      </trkpt>
      <trkpt lat="44.89545" lon="5.76902">
        <ele>862</ele>
        <time>2017-12-18T16:02:16Z</time>
      </trkpt>
      <trkpt lat="44.89556" lon="5.76913">
        <ele>863</ele>
        <time>2017-12-18T16:02:28Z</time>
      </trkpt>
      <trkpt lat="44.89569" lon="5.76935">
        <ele>856</ele>
        <time>2017-12-18T16:02:32Z</time>
      </trkpt>
      <trkpt lat="44.89601" lon="5.76997">
        <ele>861</ele>
        <time>2017-12-18T16:02:43Z</time>
      </trkpt>
      <trkpt lat="44.89632" lon="5.77037">
        <ele>855</ele>
        <time>2017-12-18T16:02:58Z</time>
      </trkpt>
      <trkpt lat="44.89646" lon="5.77053">
        <ele>854</ele>
        <time>2017-12-18T16:03:06Z</time>
      </trkpt>
      <trkpt lat="44.89683" lon="5.77087">
        <ele>851</ele>
        <time>2017-12-18T16:03:08Z</time>
      </trkpt>
      <trkpt lat="44.89742" lon="5.77142">
        <ele>849</ele>
        <time>2017-12-18T16:03:18Z</time>
      </trkpt>
      <trkpt lat="44.89757" lon="5.77152">
        <ele>853</ele>
        <time>2017-12-18T16:03:37Z</time>
      </trkpt>
      <trkpt lat="44.89782" lon="5.77157">
        <ele>854</ele>
        <time>2017-12-18T16:03:43Z</time>
      </trkpt>
      <trkpt lat="44.89885" lon="5.77167">
        <ele>854</ele>
        <time>2017-12-18T16:04:03Z</time>
      </trkpt>
      <trkpt lat="44.89914" lon="5.77173">
        <ele>858</ele>
        <time>2017-12-18T16:04:17Z</time>
      </trkpt>
      <trkpt lat="44.89961" lon="5.77206">
        <ele>859</ele>
        <time>2017-12-18T16:04:20Z</time>
      </trkpt>
      <trkpt lat="44.89986" lon="5.7723">
        <ele>859</ele>
        <time>2017-12-18T16:04:26Z</time>
      </trkpt>
      <trkpt lat="44.9" lon="5.77249">
        <ele>859</ele>
        <time>2017-12-18T16:04:31Z</time>
      </trkpt>
      <trkpt lat="44.90016" lon="5.77277">
        <ele>859</ele>
        <time>2017-12-18T16:04:35Z</time>
      </trkpt>
      <trkpt lat="44.90062" lon="5.77384">
        <ele>857</ele>
        <time>2017-12-18T16:04:46Z</time>
      </trkpt>
      <trkpt lat="44.90077" lon="5.77444">
        <ele>855</ele>
        <time>2017-12-18T16:04:54Z</time>
      </trkpt>
      <trkpt lat="44.90102" lon="5.77546">
        <ele>861</ele>
        <time>2017-12-18T16:04:57Z</time>
      </trkpt>
      <trkpt lat="44.90112" lon="5.77596">
        <ele>862</ele>
        <time>2017-12-18T16:05:13Z</time>
      </trkpt>
      <trkpt lat="44.90115" lon="5.77659">
        <ele>862</ele>
        <time>2017-12-18T16:05:31Z</time>
      </trkpt>
      <trkpt lat="44.90111" lon="5.77689">
        <ele>865</ele>
        <time>2017-12-18T16:05:41Z</time>
      </trkpt>
      <trkpt lat="44.90101" lon="5.77723">
        <ele>866</ele>
        <time>2017-12-18T16:06:00Z</time>
      </trkpt>
      <trkpt lat="44.90088" lon="5.77757">
        <ele>867</ele>
        <time>2017-12-18T16:06:10Z</time>
      </trkpt>
      <trkpt lat="44.90065" lon="5.77804">
        <ele>864</ele>
        <time>2017-12-18T16:06:18Z</time>
      </trkpt>
      <trkpt lat="44.90027" lon="5.77869">
        <ele>870</ele>
        <time>2017-12-18T16:06:37Z</time>
      </trkpt>
      <trkpt lat="44.90013" lon="5.77905">
        <ele>870</ele>
        <time>2017-12-18T16:06:43Z</time>
      </trkpt>
      <trkpt lat="44.89988" lon="5.77977">
        <ele>864</ele>
        <time>2017-12-18T16:06:48Z</time>
      </trkpt>
      <trkpt lat="44.89985" lon="5.77996">
        <ele>865</ele>
        <time>2017-12-18T16:06:56Z</time>
      </trkpt>
      <trkpt lat="44.89987" lon="5.78019">
        <ele>866</ele>
        <time>2017-12-18T16:07:07Z</time>
      </trkpt>
      <trkpt lat="44.89991" lon="5.78026">
        <ele>865</ele>
        <time>2017-12-18T16:07:27Z</time>
      </trkpt>
      <trkpt lat="44.90003" lon="5.78037">
        <ele>869</ele>
        <time>2017-12-18T16:07:44Z</time>
      </trkpt>
      <trkpt lat="44.90034" lon="5.78053">
        <ele>870</ele>
        <time>2017-12-18T16:07:53Z</time>
      </trkpt>
      <trkpt lat="44.90053" lon="5.78069">
        <ele>869</ele>
        <time>2017-12-18T16:08:11Z</time>
      </trkpt>
      <trkpt lat="44.90068" lon="5.78106">
        <ele>868</ele>
        <time>2017-12-18T16:08:26Z</time>
      </trkpt>
      <trkpt lat="44.90099" lon="5.78185">
        <ele>868</ele>
        <time>2017-12-18T16:08:28Z</time>
      </trkpt>
      <trkpt lat="44.90107" lon="5.78209">
        <ele>869</ele>
        <time>2017-12-18T16:08:46Z</time>
      </trkpt>
      <trkpt lat="44.90116" lon="5.7824">
        <ele>869</ele>
        <time>2017-12-18T16:08:51Z</time>
      </trkpt>
      <trkpt lat="44.90121" lon="5.78266">
        <ele>871</ele>
        <time>2017-12-18T16:08:55Z</time>
      </trkpt>
      <trkpt lat="44.90124" lon="5.7828">
        <ele>871</ele>
        <time>2017-12-18T16:09:11Z</time>
      </trkpt>
      <trkpt lat="44.90118" lon="5.78282">
        <ele>871</ele>
        <time>2017-12-18T16:09:26Z</time>
      </trkpt>
      <trkpt lat="44.90112" lon="5.78286">
        <ele>871</ele>
        <time>2017-12-18T16:09:38Z</time>
      </trkpt>
      <trkpt lat="44.90108" lon="5.78292">
        <ele>871</ele>
        <time>2017-12-18T16:09:42Z</time>
      </trkpt>
      <trkpt lat="44.90089" lon="5.78328">
        <ele>871</ele>
        <time>2017-12-18T16:09:44Z</time>
      </trkpt>
      <trkpt lat="44.90015" lon="5.7845">
        <ele>870</ele>
        <time>2017-12-18T16:09:52Z</time>
      </trkpt>
      <trkpt lat="44.89961" lon="5.78537">
        <ele>867</ele>
        <time>2017-12-18T16:10:03Z</time>
      </trkpt>
      <trkpt lat="44.89892" lon="5.78558">
        <ele>866</ele>
        <time>2017-12-18T16:10:15Z</time>
      </trkpt>
      <trkpt lat="44.89867" lon="5.78563">
        <ele>866</ele>
        <time>2017-12-18T16:10:17Z</time>
      </trkpt>
      <trkpt lat="44.89801" lon="5.78575">
        <ele>866</ele>
        <time>2017-12-18T16:10:35Z</time>
      </trkpt>
      <trkpt lat="44.89754" lon="5.78581">
        <ele>865</ele>
        <time>2017-12-18T16:10:43Z</time>
      </trkpt>
      <trkpt lat="44.89612" lon="5.78592">
        <ele>866</ele>
        <time>2017-12-18T16:10:54Z</time>
      </trkpt>
      <trkpt lat="44.89591" lon="5.78598">
        <ele>867</ele>
        <time>2017-12-18T16:11:02Z</time>
      </trkpt>
      <trkpt lat="44.89583" lon="5.78607">
        <ele>869</ele>
        <time>2017-12-18T16:11:22Z</time>
      </trkpt>
      <trkpt lat="44.89579" lon="5.78624">
        <ele>869</ele>
        <time>2017-12-18T16:11:34Z</time>
      </trkpt>
      <trkpt lat="44.89582" lon="5.78724">
        <ele>864</ele>
        <time>2017-12-18T16:11:39Z</time>
      </trkpt>
      <trkpt lat="44.89588" lon="5.78775">
        <ele>860</ele>
        <time>2017-12-18T16:11:48Z</time>
      </trkpt>
      <trkpt lat="44.89592" lon="5.78807">
        <ele>859</ele>
        <time>2017-12-18T16:11:57Z</time>
      </trkpt>
      <trkpt lat="44.89603" lon="5.78853">
        <ele>856</ele>
        <time>2017-12-18T16:11:59Z</time>
      </trkpt>
      <trkpt lat="44.89615" lon="5.7888">
        <ele>855</ele>
        <time>2017-12-18T16:12:15Z</time>
      </trkpt>
      <trkpt lat="44.8964" lon="5.7892">
        <ele>853</ele>
        <time>2017-12-18T16:12:20Z</time>
      </trkpt>
      <trkpt lat="44.8966" lon="5.78944">
        <ele>853</ele>
        <time>2017-12-18T16:12:35Z</time>
      </trkpt>
      <trkpt lat="44.89662" lon="5.7895">
        <ele>853</ele>
        <time>2017-12-18T16:12:48Z</time>
      </trkpt>
      <trkpt lat="44.89673" lon="5.78959">
        <ele>852</ele>
        <time>2017-12-18T16:13:02Z</time>
      </trkpt>
      <trkpt lat="44.89672" lon="5.78962">
        <ele>852</ele>
        <time>2017-12-18T16:13:22Z</time>
      </trkpt>
      <trkpt lat="44.89672" lon="5.78966">
        <ele>852</ele>
        <time>2017-12-18T16:13:34Z</time>
      </trkpt>
      <trkpt lat="44.89677" lon="5.78976">
        <ele>852</ele>
        <time>2017-12-18T16:13:42Z</time>
      </trkpt>
      <trkpt lat="44.89682" lon="5.78977">
        <ele>852</ele>
        <time>2017-12-18T16:13:48Z</time>
      </trkpt>
      <trkpt lat="44.89684" lon="5.78977">
        <ele>852</ele>
        <time>2017-12-18T16:14:05Z</time>
      </trkpt>
      <trkpt lat="44.89706" lon="5.78998">
        <ele>851</ele>
        <time>2017-12-18T16:14:16Z</time>
      </trkpt>
      <trkpt lat="44.89771" lon="5.79061">
        <ele>845</ele>
        <time>2017-12-18T16:14:31Z</time>
      </trkpt>
      <trkpt lat="44.89793" lon="5.79075">
        <ele>844</ele>
        <time>2017-12-18T16:14:36Z</time>
      </trkpt>
      <trkpt lat="44.8986" lon="5.79141">
        <ele>837</ele>
        <time>2017-12-18T16:14:48Z</time>
      </trkpt>
      <trkpt lat="44.8986" lon="5.7915">
        <ele>837</ele>
        <time>2017-12-18T16:15:02Z</time>
      </trkpt>
      <trkpt lat="44.89862" lon="5.79159">
        <ele>837</ele>
        <time>2017-12-18T16:15:12Z</time>
      </trkpt>
      <trkpt lat="44.89867" lon="5.79162">
        <ele>837</ele>
        <time>2017-12-18T16:15:18Z</time>
      </trkpt>
      <trkpt lat="44.89873" lon="5.79161">
        <ele>836</ele>
        <time>2017-12-18T16:15:30Z</time>
      </trkpt>
      <trkpt lat="44.89885" lon="5.79181">
        <ele>833</ele>
        <time>2017-12-18T16:15:33Z</time>
      </trkpt>
      <trkpt lat="44.8989" lon="5.79184">
        <ele>833</ele>
        <time>2017-12-18T16:15:46Z</time>
      </trkpt>
      <trkpt lat="44.89909" lon="5.79214">
        <ele>832</ele>
        <time>2017-12-18T16:15:55Z</time>
      </trkpt>
      <trkpt lat="44.89931" lon="5.79254">
        <ele>828</ele>
        <time>2017-12-18T16:16:15Z</time>
      </trkpt>
      <trkpt lat="44.89951" lon="5.793">
        <ele>828</ele>
        <time>2017-12-18T16:16:19Z</time>
      </trkpt>
      <trkpt lat="44.89997" lon="5.79397">
        <ele>824</ele>
        <time>2017-12-18T16:16:26Z</time>
      </trkpt>
      <trkpt lat="44.90056" lon="5.79521">
        <ele>817</ele>
        <time>2017-12-18T16:16:32Z</time>
      </trkpt>
      <trkpt lat="44.901" lon="5.79623">
        <ele>814</ele>
        <time>2017-12-18T16:16:46Z</time>
      </trkpt>
      <trkpt lat="44.90116" lon="5.79669">
        <ele>813</ele>
        <time>2017-12-18T16:16:51Z</time>
      </trkpt>
      <trkpt lat="44.90164" lon="5.79813">
        <ele>810</ele>
        <time>2017-12-18T16:17:11Z</time>
      </trkpt>
      <trkpt lat="44.90172" lon="5.79846">
        <ele>809</ele>
        <time>2017-12-18T16:17:17Z</time>
      </trkpt>
      <trkpt lat="44.90176" lon="5.79872">
        <ele>808</ele>
        <time>2017-12-18T16:17:26Z</time>
      </trkpt>
      <trkpt lat="44.90176" lon="5.79877">
        <ele>808</ele>
        <time>2017-12-18T16:17:36Z</time>
      </trkpt>
      <trkpt lat="44.90176" lon="5.79879">
        <ele>808</ele>
        <time>2017-12-18T16:17:43Z</time>
      </trkpt>
      <trkpt lat="44.90166" lon="5.79907">
        <ele>808</ele>
        <time>2017-12-18T16:17:57Z</time>
      </trkpt>
      <trkpt lat="44.90152" lon="5.79939">
        <ele>807</ele>
        <time>2017-12-18T16:18:16Z</time>
      </trkpt>
      <trkpt lat="44.90143" lon="5.79953">
        <ele>807</ele>
        <time>2017-12-18T16:18:24Z</time>
      </trkpt>
      <trkpt lat="44.90134" lon="5.79967">
        <ele>806</ele>
        <time>2017-12-18T16:18:41Z</time>
      </trkpt>
      <trkpt lat="44.90091" lon="5.80024">
        <ele>804</ele>
        <time>2017-12-18T16:18:55Z</time>
      </trkpt>
      <trkpt lat="44.90066" lon="5.8005">
        <ele>802</ele>
        <time>2017-12-18T16:19:12Z</time>
      </trkpt>
      <trkpt lat="44.90023" lon="5.80078">
        <ele>800</ele>
        <time>2017-12-18T16:19:14Z</time>
      </trkpt>
      <trkpt lat="44.89992" lon="5.80095">
        <ele>797</ele>
        <time>2017-12-18T16:19:27Z</time>
      </trkpt>
      <trkpt lat="44.89975" lon="5.80106">
        <ele>797</ele>
        <time>2017-12-18T16:19:39Z</time>
      </trkpt>
      <trkpt lat="44.89965" lon="5.8012">
        <ele>797</ele>
        <time>2017-12-18T16:19:47Z</time>
      </trkpt>
      <trkpt lat="44.89946" lon="5.80158">
        <ele>796</ele>
        <time>2017-12-18T16:19:54Z</time>
      </trkpt>
      <trkpt lat="44.8992" lon="5.80222">
        <ele>792</ele>
        <time>2017-12-18T16:20:03Z</time>
      </trkpt>
      <trkpt lat="44.89899" lon="5.80279">
        <ele>786</ele>
        <time>2017-12-18T16:20:20Z</time>
      </trkpt>
      <trkpt lat="44.89892" lon="5.80318">
        <ele>784</ele>
        <time>2017-12-18T16:20:24Z</time>
      </trkpt>
      <trkpt lat="44.8989" lon="5.80369">
        <ele>779</ele>
        <time>2017-12-18T16:20:37Z</time>
      </trkpt>
      <trkpt lat="44.8989" lon="5.80426">
        <ele>774</ele>
        <time>2017-12-18T16:20:54Z</time>
      </trkpt>
      <trkpt lat="44.89887" lon="5.80468">
        <ele>773</ele>
        <time>2017-12-18T16:21:12Z</time>
      </trkpt>
      <trkpt lat="44.89875" lon="5.80528">
        <ele>768</ele>
        <time>2017-12-18T16:21:32Z</time>
      </trkpt>
      <trkpt lat="44.89855" lon="5.80595">
        <ele>763</ele>
        <time>2017-12-18T16:21:39Z</time>
      </trkpt>
      <trkpt lat="44.89835" lon="5.80643">
        <ele>760</ele>
        <time>2017-12-18T16:21:48Z</time>
      </trkpt>
      <trkpt lat="44.8982" lon="5.80668">
        <ele>759</ele>
        <time>2017-12-18T16:22:00Z</time>
      </trkpt>
      <trkpt lat="44.89764" lon="5.80746">
        <ele>757</ele>
        <time>2017-12-18T16:22:10Z</time>
      </trkpt>
      <trkpt lat="44.89732" lon="5.8079">
        <ele>748</ele>
        <time>2017-12-18T16:22:25Z</time>
      </trkpt>
      <trkpt lat="44.8973" lon="5.80795">
        <ele>747</ele>
        <time>2017-12-18T16:22:40Z</time>
      </trkpt>
      <trkpt lat="44.8973" lon="5.80802">
        <ele>746</ele>
        <time>2017-12-18T16:22:53Z</time>
      </trkpt>
      <trkpt lat="44.89732" lon="5.80808">
        <ele>746</ele>
        <time>2017-12-18T16:23:11Z</time>
      </trkpt>
      <trkpt lat="44.89734" lon="5.8081">
        <ele>746</ele>
        <time>2017-12-18T16:23:19Z</time>
      </trkpt>
      <trkpt lat="44.8974" lon="5.80811">
        <ele>746</ele>
        <time>2017-12-18T16:23:27Z</time>
      </trkpt>
      <trkpt lat="44.89801" lon="5.808">
        <ele>744</ele>
        <time>2017-12-18T16:23:42Z</time>
      </trkpt>
      <trkpt lat="44.89821" lon="5.80795">
        <ele>744</ele>
        <time>2017-12-18T16:24:01Z</time>
      </trkpt>
      <trkpt lat="44.89849" lon="5.80783">
        <ele>738</ele>
        <time>2017-12-18T16:24:15Z</time>
      </trkpt>
      <trkpt lat="44.8991" lon="5.80744">
        <ele>738</ele>
        <time>2017-12-18T16:24:35Z</time>
      </trkpt>
      <trkpt lat="44.89924" lon="5.8074">
        <ele>737</ele>
        <time>2017-12-18T16:24:52Z</time>
      </trkpt>
      <trkpt lat="44.89932" lon="5.8074">
        <ele>738</ele>
        <time>2017-12-18T16:25:08Z</time>
      </trkpt>
      <trkpt lat="44.8994" lon="5.80742">
        <ele>739</ele>
        <time>2017-12-18T16:25:12Z</time>
      </trkpt>
      <trkpt lat="44.89979" lon="5.80772">
        <ele>731</ele>
        <time>2017-12-18T16:25:26Z</time>
      </trkpt>
      <trkpt lat="44.9002" lon="5.80814">
        <ele>732</ele>
        <time>2017-12-18T16:25:31Z</time>
      </trkpt>
      <trkpt lat="44.90038" lon="5.80846">
        <ele>726</ele>
        <time>2017-12-18T16:25:40Z</time>
      </trkpt>
      <trkpt lat="44.90059" lon="5.80901">
        <ele>725</ele>
        <time>2017-12-18T16:25:43Z</time>
      </trkpt>
      <trkpt lat="44.90063" lon="5.8092">
        <ele>722</ele>
        <time>2017-12-18T16:25:55Z</time>
      </trkpt>
      <trkpt lat="44.90062" lon="5.80942">
        <ele>721</ele>
        <time>2017-12-18T16:26:05Z</time>
      </trkpt>
      <trkpt lat="44.90043" lon="5.80996">
        <ele>718</ele>
        <time>2017-12-18T16:26:11Z</time>
      </trkpt>
      <trkpt lat="44.90019" lon="5.81057">
        <ele>712</ele>
        <time>2017-12-18T16:26:21Z</time>
      </trkpt>
      <trkpt lat="44.90017" lon="5.81078">
        <ele>709</ele>
        <time>2017-12-18T16:26:28Z</time>
      </trkpt>
      <trkpt lat="44.90022" lon="5.8112">
        <ele>713</ele>
        <time>2017-12-18T16:26:47Z</time>
      </trkpt>
      <trkpt lat="44.9002" lon="5.81142">
        <ele>712</ele>
        <time>2017-12-18T16:26:54Z</time>
      </trkpt>
      <trkpt lat="44.90012" lon="5.81164">
        <ele>707</ele>
        <time>2017-12-18T16:26:59Z</time>
      </trkpt>
      <trkpt lat="44.89999" lon="5.8119">
        <ele>691</ele>
        <time>2017-12-18T16:27:04Z</time>
      </trkpt>
      <trkpt lat="44.89995" lon="5.81213">
        <ele>689</ele>
        <time>2017-12-18T16:27:20Z</time>
      </trkpt>
      <trkpt lat="44.89995" lon="5.8124">
        <ele>693</ele>
        <time>2017-12-18T16:27:28Z</time>
      </trkpt>
      <trkpt lat="44.89996" lon="5.81248">
        <ele>696</ele>
        <time>2017-12-18T16:27:48Z</time>
      </trkpt>
      <trkpt lat="44.90014" lon="5.81275">
        <ele>696</ele>
        <time>2017-12-18T16:28:05Z</time>
      </trkpt>
      <trkpt lat="44.90016" lon="5.81285">
        <ele>694</ele>
        <time>2017-12-18T16:28:20Z</time>
      </trkpt>
      <trkpt lat="44.90014" lon="5.81289">
        <ele>693</ele>
        <time>2017-12-18T16:28:39Z</time>
      </trkpt>
      <trkpt lat="44.90009" lon="5.81292">
        <ele>693</ele>
        <time>2017-12-18T16:28:52Z</time>
      </trkpt>
      <trkpt lat="44.90003" lon="5.8129">
        <ele>693</ele>
        <time>2017-12-18T16:29:11Z</time>
      </trkpt>
      <trkpt lat="44.89987" lon="5.8127">
        <ele>681</ele>
        <time>2017-12-18T16:29:26Z</time>
      </trkpt>
      <trkpt lat="44.89981" lon="5.81257">
        <ele>683</ele>
        <time>2017-12-18T16:29:46Z</time>
      </trkpt>
      <trkpt lat="44.89974" lon="5.8122">
        <ele>686</ele>
        <time>2017-12-18T16:29:49Z</time>
      </trkpt>
      <trkpt lat="44.89974" lon="5.8119">
        <ele>687</ele>
        <time>2017-12-18T16:30:02Z</time>
      </trkpt>
      <trkpt lat="44.8998" lon="5.81163">
        <ele>694</ele>
        <time>2017-12-18T16:30:07Z</time>
      </trkpt>
      <trkpt lat="44.89987" lon="5.81142">
        <ele>694</ele>
        <time>2017-12-18T16:30:19Z</time>
      </trkpt>
      <trkpt lat="44.89987" lon="5.81127">
        <ele>693</ele>
        <time>2017-12-18T16:30:36Z</time>
      </trkpt>
      <trkpt lat="44.8997" lon="5.81073">
        <ele>699</ele>
        <time>2017-12-18T16:30:41Z</time>
      </trkpt>
      <trkpt lat="44.8996" lon="5.81028">
        <ele>701</ele>
        <time>2017-12-18T16:30:47Z</time>
      </trkpt>
      <trkpt lat="44.89956" lon="5.81018">
        <ele>702</ele>
        <time>2017-12-18T16:31:06Z</time>
      </trkpt>
      <trkpt lat="44.89954" lon="5.81013">
        <ele>702</ele>
        <time>2017-12-18T16:31:12Z</time>
      </trkpt>
      <trkpt lat="44.89947" lon="5.81009">
        <ele>702</ele>
        <time>2017-12-18T16:31:17Z</time>
      </trkpt>
      <trkpt lat="44.89944" lon="5.8101">
        <ele>702</ele>
        <time>2017-12-18T16:31:20Z</time>
      </trkpt>
      <trkpt lat="44.89937" lon="5.81015">
        <ele>702</ele>
        <time>2017-12-18T16:31:35Z</time>
      </trkpt>
      <trkpt lat="44.899" lon="5.81101">
        <ele>687</ele>
        <time>2017-12-18T16:31:46Z</time>
      </trkpt>
      <trkpt lat="44.89887" lon="5.81126">
        <ele>686</ele>
        <time>2017-12-18T16:31:57Z</time>
      </trkpt>
      <trkpt lat="44.8987" lon="5.81146">
        <ele>686</ele>
        <time>2017-12-18T16:32:17Z</time>
      </trkpt>
      <trkpt lat="44.89858" lon="5.81165">
        <ele>686</ele>
        <time>2017-12-18T16:32:30Z</time>
      </trkpt>
      <trkpt lat="44.89852" lon="5.81183">
        <ele>675</ele>
        <time>2017-12-18T16:32:32Z</time>
      </trkpt>
      <trkpt lat="44.89846" lon="5.8121">
        <ele>670</ele>
        <time>2017-12-18T16:32:35Z</time>
      </trkpt>
      <trkpt lat="44.89841" lon="5.81224">
        <ele>668</ele>
        <time>2017-12-18T16:32:38Z</time>
      </trkpt>
      <trkpt lat="44.89832" lon="5.81232">
        <ele>665</ele>
        <time>2017-12-18T16:32:46Z</time>
      </trkpt>
      <trkpt lat="44.89817" lon="5.81237">
        <ele>664</ele>
        <time>2017-12-18T16:32:53Z</time>
      </trkpt>
      <trkpt lat="44.89801" lon="5.81239">
        <ele>663</ele>
        <time>2017-12-18T16:33:13Z</time>
      </trkpt>
      <trkpt lat="44.89798" lon="5.81245">
        <ele>663</ele>
        <time>2017-12-18T16:33:15Z</time>
      </trkpt>
      <trkpt lat="44.89798" lon="5.81253">
        <ele>645</ele>
        <time>2017-12-18T16:33:21Z</time>
      </trkpt>
      <trkpt lat="44.89802" lon="5.81256">
        <ele>645</ele>
        <time>2017-12-18T16:33:26Z</time>
      </trkpt>
      <trkpt lat="44.8981" lon="5.81256">
        <ele>648</ele>
        <time>2017-12-18T16:33:35Z</time>
      </trkpt>
      <trkpt lat="44.8984" lon="5.81248">
        <ele>663</ele>
        <time>2017-12-18T16:33:39Z</time>
      </trkpt>
      <trkpt lat="44.89873" lon="5.81218">
        <ele>669</ele>
        <time>2017-12-18T16:33:56Z</time>
      </trkpt>
      <trkpt lat="44.89883" lon="5.81215">
        <ele>669</ele>
        <time>2017-12-18T16:33:58Z</time>
      </trkpt>
      <trkpt lat="44.89892" lon="5.81215">
        <ele>668</ele>
        <time>2017-12-18T16:34:07Z</time>
      </trkpt>
      <trkpt lat="44.89902" lon="5.81222">
        <ele>667</ele>
        <time>2017-12-18T16:34:09Z</time>
      </trkpt>
      <trkpt lat="44.8991" lon="5.81235">
        <ele>665</ele>
        <time>2017-12-18T16:34:15Z</time>
      </trkpt>
      <trkpt lat="44.89915" lon="5.81254">
        <ele>659</ele>
        <time>2017-12-18T16:34:24Z</time>
      </trkpt>
      <trkpt lat="44.89918" lon="5.81321">
        <ele>655</ele>
        <time>2017-12-18T16:34:34Z</time>
      </trkpt>
      <trkpt lat="44.89921" lon="5.81346">
        <ele>647</ele>
        <time>2017-12-18T16:34:36Z</time>
      </trkpt>
      <trkpt lat="44.89927" lon="5.81363">
        <ele>647</ele>
        <time>2017-12-18T16:34:45Z</time>
      </trkpt>
      <trkpt lat="44.89948" lon="5.81395">
        <ele>646</ele>
        <time>2017-12-18T16:35:03Z</time>
      </trkpt>
      <trkpt lat="44.89977" lon="5.81426">
        <ele>632</ele>
        <time>2017-12-18T16:35:07Z</time>
      </trkpt>
      <trkpt lat="44.89989" lon="5.81434">
        <ele>633</ele>
        <time>2017-12-18T16:35:27Z</time>
      </trkpt>
      <trkpt lat="44.90003" lon="5.81435">
        <ele>638</ele>
        <time>2017-12-18T16:35:38Z</time>
      </trkpt>
      <trkpt lat="44.90032" lon="5.81431">
        <ele>638</ele>
        <time>2017-12-18T16:35:40Z</time>
      </trkpt>
      <trkpt lat="44.90046" lon="5.81434">
        <ele>638</ele>
        <time>2017-12-18T16:35:50Z</time>
      </trkpt>
      <trkpt lat="44.9006" lon="5.81446">
        <ele>637</ele>
        <time>2017-12-18T16:36:04Z</time>
      </trkpt>
      <trkpt lat="44.90087" lon="5.81481">
        <ele>636</ele>
        <time>2017-12-18T16:36:07Z</time>
      </trkpt>
      <trkpt lat="44.90113" lon="5.81523">
        <ele>622</ele>
        <time>2017-12-18T16:36:11Z</time>
      </trkpt>
      <trkpt lat="44.90133" lon="5.81547">
        <ele>621</ele>
        <time>2017-12-18T16:36:26Z</time>
      </trkpt>
      <trkpt lat="44.90199" lon="5.81612">
        <ele>617</ele>
        <time>2017-12-18T16:36:43Z</time>
      </trkpt>
      <trkpt lat="44.90214" lon="5.81634">
        <ele>615</ele>
        <time>2017-12-18T16:37:03Z</time>
      </trkpt>
      <trkpt lat="44.90218" lon="5.81648">
        <ele>614</ele>
        <time>2017-12-18T16:37:10Z</time>
      </trkpt>
      <trkpt lat="44.90217" lon="5.81662">
        <ele>613</ele>
        <time>2017-12-18T16:37:13Z</time>
      </trkpt>
      <trkpt lat="44.90212" lon="5.81675">
        <ele>603</ele>
        <time>2017-12-18T16:37:24Z</time>
      </trkpt>
      <trkpt lat="44.90195" lon="5.817">
        <ele>601</ele>
        <time>2017-12-18T16:37:42Z</time>
      </trkpt>
      <trkpt lat="44.90161" lon="5.81745">
        <ele>600</ele>
        <time>2017-12-18T16:38:01Z</time>
      </trkpt>
      <trkpt lat="44.90132" lon="5.81783">
        <ele>613</ele>
        <time>2017-12-18T16:38:13Z</time>
      </trkpt>
      <trkpt lat="44.9012" lon="5.81785">
        <ele>615</ele>
        <time>2017-12-18T16:38:25Z</time>
      </trkpt>
      <trkpt lat="44.90114" lon="5.81786">
        <ele>616</ele>
        <time>2017-12-18T16:38:29Z</time>
      </trkpt>
      <trkpt lat="44.90108" lon="5.81784">
        <ele>617</ele>
        <time>2017-12-18T16:38:33Z</time>
      </trkpt>
      <trkpt lat="44.90103" lon="5.81778">
        <ele>617</ele>
        <time>2017-12-18T16:38:48Z</time>
      </trkpt>
      <trkpt lat="44.9008" lon="5.81731">
        <ele>625</ele>
        <time>2017-12-18T16:39:06Z</time>
      </trkpt>
      <trkpt lat="44.9005" lon="5.81664">
        <ele>610</ele>
        <time>2017-12-18T16:39:09Z</time>
      </trkpt>
      <trkpt lat="44.9004" lon="5.81654">
        <ele>611</ele>
        <time>2017-12-18T16:39:15Z</time>
      </trkpt>
      <trkpt lat="44.90027" lon="5.81648">
        <ele>613</ele>
        <time>2017-12-18T16:39:24Z</time>
      </trkpt>
      <trkpt lat="44.9001" lon="5.81646">
        <ele>616</ele>
        <time>2017-12-18T16:39:40Z</time>
      </trkpt>
      <trkpt lat="44.8999" lon="5.8165">
        <ele>622</ele>
        <time>2017-12-18T16:39:59Z</time>
      </trkpt>
      <trkpt lat="44.89973" lon="5.81651">
        <ele>621</ele>
        <time>2017-12-18T16:40:04Z</time>
      </trkpt>
      <trkpt lat="44.89944" lon="5.81647">
        <ele>622</ele>
        <time>2017-12-18T16:40:15Z</time>
      </trkpt>
      <trkpt lat="44.8988" lon="5.81635">
        <ele>624</ele>
        <time>2017-12-18T16:40:30Z</time>
      </trkpt>
      <trkpt lat="44.89856" lon="5.81633">
        <ele>624</ele>
        <time>2017-12-18T16:40:37Z</time>
      </trkpt>
      <trkpt lat="44.89834" lon="5.81637">
        <ele>626</ele>
        <time>2017-12-18T16:40:40Z</time>
      </trkpt>
      <trkpt lat="44.8981" lon="5.81649">
        <ele>628</ele>
        <time>2017-12-18T16:40:51Z</time>
      </trkpt>
      <trkpt lat="44.89794" lon="5.81662">
        <ele>629</ele>
        <time>2017-12-18T16:40:54Z</time>
      </trkpt>
      <trkpt lat="44.89768" lon="5.81691">
        <ele>651</ele>
        <time>2017-12-18T16:41:09Z</time>
      </trkpt>
      <trkpt lat="44.89758" lon="5.81699">
        <ele>652</ele>
        <time>2017-12-18T16:41:28Z</time>
      </trkpt>
      <trkpt lat="44.89746" lon="5.81701">
        <ele>656</ele>
        <time>2017-12-18T16:41:45Z</time>
      </trkpt>
      <trkpt lat="44.89732" lon="5.81697">
        <ele>656</ele>
        <time>2017-12-18T16:42:04Z</time>
      </trkpt>
      <trkpt lat="44.89722" lon="5.81687">
        <ele>655</ele>
        <time>2017-12-18T16:42:19Z</time>
      </trkpt>
      <trkpt lat="44.89703" lon="5.81663">
        <ele>638</ele>
        <time>2017-12-18T16:42:26Z</time>
      </trkpt>
      <trkpt lat="44.89692" lon="5.81655">
        <ele>640</ele>
        <time>2017-12-18T16:42:46Z</time>
      </trkpt>
      <trkpt lat="44.89681" lon="5.81652">
        <ele>642</ele>
        <time>2017-12-18T16:42:52Z</time>
      </trkpt>
      <trkpt lat="44.89668" lon="5.81654">
        <ele>645</ele>
        <time>2017-12-18T16:43:02Z</time>
      </trkpt>
      <trkpt lat="44.89643" lon="5.81667">
        <ele>658</ele>
        <time>2017-12-18T16:43:19Z</time>
      </trkpt>
      <trkpt lat="44.89589" lon="5.81711">
        <ele>662</ele>
        <time>2017-12-18T16:43:21Z</time>
      </trkpt>
      <trkpt lat="44.89562" lon="5.8174">
        <ele>665</ele>
        <time>2017-12-18T16:43:29Z</time>
      </trkpt>
      <trkpt lat="44.89553" lon="5.81746">
        <ele>665</ele>
        <time>2017-12-18T16:43:48Z</time>
      </trkpt>
      <trkpt lat="44.89544" lon="5.81746">
        <ele>666</ele>
        <time>2017-12-18T16:43:55Z</time>
      </trkpt>
      <trkpt lat="44.89534" lon="5.81743">
        <ele>667</ele>
        <time>2017-12-18T16:44:12Z</time>
      </trkpt>
      <trkpt lat="44.89491" lon="5.81712">
        <ele>673</ele>
        <time>2017-12-18T16:44:14Z</time>
      </trkpt>
      <trkpt lat="44.8944" lon="5.81663">
        <ele>667</ele>
        <time>2017-12-18T16:44:28Z</time>
      </trkpt>
      <trkpt lat="44.89399" lon="5.81611">
        <ele>677</ele>
        <time>2017-12-18T16:44:46Z</time>
      </trkpt>
      <trkpt lat="44.89379" lon="5.81596">
        <ele>679</ele>
        <time>2017-12-18T16:44:54Z</time>
      </trkpt>
      <trkpt lat="44.89354" lon="5.81585">
        <ele>682</ele>
        <time>2017-12-18T16:44:56Z</time>
      </trkpt>
      <trkpt lat="44.89332" lon="5.81576">
        <ele>686</ele>
        <time>2017-12-18T16:45:03Z</time>
      </trkpt>
      <trkpt lat="44.8932" lon="5.81568">
        <ele>687</ele>
        <time>2017-12-18T16:45:07Z</time>
      </trkpt>
      <trkpt lat="44.89284" lon="5.81526">
        <ele>688</ele>
        <time>2017-12-18T16:45:11Z</time>
      </trkpt>
      <trkpt lat="44.8923" lon="5.81475">
        <ele>692</ele>
        <time>2017-12-18T16:45:22Z</time>
      </trkpt>
      <trkpt lat="44.89185" lon="5.81453">
        <ele>692</ele>
        <time>2017-12-18T16:45:24Z</time>
      </trkpt>
      <trkpt lat="44.89155" lon="5.81442">
        <ele>693</ele>
        <time>2017-12-18T16:45:36Z</time>
      </trkpt>
      <trkpt lat="44.89148" lon="5.81443">
        <ele>693</ele>
        <time>2017-12-18T16:45:41Z</time>
      </trkpt>
      <trkpt lat="44.89145" lon="5.81447">
        <ele>693</ele>
        <time>2017-12-18T16:45:52Z</time>
      </trkpt>
      <trkpt lat="44.89143" lon="5.81455">
        <ele>694</ele>
        <time>2017-12-18T16:45:59Z</time>
      </trkpt>
      <trkpt lat="44.89147" lon="5.81463">
        <ele>695</ele>
        <time>2017-12-18T16:46:11Z</time>
      </trkpt>
      <trkpt lat="44.89163" lon="5.81471">
        <ele>696</ele>
        <time>2017-12-18T16:46:19Z</time>
      </trkpt>
      <trkpt lat="44.89184" lon="5.81486">
        <ele>696</ele>
        <time>2017-12-18T16:46:28Z</time>
      </trkpt>
      <trkpt lat="44.89223" lon="5.81541">
        <ele>704</ele>
        <time>2017-12-18T16:46:47Z</time>
      </trkpt>
      <trkpt lat="44.89246" lon="5.81587">
        <ele>710</ele>
        <time>2017-12-18T16:47:02Z</time>
      </trkpt>
      <trkpt lat="44.89285" lon="5.8169">
        <ele>716</ele>
        <time>2017-12-18T16:47:12Z</time>
      </trkpt>
      <trkpt lat="44.89299" lon="5.81746">
        <ele>717</ele>
        <time>2017-12-18T16:47:16Z</time>
      </trkpt>
      <trkpt lat="44.89306" lon="5.81771">
        <ele>725</ele>
        <time>2017-12-18T16:47:24Z</time>
      </trkpt>
      <trkpt lat="44.89311" lon="5.81779">
        <ele>725</ele>
        <time>2017-12-18T16:47:36Z</time>
      </trkpt>
      <trkpt lat="44.89317" lon="5.81787">
        <ele>726</ele>
        <time>2017-12-18T16:47:51Z</time>
      </trkpt>
      <trkpt lat="44.89328" lon="5.81795">
        <ele>726</ele>
        <time>2017-12-18T16:48:08Z</time>
      </trkpt>
      <trkpt lat="44.89356" lon="5.81818">
        <ele>718</ele>
        <time>2017-12-18T16:48:20Z</time>
      </trkpt>
      <trkpt lat="44.89373" lon="5.81838">
        <ele>726</ele>
        <time>2017-12-18T16:48:25Z</time>
      </trkpt>
      <trkpt lat="44.89384" lon="5.81866">
        <ele>726</ele>
        <time>2017-12-18T16:48:31Z</time>
      </trkpt>
      <trkpt lat="44.8939" lon="5.81902">
        <ele>728</ele>
        <time>2017-12-18T16:48:39Z</time>
      </trkpt>
      <trkpt lat="44.89393" lon="5.81934">
        <ele>735</ele>
        <time>2017-12-18T16:48:55Z</time>
      </trkpt>
      <trkpt lat="44.89393" lon="5.8195">
        <ele>736</ele>
        <time>2017-12-18T16:48:57Z</time>
      </trkpt>
      <trkpt lat="44.89387" lon="5.81947">
        <ele>736</ele>
        <time>2017-12-18T16:48:59Z</time>
      </trkpt>
      <trkpt lat="44.89382" lon="5.81943">
        <ele>736</ele>
        <time>2017-12-18T16:49:14Z</time>
      </trkpt>
      <trkpt lat="44.89376" lon="5.81932">
        <ele>737</ele>
        <time>2017-12-18T16:49:23Z</time>
      </trkpt>
      <trkpt lat="44.8936" lon="5.81904">
        <ele>731</ele>
        <time>2017-12-18T16:49:37Z</time>
      </trkpt>
      <trkpt lat="44.89348" lon="5.81897">
        <ele>732</ele>
        <time>2017-12-18T16:49:49Z</time>
      </trkpt>
      <trkpt lat="44.89313" lon="5.81887">
        <ele>739</ele>
        <time>2017-12-18T16:50:07Z</time>
      </trkpt>
      <trkpt lat="44.89251" lon="5.81875">
        <ele>742</ele>
        <time>2017-12-18T16:50:24Z</time>
      </trkpt>
      <trkpt lat="44.89232" lon="5.81867">
        <ele>749</ele>
        <time>2017-12-18T16:50:34Z</time>
      </trkpt>
      <trkpt lat="44.89215" lon="5.81855">
        <ele>750</ele>
        <time>2017-12-18T16:50:40Z</time>
      </trkpt>
      <trkpt lat="44.89178" lon="5.8181">
        <ele>745</ele>
        <time>2017-12-18T16:50:58Z</time>
      </trkpt>
      <trkpt lat="44.89158" lon="5.81796">
        <ele>752</ele>
        <time>2017-12-18T16:51:03Z</time>
      </trkpt>
      <trkpt lat="44.89132" lon="5.81788">
        <ele>753</ele>
        <time>2017-12-18T16:51:05Z</time>
      </trkpt>
      <trkpt lat="44.89063" lon="5.81774">
        <ele>760</ele>
        <time>2017-12-18T16:51:21Z</time>
      </trkpt>
      <trkpt lat="44.89039" lon="5.8177">
        <ele>761</ele>
        <time>2017-12-18T16:51:38Z</time>
      </trkpt>
      <trkpt lat="44.89022" lon="5.8177">
        <ele>761</ele>
        <time>2017-12-18T16:51:53Z</time>
      </trkpt>
      <trkpt lat="44.88982" lon="5.8177">
        <ele>767</ele>
        <time>2017-12-18T16:52:03Z</time>
      </trkpt>
      <trkpt lat="44.88967" lon="5.81766">
        <ele>769</ele>
        <time>2017-12-18T16:52:21Z</time>
      </trkpt>
      <trkpt lat="44.88939" lon="5.81752">
        <ele>769</ele>
        <time>2017-12-18T16:52:35Z</time>
      </trkpt>
      <trkpt lat="44.88897" lon="5.81728">
        <ele>761</ele>
        <time>2017-12-18T16:52:43Z</time>
      </trkpt>
      <trkpt lat="44.88872" lon="5.8172">
        <ele>761</ele>
        <time>2017-12-18T16:52:53Z</time>
      </trkpt>
      <trkpt lat="44.88835" lon="5.81716">
        <ele>762</ele>
        <time>2017-12-18T16:53:02Z</time>
      </trkpt>
      <trkpt lat="44.88769" lon="5.81711">
        <ele>768</ele>
        <time>2017-12-18T16:53:12Z</time>
      </trkpt>
      <trkpt lat="44.8872" lon="5.81698">
        <ele>774</ele>
        <time>2017-12-18T16:53:32Z</time>
      </trkpt>
      <trkpt lat="44.88652" lon="5.81677">
        <ele>776</ele>
        <time>2017-12-18T16:53:38Z</time>
      </trkpt>
      <trkpt lat="44.88539" lon="5.81629">
        <ele>775</ele>
        <time>2017-12-18T16:53:41Z</time>
      </trkpt>
      <trkpt lat="44.88506" lon="5.81613">
        <ele>774</ele>
        <time>2017-12-18T16:53:43Z</time>
      </trkpt>
      <trkpt lat="44.88492" lon="5.816">
        <ele>781</ele>
        <time>2017-12-18T16:53:45Z</time>
      </trkpt>
      <trkpt lat="44.8848" lon="5.81584">
        <ele>781</ele>
        <time>2017-12-18T16:54:04Z</time>
      </trkpt>
      <trkpt lat="44.88465" lon="5.81555">
        <ele>775</ele>
        <time>2017-12-18T16:54:15Z</time>
      </trkpt>
      <trkpt lat="44.88441" lon="5.81507">
        <ele>776</ele>
        <time>2017-12-18T16:54:17Z</time>
      </trkpt>
      <trkpt lat="44.88427" lon="5.81465">
        <ele>770</ele>
        <time>2017-12-18T16:54:27Z</time>
      </trkpt>
      <trkpt lat="44.88413" lon="5.81408">
        <ele>776</ele>
        <time>2017-12-18T16:54:37Z</time>
      </trkpt>
      <trkpt lat="44.88402" lon="5.81348">
        <ele>775</ele>
        <time>2017-12-18T16:54:53Z</time>
      </trkpt>
      <trkpt lat="44.88391" lon="5.81317">
        <ele>771</ele>
        <time>2017-12-18T16:55:12Z</time>
      </trkpt>
      <trkpt lat="44.88375" lon="5.81297">
        <ele>772</ele>
        <time>2017-12-18T16:55:15Z</time>
      </trkpt>
      <trkpt lat="44.88339" lon="5.81271">
        <ele>771</ele>
        <time>2017-12-18T16:55:28Z</time>
      </trkpt>
      <trkpt lat="44.8828" lon="5.81244">
        <ele>771</ele>
        <time>2017-12-18T16:55:39Z</time>
      </trkpt>
      <trkpt lat="44.88239" lon="5.81218">
        <ele>778</ele>
        <time>2017-12-18T16:55:51Z</time>
      </trkpt>
      <trkpt lat="44.88211" lon="5.81188">
        <ele>776</ele>
        <time>2017-12-18T16:56:00Z</time>
      </trkpt>
      <trkpt lat="44.88195" lon="5.81161">
        <ele>766</ele>
        <time>2017-12-18T16:56:18Z</time>
      </trkpt>
      <trkpt lat="44.88184" lon="5.81146">
        <ele>766</ele>
        <time>2017-12-18T16:56:28Z</time>
      </trkpt>
      <trkpt lat="44.88173" lon="5.81137">
        <ele>766</ele>
        <time>2017-12-18T16:56:36Z</time>
      </trkpt>
      <trkpt lat="44.88162" lon="5.8113">
        <ele>767</ele>
        <time>2017-12-18T16:56:48Z</time>
      </trkpt>
      <trkpt lat="44.88147" lon="5.81126">
        <ele>766</ele>
        <time>2017-12-18T16:56:52Z</time>
      </trkpt>
      <trkpt lat="44.88058" lon="5.81129">
        <ele>759</ele>
        <time>2017-12-18T16:57:09Z</time>
      </trkpt>
      <trkpt lat="44.88046" lon="5.8113">
        <ele>758</ele>
        <time>2017-12-18T16:57:21Z</time>
      </trkpt>
      <trkpt lat="44.88034" lon="5.81135">
        <ele>758</ele>
        <time>2017-12-18T16:57:24Z</time>
      </trkpt>
      <trkpt lat="44.88019" lon="5.81151">
        <ele>757</ele>
        <time>2017-12-18T16:57:27Z</time>
      </trkpt>
      <trkpt lat="44.88005" lon="5.81173">
        <ele>760</ele>
        <time>2017-12-18T16:57:45Z</time>
      </trkpt>
      <trkpt lat="44.87993" lon="5.81186">
        <ele>757</ele>
        <time>2017-12-18T16:57:58Z</time>
      </trkpt>
      <trkpt lat="44.87979" lon="5.81197">
        <ele>757</ele>
        <time>2017-12-18T16:58:01Z</time>
      </trkpt>
      <trkpt lat="44.87939" lon="5.81218">
        <ele>755</ele>
        <time>2017-12-18T16:58:16Z</time>
      </trkpt>
      <trkpt lat="44.87905" lon="5.8124">
        <ele>748</ele>
        <time>2017-12-18T16:58:23Z</time>
      </trkpt>
      <trkpt lat="44.87889" lon="5.81256">
        <ele>752</ele>
        <time>2017-12-18T16:58:30Z</time>
      </trkpt>
      <trkpt lat="44.8788" lon="5.8127">
        <ele>751</ele>
        <time>2017-12-18T16:58:41Z</time>
      </trkpt>
      <trkpt lat="44.87864" lon="5.81321">
        <ele>752</ele>
        <time>2017-12-18T16:59:00Z</time>
      </trkpt>
      <trkpt lat="44.87834" lon="5.81377">
        <ele>756</ele>
        <time>2017-12-18T16:59:03Z</time>
      </trkpt>
      <trkpt lat="44.87812" lon="5.81414">
        <ele>746</ele>
        <time>2017-12-18T16:59:21Z</time>
      </trkpt>
      <trkpt lat="44.87794" lon="5.81433">
        <ele>748</ele>
        <time>2017-12-18T16:59:34Z</time>
      </trkpt>
      <trkpt lat="44.87778" lon="5.81447">
        <ele>747</ele>
        <time>2017-12-18T16:59:44Z</time>
      </trkpt>
      <trkpt lat="44.87768" lon="5.81463">
        <ele>747</ele>
        <time>2017-12-18T16:59:49Z</time>
      </trkpt>
      <trkpt lat="44.87759" lon="5.81496">
        <ele>747</ele>
        <time>2017-12-18T16:59:51Z</time>
      </trkpt>
      <trkpt lat="44.8775" lon="5.8154">
        <ele>743</ele>
        <time>2017-12-18T17:00:00Z</time>
      </trkpt>
      <trkpt lat="44.87722" lon="5.81653">
        <ele>749</ele>
        <time>2017-12-18T17:00:16Z</time>
      </trkpt>
      <trkpt lat="44.87693" lon="5.81747">
        <ele>749</ele>
        <time>2017-12-18T17:00:36Z</time>
      </trkpt>
      <trkpt lat="44.87664" lon="5.8183">
        <ele>748</ele>
        <time>2017-12-18T17:00:46Z</time>
      </trkpt>
      <trkpt lat="44.87611" lon="5.81978">
        <ele>748</ele>
        <time>2017-12-18T17:00:51Z</time>
      </trkpt>
      <trkpt lat="44.87606" lon="5.81995">
        <ele>748</ele>
        <time>2017-12-18T17:01:05Z</time>
      </trkpt>
      <trkpt lat="44.8755" lon="5.82167">
        <ele>752</ele>
        <time>2017-12-18T17:01:21Z</time>
      </trkpt>
      <trkpt lat="44.87535" lon="5.82224">
        <ele>751</ele>
        <time>2017-12-18T17:01:23Z</time>
      </trkpt>
      <trkpt lat="44.87529" lon="5.82246">
        <ele>751</ele>
        <time>2017-12-18T17:01:43Z</time>
      </trkpt>
      <trkpt lat="44.87516" lon="5.82275">
        <ele>753</ele>
        <time>2017-12-18T17:01:59Z</time>
      </trkpt>
      <trkpt lat="44.87501" lon="5.82306">
        <ele>754</ele>
        <time>2017-12-18T17:02:19Z</time>
      </trkpt>
      <trkpt lat="44.87487" lon="5.82342">
        <ele>750</ele>
        <time>2017-12-18T17:02:30Z</time>
      </trkpt>
      <trkpt lat="44.8747" lon="5.8242">
        <ele>753</ele>
        <time>2017-12-18T17:02:41Z</time>
      </trkpt>
      <trkpt lat="44.87461" lon="5.82453">
        <ele>752</ele>
        <time>2017-12-18T17:02:43Z</time>
      </trkpt>
      <trkpt lat="44.87456" lon="5.82465">
        <ele>752</ele>
        <time>2017-12-18T17:02:48Z</time>
      </trkpt>
      <trkpt lat="44.87425" lon="5.82505">
        <ele>750</ele>
        <time>2017-12-18T17:03:04Z</time>
      </trkpt>
      <trkpt lat="44.87406" lon="5.82526">
        <ele>746</ele>
        <time>2017-12-18T17:03:24Z</time>
      </trkpt>
      <trkpt lat="44.8739" lon="5.82548">
        <ele>746</ele>
        <time>2017-12-18T17:03:41Z</time>
      </trkpt>
      <trkpt lat="44.87377" lon="5.8257">
        <ele>745</ele>
        <time>2017-12-18T17:03:52Z</time>
      </trkpt>
      <trkpt lat="44.87362" lon="5.82599">
        <ele>747</ele>
        <time>2017-12-18T17:03:58Z</time>
      </trkpt>
      <trkpt lat="44.87354" lon="5.82627">
        <ele>748</ele>
        <time>2017-12-18T17:04:04Z</time>
      </trkpt>
      <trkpt lat="44.87342" lon="5.82686">
        <ele>751</ele>
        <time>2017-12-18T17:04:22Z</time>
      </trkpt>
      <trkpt lat="44.87342" lon="5.82711">
        <ele>753</ele>
        <time>2017-12-18T17:04:27Z</time>
      </trkpt>
      <trkpt lat="44.87338" lon="5.82743">
        <ele>753</ele>
        <time>2017-12-18T17:04:38Z</time>
      </trkpt>
      <trkpt lat="44.87324" lon="5.82784">
        <ele>752</ele>
        <time>2017-12-18T17:04:52Z</time>
      </trkpt>
      <trkpt lat="44.87308" lon="5.82809">
        <ele>754</ele>
        <time>2017-12-18T17:05:00Z</time>
      </trkpt>
      <trkpt lat="44.87287" lon="5.82828">
        <ele>752</ele>
        <time>2017-12-18T17:05:06Z</time>
      </trkpt>
      <trkpt lat="44.87272" lon="5.82844">
        <ele>756</ele>
        <time>2017-12-18T17:05:13Z</time>
      </trkpt>
      <trkpt lat="44.87266" lon="5.82854">
        <ele>756</ele>
        <time>2017-12-18T17:05:26Z</time>
      </trkpt>
      <trkpt lat="44.87263" lon="5.82869">
        <ele>757</ele>
        <time>2017-12-18T17:05:32Z</time>
      </trkpt>
      <trkpt lat="44.87263" lon="5.82891">
        <ele>758</ele>
        <time>2017-12-18T17:05:37Z</time>
      </trkpt>
      <trkpt lat="44.87266" lon="5.82921">
        <ele>760</ele>
        <time>2017-12-18T17:05:53Z</time>
      </trkpt>
      <trkpt lat="44.87266" lon="5.8298">
        <ele>763</ele>
        <time>2017-12-18T17:05:59Z</time>
      </trkpt>
      <trkpt lat="44.87263" lon="5.83019">
        <ele>766</ele>
        <time>2017-12-18T17:06:06Z</time>
      </trkpt>
      <trkpt lat="44.87251" lon="5.83062">
        <ele>769</ele>
        <time>2017-12-18T17:06:22Z</time>
      </trkpt>
      <trkpt lat="44.87241" lon="5.83084">
        <ele>764</ele>
        <time>2017-12-18T17:06:38Z</time>
      </trkpt>
      <trkpt lat="44.87225" lon="5.83109">
        <ele>760</ele>
        <time>2017-12-18T17:06:56Z</time>
      </trkpt>
      <trkpt lat="44.87213" lon="5.83138">
        <ele>759</ele>
        <time>2017-12-18T17:07:08Z</time>
      </trkpt>
      <trkpt lat="44.87214" lon="5.83159">
        <ele>760</ele>
        <time>2017-12-18T17:07:23Z</time>
      </trkpt>
      <trkpt lat="44.87216" lon="5.83168">
        <ele>764</ele>
        <time>2017-12-18T17:07:41Z</time>
      </trkpt>
      <trkpt lat="44.87226" lon="5.83189">
        <ele>765</ele>
        <time>2017-12-18T17:07:47Z</time>
      </trkpt>
      <trkpt lat="44.87251" lon="5.83233">
        <ele>778</ele>
        <time>2017-12-18T17:07:58Z</time>
      </trkpt>
      <trkpt lat="44.87279" lon="5.83296">
        <ele>785</ele>
        <time>2017-12-18T17:08:05Z</time>
      </trkpt>
      <trkpt lat="44.87284" lon="5.83322">
        <ele>786</ele>
        <time>2017-12-18T17:08:18Z</time>
      </trkpt>
      <trkpt lat="44.87285" lon="5.83343">
        <ele>791</ele>
        <time>2017-12-18T17:08:38Z</time>
      </trkpt>
      <trkpt lat="44.87286" lon="5.834">
        <ele>794</ele>
        <time>2017-12-18T17:08:41Z</time>
      </trkpt>
      <trkpt lat="44.87284" lon="5.83411">
        <ele>795</ele>
        <time>2017-12-18T17:08:59Z</time>
      </trkpt>
      <trkpt lat="44.87279" lon="5.83418">
        <ele>804</ele>
        <time>2017-12-18T17:09:04Z</time>
      </trkpt>
      <trkpt lat="44.87272" lon="5.83422">
        <ele>803</ele>
        <time>2017-12-18T17:09:21Z</time>
      </trkpt>
      <trkpt lat="44.87264" lon="5.8342">
        <ele>802</ele>
        <time>2017-12-18T17:09:28Z</time>
      </trkpt>
      <trkpt lat="44.87249" lon="5.83404">
        <ele>793</ele>
        <time>2017-12-18T17:09:44Z</time>
      </trkpt>
      <trkpt lat="44.87238" lon="5.83382">
        <ele>789</ele>
        <time>2017-12-18T17:09:52Z</time>
      </trkpt>
      <trkpt lat="44.87232" lon="5.83375">
        <ele>788</ele>
        <time>2017-12-18T17:10:04Z</time>
      </trkpt>
      <trkpt lat="44.87215" lon="5.83361">
        <ele>787</ele>
        <time>2017-12-18T17:10:06Z</time>
      </trkpt>
      <trkpt lat="44.87196" lon="5.83344">
        <ele>785</ele>
        <time>2017-12-18T17:10:26Z</time>
      </trkpt>
      <trkpt lat="44.87186" lon="5.83342">
        <ele>785</ele>
        <time>2017-12-18T17:10:32Z</time>
      </trkpt>
      <trkpt lat="44.87154" lon="5.83349">
        <ele>783</ele>
        <time>2017-12-18T17:10:34Z</time>
      </trkpt>
      <trkpt lat="44.87124" lon="5.83352">
        <ele>782</ele>
        <time>2017-12-18T17:10:51Z</time>
      </trkpt>
      <trkpt lat="44.87113" lon="5.83358">
        <ele>782</ele>
        <time>2017-12-18T17:11:01Z</time>
      </trkpt>
      <trkpt lat="44.87101" lon="5.83371">
        <ele>783</ele>
        <time>2017-12-18T17:11:15Z</time>
      </trkpt>
      <trkpt lat="44.87086" lon="5.83394">
        <ele>786</ele>
        <time>2017-12-18T17:11:23Z</time>
      </trkpt>
      <trkpt lat="44.87076" lon="5.83403">
        <ele>782</ele>
        <time>2017-12-18T17:11:41Z</time>
      </trkpt>
      <trkpt lat="44.87061" lon="5.83415">
        <ele>780</ele>
        <time>2017-12-18T17:11:57Z</time>
      </trkpt>
      <trkpt lat="44.8705" lon="5.83424">
        <ele>787</ele>
        <time>2017-12-18T17:12:02Z</time>
      </trkpt>
      <trkpt lat="44.87038" lon="5.8344">
        <ele>787</ele>
        <time>2017-12-18T17:12:06Z</time>
      </trkpt>
      <trkpt lat="44.87013" lon="5.83468">
        <ele>787</ele>
        <time>2017-12-18T17:12:20Z</time>
      </trkpt>
      <trkpt lat="44.87005" lon="5.83482">
        <ele>787</ele>
        <time>2017-12-18T17:12:25Z</time>
      </trkpt>
      <trkpt lat="44.87003" lon="5.83499">
        <ele>787</ele>
        <time>2017-12-18T17:12:39Z</time>
      </trkpt>
      <trkpt lat="44.87004" lon="5.83518">
        <ele>793</ele>
        <time>2017-12-18T17:12:49Z</time>
      </trkpt>
      <trkpt lat="44.87006" lon="5.83539">
        <ele>795</ele>
        <time>2017-12-18T17:12:53Z</time>
      </trkpt>
      <trkpt lat="44.87001" lon="5.8358">
        <ele>791</ele>
        <time>2017-12-18T17:13:10Z</time>
      </trkpt>
      <trkpt lat="44.87002" lon="5.83595">
        <ele>795</ele>
        <time>2017-12-18T17:13:30Z</time>
      </trkpt>
      <trkpt lat="44.87011" lon="5.83638">
        <ele>799</ele>
        <time>2017-12-18T17:13:41Z</time>
      </trkpt>
      <trkpt lat="44.87015" lon="5.83661">
        <ele>797</ele>
        <time>2017-12-18T17:13:59Z</time>
      </trkpt>
      <trkpt lat="44.87015" lon="5.83684">
        <ele>800</ele>
        <time>2017-12-18T17:14:19Z</time>
      </trkpt>
      <trkpt lat="44.87004" lon="5.8375">
        <ele>800</ele>
        <time>2017-12-18T17:14:38Z</time>
      </trkpt>
      <trkpt lat="44.87002" lon="5.83781">
        <ele>807</ele>
        <time>2017-12-18T17:14:58Z</time>
      </trkpt>
      <trkpt lat="44.87003" lon="5.8382">
        <ele>809</ele>
        <time>2017-12-18T17:15:06Z</time>
      </trkpt>
      <trkpt lat="44.87002" lon="5.83838">
        <ele>810</ele>
        <time>2017-12-18T17:15:26Z</time>
      </trkpt>
      <trkpt lat="44.86997" lon="5.83853">
        <ele>803</ele>
        <time>2017-12-18T17:15:30Z</time>
      </trkpt>
      <trkpt lat="44.86982" lon="5.83868">
        <ele>801</ele>
        <time>2017-12-18T17:15:42Z</time>
      </trkpt>
      <trkpt lat="44.86973" lon="5.8388">
        <ele>801</ele>
        <time>2017-12-18T17:15:49Z</time>
      </trkpt>
      <trkpt lat="44.86969" lon="5.83891">
        <ele>801</ele>
        <time>2017-12-18T17:15:51Z</time>
      </trkpt>
      <trkpt lat="44.86969" lon="5.83914">
        <ele>802</ele>
        <time>2017-12-18T17:15:58Z</time>
      </trkpt>
      <trkpt lat="44.86969" lon="5.83947">
        <ele>808</ele>
        <time>2017-12-18T17:16:18Z</time>
      </trkpt>
      <trkpt lat="44.86962" lon="5.84018">
        <ele>817</ele>
        <time>2017-12-18T17:16:30Z</time>
      </trkpt>
      <trkpt lat="44.8696" lon="5.84101">
        <ele>826</ele>
        <time>2017-12-18T17:16:45Z</time>
      </trkpt>
      <trkpt lat="44.86957" lon="5.84118">
        <ele>826</ele>
        <time>2017-12-18T17:16:47Z</time>
      </trkpt>
      <trkpt lat="44.86954" lon="5.84128">
        <ele>827</ele>
        <time>2017-12-18T17:16:57Z</time>
      </trkpt>
      <trkpt lat="44.86948" lon="5.84144">
        <ele>826</ele>
        <time>2017-12-18T17:17:04Z</time>
      </trkpt>
      <trkpt lat="44.86933" lon="5.8417">
        <ele>829</ele>
        <time>2017-12-18T17:17:13Z</time>
      </trkpt>
      <trkpt lat="44.86919" lon="5.84191">
        <ele>830</ele>
        <time>2017-12-18T17:17:15Z</time>
      </trkpt>
      <trkpt lat="44.86888" lon="5.84222">
        <ele>823</ele>
        <time>2017-12-18T17:17:24Z</time>
      </trkpt>
      <trkpt lat="44.86869" lon="5.84244">
        <ele>822</ele>
        <time>2017-12-18T17:17:39Z</time>
      </trkpt>
      <trkpt lat="44.86857" lon="5.84261">
        <ele>824</ele>
        <time>2017-12-18T17:17:51Z</time>
      </trkpt>
      <trkpt lat="44.86856" lon="5.84275">
        <ele>825</ele>
        <time>2017-12-18T17:18:01Z</time>
      </trkpt>
      <trkpt lat="44.86859" lon="5.84289">
        <ele>826</ele>
        <time>2017-12-18T17:18:11Z</time>
      </trkpt>
      <trkpt lat="44.8687" lon="5.84313">
        <ele>828</ele>
        <time>2017-12-18T17:18:13Z</time>
      </trkpt>
      <trkpt lat="44.86876" lon="5.84332">
        <ele>829</ele>
        <time>2017-12-18T17:18:23Z</time>
      </trkpt>
      <trkpt lat="44.86879" lon="5.8436">
        <ele>831</ele>
        <time>2017-12-18T17:18:39Z</time>
      </trkpt>
      <trkpt lat="44.86878" lon="5.84387">
        <ele>831</ele>
        <time>2017-12-18T17:18:53Z</time>
      </trkpt>
      <trkpt lat="44.86879" lon="5.84398">
        <ele>832</ele>
        <time>2017-12-18T17:19:06Z</time>
      </trkpt>
      <trkpt lat="44.8688" lon="5.84402">
        <ele>832</ele>
        <time>2017-12-18T17:19:24Z</time>
      </trkpt>
      <trkpt lat="44.86883" lon="5.84408">
        <ele>832</ele>
        <time>2017-12-18T17:19:43Z</time>
      </trkpt>
      <trkpt lat="44.86879" lon="5.84422">
        <ele>832</ele>
        <time>2017-12-18T17:19:47Z</time>
      </trkpt>
      <trkpt lat="44.86876" lon="5.84431">
        <ele>831</ele>
        <time>2017-12-18T17:20:02Z</time>
      </trkpt>
      <trkpt lat="44.86879" lon="5.84433">
        <ele>832</ele>
        <time>2017-12-18T17:20:18Z</time>
      </trkpt>
      <trkpt lat="44.86882" lon="5.84439">
        <ele>832</ele>
        <time>2017-12-18T17:20:27Z</time>
      </trkpt>
      <trkpt lat="44.86871" lon="5.84474">
        <ele>830</ele>
        <time>2017-12-18T17:20:42Z</time>
      </trkpt>
      <trkpt lat="44.86861" lon="5.8452">
        <ele>828</ele>
        <time>2017-12-18T17:20:45Z</time>
      </trkpt>
      <trkpt lat="44.86857" lon="5.84564">
        <ele>827</ele>
        <time>2017-12-18T17:20:47Z</time>
      </trkpt>
      <trkpt lat="44.8686" lon="5.84588">
        <ele>828</ele>
        <time>2017-12-18T17:20:59Z</time>
      </trkpt>
      <trkpt lat="44.86869" lon="5.84633">
        <ele>831</ele>
        <time>2017-12-18T17:21:05Z</time>
      </trkpt>
      <trkpt lat="44.86872" lon="5.84674">
        <ele>835</ele>
        <time>2017-12-18T17:21:19Z</time>
      </trkpt>
      <trkpt lat="44.86871" lon="5.84718">
        <ele>836</ele>
        <time>2017-12-18T17:21:32Z</time>
      </trkpt>
      <trkpt lat="44.86868" lon="5.84746">
        <ele>836</ele>
        <time>2017-12-18T17:21:42Z</time>
      </trkpt>
      <trkpt lat="44.8685" lon="5.84837">
        <ele>849</ele>
        <time>2017-12-18T17:21:47Z</time>
      </trkpt>
      <trkpt lat="44.86844" lon="5.84858">
        <ele>853</ele>
        <time>2017-12-18T17:22:02Z</time>
      </trkpt>
      <trkpt lat="44.86819" lon="5.8491">
        <ele>840</ele>
        <time>2017-12-18T17:22:08Z</time>
      </trkpt>
      <trkpt lat="44.86809" lon="5.84942">
        <ele>842</ele>
        <time>2017-12-18T17:22:11Z</time>
      </trkpt>
      <trkpt lat="44.86789" lon="5.85039">
        <ele>850</ele>
        <time>2017-12-18T17:22:18Z</time>
      </trkpt>
      <trkpt lat="44.86781" lon="5.85092">
        <ele>853</ele>
        <time>2017-12-18T17:22:25Z</time>
      </trkpt>
      <trkpt lat="44.86778" lon="5.85144">
        <ele>855</ele>
        <time>2017-12-18T17:22:30Z</time>
      </trkpt>
      <trkpt lat="44.86781" lon="5.85171">
        <ele>857</ele>
        <time>2017-12-18T17:22:49Z</time>
      </trkpt>
      <trkpt lat="44.86793" lon="5.85215">
        <ele>860</ele>
        <time>2017-12-18T17:23:00Z</time>
      </trkpt>
      <trkpt lat="44.86797" lon="5.85238">
        <ele>861</ele>
        <time>2017-12-18T17:23:13Z</time>
      </trkpt>
      <trkpt lat="44.86798" lon="5.85324">
        <ele>869</ele>
        <time>2017-12-18T17:23:32Z</time>
      </trkpt>
      <trkpt lat="44.86795" lon="5.85334">
        <ele>879</ele>
        <time>2017-12-18T17:23:35Z</time>
      </trkpt>
      <trkpt lat="44.86789" lon="5.85347">
        <ele>878</ele>
        <time>2017-12-18T17:23:55Z</time>
      </trkpt>
      <trkpt lat="44.86771" lon="5.85372">
        <ele>877</ele>
        <time>2017-12-18T17:23:59Z</time>
      </trkpt>
      <trkpt lat="44.8676" lon="5.8539">
        <ele>877</ele>
        <time>2017-12-18T17:24:17Z</time>
      </trkpt>
      <trkpt lat="44.86751" lon="5.85409">
        <ele>876</ele>
        <time>2017-12-18T17:24:32Z</time>
      </trkpt>
      <trkpt lat="44.86743" lon="5.85421">
        <ele>873</ele>
        <time>2017-12-18T17:24:48Z</time>
      </trkpt>
      <trkpt lat="44.86728" lon="5.85433">
        <ele>872</ele>
        <time>2017-12-18T17:24:56Z</time>
      </trkpt>
      <trkpt lat="44.86708" lon="5.85445">
        <ele>870</ele>
        <time>2017-12-18T17:25:16Z</time>
      </trkpt>
      <trkpt lat="44.867" lon="5.85454">
        <ele>870</ele>
        <time>2017-12-18T17:25:20Z</time>
      </trkpt>
      <trkpt lat="44.86695" lon="5.8547">
        <ele>871</ele>
        <time>2017-12-18T17:25:35Z</time>
      </trkpt>
      <trkpt lat="44.86692" lon="5.85502">
        <ele>880</ele>
        <time>2017-12-18T17:25:42Z</time>
      </trkpt>
      <trkpt lat="44.86686" lon="5.85536">
        <ele>883</ele>
        <time>2017-12-18T17:26:02Z</time>
      </trkpt>
      <trkpt lat="44.86676" lon="5.85557">
        <ele>884</ele>
        <time>2017-12-18T17:26:15Z</time>
      </trkpt>
      <trkpt lat="44.8665" lon="5.8559">
        <ele>876</ele>
        <time>2017-12-18T17:26:27Z</time>
      </trkpt>
      <trkpt lat="44.86637" lon="5.85607">
        <ele>874</ele>
        <time>2017-12-18T17:26:43Z</time>
      </trkpt>
      <trkpt lat="44.86628" lon="5.85627">
        <ele>873</ele>
        <time>2017-12-18T17:26:52Z</time>
      </trkpt>
      <trkpt lat="44.86623" lon="5.85655">
        <ele>873</ele>
        <time>2017-12-18T17:27:09Z</time>
      </trkpt>
      <trkpt lat="44.86621" lon="5.85729">
        <ele>878</ele>
        <time>2017-12-18T17:27:24Z</time>
      </trkpt>
      <trkpt lat="44.86622" lon="5.85761">
        <ele>879</ele>
        <time>2017-12-18T17:27:41Z</time>
      </trkpt>
      <trkpt lat="44.86627" lon="5.85779">
        <ele>880</ele>
        <time>2017-12-18T17:27:47Z</time>
      </trkpt>
      <trkpt lat="44.86636" lon="5.85796">
        <ele>880</ele>
        <time>2017-12-18T17:28:01Z</time>
      </trkpt>
      <trkpt lat="44.86649" lon="5.85807">
        <ele>881</ele>
        <time>2017-12-18T17:28:16Z</time>
      </trkpt>
      <trkpt lat="44.86668" lon="5.8581">
        <ele>890</ele>
        <time>2017-12-18T17:28:23Z</time>
      </trkpt>
      <trkpt lat="44.86728" lon="5.85802">
        <ele>893</ele>
        <time>2017-12-18T17:28:26Z</time>
      </trkpt>
      <trkpt lat="44.86749" lon="5.85803">
        <ele>893</ele>
        <time>2017-12-18T17:28:40Z</time>
      </trkpt>
      <trkpt lat="44.86825" lon="5.85818">
        <ele>902</ele>
        <time>2017-12-18T17:28:49Z</time>
      </trkpt>
      <trkpt lat="44.86908" lon="5.85834">
        <ele>908</ele>
        <time>2017-12-18T17:29:08Z</time>
      </trkpt>
      <trkpt lat="44.86929" lon="5.85839">
        <ele>914</ele>
        <time>2017-12-18T17:29:23Z</time>
      </trkpt>
      <trkpt lat="44.86942" lon="5.85849">
        <ele>916</ele>
        <time>2017-12-18T17:29:40Z</time>
      </trkpt>
      <trkpt lat="44.8695" lon="5.85866">
        <ele>917</ele>
        <time>2017-12-18T17:29:56Z</time>
      </trkpt>
      <trkpt lat="44.86952" lon="5.85888">
        <ele>917</ele>
        <time>2017-12-18T17:29:59Z</time>
      </trkpt>
      <trkpt lat="44.86942" lon="5.85985">
        <ele>916</ele>
        <time>2017-12-18T17:30:04Z</time>
      </trkpt>
      <trkpt lat="44.86934" lon="5.86033">
        <ele>916</ele>
        <time>2017-12-18T17:30:24Z</time>
      </trkpt>
      <trkpt lat="44.86934" lon="5.86065">
        <ele>914</ele>
        <time>2017-12-18T17:30:37Z</time>
      </trkpt>
      <trkpt lat="44.86938" lon="5.86084">
        <ele>908</ele>
        <time>2017-12-18T17:30:44Z</time>
      </trkpt>
      <trkpt lat="44.8695" lon="5.86105">
        <ele>909</ele>
        <time>2017-12-18T17:30:58Z</time>
      </trkpt>
      <trkpt lat="44.86968" lon="5.86122">
        <ele>910</ele>
        <time>2017-12-18T17:31:08Z</time>
      </trkpt>
      <trkpt lat="44.86985" lon="5.86134">
        <ele>911</ele>
        <time>2017-12-18T17:31:21Z</time>
      </trkpt>
      <trkpt lat="44.87" lon="5.86138">
        <ele>912</ele>
        <time>2017-12-18T17:31:41Z</time>
      </trkpt>
      <trkpt lat="44.87011" lon="5.86139">
        <ele>924</ele>
        <time>2017-12-18T17:31:49Z</time>
      </trkpt>
      <trkpt lat="44.87036" lon="5.86139">
        <ele>926</ele>
        <time>2017-12-18T17:32:01Z</time>
      </trkpt>
      <trkpt lat="44.87071" lon="5.86138">
        <ele>928</ele>
        <time>2017-12-18T17:32:12Z</time>
      </trkpt>
      <trkpt lat="44.8712" lon="5.86131">
        <ele>937</ele>
        <time>2017-12-18T17:32:14Z</time>
      </trkpt>
      <trkpt lat="44.87153" lon="5.8613">
        <ele>938</ele>
        <time>2017-12-18T17:32:26Z</time>
      </trkpt>
      <trkpt lat="44.87162" lon="5.86132">
        <ele>937</ele>
        <time>2017-12-18T17:32:32Z</time>
      </trkpt>
      <trkpt lat="44.87183" lon="5.86139">
        <ele>944</ele>
        <time>2017-12-18T17:32:51Z</time>
      </trkpt>
      <trkpt lat="44.87191" lon="5.86144">
        <ele>944</ele>
        <time>2017-12-18T17:32:53Z</time>
      </trkpt>
      <trkpt lat="44.87208" lon="5.86158">
        <ele>945</ele>
        <time>2017-12-18T17:33:08Z</time>
      </trkpt>
      <trkpt lat="44.8723" lon="5.86169">
        <ele>940</ele>
        <time>2017-12-18T17:33:21Z</time>
      </trkpt>
      <trkpt lat="44.87249" lon="5.86178">
        <ele>942</ele>
        <time>2017-12-18T17:33:27Z</time>
      </trkpt>
      <trkpt lat="44.87276" lon="5.862">
        <ele>953</ele>
        <time>2017-12-18T17:33:35Z</time>
      </trkpt>
      <trkpt lat="44.87294" lon="5.86209">
        <ele>955</ele>
        <time>2017-12-18T17:33:47Z</time>
      </trkpt>
      <trkpt lat="44.87315" lon="5.86214">
        <ele>957</ele>
        <time>2017-12-18T17:33:58Z</time>
      </trkpt>
      <trkpt lat="44.87324" lon="5.86223">
        <ele>957</ele>
        <time>2017-12-18T17:34:11Z</time>
      </trkpt>
      <trkpt lat="44.87326" lon="5.86235">
        <ele>957</ele>
        <time>2017-12-18T17:34:27Z</time>
      </trkpt>
      <trkpt lat="44.87323" lon="5.86246">
        <ele>958</ele>
        <time>2017-12-18T17:34:29Z</time>
      </trkpt>
      <trkpt lat="44.87316" lon="5.86254">
        <ele>960</ele>
        <time>2017-12-18T17:34:35Z</time>
      </trkpt>
      <trkpt lat="44.8728" lon="5.86269">
        <ele>958</ele>
        <time>2017-12-18T17:34:38Z</time>
      </trkpt>
      <trkpt lat="44.87236" lon="5.86286">
        <ele>950</ele>
        <time>2017-12-18T17:34:41Z</time>
      </trkpt>
      <trkpt lat="44.87211" lon="5.86302">
        <ele>951</ele>
        <time>2017-12-18T17:34:46Z</time>
      </trkpt>
      <trkpt lat="44.87182" lon="5.86331">
        <ele>952</ele>
        <time>2017-12-18T17:34:59Z</time>
      </trkpt>
      <trkpt lat="44.87158" lon="5.86359">
        <ele>953</ele>
        <time>2017-12-18T17:35:18Z</time>
      </trkpt>
      <trkpt lat="44.87132" lon="5.86399">
        <ele>956</ele>
        <time>2017-12-18T17:35:33Z</time>
      </trkpt>
      <trkpt lat="44.87104" lon="5.86448">
        <ele>969</ele>
        <time>2017-12-18T17:35:36Z</time>
      </trkpt>
      <trkpt lat="44.87084" lon="5.86488">
        <ele>971</ele>
        <time>2017-12-18T17:35:49Z</time>
      </trkpt>
      <trkpt lat="44.87073" lon="5.86541">
        <ele>965</ele>
        <time>2017-12-18T17:35:54Z</time>
      </trkpt>
      <trkpt lat="44.87061" lon="5.86597">
        <ele>980</ele>
        <time>2017-12-18T17:36:05Z</time>
      </trkpt>
      <trkpt lat="44.87049" lon="5.86632">
        <ele>981</ele>
        <time>2017-12-18T17:36:10Z</time>
      </trkpt>
      <trkpt lat="44.87039" lon="5.86654">
        <ele>981</ele>
        <time>2017-12-18T17:36:29Z</time>
      </trkpt>
      <trkpt lat="44.87026" lon="5.86677">
        <ele>994</ele>
        <time>2017-12-18T17:36:43Z</time>
      </trkpt>
      <trkpt lat="44.87017" lon="5.86689">
        <ele>994</ele>
        <time>2017-12-18T17:36:48Z</time>
      </trkpt>
      <trkpt lat="44.87006" lon="5.86697">
        <ele>995</ele>
        <time>2017-12-18T17:36:51Z</time>
      </trkpt>
      <trkpt lat="44.86983" lon="5.867">
        <ele>983</ele>
        <time>2017-12-18T17:36:55Z</time>
      </trkpt>
      <trkpt lat="44.86971" lon="5.86699">
        <ele>982</ele>
        <time>2017-12-18T17:37:15Z</time>
      </trkpt>
      <trkpt lat="44.86957" lon="5.86705">
        <ele>982</ele>
        <time>2017-12-18T17:37:20Z</time>
      </trkpt>
      <trkpt lat="44.86939" lon="5.86721">
        <ele>984</ele>
        <time>2017-12-18T17:37:23Z</time>
      </trkpt>
      <trkpt lat="44.86923" lon="5.86744">
        <ele>988</ele>
        <time>2017-12-18T17:37:28Z</time>
      </trkpt>
      <trkpt lat="44.86913" lon="5.8676">
        <ele>990</ele>
        <time>2017-12-18T17:37:38Z</time>
      </trkpt>
      <trkpt lat="44.86885" lon="5.86789">
        <ele>991</ele>
        <time>2017-12-18T17:37:51Z</time>
      </trkpt>
      <trkpt lat="44.86855" lon="5.86819">
        <ele>991</ele>
        <time>2017-12-18T17:38:02Z</time>
      </trkpt>
      <trkpt lat="44.86796" lon="5.86896">
        <ele>992</ele>
        <time>2017-12-18T17:38:09Z</time>
      </trkpt>
      <trkpt lat="44.86775" lon="5.86931">
        <ele>1003</ele>
        <time>2017-12-18T17:38:26Z</time>
      </trkpt>
      <trkpt lat="44.86762" lon="5.86967">
        <ele>1005</ele>
        <time>2017-12-18T17:38:28Z</time>
      </trkpt>
      <trkpt lat="44.86759" lon="5.86997">
        <ele>1001</ele>
        <time>2017-12-18T17:38:36Z</time>
      </trkpt>
      <trkpt lat="44.86762" lon="5.87024">
        <ele>1008</ele>
        <time>2017-12-18T17:38:55Z</time>
      </trkpt>
      <trkpt lat="44.86767" lon="5.87061">
        <ele>1007</ele>
        <time>2017-12-18T17:39:08Z</time>
      </trkpt>
      <trkpt lat="44.86774" lon="5.87077">
        <ele>1006</ele>
        <time>2017-12-18T17:39:20Z</time>
      </trkpt>
      <trkpt lat="44.8679" lon="5.87089">
        <ele>1000</ele>
        <time>2017-12-18T17:39:37Z</time>
      </trkpt>
      <trkpt lat="44.86823" lon="5.87108">
        <ele>1008</ele>
        <time>2017-12-18T17:39:51Z</time>
      </trkpt>
      <trkpt lat="44.86858" lon="5.87143">
        <ele>1032</ele>
        <time>2017-12-18T17:39:59Z</time>
      </trkpt>
      <trkpt lat="44.86887" lon="5.87189">
        <ele>1025</ele>
        <time>2017-12-18T17:40:05Z</time>
      </trkpt>
      <trkpt lat="44.869" lon="5.87216">
        <ele>1025</ele>
        <time>2017-12-18T17:40:13Z</time>
      </trkpt>
      <trkpt lat="44.86907" lon="5.87239">
        <ele>1029</ele>
        <time>2017-12-18T17:40:30Z</time>
      </trkpt>
      <trkpt lat="44.86914" lon="5.87278">
        <ele>1022</ele>
        <time>2017-12-18T17:40:49Z</time>
      </trkpt>
      <trkpt lat="44.86918" lon="5.87357">
        <ele>1058</ele>
        <time>2017-12-18T17:40:54Z</time>
      </trkpt>
      <trkpt lat="44.86918" lon="5.87375">
        <ele>1063</ele>
        <time>2017-12-18T17:41:08Z</time>
      </trkpt>
      <trkpt lat="44.86913" lon="5.87387">
        <ele>1037</ele>
        <time>2017-12-18T17:41:26Z</time>
      </trkpt>
      <trkpt lat="44.86906" lon="5.87395">
        <ele>1039</ele>
        <time>2017-12-18T17:41:43Z</time>
      </trkpt>
      <trkpt lat="44.86897" lon="5.87397">
        <ele>1037</ele>
        <time>2017-12-18T17:42:03Z</time>
      </trkpt>
      <trkpt lat="44.86883" lon="5.87394">
        <ele>1032</ele>
        <time>2017-12-18T17:42:17Z</time>
      </trkpt>
      <trkpt lat="44.86869" lon="5.87394">
        <ele>1029</ele>
        <time>2017-12-18T17:42:21Z</time>
      </trkpt>
      <trkpt lat="44.86859" lon="5.874">
        <ele>1028</ele>
        <time>2017-12-18T17:42:38Z</time>
      </trkpt>
      <trkpt lat="44.86852" lon="5.87409">
        <ele>1028</ele>
        <time>2017-12-18T17:42:51Z</time>
      </trkpt>
      <trkpt lat="44.86831" lon="5.87452">
        <ele>1026</ele>
        <time>2017-12-18T17:43:05Z</time>
      </trkpt>
      <trkpt lat="44.86801" lon="5.87512">
        <ele>1042</ele>
        <time>2017-12-18T17:43:12Z</time>
      </trkpt>
      <trkpt lat="44.86797" lon="5.87533">
        <ele>1042</ele>
        <time>2017-12-18T17:43:19Z</time>
      </trkpt>
      <trkpt lat="44.86798" lon="5.87581">
        <ele>1048</ele>
        <time>2017-12-18T17:43:26Z</time>
      </trkpt>
      <trkpt lat="44.8679" lon="5.87627">
        <ele>1057</ele>
        <time>2017-12-18T17:43:39Z</time>
      </trkpt>
      <trkpt lat="44.86772" lon="5.87696">
        <ele>1064</ele>
        <time>2017-12-18T17:43:43Z</time>
      </trkpt>
      <trkpt lat="44.86763" lon="5.87734">
        <ele>1063</ele>
        <time>2017-12-18T17:43:52Z</time>
      </trkpt>
      <trkpt lat="44.8676" lon="5.87763">
        <ele>1064</ele>
        <time>2017-12-18T17:44:09Z</time>
      </trkpt>
      <trkpt lat="44.8676" lon="5.87791">
        <ele>1070</ele>
        <time>2017-12-18T17:44:24Z</time>
      </trkpt>
      <trkpt lat="44.86763" lon="5.87802">
        <ele>1069</ele>
        <time>2017-12-18T17:44:31Z</time>
      </trkpt>
      <trkpt lat="44.86786" lon="5.87849">
        <ele>1071</ele>
        <time>2017-12-18T17:44:33Z</time>
      </trkpt>
      <trkpt lat="44.86789" lon="5.87863">
        <ele>1072</ele>
        <time>2017-12-18T17:44:36Z</time>
      </trkpt>
      <trkpt lat="44.86789" lon="5.87878">
        <ele>1070</ele>
        <time>2017-12-18T17:44:48Z</time>
      </trkpt>
      <trkpt lat="44.86792" lon="5.87894">
        <ele>1070</ele>
        <time>2017-12-18T17:45:02Z</time>
      </trkpt>
      <trkpt lat="44.86797" lon="5.87906">
        <ele>1072</ele>
        <time>2017-12-18T17:45:11Z</time>
      </trkpt>
      <trkpt lat="44.86817" lon="5.87939">
        <ele>1070</ele>
        <time>2017-12-18T17:45:26Z</time>
      </trkpt>
      <trkpt lat="44.86838" lon="5.87971">
        <ele>1103</ele>
        <time>2017-12-18T17:45:43Z</time>
      </trkpt>
      <trkpt lat="44.86841" lon="5.8798">
        <ele>1100</ele>
        <time>2017-12-18T17:45:52Z</time>
      </trkpt>
      <trkpt lat="44.86842" lon="5.87996">
        <ele>1091</ele>
        <time>2017-12-18T17:46:07Z</time>
      </trkpt>
      <trkpt lat="44.86841" lon="5.88004">
        <ele>1090</ele>
        <time>2017-12-18T17:46:22Z</time>
      </trkpt>
      <trkpt lat="44.86826" lon="5.8804">
        <ele>1072</ele>
        <time>2017-12-18T17:46:31Z</time>
      </trkpt>
      <trkpt lat="44.86799" lon="5.881">
        <ele>1087</ele>
        <time>2017-12-18T17:46:41Z</time>
      </trkpt>
      <trkpt lat="44.8679" lon="5.88126">
        <ele>1086</ele>
        <time>2017-12-18T17:46:51Z</time>
      </trkpt>
      <trkpt lat="44.86769" lon="5.88218">
        <ele>1100</ele>
        <time>2017-12-18T17:47:06Z</time>
      </trkpt>
      <trkpt lat="44.86762" lon="5.88267">
        <ele>1104</ele>
        <time>2017-12-18T17:47:26Z</time>
      </trkpt>
      <trkpt lat="44.86758" lon="5.8831">
        <ele>1109</ele>
        <time>2017-12-18T17:47:39Z</time>
      </trkpt>
      <trkpt lat="44.86755" lon="5.88429">
        <ele>1110</ele>
        <time>2017-12-18T17:47:53Z</time>
      </trkpt>
      <trkpt lat="44.86756" lon="5.8845">
        <ele>1115</ele>
        <time>2017-12-18T17:48:13Z</time>
      </trkpt>
      <trkpt lat="44.86759" lon="5.88459">
        <ele>1115</ele>
        <time>2017-12-18T17:48:32Z</time>
      </trkpt>
      <trkpt lat="44.86764" lon="5.88471">
        <ele>1115</ele>
        <time>2017-12-18T17:48:45Z</time>
      </trkpt>
      <trkpt lat="44.86774" lon="5.88483">
        <ele>1116</ele>
        <time>2017-12-18T17:48:56Z</time>
      </trkpt>
      <trkpt lat="44.86789" lon="5.88501">
        <ele>1121</ele>
        <time>2017-12-18T17:49:01Z</time>
      </trkpt>
      <trkpt lat="44.86795" lon="5.88516">
        <ele>1124</ele>
        <time>2017-12-18T17:49:20Z</time>
      </trkpt>
      <trkpt lat="44.86795" lon="5.88526">
        <ele>1124</ele>
        <time>2017-12-18T17:49:23Z</time>
      </trkpt>
      <trkpt lat="44.86789" lon="5.8855">
        <ele>1123</ele>
        <time>2017-12-18T17:49:26Z</time>
      </trkpt>
      <trkpt lat="44.86763" lon="5.88612">
        <ele>1129</ele>
        <time>2017-12-18T17:49:39Z</time>
      </trkpt>
      <trkpt lat="44.86742" lon="5.8866">
        <ele>1113</ele>
        <time>2017-12-18T17:49:48Z</time>
      </trkpt>
      <trkpt lat="44.86727" lon="5.88709">
        <ele>1120</ele>
        <time>2017-12-18T17:50:01Z</time>
      </trkpt>
      <trkpt lat="44.8672" lon="5.8874">
        <ele>1124</ele>
        <time>2017-12-18T17:50:17Z</time>
      </trkpt>
      <trkpt lat="44.86715" lon="5.88754">
        <ele>1140</ele>
        <time>2017-12-18T17:50:34Z</time>
      </trkpt>
      <trkpt lat="44.86702" lon="5.88769">
        <ele>1137</ele>
        <time>2017-12-18T17:50:48Z</time>
      </trkpt>
      <trkpt lat="44.86683" lon="5.88789">
        <ele>1136</ele>
        <time>2017-12-18T17:50:50Z</time>
      </trkpt>
      <trkpt lat="44.8667" lon="5.88812">
        <ele>1138</ele>
        <time>2017-12-18T17:50:59Z</time>
      </trkpt>
      <trkpt lat="44.8665" lon="5.88867">
        <ele>1130</ele>
        <time>2017-12-18T17:51:15Z</time>
      </trkpt>
      <trkpt lat="44.8663" lon="5.88927">
        <ele>1141</ele>
        <time>2017-12-18T17:51:20Z</time>
      </trkpt>
      <trkpt lat="44.86618" lon="5.8898">
        <ele>1139</ele>
        <time>2017-12-18T17:51:34Z</time>
      </trkpt>
      <trkpt lat="44.86615" lon="5.89025">
        <ele>1139</ele>
        <time>2017-12-18T17:51:52Z</time>
      </trkpt>
      <trkpt lat="44.86615" lon="5.89029">
        <ele>1139</ele>
        <time>2017-12-18T17:52:01Z</time>
      </trkpt>
      <trkpt lat="44.86618" lon="5.89058">
        <ele>1139</ele>
        <time>2017-12-18T17:52:14Z</time>
      </trkpt>
      <trkpt lat="44.86634" lon="5.89114">
        <ele>1137</ele>
        <time>2017-12-18T17:52:25Z</time>
      </trkpt>
      <trkpt lat="44.8665" lon="5.89164">
        <ele>1143</ele>
        <time>2017-12-18T17:52:42Z</time>
      </trkpt>
      <trkpt lat="44.86665" lon="5.89193">
        <ele>1132</ele>
        <time>2017-12-18T17:53:01Z</time>
      </trkpt>
      <trkpt lat="44.86678" lon="5.89208">
        <ele>1153</ele>
        <time>2017-12-18T17:53:19Z</time>
      </trkpt>
      <trkpt lat="44.86703" lon="5.89222">
        <ele>1155</ele>
        <time>2017-12-18T17:53:39Z</time>
      </trkpt>
      <trkpt lat="44.86717" lon="5.89231">
        <ele>1157</ele>
        <time>2017-12-18T17:53:44Z</time>
      </trkpt>
      <trkpt lat="44.86734" lon="5.89252">
        <ele>1152</ele>
        <time>2017-12-18T17:53:56Z</time>
      </trkpt>
      <trkpt lat="44.86771" lon="5.89305">
        <ele>1163</ele>
        <time>2017-12-18T17:53:58Z</time>
      </trkpt>
      <trkpt lat="44.86785" lon="5.89321">
        <ele>1164</ele>
        <time>2017-12-18T17:54:15Z</time>
      </trkpt>
      <trkpt lat="44.86807" lon="5.89334">
        <ele>1158</ele>
        <time>2017-12-18T17:54:32Z</time>
      </trkpt>
      <trkpt lat="44.86849" lon="5.89348">
        <ele>1173</ele>
        <time>2017-12-18T17:54:37Z</time>
      </trkpt>
      <trkpt lat="44.869" lon="5.89361">
        <ele>1179</ele>
        <time>2017-12-18T17:54:47Z</time>
      </trkpt>
      <trkpt lat="44.86914" lon="5.8937">
        <ele>1179</ele>
        <time>2017-12-18T17:54:54Z</time>
      </trkpt>
      <trkpt lat="44.86921" lon="5.89381">
        <ele>1193</ele>
        <time>2017-12-18T17:55:03Z</time>
      </trkpt>
      <trkpt lat="44.86922" lon="5.89391">
        <ele>1191</ele>
        <time>2017-12-18T17:55:09Z</time>
      </trkpt>
      <trkpt lat="44.86921" lon="5.89402">
        <ele>1188</ele>
        <time>2017-12-18T17:55:25Z</time>
      </trkpt>
      <trkpt lat="44.86912" lon="5.89415">
        <ele>1179</ele>
        <time>2017-12-18T17:55:44Z</time>
      </trkpt>
      <trkpt lat="44.86869" lon="5.8945">
        <ele>1179</ele>
        <time>2017-12-18T17:55:58Z</time>
      </trkpt>
      <trkpt lat="44.86844" lon="5.89477">
        <ele>1179</ele>
        <time>2017-12-18T17:56:01Z</time>
      </trkpt>
      <trkpt lat="44.86829" lon="5.89503">
        <ele>1175</ele>
        <time>2017-12-18T17:56:20Z</time>
      </trkpt>
      <trkpt lat="44.86809" lon="5.8956">
        <ele>1174</ele>
        <time>2017-12-18T17:56:35Z</time>
      </trkpt>
      <trkpt lat="44.86805" lon="5.89588">
        <ele>1181</ele>
        <time>2017-12-18T17:56:50Z</time>
      </trkpt>
      <trkpt lat="44.86803" lon="5.89628">
        <ele>1182</ele>
        <time>2017-12-18T17:56:56Z</time>
      </trkpt>
      <trkpt lat="44.86806" lon="5.89694">
        <ele>1188</ele>
        <time>2017-12-18T17:57:14Z</time>
      </trkpt>
      <trkpt lat="44.8681" lon="5.89724">
        <ele>1189</ele>
        <time>2017-12-18T17:57:20Z</time>
      </trkpt>
      <trkpt lat="44.86817" lon="5.89781">
        <ele>1193</ele>
        <time>2017-12-18T17:57:34Z</time>
      </trkpt>
      <trkpt lat="44.86817" lon="5.89813">
        <ele>1195</ele>
        <time>2017-12-18T17:57:46Z</time>
      </trkpt>
      <trkpt lat="44.86808" lon="5.89877">
        <ele>1197</ele>
        <time>2017-12-18T17:57:55Z</time>
      </trkpt>
      <trkpt lat="44.86809" lon="5.89897">
        <ele>1198</ele>
        <time>2017-12-18T17:58:13Z</time>
      </trkpt>
      <trkpt lat="44.86818" lon="5.89919">
        <ele>1201</ele>
        <time>2017-12-18T17:58:32Z</time>
      </trkpt>
      <trkpt lat="44.86816" lon="5.89936">
        <ele>1201</ele>
        <time>2017-12-18T17:58:36Z</time>
      </trkpt>
      <trkpt lat="44.86813" lon="5.8995">
        <ele>1200</ele>
        <time>2017-12-18T17:58:44Z</time>
      </trkpt>
      <trkpt lat="44.86815" lon="5.89965">
        <ele>1201</ele>
        <time>2017-12-18T17:58:47Z</time>
      </trkpt>
      <trkpt lat="44.86831" lon="5.8999">
        <ele>1203</ele>
        <time>2017-12-18T17:58:52Z</time>
      </trkpt>
      <trkpt lat="44.86846" lon="5.90028">
        <ele>1207</ele>
        <time>2017-12-18T17:59:09Z</time>
      </trkpt>
      <trkpt lat="44.86873" lon="5.90088">
        <ele>1204</ele>
        <time>2017-12-18T17:59:28Z</time>
      </trkpt>
      <trkpt lat="44.8691" lon="5.90151">
        <ele>1205</ele>
        <time>2017-12-18T17:59:45Z</time>
      </trkpt>
      <trkpt lat="44.86936" lon="5.90188">
        <ele>1207</ele>
        <time>2017-12-18T18:00:03Z</time>
      </trkpt>
      <trkpt lat="44.86958" lon="5.90217">
        <ele>1207</ele>
        <time>2017-12-18T18:00:07Z</time>
      </trkpt>
      <trkpt lat="44.86964" lon="5.90231">
        <ele>1207</ele>
        <time>2017-12-18T18:00:09Z</time>
      </trkpt>
      <trkpt lat="44.86973" lon="5.90266">
        <ele>1203</ele>
        <time>2017-12-18T18:00:11Z</time>
      </trkpt>
      <trkpt lat="44.86986" lon="5.90332">
        <ele>1202</ele>
        <time>2017-12-18T18:00:23Z</time>
      </trkpt>
      <trkpt lat="44.86999" lon="5.90391">
        <ele>1198</ele>
        <time>2017-12-18T18:00:30Z</time>
      </trkpt>
      <trkpt lat="44.87011" lon="5.90422">
        <ele>1205</ele>
        <time>2017-12-18T18:00:35Z</time>
      </trkpt>
      <trkpt lat="44.8705" lon="5.90498">
        <ele>1209</ele>
        <time>2017-12-18T18:00:54Z</time>
      </trkpt>
      <trkpt lat="44.87055" lon="5.90515">
        <ele>1208</ele>
        <time>2017-12-18T18:01:04Z</time>
      </trkpt>
      <trkpt lat="44.87055" lon="5.9053">
        <ele>1208</ele>
        <time>2017-12-18T18:01:06Z</time>
      </trkpt>
      <trkpt lat="44.87052" lon="5.90541">
        <ele>1208</ele>
        <time>2017-12-18T18:01:14Z</time>
      </trkpt>
      <trkpt lat="44.87043" lon="5.90552">
        <ele>1208</ele>
        <time>2017-12-18T18:01:24Z</time>
      </trkpt>
      <trkpt lat="44.87034" lon="5.90558">
        <ele>1207</ele>
        <time>2017-12-18T18:01:43Z</time>
      </trkpt>
      <trkpt lat="44.87026" lon="5.90561">
        <ele>1207</ele>
        <time>2017-12-18T18:02:02Z</time>
      </trkpt>
      <trkpt lat="44.86989" lon="5.90554">
        <ele>1204</ele>
        <time>2017-12-18T18:02:09Z</time>
      </trkpt>
      <trkpt lat="44.8697" lon="5.90559">
        <ele>1204</ele>
        <time>2017-12-18T18:02:27Z</time>
      </trkpt>
      <trkpt lat="44.86944" lon="5.9057">
        <ele>1204</ele>
        <time>2017-12-18T18:02:31Z</time>
      </trkpt>
      <trkpt lat="44.86932" lon="5.90582">
        <ele>1205</ele>
        <time>2017-12-18T18:02:42Z</time>
      </trkpt>
      <trkpt lat="44.86899" lon="5.90631">
        <ele>1208</ele>
        <time>2017-12-18T18:02:50Z</time>
      </trkpt>
      <trkpt lat="44.8687" lon="5.90676">
        <ele>1215</ele>
        <time>2017-12-18T18:02:56Z</time>
      </trkpt>
      <trkpt lat="44.86845" lon="5.90734">
        <ele>1217</ele>
        <time>2017-12-18T18:03:03Z</time>
      </trkpt>
      <trkpt lat="44.86812" lon="5.9082">
        <ele>1219</ele>
        <time>2017-12-18T18:03:22Z</time>
      </trkpt>
      <trkpt lat="44.86806" lon="5.9083">
        <ele>1219</ele>
        <time>2017-12-18T18:03:32Z</time>
      </trkpt>
      <trkpt lat="44.86789" lon="5.90847">
        <ele>1223</ele>
        <time>2017-12-18T18:03:38Z</time>
      </trkpt>
      <trkpt lat="44.86762" lon="5.90867">
        <ele>1223</ele>
        <time>2017-12-18T18:03:45Z</time>
      </trkpt>
      <trkpt lat="44.86752" lon="5.90867">
        <ele>1223</ele>
        <time>2017-12-18T18:03:58Z</time>
      </trkpt>
      <trkpt lat="44.86734" lon="5.90859">
        <ele>1219</ele>
        <time>2017-12-18T18:04:05Z</time>
      </trkpt>
      <trkpt lat="44.86692" lon="5.90837">
        <ele>1217</ele>
        <time>2017-12-18T18:04:20Z</time>
      </trkpt>
      <trkpt lat="44.86671" lon="5.9083">
        <ele>1212</ele>
        <time>2017-12-18T18:04:34Z</time>
      </trkpt>
      <trkpt lat="44.86654" lon="5.90827">
        <ele>1209</ele>
        <time>2017-12-18T18:04:41Z</time>
      </trkpt>
      <trkpt lat="44.86645" lon="5.9083">
        <ele>1208</ele>
        <time>2017-12-18T18:04:56Z</time>
      </trkpt>
      <trkpt lat="44.86637" lon="5.90839">
        <ele>1210</ele>
        <time>2017-12-18T18:05:09Z</time>
      </trkpt>
      <trkpt lat="44.8663" lon="5.9085">
        <ele>1210</ele>
        <time>2017-12-18T18:05:17Z</time>
      </trkpt>
      <trkpt lat="44.8662" lon="5.90876">
        <ele>1209</ele>
        <time>2017-12-18T18:05:37Z</time>
      </trkpt>
      <trkpt lat="44.86616" lon="5.90899">
        <ele>1209</ele>
        <time>2017-12-18T18:05:53Z</time>
      </trkpt>
      <trkpt lat="44.86613" lon="5.90925">
        <ele>1212</ele>
        <time>2017-12-18T18:06:02Z</time>
      </trkpt>
      <trkpt lat="44.86611" lon="5.90961">
        <ele>1213</ele>
        <time>2017-12-18T18:06:13Z</time>
      </trkpt>
      <trkpt lat="44.86611" lon="5.91052">
        <ele>1216</ele>
        <time>2017-12-18T18:06:28Z</time>
      </trkpt>
      <trkpt lat="44.86602" lon="5.91173">
        <ele>1219</ele>
        <time>2017-12-18T18:06:42Z</time>
      </trkpt>
      <trkpt lat="44.86599" lon="5.91191">
        <ele>1221</ele>
        <time>2017-12-18T18:06:57Z</time>
      </trkpt>
      <trkpt lat="44.86592" lon="5.91216">
        <ele>1221</ele>
        <time>2017-12-18T18:07:09Z</time>
      </trkpt>
      <trkpt lat="44.86589" lon="5.91232">
        <ele>1218</ele>
        <time>2017-12-18T18:07:20Z</time>
      </trkpt>
      <trkpt lat="44.86588" lon="5.91247">
        <ele>1213</ele>
        <time>2017-12-18T18:07:31Z</time>
      </trkpt>
      <trkpt lat="44.86594" lon="5.91274">
        <ele>1219</ele>
        <time>2017-12-18T18:07:48Z</time>
      </trkpt>
      <trkpt lat="44.86604" lon="5.91305">
        <ele>1220</ele>
        <time>2017-12-18T18:07:56Z</time>
      </trkpt>
      <trkpt lat="44.86618" lon="5.91345">
        <ele>1218</ele>
        <time>2017-12-18T18:08:08Z</time>
      </trkpt>
      <trkpt lat="44.86627" lon="5.91396">
        <ele>1218</ele>
        <time>2017-12-18T18:08:16Z</time>
      </trkpt>
      <trkpt lat="44.86633" lon="5.91424">
        <ele>1215</ele>
        <time>2017-12-18T18:08:27Z</time>
      </trkpt>
      <trkpt lat="44.86639" lon="5.9144">
        <ele>1215</ele>
        <time>2017-12-18T18:08:40Z</time>
      </trkpt>
      <trkpt lat="44.86676" lon="5.91501">
        <ele>1218</ele>
        <time>2017-12-18T18:09:00Z</time>
      </trkpt>
      <trkpt lat="44.86701" lon="5.91534">
        <ele>1222</ele>
        <time>2017-12-18T18:09:12Z</time>
      </trkpt>
      <trkpt lat="44.86742" lon="5.91569">
        <ele>1223</ele>
        <time>2017-12-18T18:09:29Z</time>
      </trkpt>
      <trkpt lat="44.86764" lon="5.9158">
        <ele>1233</ele>
        <time>2017-12-18T18:09:36Z</time>
      </trkpt>
      <trkpt lat="44.86771" lon="5.91588">
        <ele>1228</ele>
        <time>2017-12-18T18:09:48Z</time>
      </trkpt>
      <trkpt lat="44.86773" lon="5.91598">
        <ele>1229</ele>
        <time>2017-12-18T18:09:57Z</time>
      </trkpt>
      <trkpt lat="44.8677" lon="5.91607">
        <ele>1229</ele>
        <time>2017-12-18T18:10:16Z</time>
      </trkpt>
      <trkpt lat="44.86763" lon="5.91613">
        <ele>1229</ele>
        <time>2017-12-18T18:10:28Z</time>
      </trkpt>
      <trkpt lat="44.86755" lon="5.91616">
        <ele>1228</ele>
        <time>2017-12-18T18:10:41Z</time>
      </trkpt>
      <trkpt lat="44.86728" lon="5.91617">
        <ele>1223</ele>
        <time>2017-12-18T18:10:56Z</time>
      </trkpt>
      <trkpt lat="44.86688" lon="5.91613">
        <ele>1221</ele>
        <time>2017-12-18T18:11:08Z</time>
      </trkpt>
      <trkpt lat="44.86659" lon="5.91607">
        <ele>1221</ele>
        <time>2017-12-18T18:11:10Z</time>
      </trkpt>
      <trkpt lat="44.86637" lon="5.91599">
        <ele>1222</ele>
        <time>2017-12-18T18:11:20Z</time>
      </trkpt>
      <trkpt lat="44.86624" lon="5.91591">
        <ele>1223</ele>
        <time>2017-12-18T18:11:32Z</time>
      </trkpt>
      <trkpt lat="44.86592" lon="5.91558">
        <ele>1213</ele>
        <time>2017-12-18T18:11:49Z</time>
      </trkpt>
      <trkpt lat="44.86545" lon="5.91507">
        <ele>1221</ele>
        <time>2017-12-18T18:11:56Z</time>
      </trkpt>
      <trkpt lat="44.86527" lon="5.91483">
        <ele>1214</ele>
        <time>2017-12-18T18:12:00Z</time>
      </trkpt>
      <trkpt lat="44.86504" lon="5.91445">
        <ele>1211</ele>
        <time>2017-12-18T18:12:14Z</time>
      </trkpt>
      <trkpt lat="44.86478" lon="5.91394">
        <ele>1217</ele>
        <time>2017-12-18T18:12:20Z</time>
      </trkpt>
      <trkpt lat="44.86452" lon="5.91346">
        <ele>1218</ele>
        <time>2017-12-18T18:12:22Z</time>
      </trkpt>
      <trkpt lat="44.86444" lon="5.91326">
        <ele>1210</ele>
        <time>2017-12-18T18:12:35Z</time>
      </trkpt>
      <trkpt lat="44.86427" lon="5.91263">
        <ele>1208</ele>
        <time>2017-12-18T18:12:54Z</time>
      </trkpt>
      <trkpt lat="44.86419" lon="5.91243">
        <ele>1207</ele>
        <time>2017-12-18T18:12:59Z</time>
      </trkpt>
      <trkpt lat="44.8641" lon="5.91225">
        <ele>1221</ele>
        <time>2017-12-18T18:13:19Z</time>
      </trkpt>
      <trkpt lat="44.86394" lon="5.91184">
        <ele>1221</ele>
        <time>2017-12-18T18:13:31Z</time>
      </trkpt>
      <trkpt lat="44.86387" lon="5.91162">
        <ele>1214</ele>
        <time>2017-12-18T18:13:49Z</time>
      </trkpt>
      <trkpt lat="44.86349" lon="5.91065">
        <ele>1209</ele>
        <time>2017-12-18T18:13:57Z</time>
      </trkpt>
      <trkpt lat="44.86322" lon="5.91003">
        <ele>1220</ele>
        <time>2017-12-18T18:14:07Z</time>
      </trkpt>
      <trkpt lat="44.86306" lon="5.90973">
        <ele>1217</ele>
        <time>2017-12-18T18:14:25Z</time>
      </trkpt>
      <trkpt lat="44.8628" lon="5.90926">
        <ele>1220</ele>
        <time>2017-12-18T18:14:30Z</time>
      </trkpt>
      <trkpt lat="44.86256" lon="5.90856">
        <ele>1208</ele>
        <time>2017-12-18T18:14:46Z</time>
      </trkpt>
      <trkpt lat="44.86214" lon="5.90727">
        <ele>1213</ele>
        <time>2017-12-18T18:14:51Z</time>
      </trkpt>
      <trkpt lat="44.8621" lon="5.90706">
        <ele>1213</ele>
        <time>2017-12-18T18:15:00Z</time>
      </trkpt>
      <trkpt lat="44.86205" lon="5.90658">
        <ele>1200</ele>
        <time>2017-12-18T18:15:07Z</time>
      </trkpt>
      <trkpt lat="44.86202" lon="5.90645">
        <ele>1200</ele>
        <time>2017-12-18T18:15:24Z</time>
      </trkpt>
      <trkpt lat="44.86194" lon="5.90633">
        <ele>1201</ele>
        <time>2017-12-18T18:15:32Z</time>
      </trkpt>
      <trkpt lat="44.86179" lon="5.90619">
        <ele>1201</ele>
        <time>2017-12-18T18:15:38Z</time>
      </trkpt>
      <trkpt lat="44.86167" lon="5.906">
        <ele>1202</ele>
        <time>2017-12-18T18:15:55Z</time>
      </trkpt>
      <trkpt lat="44.86146" lon="5.90565">
        <ele>1209</ele>
        <time>2017-12-18T18:16:05Z</time>
      </trkpt>
      <trkpt lat="44.86129" lon="5.90546">
        <ele>1210</ele>
        <time>2017-12-18T18:16:14Z</time>
      </trkpt>
      <trkpt lat="44.86117" lon="5.90524">
        <ele>1210</ele>
        <time>2017-12-18T18:16:24Z</time>
      </trkpt>
      <trkpt lat="44.86113" lon="5.90507">
        <ele>1211</ele>
        <time>2017-12-18T18:16:39Z</time>
      </trkpt>
      <trkpt lat="44.86113" lon="5.90477">
        <ele>1201</ele>
        <time>2017-12-18T18:16:59Z</time>
      </trkpt>
      <trkpt lat="44.86113" lon="5.90439">
        <ele>1198</ele>
        <time>2017-12-18T18:17:13Z</time>
      </trkpt>
      <trkpt lat="44.86109" lon="5.9041">
        <ele>1192</ele>
        <time>2017-12-18T18:17:21Z</time>
      </trkpt>
      <trkpt lat="44.86104" lon="5.90391">
        <ele>1191</ele>
        <time>2017-12-18T18:17:41Z</time>
      </trkpt>
      <trkpt lat="44.86081" lon="5.9033">
        <ele>1191</ele>
        <time>2017-12-18T18:17:48Z</time>
      </trkpt>
      <trkpt lat="44.86072" lon="5.90318">
        <ele>1187</ele>
        <time>2017-12-18T18:17:53Z</time>
      </trkpt>
      <trkpt lat="44.86061" lon="5.90311">
        <ele>1184</ele>
        <time>2017-12-18T18:18:00Z</time>
      </trkpt>
      <trkpt lat="44.86049" lon="5.9031">
        <ele>1183</ele>
        <time>2017-12-18T18:18:05Z</time>
      </trkpt>
      <trkpt lat="44.86035" lon="5.90316">
        <ele>1183</ele>
        <time>2017-12-18T18:18:20Z</time>
      </trkpt>
      <trkpt lat="44.85993" lon="5.90351">
        <ele>1193</ele>
        <time>2017-12-18T18:18:28Z</time>
      </trkpt>
      <trkpt lat="44.8598" lon="5.90359">
        <ele>1194</ele>
        <time>2017-12-18T18:18:42Z</time>
      </trkpt>
      <trkpt lat="44.85943" lon="5.90372">
        <ele>1194</ele>
        <time>2017-12-18T18:19:01Z</time>
      </trkpt>
      <trkpt lat="44.85864" lon="5.90404">
        <ele>1194</ele>
        <time>2017-12-18T18:19:21Z</time>
      </trkpt>
      <trkpt lat="44.8577" lon="5.90437">
        <ele>1201</ele>
        <time>2017-12-18T18:19:24Z</time>
      </trkpt>
      <trkpt lat="44.85725" lon="5.90449">
        <ele>1203</ele>
        <time>2017-12-18T18:19:40Z</time>
      </trkpt>
      <trkpt lat="44.85682" lon="5.90455">
        <ele>1204</ele>
        <time>2017-12-18T18:19:57Z</time>
      </trkpt>
      <trkpt lat="44.85643" lon="5.9046">
        <ele>1207</ele>
        <time>2017-12-18T18:20:03Z</time>
      </trkpt>
      <trkpt lat="44.85605" lon="5.90468">
        <ele>1209</ele>
        <time>2017-12-18T18:20:09Z</time>
      </trkpt>
      <trkpt lat="44.85578" lon="5.90471">
        <ele>1211</ele>
        <time>2017-12-18T18:20:29Z</time>
      </trkpt>
      <trkpt lat="44.85566" lon="5.90469">
        <ele>1211</ele>
        <time>2017-12-18T18:20:41Z</time>
      </trkpt>
      <trkpt lat="44.85552" lon="5.90463">
        <ele>1211</ele>
        <time>2017-12-18T18:20:45Z</time>
      </trkpt>
      <trkpt lat="44.85537" lon="5.90463">
        <ele>1212</ele>
        <time>2017-12-18T18:21:03Z</time>
      </trkpt>
      <trkpt lat="44.85521" lon="5.9047">
        <ele>1212</ele>
        <time>2017-12-18T18:21:19Z</time>
      </trkpt>
      <trkpt lat="44.85501" lon="5.90492">
        <ele>1211</ele>
        <time>2017-12-18T18:21:21Z</time>
      </trkpt>
      <trkpt lat="44.85488" lon="5.90511">
        <ele>1209</ele>
        <time>2017-12-18T18:21:40Z</time>
      </trkpt>
      <trkpt lat="44.85469" lon="5.90546">
        <ele>1207</ele>
        <time>2017-12-18T18:21:49Z</time>
      </trkpt>
      <trkpt lat="44.85429" lon="5.90623">
        <ele>1203</ele>
        <time>2017-12-18T18:21:55Z</time>
      </trkpt>
      <trkpt lat="44.85415" lon="5.90639">
        <ele>1200</ele>
        <time>2017-12-18T18:22:04Z</time>
      </trkpt>
      <trkpt lat="44.85394" lon="5.90653">
        <ele>1199</ele>
        <time>2017-12-18T18:22:06Z</time>
      </trkpt>
      <trkpt lat="44.85315" lon="5.90692">
        <ele>1192</ele>
        <time>2017-12-18T18:22:10Z</time>
      </trkpt>
      <trkpt lat="44.8529" lon="5.90711">
        <ele>1191</ele>
        <time>2017-12-18T18:22:15Z</time>
      </trkpt>
      <trkpt lat="44.8526" lon="5.90742">
        <ele>1187</ele>
        <time>2017-12-18T18:22:26Z</time>
      </trkpt>
      <trkpt lat="44.85256" lon="5.90761">
        <ele>1185</ele>
        <time>2017-12-18T18:22:28Z</time>
      </trkpt>
      <trkpt lat="44.85256" lon="5.90808">
        <ele>1183</ele>
        <time>2017-12-18T18:22:39Z</time>
      </trkpt>
      <trkpt lat="44.85256" lon="5.90842">
        <ele>1181</ele>
        <time>2017-12-18T18:22:45Z</time>
      </trkpt>
      <trkpt lat="44.85254" lon="5.90852">
        <ele>1183</ele>
        <time>2017-12-18T18:23:00Z</time>
      </trkpt>
      <trkpt lat="44.85242" lon="5.90879">
        <ele>1174</ele>
        <time>2017-12-18T18:23:17Z</time>
      </trkpt>
      <trkpt lat="44.85207" lon="5.90945">
        <ele>1172</ele>
        <time>2017-12-18T18:23:28Z</time>
      </trkpt>
      <trkpt lat="44.85164" lon="5.91052">
        <ele>1159</ele>
        <time>2017-12-18T18:23:45Z</time>
      </trkpt>
      <trkpt lat="44.85136" lon="5.91125">
        <ele>1159</ele>
        <time>2017-12-18T18:23:52Z</time>
      </trkpt>
      <trkpt lat="44.85131" lon="5.91132">
        <ele>1159</ele>
        <time>2017-12-18T18:24:02Z</time>
      </trkpt>
      <trkpt lat="44.85126" lon="5.91132">
        <ele>1158</ele>
        <time>2017-12-18T18:24:12Z</time>
      </trkpt>
      <trkpt lat="44.85123" lon="5.91129">
        <ele>1158</ele>
        <time>2017-12-18T18:24:28Z</time>
      </trkpt>
      <trkpt lat="44.85124" lon="5.9111">
        <ele>1157</ele>
        <time>2017-12-18T18:24:35Z</time>
      </trkpt>
      <trkpt lat="44.85124" lon="5.91071">
        <ele>1155</ele>
        <time>2017-12-18T18:24:52Z</time>
      </trkpt>
      <trkpt lat="44.85121" lon="5.91033">
        <ele>1155</ele>
        <time>2017-12-18T18:25:10Z</time>
      </trkpt>
      <trkpt lat="44.85118" lon="5.91024">
        <ele>1155</ele>
        <time>2017-12-18T18:25:21Z</time>
      </trkpt>
      <trkpt lat="44.85114" lon="5.9102">
        <ele>1154</ele>
        <time>2017-12-18T18:25:39Z</time>
      </trkpt>
      <trkpt lat="44.851" lon="5.91016">
        <ele>1153</ele>
        <time>2017-12-18T18:25:59Z</time>
      </trkpt>
      <trkpt lat="44.85088" lon="5.91032">
        <ele>1153</ele>
        <time>2017-12-18T18:26:06Z</time>
      </trkpt>
      <trkpt lat="44.85074" lon="5.91049">
        <ele>1148</ele>
        <time>2017-12-18T18:26:11Z</time>
      </trkpt>
      <trkpt lat="44.85049" lon="5.91072">
        <ele>1147</ele>
        <time>2017-12-18T18:26:20Z</time>
      </trkpt>
      <trkpt lat="44.84998" lon="5.91123">
        <ele>1137</ele>
        <time>2017-12-18T18:26:33Z</time>
      </trkpt>
      <trkpt lat="44.84989" lon="5.91128">
        <ele>1136</ele>
        <time>2017-12-18T18:26:41Z</time>
      </trkpt>
      <trkpt lat="44.84975" lon="5.91151">
        <ele>1135</ele>
        <time>2017-12-18T18:27:01Z</time>
      </trkpt>
      <trkpt lat="44.84963" lon="5.9118">
        <ele>1133</ele>
        <time>2017-12-18T18:27:13Z</time>
      </trkpt>
      <trkpt lat="44.84945" lon="5.91226">
        <ele>1132</ele>
        <time>2017-12-18T18:27:15Z</time>
      </trkpt>
      <trkpt lat="44.84934" lon="5.91259">
        <ele>1135</ele>
        <time>2017-12-18T18:27:33Z</time>
      </trkpt>
      <trkpt lat="44.84927" lon="5.91286">
        <ele>1138</ele>
        <time>2017-12-18T18:27:53Z</time>
      </trkpt>
      <trkpt lat="44.8492" lon="5.91297">
        <ele>1139</ele>
        <time>2017-12-18T18:28:02Z</time>
      </trkpt>
      <trkpt lat="44.84912" lon="5.91303">
        <ele>1138</ele>
        <time>2017-12-18T18:28:21Z</time>
      </trkpt>
      <trkpt lat="44.84901" lon="5.91301">
        <ele>1137</ele>
        <time>2017-12-18T18:28:32Z</time>
      </trkpt>
      <trkpt lat="44.84869" lon="5.91282">
        <ele>1135</ele>
        <time>2017-12-18T18:28:52Z</time>
      </trkpt>
      <trkpt lat="44.84858" lon="5.9128">
        <ele>1135</ele>
        <time>2017-12-18T18:29:09Z</time>
      </trkpt>
      <trkpt lat="44.84819" lon="5.91278">
        <ele>1132</ele>
        <time>2017-12-18T18:29:18Z</time>
      </trkpt>
      <trkpt lat="44.84791" lon="5.91281">
        <ele>1131</ele>
        <time>2017-12-18T18:29:20Z</time>
      </trkpt>
      <trkpt lat="44.84761" lon="5.9129">
        <ele>1131</ele>
        <time>2017-12-18T18:29:34Z</time>
      </trkpt>
      <trkpt lat="44.84738" lon="5.91303">
        <ele>1124</ele>
        <time>2017-12-18T18:29:48Z</time>
      </trkpt>
      <trkpt lat="44.84703" lon="5.9133">
        <ele>1120</ele>
        <time>2017-12-18T18:30:02Z</time>
      </trkpt>
      <trkpt lat="44.8467" lon="5.91364">
        <ele>1135</ele>
        <time>2017-12-18T18:30:09Z</time>
      </trkpt>
      <trkpt lat="44.84636" lon="5.91405">
        <ele>1122</ele>
        <time>2017-12-18T18:30:24Z</time>
      </trkpt>
      <trkpt lat="44.84601" lon="5.91463">
        <ele>1134</ele>
        <time>2017-12-18T18:30:32Z</time>
      </trkpt>
      <trkpt lat="44.84588" lon="5.91499">
        <ele>1132</ele>
        <time>2017-12-18T18:30:39Z</time>
      </trkpt>
      <trkpt lat="44.84582" lon="5.91507">
        <ele>1131</ele>
        <time>2017-12-18T18:30:59Z</time>
      </trkpt>
      <trkpt lat="44.84571" lon="5.91517">
        <ele>1132</ele>
        <time>2017-12-18T18:31:12Z</time>
      </trkpt>
      <trkpt lat="44.84548" lon="5.91525">
        <ele>1130</ele>
        <time>2017-12-18T18:31:22Z</time>
      </trkpt>
      <trkpt lat="44.84523" lon="5.9154">
        <ele>1129</ele>
        <time>2017-12-18T18:31:24Z</time>
      </trkpt>
      <trkpt lat="44.84441" lon="5.91608">
        <ele>1134</ele>
        <time>2017-12-18T18:31:28Z</time>
      </trkpt>
      <trkpt lat="44.84393" lon="5.91642">
        <ele>1125</ele>
        <time>2017-12-18T18:31:36Z</time>
      </trkpt>
      <trkpt lat="44.84358" lon="5.91659">
        <ele>1123</ele>
        <time>2017-12-18T18:31:40Z</time>
      </trkpt>
      <trkpt lat="44.84325" lon="5.91665">
        <ele>1123</ele>
        <time>2017-12-18T18:31:42Z</time>
      </trkpt>
      <trkpt lat="44.84294" lon="5.91663">
        <ele>1115</ele>
        <time>2017-12-18T18:31:46Z</time>
      </trkpt>
      <trkpt lat="44.84268" lon="5.91655">
        <ele>1116</ele>
        <time>2017-12-18T18:31:53Z</time>
      </trkpt>
      <trkpt lat="44.84253" lon="5.91648">
        <ele>1116</ele>
        <time>2017-12-18T18:31:59Z</time>
      </trkpt>
      <trkpt lat="44.84227" lon="5.91633">
        <ele>1105</ele>
        <time>2017-12-18T18:32:03Z</time>
      </trkpt>
      <trkpt lat="44.8422" lon="5.9163">
        <ele>1104</ele>
        <time>2017-12-18T18:32:07Z</time>
      </trkpt>
      <trkpt lat="44.84211" lon="5.91629">
        <ele>1103</ele>
        <time>2017-12-18T18:32:22Z</time>
      </trkpt>
      <trkpt lat="44.84196" lon="5.91638">
        <ele>1104</ele>
        <time>2017-12-18T18:32:25Z</time>
      </trkpt>
      <trkpt lat="44.84187" lon="5.91653">
        <ele>1106</ele>
        <time>2017-12-18T18:32:38Z</time>
      </trkpt>
      <trkpt lat="44.84185" lon="5.91666">
        <ele>1107</ele>
        <time>2017-12-18T18:32:54Z</time>
      </trkpt>
      <trkpt lat="44.8419" lon="5.91695">
        <ele>1120</ele>
        <time>2017-12-18T18:33:08Z</time>
      </trkpt>
      <trkpt lat="44.84199" lon="5.91729">
        <ele>1122</ele>
        <time>2017-12-18T18:33:13Z</time>
      </trkpt>
      <trkpt lat="44.842" lon="5.9176">
        <ele>1126</ele>
        <time>2017-12-18T18:33:22Z</time>
      </trkpt>
      <trkpt lat="44.84195" lon="5.91838">
        <ele>1124</ele>
        <time>2017-12-18T18:33:30Z</time>
      </trkpt>
      <trkpt lat="44.84182" lon="5.91889">
        <ele>1123</ele>
        <time>2017-12-18T18:33:38Z</time>
      </trkpt>
      <trkpt lat="44.84167" lon="5.9194">
        <ele>1119</ele>
        <time>2017-12-18T18:33:41Z</time>
      </trkpt>
      <trkpt lat="44.84163" lon="5.91957">
        <ele>1098</ele>
        <time>2017-12-18T18:33:49Z</time>
      </trkpt>
      <trkpt lat="44.84162" lon="5.91974">
        <ele>1098</ele>
        <time>2017-12-18T18:33:58Z</time>
      </trkpt>
      <trkpt lat="44.84166" lon="5.91991">
        <ele>1102</ele>
        <time>2017-12-18T18:34:13Z</time>
      </trkpt>
      <trkpt lat="44.84173" lon="5.92008">
        <ele>1107</ele>
        <time>2017-12-18T18:34:29Z</time>
      </trkpt>
      <trkpt lat="44.84188" lon="5.92029">
        <ele>1107</ele>
        <time>2017-12-18T18:34:47Z</time>
      </trkpt>
      <trkpt lat="44.84202" lon="5.92044">
        <ele>1106</ele>
        <time>2017-12-18T18:34:50Z</time>
      </trkpt>
      <trkpt lat="44.84214" lon="5.92053">
        <ele>1107</ele>
        <time>2017-12-18T18:34:59Z</time>
      </trkpt>
      <trkpt lat="44.84238" lon="5.92066">
        <ele>1109</ele>
        <time>2017-12-18T18:35:17Z</time>
      </trkpt>
      <trkpt lat="44.84254" lon="5.92075">
        <ele>1117</ele>
        <time>2017-12-18T18:35:22Z</time>
      </trkpt>
      <trkpt lat="44.84283" lon="5.92098">
        <ele>1111</ele>
        <time>2017-12-18T18:35:35Z</time>
      </trkpt>
      <trkpt lat="44.84297" lon="5.92112">
        <ele>1112</ele>
        <time>2017-12-18T18:35:45Z</time>
      </trkpt>
      <trkpt lat="44.84308" lon="5.92128">
        <ele>1111</ele>
        <time>2017-12-18T18:36:05Z</time>
      </trkpt>
      <trkpt lat="44.84318" lon="5.92147">
        <ele>1110</ele>
        <time>2017-12-18T18:36:09Z</time>
      </trkpt>
      <trkpt lat="44.84341" lon="5.92205">
        <ele>1121</ele>
        <time>2017-12-18T18:36:14Z</time>
      </trkpt>
      <trkpt lat="44.84345" lon="5.92219">
        <ele>1121</ele>
        <time>2017-12-18T18:36:19Z</time>
      </trkpt>
      <trkpt lat="44.84346" lon="5.92231">
        <ele>1119</ele>
        <time>2017-12-18T18:36:27Z</time>
      </trkpt>
      <trkpt lat="44.84342" lon="5.92241">
        <ele>1115</ele>
        <time>2017-12-18T18:36:31Z</time>
      </trkpt>
      <trkpt lat="44.84338" lon="5.92246">
        <ele>1112</ele>
        <time>2017-12-18T18:36:44Z</time>
      </trkpt>
      <trkpt lat="44.84329" lon="5.92246">
        <ele>1106</ele>
        <time>2017-12-18T18:36:47Z</time>
      </trkpt>
      <trkpt lat="44.84323" lon="5.92241">
        <ele>1105</ele>
        <time>2017-12-18T18:36:50Z</time>
      </trkpt>
      <trkpt lat="44.84308" lon="5.92223">
        <ele>1101</ele>
        <time>2017-12-18T18:36:55Z</time>
      </trkpt>
      <trkpt lat="44.84296" lon="5.92214">
        <ele>1100</ele>
        <time>2017-12-18T18:37:00Z</time>
      </trkpt>
      <trkpt lat="44.84286" lon="5.92211">
        <ele>1098</ele>
        <time>2017-12-18T18:37:12Z</time>
      </trkpt>
      <trkpt lat="44.84275" lon="5.92213">
        <ele>1097</ele>
        <time>2017-12-18T18:37:20Z</time>
      </trkpt>
      <trkpt lat="44.84258" lon="5.92222">
        <ele>1097</ele>
        <time>2017-12-18T18:37:25Z</time>
      </trkpt>
      <trkpt lat="44.84227" lon="5.92244">
        <ele>1085</ele>
        <time>2017-12-18T18:37:40Z</time>
      </trkpt>
      <trkpt lat="44.84199" lon="5.92268">
        <ele>1093</ele>
        <time>2017-12-18T18:37:54Z</time>
      </trkpt>
      <trkpt lat="44.84182" lon="5.92281">
        <ele>1092</ele>
        <time>2017-12-18T18:38:05Z</time>
      </trkpt>
      <trkpt lat="44.84171" lon="5.92292">
        <ele>1093</ele>
        <time>2017-12-18T18:38:14Z</time>
      </trkpt>
      <trkpt lat="44.84159" lon="5.92286">
        <ele>1085</ele>
        <time>2017-12-18T18:38:34Z</time>
      </trkpt>
      <trkpt lat="44.84154" lon="5.92285">
        <ele>1085</ele>
        <time>2017-12-18T18:38:40Z</time>
      </trkpt>
      <trkpt lat="44.84146" lon="5.92287">
        <ele>1085</ele>
        <time>2017-12-18T18:38:45Z</time>
      </trkpt>
      <trkpt lat="44.84109" lon="5.9231">
        <ele>1086</ele>
        <time>2017-12-18T18:38:52Z</time>
      </trkpt>
      <trkpt lat="44.84101" lon="5.92316">
        <ele>1086</ele>
        <time>2017-12-18T18:38:58Z</time>
      </trkpt>
      <trkpt lat="44.84138" lon="5.92291">
        <ele>1085</ele>
        <time>2017-12-18T18:39:06Z</time>
      </trkpt>
      <trkpt lat="44.84154" lon="5.92285">
        <ele>1085</ele>
        <time>2017-12-18T18:39:13Z</time>
      </trkpt>
      <trkpt lat="44.84159" lon="5.92286">
        <ele>1085</ele>
        <time>2017-12-18T18:39:33Z</time>
      </trkpt>
      <trkpt lat="44.84171" lon="5.92292">
        <ele>1093</ele>
        <time>2017-12-18T18:39:41Z</time>
      </trkpt>
      <trkpt lat="44.84158" lon="5.92311">
        <ele>1090</ele>
        <time>2017-12-18T18:39:52Z</time>
      </trkpt>
      <trkpt lat="44.84149" lon="5.92324">
        <ele>1091</ele>
        <time>2017-12-18T18:40:05Z</time>
      </trkpt>
      <trkpt lat="44.84133" lon="5.9234">
        <ele>1099</ele>
        <time>2017-12-18T18:40:19Z</time>
      </trkpt>
      <trkpt lat="44.84098" lon="5.92362">
        <ele>1098</ele>
        <time>2017-12-18T18:40:39Z</time>
      </trkpt>
      <trkpt lat="44.84084" lon="5.9237">
        <ele>1099</ele>
        <time>2017-12-18T18:40:49Z</time>
      </trkpt>
      <trkpt lat="44.84068" lon="5.92374">
        <ele>1093</ele>
        <time>2017-12-18T18:40:59Z</time>
      </trkpt>
      <trkpt lat="44.84057" lon="5.92376">
        <ele>1093</ele>
        <time>2017-12-18T18:41:18Z</time>
      </trkpt>
      <trkpt lat="44.84022" lon="5.92391">
        <ele>1092</ele>
        <time>2017-12-18T18:41:25Z</time>
      </trkpt>
      <trkpt lat="44.83997" lon="5.92401">
        <ele>1087</ele>
        <time>2017-12-18T18:41:45Z</time>
      </trkpt>
      <trkpt lat="44.8398" lon="5.92404">
        <ele>1085</ele>
        <time>2017-12-18T18:41:48Z</time>
      </trkpt>
      <trkpt lat="44.83958" lon="5.92411">
        <ele>1081</ele>
        <time>2017-12-18T18:42:07Z</time>
      </trkpt>
      <trkpt lat="44.83931" lon="5.92423">
        <ele>1087</ele>
        <time>2017-12-18T18:42:21Z</time>
      </trkpt>
      <trkpt lat="44.83866" lon="5.92449">
        <ele>1081</ele>
        <time>2017-12-18T18:42:23Z</time>
      </trkpt>
      <trkpt lat="44.83838" lon="5.9246">
        <ele>1081</ele>
        <time>2017-12-18T18:42:40Z</time>
      </trkpt>
      <trkpt lat="44.83819" lon="5.92465">
        <ele>1076</ele>
        <time>2017-12-18T18:42:59Z</time>
      </trkpt>
      <trkpt lat="44.83805" lon="5.92466">
        <ele>1075</ele>
        <time>2017-12-18T18:43:15Z</time>
      </trkpt>
      <trkpt lat="44.83787" lon="5.92464">
        <ele>1074</ele>
        <time>2017-12-18T18:43:34Z</time>
      </trkpt>
      <trkpt lat="44.83764" lon="5.92459">
        <ele>1073</ele>
        <time>2017-12-18T18:43:36Z</time>
      </trkpt>
      <trkpt lat="44.8374" lon="5.92458">
        <ele>1067</ele>
        <time>2017-12-18T18:43:45Z</time>
      </trkpt>
      <trkpt lat="44.83705" lon="5.92464">
        <ele>1067</ele>
        <time>2017-12-18T18:43:55Z</time>
      </trkpt>
      <trkpt lat="44.83644" lon="5.9248">
        <ele>1059</ele>
        <time>2017-12-18T18:44:05Z</time>
      </trkpt>
      <trkpt lat="44.83616" lon="5.92491">
        <ele>1056</ele>
        <time>2017-12-18T18:44:22Z</time>
      </trkpt>
      <trkpt lat="44.83588" lon="5.92506">
        <ele>1061</ele>
        <time>2017-12-18T18:44:26Z</time>
      </trkpt>
      <trkpt lat="44.83577" lon="5.92517">
        <ele>1055</ele>
        <time>2017-12-18T18:44:28Z</time>
      </trkpt>
      <trkpt lat="44.83569" lon="5.92529">
        <ele>1055</ele>
        <time>2017-12-18T18:44:34Z</time>
      </trkpt>
      <trkpt lat="44.83559" lon="5.92559">
        <ele>1058</ele>
        <time>2017-12-18T18:44:45Z</time>
      </trkpt>
      <trkpt lat="44.83547" lon="5.92585">
        <ele>1068</ele>
        <time>2017-12-18T18:45:01Z</time>
      </trkpt>
      <trkpt lat="44.8354" lon="5.92594">
        <ele>1067</ele>
        <time>2017-12-18T18:45:11Z</time>
      </trkpt>
      <trkpt lat="44.83533" lon="5.92598">
        <ele>1067</ele>
        <time>2017-12-18T18:45:28Z</time>
      </trkpt>
      <trkpt lat="44.83525" lon="5.926">
        <ele>1065</ele>
        <time>2017-12-18T18:45:34Z</time>
      </trkpt>
      <trkpt lat="44.83514" lon="5.92596">
        <ele>1062</ele>
        <time>2017-12-18T18:45:37Z</time>
      </trkpt>
      <trkpt lat="44.83487" lon="5.92575">
        <ele>1045</ele>
        <time>2017-12-18T18:45:53Z</time>
      </trkpt>
      <trkpt lat="44.83474" lon="5.9257">
        <ele>1042</ele>
        <time>2017-12-18T18:46:02Z</time>
      </trkpt>
      <trkpt lat="44.83461" lon="5.92569">
        <ele>1040</ele>
        <time>2017-12-18T18:46:20Z</time>
      </trkpt>
      <trkpt lat="44.83446" lon="5.92573">
        <ele>1040</ele>
        <time>2017-12-18T18:46:31Z</time>
      </trkpt>
      <trkpt lat="44.83431" lon="5.92579">
        <ele>1040</ele>
        <time>2017-12-18T18:46:38Z</time>
      </trkpt>
      <trkpt lat="44.83406" lon="5.92597">
        <ele>1040</ele>
        <time>2017-12-18T18:46:49Z</time>
      </trkpt>
      <trkpt lat="44.83395" lon="5.92608">
        <ele>1040</ele>
        <time>2017-12-18T18:46:58Z</time>
      </trkpt>
      <trkpt lat="44.83363" lon="5.9265">
        <ele>1039</ele>
        <time>2017-12-18T18:47:03Z</time>
      </trkpt>
      <trkpt lat="44.83328" lon="5.92696">
        <ele>1031</ele>
        <time>2017-12-18T18:47:14Z</time>
      </trkpt>
      <trkpt lat="44.83298" lon="5.92743">
        <ele>1031</ele>
        <time>2017-12-18T18:47:26Z</time>
      </trkpt>
      <trkpt lat="44.83259" lon="5.92816">
        <ele>1032</ele>
        <time>2017-12-18T18:47:38Z</time>
      </trkpt>
      <trkpt lat="44.83235" lon="5.92886">
        <ele>1017</ele>
        <time>2017-12-18T18:47:49Z</time>
      </trkpt>
      <trkpt lat="44.83231" lon="5.92907">
        <ele>1019</ele>
        <time>2017-12-18T18:47:58Z</time>
      </trkpt>
      <trkpt lat="44.8323" lon="5.92951">
        <ele>1016</ele>
        <time>2017-12-18T18:48:13Z</time>
      </trkpt>
      <trkpt lat="44.83232" lon="5.92974">
        <ele>1015</ele>
        <time>2017-12-18T18:48:15Z</time>
      </trkpt>
      <trkpt lat="44.83237" lon="5.92996">
        <ele>1019</ele>
        <time>2017-12-18T18:48:20Z</time>
      </trkpt>
      <trkpt lat="44.8326" lon="5.9306">
        <ele>1023</ele>
        <time>2017-12-18T18:48:28Z</time>
      </trkpt>
      <trkpt lat="44.8327" lon="5.93081">
        <ele>1022</ele>
        <time>2017-12-18T18:48:30Z</time>
      </trkpt>
      <trkpt lat="44.83284" lon="5.93104">
        <ele>1017</ele>
        <time>2017-12-18T18:48:34Z</time>
      </trkpt>
      <trkpt lat="44.83301" lon="5.93126">
        <ele>1019</ele>
        <time>2017-12-18T18:48:47Z</time>
      </trkpt>
      <trkpt lat="44.8331" lon="5.93141">
        <ele>1019</ele>
        <time>2017-12-18T18:48:51Z</time>
      </trkpt>
      <trkpt lat="44.83318" lon="5.9316">
        <ele>1021</ele>
        <time>2017-12-18T18:49:08Z</time>
      </trkpt>
      <trkpt lat="44.83326" lon="5.9319">
        <ele>1014</ele>
        <time>2017-12-18T18:49:26Z</time>
      </trkpt>
      <trkpt lat="44.83329" lon="5.93211">
        <ele>1011</ele>
        <time>2017-12-18T18:49:30Z</time>
      </trkpt>
      <trkpt lat="44.83329" lon="5.93253">
        <ele>1015</ele>
        <time>2017-12-18T18:49:47Z</time>
      </trkpt>
      <trkpt lat="44.83323" lon="5.93319">
        <ele>1007</ele>
        <time>2017-12-18T18:49:52Z</time>
      </trkpt>
      <trkpt lat="44.83327" lon="5.93354">
        <ele>1004</ele>
        <time>2017-12-18T18:50:01Z</time>
      </trkpt>
      <trkpt lat="44.83338" lon="5.93389">
        <ele>1017</ele>
        <time>2017-12-18T18:50:05Z</time>
      </trkpt>
      <trkpt lat="44.83358" lon="5.93433">
        <ele>1018</ele>
        <time>2017-12-18T18:50:18Z</time>
      </trkpt>
      <trkpt lat="44.83364" lon="5.93457">
        <ele>1020</ele>
        <time>2017-12-18T18:50:31Z</time>
      </trkpt>
      <trkpt lat="44.83363" lon="5.93472">
        <ele>1020</ele>
        <time>2017-12-18T18:50:38Z</time>
      </trkpt>
      <trkpt lat="44.83361" lon="5.93484">
        <ele>1019</ele>
        <time>2017-12-18T18:50:50Z</time>
      </trkpt>
      <trkpt lat="44.83357" lon="5.93492">
        <ele>1018</ele>
        <time>2017-12-18T18:50:52Z</time>
      </trkpt>
      <trkpt lat="44.83338" lon="5.93524">
        <ele>1021</ele>
        <time>2017-12-18T18:51:07Z</time>
      </trkpt>
      <trkpt lat="44.8329" lon="5.93591">
        <ele>1011</ele>
        <time>2017-12-18T18:51:23Z</time>
      </trkpt>
      <trkpt lat="44.8327" lon="5.93626">
        <ele>1011</ele>
        <time>2017-12-18T18:51:40Z</time>
      </trkpt>
      <trkpt lat="44.83248" lon="5.93672">
        <ele>1003</ele>
        <time>2017-12-18T18:51:49Z</time>
      </trkpt>
      <trkpt lat="44.83243" lon="5.93689">
        <ele>1000</ele>
        <time>2017-12-18T18:52:06Z</time>
      </trkpt>
      <trkpt lat="44.83242" lon="5.93707">
        <ele>1000</ele>
        <time>2017-12-18T18:52:24Z</time>
      </trkpt>
      <trkpt lat="44.83243" lon="5.93726">
        <ele>1002</ele>
        <time>2017-12-18T18:52:39Z</time>
      </trkpt>
      <trkpt lat="44.83252" lon="5.93769">
        <ele>1013</ele>
        <time>2017-12-18T18:52:58Z</time>
      </trkpt>
      <trkpt lat="44.83259" lon="5.93805">
        <ele>1011</ele>
        <time>2017-12-18T18:53:15Z</time>
      </trkpt>
      <trkpt lat="44.83265" lon="5.93821">
        <ele>1009</ele>
        <time>2017-12-18T18:53:17Z</time>
      </trkpt>
      <trkpt lat="44.83275" lon="5.93835">
        <ele>1001</ele>
        <time>2017-12-18T18:53:35Z</time>
      </trkpt>
      <trkpt lat="44.83286" lon="5.93844">
        <ele>1002</ele>
        <time>2017-12-18T18:53:53Z</time>
      </trkpt>
      <trkpt lat="44.83301" lon="5.93851">
        <ele>1004</ele>
        <time>2017-12-18T18:53:57Z</time>
      </trkpt>
      <trkpt lat="44.8333" lon="5.9387">
        <ele>1004</ele>
        <time>2017-12-18T18:54:00Z</time>
      </trkpt>
      <trkpt lat="44.83374" lon="5.93903">
        <ele>1017</ele>
        <time>2017-12-18T18:54:18Z</time>
      </trkpt>
      <trkpt lat="44.83405" lon="5.9393">
        <ele>1014</ele>
        <time>2017-12-18T18:54:36Z</time>
      </trkpt>
      <trkpt lat="44.83408" lon="5.93935">
        <ele>1013</ele>
        <time>2017-12-18T18:54:50Z</time>
      </trkpt>
      <trkpt lat="44.83411" lon="5.93947">
        <ele>1011</ele>
        <time>2017-12-18T18:54:54Z</time>
      </trkpt>
      <trkpt lat="44.83409" lon="5.93957">
        <ele>1009</ele>
        <time>2017-12-18T18:55:06Z</time>
      </trkpt>
      <trkpt lat="44.83403" lon="5.93964">
        <ele>1008</ele>
        <time>2017-12-18T18:55:20Z</time>
      </trkpt>
      <trkpt lat="44.83389" lon="5.93969">
        <ele>1007</ele>
        <time>2017-12-18T18:55:23Z</time>
      </trkpt>
      <trkpt lat="44.83379" lon="5.93971">
        <ele>1006</ele>
        <time>2017-12-18T18:55:27Z</time>
      </trkpt>
      <trkpt lat="44.8337" lon="5.93978">
        <ele>1005</ele>
        <time>2017-12-18T18:55:36Z</time>
      </trkpt>
      <trkpt lat="44.83346" lon="5.94014">
        <ele>1002</ele>
        <time>2017-12-18T18:55:38Z</time>
      </trkpt>
      <trkpt lat="44.83332" lon="5.94027">
        <ele>998</ele>
        <time>2017-12-18T18:55:42Z</time>
      </trkpt>
      <trkpt lat="44.83324" lon="5.94032">
        <ele>999</ele>
        <time>2017-12-18T18:55:54Z</time>
      </trkpt>
      <trkpt lat="44.83238" lon="5.9405">
        <ele>997</ele>
        <time>2017-12-18T18:56:13Z</time>
      </trkpt>
      <trkpt lat="44.83181" lon="5.94071">
        <ele>1001</ele>
        <time>2017-12-18T18:56:25Z</time>
      </trkpt>
      <trkpt lat="44.83168" lon="5.94073">
        <ele>1003</ele>
        <time>2017-12-18T18:56:38Z</time>
      </trkpt>
      <trkpt lat="44.83156" lon="5.94069">
        <ele>1007</ele>
        <time>2017-12-18T18:56:40Z</time>
      </trkpt>
      <trkpt lat="44.83135" lon="5.94048">
        <ele>1007</ele>
        <time>2017-12-18T18:56:50Z</time>
      </trkpt>
      <trkpt lat="44.83112" lon="5.94021">
        <ele>1005</ele>
        <time>2017-12-18T18:57:03Z</time>
      </trkpt>
      <trkpt lat="44.8306" lon="5.93967">
        <ele>999</ele>
        <time>2017-12-18T18:57:14Z</time>
      </trkpt>
      <trkpt lat="44.83033" lon="5.93939">
        <ele>999</ele>
        <time>2017-12-18T18:57:17Z</time>
      </trkpt>
      <trkpt lat="44.83021" lon="5.93924">
        <ele>999</ele>
        <time>2017-12-18T18:57:26Z</time>
      </trkpt>
      <trkpt lat="44.83009" lon="5.93907">
        <ele>991</ele>
        <time>2017-12-18T18:57:40Z</time>
      </trkpt>
      <trkpt lat="44.82989" lon="5.93871">
        <ele>993</ele>
        <time>2017-12-18T18:58:00Z</time>
      </trkpt>
      <trkpt lat="44.82961" lon="5.93796">
        <ele>982</ele>
        <time>2017-12-18T18:58:07Z</time>
      </trkpt>
      <trkpt lat="44.82941" lon="5.93742">
        <ele>975</ele>
        <time>2017-12-18T18:58:23Z</time>
      </trkpt>
      <trkpt lat="44.82936" lon="5.9372">
        <ele>973</ele>
        <time>2017-12-18T18:58:36Z</time>
      </trkpt>
      <trkpt lat="44.82928" lon="5.93659">
        <ele>969</ele>
        <time>2017-12-18T18:58:55Z</time>
      </trkpt>
      <trkpt lat="44.82926" lon="5.93609">
        <ele>967</ele>
        <time>2017-12-18T18:59:03Z</time>
      </trkpt>
      <trkpt lat="44.82933" lon="5.93557">
        <ele>962</ele>
        <time>2017-12-18T18:59:10Z</time>
      </trkpt>
      <trkpt lat="44.82935" lon="5.9354">
        <ele>959</ele>
        <time>2017-12-18T18:59:26Z</time>
      </trkpt>
      <trkpt lat="44.82932" lon="5.93524">
        <ele>958</ele>
        <time>2017-12-18T18:59:36Z</time>
      </trkpt>
      <trkpt lat="44.82927" lon="5.93511">
        <ele>959</ele>
        <time>2017-12-18T18:59:40Z</time>
      </trkpt>
      <trkpt lat="44.82918" lon="5.93501">
        <ele>961</ele>
        <time>2017-12-18T18:59:54Z</time>
      </trkpt>
      <trkpt lat="44.82908" lon="5.93494">
        <ele>957</ele>
        <time>2017-12-18T19:00:03Z</time>
      </trkpt>
      <trkpt lat="44.82894" lon="5.93489">
        <ele>954</ele>
        <time>2017-12-18T19:00:08Z</time>
      </trkpt>
      <trkpt lat="44.82865" lon="5.93486">
        <ele>953</ele>
        <time>2017-12-18T19:00:13Z</time>
      </trkpt>
      <trkpt lat="44.82824" lon="5.93493">
        <ele>953</ele>
        <time>2017-12-18T19:00:22Z</time>
      </trkpt>
      <trkpt lat="44.82795" lon="5.93505">
        <ele>955</ele>
        <time>2017-12-18T19:00:25Z</time>
      </trkpt>
      <trkpt lat="44.82785" lon="5.93516">
        <ele>953</ele>
        <time>2017-12-18T19:00:42Z</time>
      </trkpt>
      <trkpt lat="44.82779" lon="5.9353">
        <ele>953</ele>
        <time>2017-12-18T19:00:51Z</time>
      </trkpt>
      <trkpt lat="44.82777" lon="5.93544">
        <ele>954</ele>
        <time>2017-12-18T19:00:56Z</time>
      </trkpt>
      <trkpt lat="44.82773" lon="5.93643">
        <ele>958</ele>
        <time>2017-12-18T19:01:01Z</time>
      </trkpt>
      <trkpt lat="44.82777" lon="5.93727">
        <ele>955</ele>
        <time>2017-12-18T19:01:07Z</time>
      </trkpt>
      <trkpt lat="44.82777" lon="5.93816">
        <ele>951</ele>
        <time>2017-12-18T19:01:12Z</time>
      </trkpt>
      <trkpt lat="44.82772" lon="5.93922">
        <ele>949</ele>
        <time>2017-12-18T19:01:24Z</time>
      </trkpt>
      <trkpt lat="44.82766" lon="5.93946">
        <ele>951</ele>
        <time>2017-12-18T19:01:40Z</time>
      </trkpt>
      <trkpt lat="44.82748" lon="5.93993">
        <ele>938</ele>
        <time>2017-12-18T19:01:58Z</time>
      </trkpt>
      <trkpt lat="44.82719" lon="5.94066">
        <ele>937</ele>
        <time>2017-12-18T19:02:04Z</time>
      </trkpt>
      <trkpt lat="44.82707" lon="5.9409">
        <ele>943</ele>
        <time>2017-12-18T19:02:10Z</time>
      </trkpt>
      <trkpt lat="44.82685" lon="5.94122">
        <ele>941</ele>
        <time>2017-12-18T19:02:21Z</time>
      </trkpt>
      <trkpt lat="44.82664" lon="5.94145">
        <ele>925</ele>
        <time>2017-12-18T19:02:39Z</time>
      </trkpt>
      <trkpt lat="44.82623" lon="5.94179">
        <ele>930</ele>
        <time>2017-12-18T19:02:45Z</time>
      </trkpt>
      <trkpt lat="44.82599" lon="5.94196">
        <ele>928</ele>
        <time>2017-12-18T19:02:53Z</time>
      </trkpt>
      <trkpt lat="44.82541" lon="5.94246">
        <ele>910</ele>
        <time>2017-12-18T19:03:10Z</time>
      </trkpt>
      <trkpt lat="44.82517" lon="5.94275">
        <ele>915</ele>
        <time>2017-12-18T19:03:21Z</time>
      </trkpt>
      <trkpt lat="44.82503" lon="5.943">
        <ele>917</ele>
        <time>2017-12-18T19:03:34Z</time>
      </trkpt>
      <trkpt lat="44.82496" lon="5.94318">
        <ele>903</ele>
        <time>2017-12-18T19:03:52Z</time>
      </trkpt>
      <trkpt lat="44.82491" lon="5.94347">
        <ele>905</ele>
        <time>2017-12-18T19:04:02Z</time>
      </trkpt>
      <trkpt lat="44.82494" lon="5.94391">
        <ele>901</ele>
        <time>2017-12-18T19:04:14Z</time>
      </trkpt>
      <trkpt lat="44.82494" lon="5.94424">
        <ele>905</ele>
        <time>2017-12-18T19:04:17Z</time>
      </trkpt>
      <trkpt lat="44.82491" lon="5.94445">
        <ele>902</ele>
        <time>2017-12-18T19:04:23Z</time>
      </trkpt>
      <trkpt lat="44.82481" lon="5.94476">
        <ele>902</ele>
        <time>2017-12-18T19:04:34Z</time>
      </trkpt>
      <trkpt lat="44.82469" lon="5.94495">
        <ele>901</ele>
        <time>2017-12-18T19:04:39Z</time>
      </trkpt>
      <trkpt lat="44.82452" lon="5.94512">
        <ele>901</ele>
        <time>2017-12-18T19:04:50Z</time>
      </trkpt>
      <trkpt lat="44.82431" lon="5.9455">
        <ele>901</ele>
        <time>2017-12-18T19:05:01Z</time>
      </trkpt>
      <trkpt lat="44.82349" lon="5.94719">
        <ele>896</ele>
        <time>2017-12-18T19:05:10Z</time>
      </trkpt>
      <trkpt lat="44.82326" lon="5.94773">
        <ele>889</ele>
        <time>2017-12-18T19:05:23Z</time>
      </trkpt>
      <trkpt lat="44.82317" lon="5.94808">
        <ele>888</ele>
        <time>2017-12-18T19:05:39Z</time>
      </trkpt>
      <trkpt lat="44.82314" lon="5.94835">
        <ele>890</ele>
        <time>2017-12-18T19:05:44Z</time>
      </trkpt>
      <trkpt lat="44.82307" lon="5.94856">
        <ele>889</ele>
        <time>2017-12-18T19:06:01Z</time>
      </trkpt>
      <trkpt lat="44.82297" lon="5.9487">
        <ele>888</ele>
        <time>2017-12-18T19:06:14Z</time>
      </trkpt>
      <trkpt lat="44.82295" lon="5.94987">
        <ele>889</ele>
        <time>2017-12-18T19:06:33Z</time>
      </trkpt>
      <trkpt lat="44.82299" lon="5.95104">
        <ele>893</ele>
        <time>2017-12-18T19:06:44Z</time>
      </trkpt>
      <trkpt lat="44.82305" lon="5.95161">
        <ele>894</ele>
        <time>2017-12-18T19:07:04Z</time>
      </trkpt>
      <trkpt lat="44.82313" lon="5.95205">
        <ele>896</ele>
        <time>2017-12-18T19:07:14Z</time>
      </trkpt>
      <trkpt lat="44.82315" lon="5.95224">
        <ele>896</ele>
        <time>2017-12-18T19:07:31Z</time>
      </trkpt>
      <trkpt lat="44.82313" lon="5.95236">
        <ele>896</ele>
        <time>2017-12-18T19:07:35Z</time>
      </trkpt>
      <trkpt lat="44.8231" lon="5.95245">
        <ele>896</ele>
        <time>2017-12-18T19:07:54Z</time>
      </trkpt>
      <trkpt lat="44.82304" lon="5.95254">
        <ele>900</ele>
        <time>2017-12-18T19:08:00Z</time>
      </trkpt>
      <trkpt lat="44.82298" lon="5.95261">
        <ele>901</ele>
        <time>2017-12-18T19:08:09Z</time>
      </trkpt>
      <trkpt lat="44.82292" lon="5.95263">
        <ele>901</ele>
        <time>2017-12-18T19:08:18Z</time>
      </trkpt>
      <trkpt lat="44.82281" lon="5.95264">
        <ele>902</ele>
        <time>2017-12-18T19:08:28Z</time>
      </trkpt>
      <trkpt lat="44.82273" lon="5.9526">
        <ele>903</ele>
        <time>2017-12-18T19:08:44Z</time>
      </trkpt>
      <trkpt lat="44.82265" lon="5.9525">
        <ele>900</ele>
        <time>2017-12-18T19:08:47Z</time>
      </trkpt>
      <trkpt lat="44.82255" lon="5.95229">
        <ele>899</ele>
        <time>2017-12-18T19:08:57Z</time>
      </trkpt>
      <trkpt lat="44.82229" lon="5.95131">
        <ele>910</ele>
        <time>2017-12-18T19:09:14Z</time>
      </trkpt>
      <trkpt lat="44.82217" lon="5.95096">
        <ele>911</ele>
        <time>2017-12-18T19:09:17Z</time>
      </trkpt>
      <trkpt lat="44.82179" lon="5.95015">
        <ele>910</ele>
        <time>2017-12-18T19:09:25Z</time>
      </trkpt>
      <trkpt lat="44.82159" lon="5.94983">
        <ele>921</ele>
        <time>2017-12-18T19:09:28Z</time>
      </trkpt>
      <trkpt lat="44.82127" lon="5.94937">
        <ele>925</ele>
        <time>2017-12-18T19:09:34Z</time>
      </trkpt>
      <trkpt lat="44.82102" lon="5.94894">
        <ele>919</ele>
        <time>2017-12-18T19:09:39Z</time>
      </trkpt>
      <trkpt lat="44.82085" lon="5.94847">
        <ele>916</ele>
        <time>2017-12-18T19:09:54Z</time>
      </trkpt>
      <trkpt lat="44.82071" lon="5.94796">
        <ele>923</ele>
        <time>2017-12-18T19:10:10Z</time>
      </trkpt>
      <trkpt lat="44.82047" lon="5.94724">
        <ele>922</ele>
        <time>2017-12-18T19:10:22Z</time>
      </trkpt>
      <trkpt lat="44.82017" lon="5.94635">
        <ele>923</ele>
        <time>2017-12-18T19:10:42Z</time>
      </trkpt>
      <trkpt lat="44.82013" lon="5.94627">
        <ele>923</ele>
        <time>2017-12-18T19:11:00Z</time>
      </trkpt>
      <trkpt lat="44.82009" lon="5.94623">
        <ele>923</ele>
        <time>2017-12-18T19:11:09Z</time>
      </trkpt>
      <trkpt lat="44.81982" lon="5.94625">
        <ele>932</ele>
        <time>2017-12-18T19:11:24Z</time>
      </trkpt>
      <trkpt lat="44.81981" lon="5.94625">
        <ele>932</ele>
        <time>2017-12-18T19:11:30Z</time>
      </trkpt>
      <trkpt lat="44.81981" lon="5.94624">
        <ele>932</ele>
        <time>2017-12-18T19:11:39Z</time>
      </trkpt>
      <trkpt lat="44.81979" lon="5.94624">
        <ele>932</ele>
        <time>2017-12-18T19:11:49Z</time>
      </trkpt>
      <trkpt lat="44.81978" lon="5.94624">
        <ele>932</ele>
        <time>2017-12-18T19:11:54Z</time>
      </trkpt>
      <trkpt lat="44.81976" lon="5.94625">
        <ele>932</ele>
        <time>2017-12-18T19:11:57Z</time>
      </trkpt>
      <trkpt lat="44.81973" lon="5.9463">
        <ele>932</ele>
        <time>2017-12-18T19:12:17Z</time>
      </trkpt>
      <trkpt lat="44.81974" lon="5.94637">
        <ele>933</ele>
        <time>2017-12-18T19:12:24Z</time>
      </trkpt>
      <trkpt lat="44.81973" lon="5.94657">
        <ele>933</ele>
        <time>2017-12-18T19:12:31Z</time>
      </trkpt>
      <trkpt lat="44.81969" lon="5.9471">
        <ele>936</ele>
        <time>2017-12-18T19:12:33Z</time>
      </trkpt>
      <trkpt lat="44.8196" lon="5.94732">
        <ele>936</ele>
        <time>2017-12-18T19:12:44Z</time>
      </trkpt>
      <trkpt lat="44.81942" lon="5.9476">
        <ele>940</ele>
        <time>2017-12-18T19:13:04Z</time>
      </trkpt>
      <trkpt lat="44.81935" lon="5.94768">
        <ele>940</ele>
        <time>2017-12-18T19:13:22Z</time>
      </trkpt>
      <trkpt lat="44.81927" lon="5.94773">
        <ele>940</ele>
        <time>2017-12-18T19:13:34Z</time>
      </trkpt>
      <trkpt lat="44.81917" lon="5.94775">
        <ele>941</ele>
        <time>2017-12-18T19:13:44Z</time>
      </trkpt>
      <trkpt lat="44.81917" lon="5.94764">
        <ele>941</ele>
        <time>2017-12-18T19:13:52Z</time>
      </trkpt>
    </trkseg>
  </trk>
</gpx>